<?xml version='1.0' encoding='UTF-8'?><gpx version="1.1" creator="JPX - https://github.com/jenetics/jpx" xmlns="http://www.topografix.com/GPX/1/1"><trk><trkseg><trkpt lat="45.2829782" lon="7.6622664"><ele>269.0</ele><time>2026-04-06T12:19:41.821Z</time></trkpt><trkpt lat="45.2828993" lon="7.6622472"><ele>269.0</ele><time>2026-04-06T12:19:43.766Z</time></trkpt><trkpt lat="45.2830074" lon="7.6622432"><ele>269.0</ele><time>2026-04-06T12:21:13.818Z</time></trkpt><trkpt lat="45.283085" lon="7.6621833"><ele>269.0</ele><time>2026-04-06T12:21:30.822Z</time></trkpt><trkpt lat="45.2831017" lon="7.6620967"><ele>269.0</ele><time>2026-04-06T12:21:35.825Z</time></trkpt><trkpt lat="45.2831383" lon="7.6620167"><ele>269.0</ele><time>2026-04-06T12:21:37.822Z</time></trkpt><trkpt lat="45.283145" lon="7.6619217"><ele>269.1666666666667</ele><time>2026-04-06T12:21:39.82Z</time></trkpt><trkpt lat="45.2831233" lon="7.6618333"><ele>269.33333333333337</ele><time>2026-04-06T12:21:41.823Z</time></trkpt><trkpt lat="45.2830867" lon="7.6617517"><ele>269.5</ele><time>2026-04-06T12:21:43.827Z</time></trkpt><trkpt lat="45.2830417" lon="7.66164"><ele>269.6666666666667</ele><time>2026-04-06T12:21:46.821Z</time></trkpt><trkpt lat="45.2829967" lon="7.6615433"><ele>269.8333333333333</ele><time>2026-04-06T12:21:49.823Z</time></trkpt><trkpt lat="45.2829533" lon="7.6614583"><ele>270.0</ele><time>2026-04-06T12:21:52.823Z</time></trkpt><trkpt lat="45.2829117" lon="7.6613733"><ele>270.57142857142856</ele><time>2026-04-06T12:21:55.828Z</time></trkpt><trkpt lat="45.2828717" lon="7.6613"><ele>271.1428571428571</ele><time>2026-04-06T12:21:58.823Z</time></trkpt><trkpt lat="45.2828267" lon="7.6612233"><ele>271.7142857142857</ele><time>2026-04-06T12:22:01.82Z</time></trkpt><trkpt lat="45.2827867" lon="7.6611417"><ele>272.2857142857143</ele><time>2026-04-06T12:22:04.821Z</time></trkpt><trkpt lat="45.2828033" lon="7.661035"><ele>272.8571428571429</ele><time>2026-04-06T12:22:07.822Z</time></trkpt><trkpt lat="45.282845" lon="7.660965"><ele>273.42857142857144</ele><time>2026-04-06T12:22:09.82Z</time></trkpt><trkpt lat="45.2828833" lon="7.6608867"><ele>274.0</ele><time>2026-04-06T12:22:11.825Z</time></trkpt><trkpt lat="45.28294" lon="7.6608133"><ele>274.4</ele><time>2026-04-06T12:22:13.821Z</time></trkpt><trkpt lat="45.28302" lon="7.6607733"><ele>274.79999999999995</ele><time>2026-04-06T12:22:15.822Z</time></trkpt><trkpt lat="45.283105" lon="7.6607167"><ele>275.20000000000005</ele><time>2026-04-06T12:22:17.82Z</time></trkpt><trkpt lat="45.2831733" lon="7.6606133"><ele>275.6</ele><time>2026-04-06T12:22:19.824Z</time></trkpt><trkpt lat="45.28324" lon="7.6605167"><ele>276.0</ele><time>2026-04-06T12:22:21.82Z</time></trkpt><trkpt lat="45.2833283" lon="7.6604533"><ele>276.0</ele><time>2026-04-06T12:22:23.82Z</time></trkpt><trkpt lat="45.283425" lon="7.6604033"><ele>276.0</ele><time>2026-04-06T12:22:25.824Z</time></trkpt><trkpt lat="45.2835267" lon="7.66036"><ele>276.0</ele><time>2026-04-06T12:22:27.825Z</time></trkpt><trkpt lat="45.28363" lon="7.6603167"><ele>276.0</ele><time>2026-04-06T12:22:29.82Z</time></trkpt><trkpt lat="45.283735" lon="7.6602667"><ele>276.0</ele><time>2026-04-06T12:22:31.822Z</time></trkpt><trkpt lat="45.2838417" lon="7.660215"><ele>275.25</ele><time>2026-04-06T12:22:33.824Z</time></trkpt><trkpt lat="45.2839517" lon="7.6601617"><ele>274.5</ele><time>2026-04-06T12:22:35.828Z</time></trkpt><trkpt lat="45.2840617" lon="7.6601067"><ele>273.75</ele><time>2026-04-06T12:22:37.829Z</time></trkpt><trkpt lat="45.284175" lon="7.6600483"><ele>273.0</ele><time>2026-04-06T12:22:39.825Z</time></trkpt><trkpt lat="45.2842883" lon="7.659985"><ele>273.0</ele><time>2026-04-06T12:22:41.823Z</time></trkpt><trkpt lat="45.2843967" lon="7.6599167"><ele>273.0</ele><time>2026-04-06T12:22:43.824Z</time></trkpt><trkpt lat="45.284505" lon="7.6598467"><ele>273.0</ele><time>2026-04-06T12:22:45.824Z</time></trkpt><trkpt lat="45.2846117" lon="7.6597783"><ele>273.0</ele><time>2026-04-06T12:22:47.822Z</time></trkpt><trkpt lat="45.2847267" lon="7.659715"><ele>272.75</ele><time>2026-04-06T12:22:49.824Z</time></trkpt><trkpt lat="45.2848367" lon="7.65964"><ele>272.5</ele><time>2026-04-06T12:22:51.823Z</time></trkpt><trkpt lat="45.2849483" lon="7.65957"><ele>272.25</ele><time>2026-04-06T12:22:53.824Z</time></trkpt><trkpt lat="45.2850567" lon="7.6595"><ele>272.0</ele><time>2026-04-06T12:22:55.822Z</time></trkpt><trkpt lat="45.285165" lon="7.6594333"><ele>273.25</ele><time>2026-04-06T12:22:57.823Z</time></trkpt><trkpt lat="45.2852717" lon="7.659365"><ele>274.5</ele><time>2026-04-06T12:22:59.822Z</time></trkpt><trkpt lat="45.285375" lon="7.659295"><ele>275.75</ele><time>2026-04-06T12:23:01.825Z</time></trkpt><trkpt lat="45.2854817" lon="7.6592267"><ele>277.0</ele><time>2026-04-06T12:23:03.822Z</time></trkpt><trkpt lat="45.2855917" lon="7.6591617"><ele>276.5</ele><time>2026-04-06T12:23:05.821Z</time></trkpt><trkpt lat="45.2856983" lon="7.6590933"><ele>276.0</ele><time>2026-04-06T12:23:07.828Z</time></trkpt><trkpt lat="45.285805" lon="7.6590333"><ele>275.5</ele><time>2026-04-06T12:23:09.827Z</time></trkpt><trkpt lat="45.28591" lon="7.6589683"><ele>275.0</ele><time>2026-04-06T12:23:11.821Z</time></trkpt><trkpt lat="45.2860067" lon="7.65889"><ele>275.0</ele><time>2026-04-06T12:23:13.82Z</time></trkpt><trkpt lat="45.2861" lon="7.6587967"><ele>275.0</ele><time>2026-04-06T12:23:15.819Z</time></trkpt><trkpt lat="45.2861833" lon="7.658695"><ele>275.0</ele><time>2026-04-06T12:23:17.82Z</time></trkpt><trkpt lat="45.28626" lon="7.6585667"><ele>275.0</ele><time>2026-04-06T12:23:19.821Z</time></trkpt><trkpt lat="45.286325" lon="7.6584283"><ele>275.8</ele><time>2026-04-06T12:23:21.821Z</time></trkpt><trkpt lat="45.2863817" lon="7.6582883"><ele>276.6</ele><time>2026-04-06T12:23:23.825Z</time></trkpt><trkpt lat="45.286435" lon="7.6581533"><ele>277.4</ele><time>2026-04-06T12:23:25.823Z</time></trkpt><trkpt lat="45.2864817" lon="7.6580167"><ele>278.2</ele><time>2026-04-06T12:23:27.821Z</time></trkpt><trkpt lat="45.28652" lon="7.6578733"><ele>279.0</ele><time>2026-04-06T12:23:29.824Z</time></trkpt><trkpt lat="45.286555" lon="7.6577267"><ele>279.25</ele><time>2026-04-06T12:23:31.821Z</time></trkpt><trkpt lat="45.2865817" lon="7.6575733"><ele>279.5</ele><time>2026-04-06T12:23:33.818Z</time></trkpt><trkpt lat="45.286595" lon="7.6574067"><ele>279.75</ele><time>2026-04-06T12:23:35.821Z</time></trkpt><trkpt lat="45.28661" lon="7.6572333"><ele>280.0</ele><time>2026-04-06T12:23:37.827Z</time></trkpt><trkpt lat="45.2866217" lon="7.657065"><ele>280.25</ele><time>2026-04-06T12:23:39.823Z</time></trkpt><trkpt lat="45.28663" lon="7.656895"><ele>280.5</ele><time>2026-04-06T12:23:41.822Z</time></trkpt><trkpt lat="45.2866383" lon="7.656725"><ele>280.75</ele><time>2026-04-06T12:23:43.821Z</time></trkpt><trkpt lat="45.28665" lon="7.6565583"><ele>281.0</ele><time>2026-04-06T12:23:45.819Z</time></trkpt><trkpt lat="45.2866633" lon="7.6563933"><ele>281.0</ele><time>2026-04-06T12:23:47.822Z</time></trkpt><trkpt lat="45.2866783" lon="7.6562317"><ele>281.0</ele><time>2026-04-06T12:23:49.821Z</time></trkpt><trkpt lat="45.286695" lon="7.6560683"><ele>281.0</ele><time>2026-04-06T12:23:51.821Z</time></trkpt><trkpt lat="45.2867117" lon="7.6559067"><ele>281.0</ele><time>2026-04-06T12:23:53.828Z</time></trkpt><trkpt lat="45.2867367" lon="7.6557483"><ele>280.8</ele><time>2026-04-06T12:23:55.825Z</time></trkpt><trkpt lat="45.2867767" lon="7.6556"><ele>280.6</ele><time>2026-04-06T12:23:57.822Z</time></trkpt><trkpt lat="45.2868417" lon="7.655475"><ele>280.4</ele><time>2026-04-06T12:23:59.82Z</time></trkpt><trkpt lat="45.286925" lon="7.6553767"><ele>280.2</ele><time>2026-04-06T12:24:01.823Z</time></trkpt><trkpt lat="45.28702" lon="7.6553183"><ele>280.0</ele><time>2026-04-06T12:24:03.82Z</time></trkpt><trkpt lat="45.2871167" lon="7.6553167"><ele>280.0</ele><time>2026-04-06T12:24:05.823Z</time></trkpt><trkpt lat="45.28721" lon="7.6553233"><ele>280.0</ele><time>2026-04-06T12:24:07.823Z</time></trkpt><trkpt lat="45.2873" lon="7.6553333"><ele>280.0</ele><time>2026-04-06T12:24:09.821Z</time></trkpt><trkpt lat="45.2873883" lon="7.6553483"><ele>280.0</ele><time>2026-04-06T12:24:11.822Z</time></trkpt><trkpt lat="45.28749" lon="7.6553667"><ele>280.0</ele><time>2026-04-06T12:24:13.824Z</time></trkpt><trkpt lat="45.2875917" lon="7.6553783"><ele>279.8</ele><time>2026-04-06T12:24:15.821Z</time></trkpt><trkpt lat="45.2877" lon="7.6553933"><ele>279.6</ele><time>2026-04-06T12:24:17.823Z</time></trkpt><trkpt lat="45.2878117" lon="7.6554067"><ele>279.4</ele><time>2026-04-06T12:24:19.822Z</time></trkpt><trkpt lat="45.2879167" lon="7.6554233"><ele>279.2</ele><time>2026-04-06T12:24:21.82Z</time></trkpt><trkpt lat="45.28802" lon="7.6554417"><ele>279.0</ele><time>2026-04-06T12:24:23.828Z</time></trkpt><trkpt lat="45.2881267" lon="7.6554717"><ele>279.59999999999997</ele><time>2026-04-06T12:24:25.824Z</time></trkpt><trkpt lat="45.288235" lon="7.65549"><ele>280.2</ele><time>2026-04-06T12:24:27.821Z</time></trkpt><trkpt lat="45.2883483" lon="7.6555033"><ele>280.79999999999995</ele><time>2026-04-06T12:24:29.822Z</time></trkpt><trkpt lat="45.2884567" lon="7.6555167"><ele>281.4</ele><time>2026-04-06T12:24:31.823Z</time></trkpt><trkpt lat="45.28856" lon="7.65553"><ele>282.0</ele><time>2026-04-06T12:24:33.823Z</time></trkpt><trkpt lat="45.288665" lon="7.6555533"><ele>282.0</ele><time>2026-04-06T12:24:35.823Z</time></trkpt><trkpt lat="45.28877" lon="7.6555733"><ele>282.0</ele><time>2026-04-06T12:24:37.824Z</time></trkpt><trkpt lat="45.2888767" lon="7.6555883"><ele>282.0</ele><time>2026-04-06T12:24:39.824Z</time></trkpt><trkpt lat="45.2889817" lon="7.6556017"><ele>282.0</ele><time>2026-04-06T12:24:41.823Z</time></trkpt><trkpt lat="45.2890833" lon="7.6556167"><ele>282.0</ele><time>2026-04-06T12:24:43.829Z</time></trkpt><trkpt lat="45.2891883" lon="7.6556367"><ele>282.0</ele><time>2026-04-06T12:24:45.82Z</time></trkpt><trkpt lat="45.2892883" lon="7.655655"><ele>282.0</ele><time>2026-04-06T12:24:47.821Z</time></trkpt><trkpt lat="45.2893933" lon="7.6556733"><ele>282.0</ele><time>2026-04-06T12:24:49.83Z</time></trkpt><trkpt lat="45.2894983" lon="7.6556967"><ele>282.0</ele><time>2026-04-06T12:24:51.824Z</time></trkpt><trkpt lat="45.2896033" lon="7.655715"><ele>282.0</ele><time>2026-04-06T12:24:53.824Z</time></trkpt><trkpt lat="45.2897117" lon="7.6557383"><ele>282.0</ele><time>2026-04-06T12:24:55.825Z</time></trkpt><trkpt lat="45.28982" lon="7.6557567"><ele>282.0</ele><time>2026-04-06T12:24:57.831Z</time></trkpt><trkpt lat="45.2899267" lon="7.65578"><ele>282.0</ele><time>2026-04-06T12:24:59.821Z</time></trkpt><trkpt lat="45.290035" lon="7.6557983"><ele>282.0</ele><time>2026-04-06T12:25:01.822Z</time></trkpt><trkpt lat="45.29014" lon="7.6558117"><ele>282.0</ele><time>2026-04-06T12:25:03.825Z</time></trkpt><trkpt lat="45.2902483" lon="7.65582"><ele>282.0</ele><time>2026-04-06T12:25:05.821Z</time></trkpt><trkpt lat="45.2903533" lon="7.6558067"><ele>282.0</ele><time>2026-04-06T12:25:07.822Z</time></trkpt><trkpt lat="45.290455" lon="7.6557567"><ele>282.0</ele><time>2026-04-06T12:25:09.829Z</time></trkpt><trkpt lat="45.2905383" lon="7.655665"><ele>282.0</ele><time>2026-04-06T12:25:11.824Z</time></trkpt><trkpt lat="45.2906" lon="7.655545"><ele>282.0</ele><time>2026-04-06T12:25:13.824Z</time></trkpt><trkpt lat="45.2906367" lon="7.6554117"><ele>283.2</ele><time>2026-04-06T12:25:15.826Z</time></trkpt><trkpt lat="45.2906567" lon="7.6552667"><ele>284.4</ele><time>2026-04-06T12:25:17.822Z</time></trkpt><trkpt lat="45.2906667" lon="7.655115"><ele>285.6</ele><time>2026-04-06T12:25:19.821Z</time></trkpt><trkpt lat="45.2906733" lon="7.654965"><ele>286.8</ele><time>2026-04-06T12:25:21.822Z</time></trkpt><trkpt lat="45.290675" lon="7.6548133"><ele>288.0</ele><time>2026-04-06T12:25:23.821Z</time></trkpt><trkpt lat="45.29068" lon="7.65466"><ele>288.0</ele><time>2026-04-06T12:25:25.822Z</time></trkpt><trkpt lat="45.29068" lon="7.65451"><ele>288.0</ele><time>2026-04-06T12:25:27.821Z</time></trkpt><trkpt lat="45.290685" lon="7.654365"><ele>288.0</ele><time>2026-04-06T12:25:29.822Z</time></trkpt><trkpt lat="45.2907117" lon="7.6542383"><ele>288.0</ele><time>2026-04-06T12:25:31.827Z</time></trkpt><trkpt lat="45.29078" lon="7.65416"><ele>288.0</ele><time>2026-04-06T12:25:33.828Z</time></trkpt><trkpt lat="45.2908733" lon="7.6541533"><ele>287.6</ele><time>2026-04-06T12:25:35.822Z</time></trkpt><trkpt lat="45.2909717" lon="7.6541567"><ele>287.20000000000005</ele><time>2026-04-06T12:25:37.821Z</time></trkpt><trkpt lat="45.2910783" lon="7.6541483"><ele>286.8</ele><time>2026-04-06T12:25:39.826Z</time></trkpt><trkpt lat="45.291185" lon="7.6541333"><ele>286.40000000000003</ele><time>2026-04-06T12:25:41.825Z</time></trkpt><trkpt lat="45.2912933" lon="7.6541083"><ele>286.0</ele><time>2026-04-06T12:25:43.828Z</time></trkpt><trkpt lat="45.2914067" lon="7.654075"><ele>286.8</ele><time>2026-04-06T12:25:45.824Z</time></trkpt><trkpt lat="45.2915167" lon="7.6540417"><ele>287.6</ele><time>2026-04-06T12:25:47.822Z</time></trkpt><trkpt lat="45.291625" lon="7.6540067"><ele>288.4</ele><time>2026-04-06T12:25:49.821Z</time></trkpt><trkpt lat="45.2917283" lon="7.653965"><ele>289.2</ele><time>2026-04-06T12:25:51.822Z</time></trkpt><trkpt lat="45.2918317" lon="7.6539267"><ele>290.0</ele><time>2026-04-06T12:25:53.821Z</time></trkpt><trkpt lat="45.291935" lon="7.6538867"><ele>290.0</ele><time>2026-04-06T12:25:55.822Z</time></trkpt><trkpt lat="45.2920417" lon="7.6538533"><ele>290.0</ele><time>2026-04-06T12:25:57.82Z</time></trkpt><trkpt lat="45.29215" lon="7.6538083"><ele>290.0</ele><time>2026-04-06T12:25:59.825Z</time></trkpt><trkpt lat="45.29226" lon="7.6537617"><ele>290.0</ele><time>2026-04-06T12:26:01.823Z</time></trkpt><trkpt lat="45.2923667" lon="7.653715"><ele>290.0</ele><time>2026-04-06T12:26:03.825Z</time></trkpt><trkpt lat="45.2924733" lon="7.6536683"><ele>290.4</ele><time>2026-04-06T12:26:05.821Z</time></trkpt><trkpt lat="45.2925783" lon="7.6536133"><ele>290.8</ele><time>2026-04-06T12:26:07.821Z</time></trkpt><trkpt lat="45.2926833" lon="7.6535617"><ele>291.2</ele><time>2026-04-06T12:26:09.821Z</time></trkpt><trkpt lat="45.2927867" lon="7.6535117"><ele>291.6</ele><time>2026-04-06T12:26:11.824Z</time></trkpt><trkpt lat="45.2928883" lon="7.65346"><ele>292.0</ele><time>2026-04-06T12:26:13.822Z</time></trkpt><trkpt lat="45.292985" lon="7.6534017"><ele>292.0</ele><time>2026-04-06T12:26:15.828Z</time></trkpt><trkpt lat="45.2930833" lon="7.653345"><ele>292.0</ele><time>2026-04-06T12:26:17.825Z</time></trkpt><trkpt lat="45.2931833" lon="7.6532867"><ele>292.0</ele><time>2026-04-06T12:26:19.824Z</time></trkpt><trkpt lat="45.293285" lon="7.65323"><ele>292.0</ele><time>2026-04-06T12:26:21.822Z</time></trkpt><trkpt lat="45.2933867" lon="7.6531667"><ele>292.0</ele><time>2026-04-06T12:26:23.823Z</time></trkpt><trkpt lat="45.293485" lon="7.6531033"><ele>291.0</ele><time>2026-04-06T12:26:25.819Z</time></trkpt><trkpt lat="45.29358" lon="7.6530433"><ele>290.0</ele><time>2026-04-06T12:26:27.822Z</time></trkpt><trkpt lat="45.2936783" lon="7.6529867"><ele>289.0</ele><time>2026-04-06T12:26:29.826Z</time></trkpt><trkpt lat="45.2937717" lon="7.6529183"><ele>288.0</ele><time>2026-04-06T12:26:31.825Z</time></trkpt><trkpt lat="45.2938633" lon="7.6528517"><ele>287.0</ele><time>2026-04-06T12:26:33.822Z</time></trkpt><trkpt lat="45.293955" lon="7.6527933"><ele>287.2</ele><time>2026-04-06T12:26:35.822Z</time></trkpt><trkpt lat="45.2940483" lon="7.6527333"><ele>287.4</ele><time>2026-04-06T12:26:37.822Z</time></trkpt><trkpt lat="45.2941383" lon="7.6526733"><ele>287.6</ele><time>2026-04-06T12:26:39.828Z</time></trkpt><trkpt lat="45.2942333" lon="7.6526117"><ele>287.8</ele><time>2026-04-06T12:26:41.823Z</time></trkpt><trkpt lat="45.2943283" lon="7.65255"><ele>288.0</ele><time>2026-04-06T12:26:43.823Z</time></trkpt><trkpt lat="45.2944217" lon="7.6524883"><ele>288.0</ele><time>2026-04-06T12:26:45.821Z</time></trkpt><trkpt lat="45.2945133" lon="7.65243"><ele>288.0</ele><time>2026-04-06T12:26:47.822Z</time></trkpt><trkpt lat="45.2946083" lon="7.6523767"><ele>288.0</ele><time>2026-04-06T12:26:49.822Z</time></trkpt><trkpt lat="45.2947017" lon="7.6523183"><ele>288.0</ele><time>2026-04-06T12:26:51.824Z</time></trkpt><trkpt lat="45.2947933" lon="7.6522583"><ele>288.0</ele><time>2026-04-06T12:26:53.822Z</time></trkpt><trkpt lat="45.2948817" lon="7.6521983"><ele>288.0</ele><time>2026-04-06T12:26:55.822Z</time></trkpt><trkpt lat="45.294975" lon="7.652145"><ele>288.0</ele><time>2026-04-06T12:26:57.821Z</time></trkpt><trkpt lat="45.2950683" lon="7.652095"><ele>288.0</ele><time>2026-04-06T12:26:59.827Z</time></trkpt><trkpt lat="45.29516" lon="7.65205"><ele>288.0</ele><time>2026-04-06T12:27:01.823Z</time></trkpt><trkpt lat="45.2952517" lon="7.652005"><ele>288.0</ele><time>2026-04-06T12:27:03.825Z</time></trkpt><trkpt lat="45.2953467" lon="7.651965"><ele>288.4</ele><time>2026-04-06T12:27:05.823Z</time></trkpt><trkpt lat="45.2954433" lon="7.6519283"><ele>288.8</ele><time>2026-04-06T12:27:07.83Z</time></trkpt><trkpt lat="45.2955433" lon="7.6519133"><ele>289.2</ele><time>2026-04-06T12:27:09.825Z</time></trkpt><trkpt lat="45.295645" lon="7.6519267"><ele>289.6</ele><time>2026-04-06T12:27:11.824Z</time></trkpt><trkpt lat="45.2957467" lon="7.6519417"><ele>290.0</ele><time>2026-04-06T12:27:13.825Z</time></trkpt><trkpt lat="45.29585" lon="7.6519567"><ele>290.2</ele><time>2026-04-06T12:27:15.822Z</time></trkpt><trkpt lat="45.2959533" lon="7.65198"><ele>290.4</ele><time>2026-04-06T12:27:17.822Z</time></trkpt><trkpt lat="45.296055" lon="7.6520167"><ele>290.6</ele><time>2026-04-06T12:27:19.821Z</time></trkpt><trkpt lat="45.29616" lon="7.6520567"><ele>290.8</ele><time>2026-04-06T12:27:21.822Z</time></trkpt><trkpt lat="45.2962583" lon="7.6520917"><ele>291.0</ele><time>2026-04-06T12:27:23.828Z</time></trkpt><trkpt lat="45.2963517" lon="7.6521217"><ele>291.0</ele><time>2026-04-06T12:27:25.825Z</time></trkpt><trkpt lat="45.2964367" lon="7.6521417"><ele>291.0</ele><time>2026-04-06T12:27:27.823Z</time></trkpt><trkpt lat="45.2965233" lon="7.6521717"><ele>291.0</ele><time>2026-04-06T12:27:29.822Z</time></trkpt><trkpt lat="45.2966333" lon="7.65221"><ele>291.0</ele><time>2026-04-06T12:27:31.822Z</time></trkpt><trkpt lat="45.2967517" lon="7.65226"><ele>291.0</ele><time>2026-04-06T12:27:33.824Z</time></trkpt><trkpt lat="45.2968617" lon="7.6523083"><ele>291.0</ele><time>2026-04-06T12:27:35.824Z</time></trkpt><trkpt lat="45.2969617" lon="7.6523533"><ele>291.0</ele><time>2026-04-06T12:27:37.823Z</time></trkpt><trkpt lat="45.2970567" lon="7.652395"><ele>291.0</ele><time>2026-04-06T12:27:39.824Z</time></trkpt><trkpt lat="45.2971483" lon="7.6524367"><ele>291.0</ele><time>2026-04-06T12:27:41.824Z</time></trkpt><trkpt lat="45.2972433" lon="7.6524717"><ele>291.0</ele><time>2026-04-06T12:27:43.823Z</time></trkpt><trkpt lat="45.2973367" lon="7.6525117"><ele>291.2</ele><time>2026-04-06T12:27:45.824Z</time></trkpt><trkpt lat="45.2974333" lon="7.6525517"><ele>291.40000000000003</ele><time>2026-04-06T12:27:47.82Z</time></trkpt><trkpt lat="45.2975333" lon="7.6525883"><ele>291.6</ele><time>2026-04-06T12:27:49.824Z</time></trkpt><trkpt lat="45.2976283" lon="7.6526267"><ele>291.8</ele><time>2026-04-06T12:27:51.821Z</time></trkpt><trkpt lat="45.2977217" lon="7.6526667"><ele>292.0</ele><time>2026-04-06T12:27:53.821Z</time></trkpt><trkpt lat="45.2978217" lon="7.6527067"><ele>292.0</ele><time>2026-04-06T12:27:55.823Z</time></trkpt><trkpt lat="45.2979217" lon="7.6527467"><ele>292.0</ele><time>2026-04-06T12:27:57.82Z</time></trkpt><trkpt lat="45.2980183" lon="7.6527817"><ele>292.0</ele><time>2026-04-06T12:27:59.825Z</time></trkpt><trkpt lat="45.298115" lon="7.6528133"><ele>292.0</ele><time>2026-04-06T12:28:01.827Z</time></trkpt><trkpt lat="45.2982117" lon="7.6528467"><ele>292.0</ele><time>2026-04-06T12:28:03.822Z</time></trkpt><trkpt lat="45.29832" lon="7.6528967"><ele>290.6</ele><time>2026-04-06T12:28:05.822Z</time></trkpt><trkpt lat="45.2984267" lon="7.6529533"><ele>289.2</ele><time>2026-04-06T12:28:07.823Z</time></trkpt><trkpt lat="45.2985283" lon="7.6530167"><ele>287.8</ele><time>2026-04-06T12:28:09.825Z</time></trkpt><trkpt lat="45.2986233" lon="7.6531"><ele>286.4</ele><time>2026-04-06T12:28:11.823Z</time></trkpt><trkpt lat="45.2987033" lon="7.653195"><ele>285.0</ele><time>2026-04-06T12:28:13.825Z</time></trkpt><trkpt lat="45.2987817" lon="7.6532933"><ele>285.0</ele><time>2026-04-06T12:28:15.822Z</time></trkpt><trkpt lat="45.2988633" lon="7.653385"><ele>285.0</ele><time>2026-04-06T12:28:17.823Z</time></trkpt><trkpt lat="45.2989533" lon="7.65348"><ele>285.0</ele><time>2026-04-06T12:28:19.829Z</time></trkpt><trkpt lat="45.299045" lon="7.653565"><ele>285.0</ele><time>2026-04-06T12:28:21.823Z</time></trkpt><trkpt lat="45.2991467" lon="7.6536367"><ele>285.0</ele><time>2026-04-06T12:28:23.824Z</time></trkpt><trkpt lat="45.2992467" lon="7.653685"><ele>285.4</ele><time>2026-04-06T12:28:25.821Z</time></trkpt><trkpt lat="45.2993483" lon="7.6537117"><ele>285.8</ele><time>2026-04-06T12:28:27.822Z</time></trkpt><trkpt lat="45.2994583" lon="7.6537117"><ele>286.2</ele><time>2026-04-06T12:28:29.821Z</time></trkpt><trkpt lat="45.2995667" lon="7.653695"><ele>286.6</ele><time>2026-04-06T12:28:31.822Z</time></trkpt><trkpt lat="45.2996717" lon="7.653685"><ele>287.0</ele><time>2026-04-06T12:28:33.823Z</time></trkpt><trkpt lat="45.2997817" lon="7.65368"><ele>287.2</ele><time>2026-04-06T12:28:35.823Z</time></trkpt><trkpt lat="45.299885" lon="7.6536767"><ele>287.4</ele><time>2026-04-06T12:28:37.823Z</time></trkpt><trkpt lat="45.2999983" lon="7.6536833"><ele>287.6</ele><time>2026-04-06T12:28:39.824Z</time></trkpt><trkpt lat="45.300105" lon="7.6536967"><ele>287.8</ele><time>2026-04-06T12:28:41.82Z</time></trkpt><trkpt lat="45.3002133" lon="7.6537"><ele>288.0</ele><time>2026-04-06T12:28:43.825Z</time></trkpt><trkpt lat="45.3003217" lon="7.6536833"><ele>288.0</ele><time>2026-04-06T12:28:45.824Z</time></trkpt><trkpt lat="45.3004283" lon="7.6536283"><ele>288.0</ele><time>2026-04-06T12:28:47.821Z</time></trkpt><trkpt lat="45.3005233" lon="7.6535567"><ele>288.0</ele><time>2026-04-06T12:28:49.822Z</time></trkpt><trkpt lat="45.300615" lon="7.6534783"><ele>288.0</ele><time>2026-04-06T12:28:51.822Z</time></trkpt><trkpt lat="45.30071" lon="7.6534117"><ele>288.0</ele><time>2026-04-06T12:28:53.825Z</time></trkpt><trkpt lat="45.3008067" lon="7.6533567"><ele>288.4</ele><time>2026-04-06T12:28:55.822Z</time></trkpt><trkpt lat="45.3009083" lon="7.65333"><ele>288.8</ele><time>2026-04-06T12:28:57.817Z</time></trkpt><trkpt lat="45.3010067" lon="7.653315"><ele>289.2</ele><time>2026-04-06T12:28:59.82Z</time></trkpt><trkpt lat="45.3011133" lon="7.653325"><ele>289.6</ele><time>2026-04-06T12:29:01.819Z</time></trkpt><trkpt lat="45.3012267" lon="7.6533617"><ele>290.0</ele><time>2026-04-06T12:29:03.818Z</time></trkpt><trkpt lat="45.301325" lon="7.6534283"><ele>290.0</ele><time>2026-04-06T12:29:05.818Z</time></trkpt><trkpt lat="45.301415" lon="7.6535233"><ele>290.0</ele><time>2026-04-06T12:29:07.818Z</time></trkpt><trkpt lat="45.3014983" lon="7.6536183"><ele>290.0</ele><time>2026-04-06T12:29:09.818Z</time></trkpt><trkpt lat="45.30158" lon="7.6537117"><ele>290.0</ele><time>2026-04-06T12:29:11.824Z</time></trkpt><trkpt lat="45.3016667" lon="7.6538083"><ele>290.0</ele><time>2026-04-06T12:29:13.821Z</time></trkpt><trkpt lat="45.30175" lon="7.65391"><ele>289.6</ele><time>2026-04-06T12:29:15.823Z</time></trkpt><trkpt lat="45.3018217" lon="7.6540167"><ele>289.2</ele><time>2026-04-06T12:29:17.822Z</time></trkpt><trkpt lat="45.3018933" lon="7.6541133"><ele>288.8</ele><time>2026-04-06T12:29:19.82Z</time></trkpt><trkpt lat="45.3019633" lon="7.6542083"><ele>288.4</ele><time>2026-04-06T12:29:21.823Z</time></trkpt><trkpt lat="45.30203" lon="7.654315"><ele>288.0</ele><time>2026-04-06T12:29:23.822Z</time></trkpt><trkpt lat="45.3021" lon="7.65441"><ele>288.0</ele><time>2026-04-06T12:29:25.818Z</time></trkpt><trkpt lat="45.3021717" lon="7.6545017"><ele>288.0</ele><time>2026-04-06T12:29:27.817Z</time></trkpt><trkpt lat="45.302245" lon="7.6545933"><ele>288.0</ele><time>2026-04-06T12:29:29.821Z</time></trkpt><trkpt lat="45.30232" lon="7.6546817"><ele>288.0</ele><time>2026-04-06T12:29:31.818Z</time></trkpt><trkpt lat="45.3023983" lon="7.65477"><ele>288.0</ele><time>2026-04-06T12:29:33.823Z</time></trkpt><trkpt lat="45.3024733" lon="7.65485"><ele>288.0</ele><time>2026-04-06T12:29:35.823Z</time></trkpt><trkpt lat="45.3025517" lon="7.6549267"><ele>288.0</ele><time>2026-04-06T12:29:37.817Z</time></trkpt><trkpt lat="45.302635" lon="7.654995"><ele>288.0</ele><time>2026-04-06T12:29:39.821Z</time></trkpt><trkpt lat="45.3027183" lon="7.655065"><ele>288.0</ele><time>2026-04-06T12:29:41.818Z</time></trkpt><trkpt lat="45.30281" lon="7.6551283"><ele>288.0</ele><time>2026-04-06T12:29:43.82Z</time></trkpt><trkpt lat="45.302905" lon="7.6551817"><ele>288.0</ele><time>2026-04-06T12:29:45.822Z</time></trkpt><trkpt lat="45.303" lon="7.6552317"><ele>288.0</ele><time>2026-04-06T12:29:47.822Z</time></trkpt><trkpt lat="45.3030867" lon="7.655285"><ele>288.0</ele><time>2026-04-06T12:29:49.822Z</time></trkpt><trkpt lat="45.3031767" lon="7.6553267"><ele>288.0</ele><time>2026-04-06T12:29:51.818Z</time></trkpt><trkpt lat="45.30326" lon="7.65537"><ele>288.0</ele><time>2026-04-06T12:29:53.818Z</time></trkpt><trkpt lat="45.303345" lon="7.6554117"><ele>288.3333333333333</ele><time>2026-04-06T12:29:55.824Z</time></trkpt><trkpt lat="45.3034333" lon="7.6554517"><ele>288.6666666666667</ele><time>2026-04-06T12:29:57.823Z</time></trkpt><trkpt lat="45.3035183" lon="7.6554967"><ele>289.0</ele><time>2026-04-06T12:29:59.823Z</time></trkpt><trkpt lat="45.3036033" lon="7.6555167"><ele>289.33333333333337</ele><time>2026-04-06T12:30:01.82Z</time></trkpt><trkpt lat="45.30369" lon="7.655495"><ele>289.6666666666667</ele><time>2026-04-06T12:30:03.824Z</time></trkpt><trkpt lat="45.3037583" lon="7.655415"><ele>290.0</ele><time>2026-04-06T12:30:05.823Z</time></trkpt><trkpt lat="45.3037917" lon="7.6552933"><ele>290.2</ele><time>2026-04-06T12:30:07.826Z</time></trkpt><trkpt lat="45.3038233" lon="7.6551683"><ele>290.4</ele><time>2026-04-06T12:30:09.818Z</time></trkpt><trkpt lat="45.3038517" lon="7.6550483"><ele>290.6</ele><time>2026-04-06T12:30:11.823Z</time></trkpt><trkpt lat="45.303885" lon="7.6549267"><ele>290.8</ele><time>2026-04-06T12:30:13.823Z</time></trkpt><trkpt lat="45.3039183" lon="7.6548017"><ele>291.0</ele><time>2026-04-06T12:30:15.818Z</time></trkpt><trkpt lat="45.3039583" lon="7.6546717"><ele>291.0</ele><time>2026-04-06T12:30:17.821Z</time></trkpt><trkpt lat="45.304" lon="7.6545483"><ele>291.0</ele><time>2026-04-06T12:30:19.82Z</time></trkpt><trkpt lat="45.30404" lon="7.6544333"><ele>291.0</ele><time>2026-04-06T12:30:21.822Z</time></trkpt><trkpt lat="45.3040767" lon="7.6543117"><ele>291.0</ele><time>2026-04-06T12:30:23.829Z</time></trkpt><trkpt lat="45.304105" lon="7.6541917"><ele>291.0</ele><time>2026-04-06T12:30:25.821Z</time></trkpt><trkpt lat="45.30414" lon="7.6540683"><ele>291.2</ele><time>2026-04-06T12:30:27.821Z</time></trkpt><trkpt lat="45.3041833" lon="7.6539467"><ele>291.40000000000003</ele><time>2026-04-06T12:30:29.818Z</time></trkpt><trkpt lat="45.30422" lon="7.6538217"><ele>291.6</ele><time>2026-04-06T12:30:31.821Z</time></trkpt><trkpt lat="45.3042633" lon="7.6537"><ele>291.8</ele><time>2026-04-06T12:30:33.817Z</time></trkpt><trkpt lat="45.3043117" lon="7.6535783"><ele>292.0</ele><time>2026-04-06T12:30:35.817Z</time></trkpt><trkpt lat="45.304355" lon="7.653455"><ele>292.0</ele><time>2026-04-06T12:30:37.823Z</time></trkpt><trkpt lat="45.3044017" lon="7.6533333"><ele>292.0</ele><time>2026-04-06T12:30:39.825Z</time></trkpt><trkpt lat="45.3044417" lon="7.65321"><ele>292.0</ele><time>2026-04-06T12:30:41.824Z</time></trkpt><trkpt lat="45.3044733" lon="7.6530833"><ele>292.0</ele><time>2026-04-06T12:30:43.835Z</time></trkpt><trkpt lat="45.3045117" lon="7.6529617"><ele>292.0</ele><time>2026-04-06T12:30:45.821Z</time></trkpt><trkpt lat="45.30455" lon="7.6528483"><ele>291.8</ele><time>2026-04-06T12:30:47.822Z</time></trkpt><trkpt lat="45.3045867" lon="7.6527183"><ele>291.6</ele><time>2026-04-06T12:30:49.829Z</time></trkpt><trkpt lat="45.304625" lon="7.65259"><ele>291.40000000000003</ele><time>2026-04-06T12:30:51.824Z</time></trkpt><trkpt lat="45.304665" lon="7.6524617"><ele>291.2</ele><time>2026-04-06T12:30:53.824Z</time></trkpt><trkpt lat="45.304705" lon="7.6523333"><ele>291.0</ele><time>2026-04-06T12:30:55.821Z</time></trkpt><trkpt lat="45.3047467" lon="7.6522083"><ele>291.40000000000003</ele><time>2026-04-06T12:30:57.818Z</time></trkpt><trkpt lat="45.3047867" lon="7.6520833"><ele>291.8</ele><time>2026-04-06T12:30:59.822Z</time></trkpt><trkpt lat="45.3048283" lon="7.6519567"><ele>292.20000000000005</ele><time>2026-04-06T12:31:01.831Z</time></trkpt><trkpt lat="45.3048717" lon="7.651835"><ele>292.6</ele><time>2026-04-06T12:31:03.821Z</time></trkpt><trkpt lat="45.304915" lon="7.6517167"><ele>293.0</ele><time>2026-04-06T12:31:05.825Z</time></trkpt><trkpt lat="45.3049567" lon="7.6515933"><ele>293.2</ele><time>2026-04-06T12:31:07.819Z</time></trkpt><trkpt lat="45.3049933" lon="7.6514733"><ele>293.4</ele><time>2026-04-06T12:31:09.83Z</time></trkpt><trkpt lat="45.3050283" lon="7.6513467"><ele>293.59999999999997</ele><time>2026-04-06T12:31:11.819Z</time></trkpt><trkpt lat="45.3050633" lon="7.6512217"><ele>293.8</ele><time>2026-04-06T12:31:13.821Z</time></trkpt><trkpt lat="45.3051017" lon="7.6510933"><ele>294.0</ele><time>2026-04-06T12:31:15.82Z</time></trkpt><trkpt lat="45.3051417" lon="7.6509617"><ele>294.2</ele><time>2026-04-06T12:31:17.823Z</time></trkpt><trkpt lat="45.3051817" lon="7.650835"><ele>294.4</ele><time>2026-04-06T12:31:19.824Z</time></trkpt><trkpt lat="45.3052217" lon="7.6507167"><ele>294.6</ele><time>2026-04-06T12:31:21.816Z</time></trkpt><trkpt lat="45.3052617" lon="7.6506"><ele>294.8</ele><time>2026-04-06T12:31:23.827Z</time></trkpt><trkpt lat="45.3053" lon="7.6504883"><ele>295.0</ele><time>2026-04-06T12:31:25.818Z</time></trkpt><trkpt lat="45.3053383" lon="7.6503767"><ele>295.0</ele><time>2026-04-06T12:31:27.824Z</time></trkpt><trkpt lat="45.3053733" lon="7.6502617"><ele>295.0</ele><time>2026-04-06T12:31:29.822Z</time></trkpt><trkpt lat="45.3054117" lon="7.650145"><ele>295.0</ele><time>2026-04-06T12:31:31.822Z</time></trkpt><trkpt lat="45.3054517" lon="7.6500267"><ele>295.0</ele><time>2026-04-06T12:31:33.824Z</time></trkpt><trkpt lat="45.30549" lon="7.6499"><ele>295.0</ele><time>2026-04-06T12:31:35.819Z</time></trkpt><trkpt lat="45.3055317" lon="7.6497667"><ele>295.0</ele><time>2026-04-06T12:31:37.823Z</time></trkpt><trkpt lat="45.30557" lon="7.6496283"><ele>295.0</ele><time>2026-04-06T12:31:39.823Z</time></trkpt><trkpt lat="45.3056117" lon="7.64949"><ele>295.0</ele><time>2026-04-06T12:31:41.828Z</time></trkpt><trkpt lat="45.30565" lon="7.6493467"><ele>295.0</ele><time>2026-04-06T12:31:43.819Z</time></trkpt><trkpt lat="45.3056917" lon="7.64921"><ele>295.0</ele><time>2026-04-06T12:31:45.817Z</time></trkpt><trkpt lat="45.3057333" lon="7.6490717"><ele>295.4</ele><time>2026-04-06T12:31:47.824Z</time></trkpt><trkpt lat="45.305775" lon="7.64893"><ele>295.8</ele><time>2026-04-06T12:31:49.829Z</time></trkpt><trkpt lat="45.3058117" lon="7.6487933"><ele>296.2</ele><time>2026-04-06T12:31:51.823Z</time></trkpt><trkpt lat="45.30585" lon="7.6486583"><ele>296.6</ele><time>2026-04-06T12:31:53.822Z</time></trkpt><trkpt lat="45.305895" lon="7.6485267"><ele>297.0</ele><time>2026-04-06T12:31:55.831Z</time></trkpt><trkpt lat="45.305935" lon="7.6483917"><ele>297.4</ele><time>2026-04-06T12:31:57.817Z</time></trkpt><trkpt lat="45.3059717" lon="7.6482567"><ele>297.79999999999995</ele><time>2026-04-06T12:31:59.818Z</time></trkpt><trkpt lat="45.306015" lon="7.6481283"><ele>298.2</ele><time>2026-04-06T12:32:01.818Z</time></trkpt><trkpt lat="45.3060617" lon="7.6480083"><ele>298.59999999999997</ele><time>2026-04-06T12:32:03.824Z</time></trkpt><trkpt lat="45.3061067" lon="7.6478883"><ele>299.0</ele><time>2026-04-06T12:32:05.823Z</time></trkpt><trkpt lat="45.3061467" lon="7.6477617"><ele>299.0</ele><time>2026-04-06T12:32:07.822Z</time></trkpt><trkpt lat="45.3061867" lon="7.6476333"><ele>299.0</ele><time>2026-04-06T12:32:09.824Z</time></trkpt><trkpt lat="45.306225" lon="7.6475"><ele>299.0</ele><time>2026-04-06T12:32:11.822Z</time></trkpt><trkpt lat="45.3062683" lon="7.6473667"><ele>299.0</ele><time>2026-04-06T12:32:13.825Z</time></trkpt><trkpt lat="45.30631" lon="7.64724"><ele>299.0</ele><time>2026-04-06T12:32:15.82Z</time></trkpt><trkpt lat="45.3063517" lon="7.647115"><ele>299.0</ele><time>2026-04-06T12:32:17.82Z</time></trkpt><trkpt lat="45.3063883" lon="7.6469917"><ele>299.0</ele><time>2026-04-06T12:32:19.824Z</time></trkpt><trkpt lat="45.30642" lon="7.646875"><ele>299.0</ele><time>2026-04-06T12:32:21.828Z</time></trkpt><trkpt lat="45.3064583" lon="7.6467517"><ele>299.0</ele><time>2026-04-06T12:32:23.825Z</time></trkpt><trkpt lat="45.3064917" lon="7.646635"><ele>299.0</ele><time>2026-04-06T12:32:25.821Z</time></trkpt><trkpt lat="45.3065333" lon="7.646515"><ele>298.8</ele><time>2026-04-06T12:32:27.822Z</time></trkpt><trkpt lat="45.3065717" lon="7.6463933"><ele>298.59999999999997</ele><time>2026-04-06T12:32:29.822Z</time></trkpt><trkpt lat="45.3066033" lon="7.64627"><ele>298.4</ele><time>2026-04-06T12:32:31.82Z</time></trkpt><trkpt lat="45.30664" lon="7.6461433"><ele>298.2</ele><time>2026-04-06T12:32:33.822Z</time></trkpt><trkpt lat="45.3066783" lon="7.64602"><ele>298.0</ele><time>2026-04-06T12:32:35.824Z</time></trkpt><trkpt lat="45.3067167" lon="7.64589"><ele>298.4</ele><time>2026-04-06T12:32:37.824Z</time></trkpt><trkpt lat="45.306765" lon="7.645765"><ele>298.8</ele><time>2026-04-06T12:32:39.823Z</time></trkpt><trkpt lat="45.3068283" lon="7.6456517"><ele>299.2</ele><time>2026-04-06T12:32:41.823Z</time></trkpt><trkpt lat="45.3069" lon="7.6455567"><ele>299.6</ele><time>2026-04-06T12:32:43.821Z</time></trkpt><trkpt lat="45.30697" lon="7.6454633"><ele>300.0</ele><time>2026-04-06T12:32:45.821Z</time></trkpt><trkpt lat="45.3070217" lon="7.64535"><ele>300.0</ele><time>2026-04-06T12:32:47.82Z</time></trkpt><trkpt lat="45.3070567" lon="7.6452217"><ele>300.0</ele><time>2026-04-06T12:32:49.819Z</time></trkpt><trkpt lat="45.3070833" lon="7.6450917"><ele>300.0</ele><time>2026-04-06T12:32:51.826Z</time></trkpt><trkpt lat="45.3071117" lon="7.6449617"><ele>300.0</ele><time>2026-04-06T12:32:53.824Z</time></trkpt><trkpt lat="45.3071383" lon="7.6448333"><ele>300.0</ele><time>2026-04-06T12:32:55.824Z</time></trkpt><trkpt lat="45.30717" lon="7.6447033"><ele>300.0</ele><time>2026-04-06T12:32:57.818Z</time></trkpt><trkpt lat="45.3071967" lon="7.6445683"><ele>300.0</ele><time>2026-04-06T12:32:59.818Z</time></trkpt><trkpt lat="45.3072233" lon="7.6444367"><ele>300.0</ele><time>2026-04-06T12:33:01.82Z</time></trkpt><trkpt lat="45.3072433" lon="7.6443"><ele>300.0</ele><time>2026-04-06T12:33:03.82Z</time></trkpt><trkpt lat="45.30726" lon="7.6441683"><ele>300.0</ele><time>2026-04-06T12:33:05.818Z</time></trkpt><trkpt lat="45.307285" lon="7.64404"><ele>300.0</ele><time>2026-04-06T12:33:07.817Z</time></trkpt><trkpt lat="45.30733" lon="7.6439317"><ele>300.0</ele><time>2026-04-06T12:33:09.825Z</time></trkpt><trkpt lat="45.307395" lon="7.6438467"><ele>300.0</ele><time>2026-04-06T12:33:11.823Z</time></trkpt><trkpt lat="45.3074667" lon="7.6437567"><ele>300.0</ele><time>2026-04-06T12:33:13.821Z</time></trkpt><trkpt lat="45.3075367" lon="7.6436617"><ele>300.0</ele><time>2026-04-06T12:33:15.82Z</time></trkpt><trkpt lat="45.3076117" lon="7.6435683"><ele>300.6</ele><time>2026-04-06T12:33:17.82Z</time></trkpt><trkpt lat="45.30769" lon="7.6434683"><ele>301.2</ele><time>2026-04-06T12:33:19.819Z</time></trkpt><trkpt lat="45.307775" lon="7.6433733"><ele>301.8</ele><time>2026-04-06T12:33:21.825Z</time></trkpt><trkpt lat="45.3078667" lon="7.6432867"><ele>302.4</ele><time>2026-04-06T12:33:23.825Z</time></trkpt><trkpt lat="45.3079633" lon="7.64321"><ele>303.0</ele><time>2026-04-06T12:33:25.824Z</time></trkpt><trkpt lat="45.3080617" lon="7.643145"><ele>303.0</ele><time>2026-04-06T12:33:27.825Z</time></trkpt><trkpt lat="45.308155" lon="7.6430833"><ele>303.0</ele><time>2026-04-06T12:33:29.824Z</time></trkpt><trkpt lat="45.308255" lon="7.6430267"><ele>303.0</ele><time>2026-04-06T12:33:31.82Z</time></trkpt><trkpt lat="45.308355" lon="7.6429683"><ele>303.0</ele><time>2026-04-06T12:33:33.823Z</time></trkpt><trkpt lat="45.308445" lon="7.6429067"><ele>303.0</ele><time>2026-04-06T12:33:35.826Z</time></trkpt><trkpt lat="45.3085167" lon="7.6428333"><ele>303.2</ele><time>2026-04-06T12:33:37.826Z</time></trkpt><trkpt lat="45.308585" lon="7.6427417"><ele>303.4</ele><time>2026-04-06T12:33:39.826Z</time></trkpt><trkpt lat="45.3086517" lon="7.6426367"><ele>303.59999999999997</ele><time>2026-04-06T12:33:41.827Z</time></trkpt><trkpt lat="45.30871" lon="7.6425317"><ele>303.8</ele><time>2026-04-06T12:33:43.826Z</time></trkpt><trkpt lat="45.3087617" lon="7.642435"><ele>304.0</ele><time>2026-04-06T12:33:45.826Z</time></trkpt><trkpt lat="45.3088133" lon="7.6423367"><ele>304.0</ele><time>2026-04-06T12:33:47.824Z</time></trkpt><trkpt lat="45.3088683" lon="7.6422367"><ele>304.0</ele><time>2026-04-06T12:33:49.821Z</time></trkpt><trkpt lat="45.30893" lon="7.6421417"><ele>304.0</ele><time>2026-04-06T12:33:51.823Z</time></trkpt><trkpt lat="45.30898" lon="7.6420433"><ele>304.0</ele><time>2026-04-06T12:33:53.818Z</time></trkpt><trkpt lat="45.30903" lon="7.6419383"><ele>304.0</ele><time>2026-04-06T12:33:55.817Z</time></trkpt><trkpt lat="45.3090817" lon="7.641845"><ele>304.0</ele><time>2026-04-06T12:33:57.818Z</time></trkpt><trkpt lat="45.30914" lon="7.6417467"><ele>304.3333333333333</ele><time>2026-04-06T12:33:59.82Z</time></trkpt><trkpt lat="45.3091933" lon="7.6416483"><ele>304.66666666666663</ele><time>2026-04-06T12:34:01.827Z</time></trkpt><trkpt lat="45.3092417" lon="7.6415433"><ele>305.0</ele><time>2026-04-06T12:34:03.827Z</time></trkpt><trkpt lat="45.3092883" lon="7.641435"><ele>305.3333333333333</ele><time>2026-04-06T12:34:05.823Z</time></trkpt><trkpt lat="45.3093367" lon="7.6413283"><ele>305.6666666666667</ele><time>2026-04-06T12:34:07.821Z</time></trkpt><trkpt lat="45.3093967" lon="7.641235"><ele>306.0</ele><time>2026-04-06T12:34:09.82Z</time></trkpt><trkpt lat="45.30947" lon="7.64117"><ele>306.0</ele><time>2026-04-06T12:34:11.825Z</time></trkpt><trkpt lat="45.30956" lon="7.6411567"><ele>306.0</ele><time>2026-04-06T12:34:13.82Z</time></trkpt><trkpt lat="45.30966" lon="7.6411633"><ele>306.0</ele><time>2026-04-06T12:34:15.819Z</time></trkpt><trkpt lat="45.30976" lon="7.6411733"><ele>306.0</ele><time>2026-04-06T12:34:17.823Z</time></trkpt><trkpt lat="45.3098633" lon="7.64118"><ele>306.0</ele><time>2026-04-06T12:34:19.818Z</time></trkpt><trkpt lat="45.30997" lon="7.6411867"><ele>306.6</ele><time>2026-04-06T12:34:21.827Z</time></trkpt><trkpt lat="45.3100783" lon="7.641195"><ele>307.20000000000005</ele><time>2026-04-06T12:34:23.82Z</time></trkpt><trkpt lat="45.310185" lon="7.6412033"><ele>307.79999999999995</ele><time>2026-04-06T12:34:25.82Z</time></trkpt><trkpt lat="45.3102917" lon="7.6411983"><ele>308.4</ele><time>2026-04-06T12:34:27.82Z</time></trkpt><trkpt lat="45.3103917" lon="7.641185"><ele>309.0</ele><time>2026-04-06T12:34:29.822Z</time></trkpt><trkpt lat="45.3104867" lon="7.641175"><ele>309.2</ele><time>2026-04-06T12:34:31.825Z</time></trkpt><trkpt lat="45.3105833" lon="7.6411667"><ele>309.4</ele><time>2026-04-06T12:34:33.822Z</time></trkpt><trkpt lat="45.310675" lon="7.64116"><ele>309.6</ele><time>2026-04-06T12:34:35.821Z</time></trkpt><trkpt lat="45.3107667" lon="7.6411517"><ele>309.8</ele><time>2026-04-06T12:34:37.821Z</time></trkpt><trkpt lat="45.310855" lon="7.6411417"><ele>310.0</ele><time>2026-04-06T12:34:39.822Z</time></trkpt><trkpt lat="45.3109517" lon="7.6411567"><ele>310.0</ele><time>2026-04-06T12:34:41.821Z</time></trkpt><trkpt lat="45.3110583" lon="7.6411883"><ele>310.0</ele><time>2026-04-06T12:34:43.827Z</time></trkpt><trkpt lat="45.3111667" lon="7.64122"><ele>310.0</ele><time>2026-04-06T12:34:45.825Z</time></trkpt><trkpt lat="45.3112733" lon="7.6412533"><ele>310.0</ele><time>2026-04-06T12:34:47.826Z</time></trkpt><trkpt lat="45.3113817" lon="7.64129"><ele>310.0</ele><time>2026-04-06T12:34:49.826Z</time></trkpt><trkpt lat="45.3114933" lon="7.6413217"><ele>309.6</ele><time>2026-04-06T12:34:51.824Z</time></trkpt><trkpt lat="45.3116" lon="7.6413517"><ele>309.2</ele><time>2026-04-06T12:34:53.82Z</time></trkpt><trkpt lat="45.31171" lon="7.6413817"><ele>308.8</ele><time>2026-04-06T12:34:55.825Z</time></trkpt><trkpt lat="45.3118217" lon="7.64141"><ele>308.4</ele><time>2026-04-06T12:34:57.826Z</time></trkpt><trkpt lat="45.3119317" lon="7.6414367"><ele>308.0</ele><time>2026-04-06T12:34:59.825Z</time></trkpt><trkpt lat="45.3120417" lon="7.641445"><ele>308.0</ele><time>2026-04-06T12:35:01.824Z</time></trkpt><trkpt lat="45.31215" lon="7.6414283"><ele>308.0</ele><time>2026-04-06T12:35:03.815Z</time></trkpt><trkpt lat="45.3122533" lon="7.641385"><ele>308.0</ele><time>2026-04-06T12:35:05.82Z</time></trkpt><trkpt lat="45.3123483" lon="7.6413267"><ele>308.0</ele><time>2026-04-06T12:35:07.827Z</time></trkpt><trkpt lat="45.3124433" lon="7.641265"><ele>308.0</ele><time>2026-04-06T12:35:09.823Z</time></trkpt><trkpt lat="45.3125367" lon="7.6412133"><ele>307.2</ele><time>2026-04-06T12:35:11.827Z</time></trkpt><trkpt lat="45.3126367" lon="7.641165"><ele>306.4</ele><time>2026-04-06T12:35:13.82Z</time></trkpt><trkpt lat="45.3127417" lon="7.6411433"><ele>305.59999999999997</ele><time>2026-04-06T12:35:15.822Z</time></trkpt><trkpt lat="45.3128467" lon="7.64114"><ele>304.8</ele><time>2026-04-06T12:35:17.823Z</time></trkpt><trkpt lat="45.3129483" lon="7.6411433"><ele>304.0</ele><time>2026-04-06T12:35:19.825Z</time></trkpt><trkpt lat="45.3130517" lon="7.64114"><ele>304.59999999999997</ele><time>2026-04-06T12:35:21.825Z</time></trkpt><trkpt lat="45.3131517" lon="7.6411483"><ele>305.2</ele><time>2026-04-06T12:35:23.819Z</time></trkpt><trkpt lat="45.3132533" lon="7.64116"><ele>305.79999999999995</ele><time>2026-04-06T12:35:25.822Z</time></trkpt><trkpt lat="45.3133567" lon="7.6411683"><ele>306.4</ele><time>2026-04-06T12:35:27.823Z</time></trkpt><trkpt lat="45.3134583" lon="7.6411767"><ele>307.0</ele><time>2026-04-06T12:35:29.827Z</time></trkpt><trkpt lat="45.3135583" lon="7.6411867"><ele>307.0</ele><time>2026-04-06T12:35:31.824Z</time></trkpt><trkpt lat="45.31366" lon="7.641195"><ele>307.0</ele><time>2026-04-06T12:35:33.833Z</time></trkpt><trkpt lat="45.3137633" lon="7.6412067"><ele>307.0</ele><time>2026-04-06T12:35:35.824Z</time></trkpt><trkpt lat="45.3138633" lon="7.6412317"><ele>307.0</ele><time>2026-04-06T12:35:37.825Z</time></trkpt><trkpt lat="45.3139583" lon="7.6412517"><ele>307.0</ele><time>2026-04-06T12:35:39.819Z</time></trkpt><trkpt lat="45.314055" lon="7.6412417"><ele>307.2</ele><time>2026-04-06T12:35:41.826Z</time></trkpt><trkpt lat="45.3141517" lon="7.6412033"><ele>307.4</ele><time>2026-04-06T12:35:43.827Z</time></trkpt><trkpt lat="45.314245" lon="7.64115"><ele>307.6</ele><time>2026-04-06T12:35:45.827Z</time></trkpt><trkpt lat="45.31434" lon="7.641085"><ele>307.8</ele><time>2026-04-06T12:35:47.826Z</time></trkpt><trkpt lat="45.31443" lon="7.6410133"><ele>308.0</ele><time>2026-04-06T12:35:49.823Z</time></trkpt><trkpt lat="45.3145183" lon="7.6409383"><ele>308.2</ele><time>2026-04-06T12:35:51.822Z</time></trkpt><trkpt lat="45.314605" lon="7.64086"><ele>308.4</ele><time>2026-04-06T12:35:53.821Z</time></trkpt><trkpt lat="45.3146883" lon="7.6407733"><ele>308.59999999999997</ele><time>2026-04-06T12:35:55.821Z</time></trkpt><trkpt lat="45.3147633" lon="7.640675"><ele>308.8</ele><time>2026-04-06T12:35:57.82Z</time></trkpt><trkpt lat="45.3148367" lon="7.64058"><ele>309.0</ele><time>2026-04-06T12:35:59.822Z</time></trkpt><trkpt lat="45.314915" lon="7.6404833"><ele>309.0</ele><time>2026-04-06T12:36:01.828Z</time></trkpt><trkpt lat="45.3149933" lon="7.64039"><ele>309.0</ele><time>2026-04-06T12:36:03.825Z</time></trkpt><trkpt lat="45.3150733" lon="7.6402917"><ele>309.0</ele><time>2026-04-06T12:36:05.825Z</time></trkpt><trkpt lat="45.31515" lon="7.640195"><ele>309.0</ele><time>2026-04-06T12:36:07.822Z</time></trkpt><trkpt lat="45.3152267" lon="7.6400967"><ele>309.0</ele><time>2026-04-06T12:36:09.829Z</time></trkpt><trkpt lat="45.3153067" lon="7.6400017"><ele>309.4</ele><time>2026-04-06T12:36:11.824Z</time></trkpt><trkpt lat="45.3153867" lon="7.6399133"><ele>309.79999999999995</ele><time>2026-04-06T12:36:13.827Z</time></trkpt><trkpt lat="45.315465" lon="7.6398317"><ele>310.20000000000005</ele><time>2026-04-06T12:36:15.821Z</time></trkpt><trkpt lat="45.315545" lon="7.6397483"><ele>310.6</ele><time>2026-04-06T12:36:17.82Z</time></trkpt><trkpt lat="45.315625" lon="7.6396583"><ele>311.0</ele><time>2026-04-06T12:36:19.826Z</time></trkpt><trkpt lat="45.3157033" lon="7.63956"><ele>311.8</ele><time>2026-04-06T12:36:21.825Z</time></trkpt><trkpt lat="45.3157867" lon="7.639465"><ele>312.6</ele><time>2026-04-06T12:36:23.824Z</time></trkpt><trkpt lat="45.31584" lon="7.6393567"><ele>313.4</ele><time>2026-04-06T12:36:25.823Z</time></trkpt><trkpt lat="45.3158183" lon="7.6392367"><ele>314.2</ele><time>2026-04-06T12:36:27.825Z</time></trkpt><trkpt lat="45.3157483" lon="7.6391567"><ele>315.0</ele><time>2026-04-06T12:36:29.823Z</time></trkpt><trkpt lat="45.315685" lon="7.6390617"><ele>315.0</ele><time>2026-04-06T12:36:31.823Z</time></trkpt><trkpt lat="45.31567" lon="7.6389417"><ele>315.0</ele><time>2026-04-06T12:36:33.826Z</time></trkpt><trkpt lat="45.3157167" lon="7.63882"><ele>315.0</ele><time>2026-04-06T12:36:35.823Z</time></trkpt><trkpt lat="45.3157867" lon="7.638715"><ele>315.0</ele><time>2026-04-06T12:36:37.822Z</time></trkpt><trkpt lat="45.31586" lon="7.6386083"><ele>315.0</ele><time>2026-04-06T12:36:39.831Z</time></trkpt><trkpt lat="45.3159317" lon="7.6385083"><ele>315.4</ele><time>2026-04-06T12:36:41.822Z</time></trkpt><trkpt lat="45.3160033" lon="7.6384033"><ele>315.8</ele><time>2026-04-06T12:36:43.827Z</time></trkpt><trkpt lat="45.3160717" lon="7.6382933"><ele>316.2</ele><time>2026-04-06T12:36:45.825Z</time></trkpt><trkpt lat="45.3161433" lon="7.6381833"><ele>316.6</ele><time>2026-04-06T12:36:47.818Z</time></trkpt><trkpt lat="45.3162267" lon="7.6380817"><ele>317.0</ele><time>2026-04-06T12:36:49.826Z</time></trkpt><trkpt lat="45.31632" lon="7.638025"><ele>316.8</ele><time>2026-04-06T12:36:51.824Z</time></trkpt><trkpt lat="45.31642" lon="7.63801"><ele>316.6</ele><time>2026-04-06T12:36:53.823Z</time></trkpt><trkpt lat="45.3165233" lon="7.6380083"><ele>316.40000000000003</ele><time>2026-04-06T12:36:55.825Z</time></trkpt><trkpt lat="45.31662" lon="7.637995"><ele>316.2</ele><time>2026-04-06T12:36:57.823Z</time></trkpt><trkpt lat="45.3167183" lon="7.6379583"><ele>316.0</ele><time>2026-04-06T12:36:59.823Z</time></trkpt><trkpt lat="45.3168117" lon="7.63789"><ele>316.40000000000003</ele><time>2026-04-06T12:37:01.826Z</time></trkpt><trkpt lat="45.316885" lon="7.6377933"><ele>316.8</ele><time>2026-04-06T12:37:03.826Z</time></trkpt><trkpt lat="45.3169417" lon="7.6376833"><ele>317.20000000000005</ele><time>2026-04-06T12:37:05.819Z</time></trkpt><trkpt lat="45.3169783" lon="7.63755"><ele>317.6</ele><time>2026-04-06T12:37:07.824Z</time></trkpt><trkpt lat="45.3169967" lon="7.6374083"><ele>318.0</ele><time>2026-04-06T12:37:09.823Z</time></trkpt><trkpt lat="45.3169983" lon="7.6372633"><ele>318.0</ele><time>2026-04-06T12:37:11.824Z</time></trkpt><trkpt lat="45.316985" lon="7.63712"><ele>318.0</ele><time>2026-04-06T12:37:13.824Z</time></trkpt><trkpt lat="45.3169533" lon="7.6369767"><ele>318.0</ele><time>2026-04-06T12:37:15.826Z</time></trkpt><trkpt lat="45.3169133" lon="7.63683"><ele>318.0</ele><time>2026-04-06T12:37:17.82Z</time></trkpt><trkpt lat="45.3168767" lon="7.6366867"><ele>318.0</ele><time>2026-04-06T12:37:19.828Z</time></trkpt><trkpt lat="45.3168383" lon="7.63655"><ele>317.6</ele><time>2026-04-06T12:37:21.823Z</time></trkpt><trkpt lat="45.3168083" lon="7.6364183"><ele>317.20000000000005</ele><time>2026-04-06T12:37:23.82Z</time></trkpt><trkpt lat="45.3167817" lon="7.6362767"><ele>316.8</ele><time>2026-04-06T12:37:25.827Z</time></trkpt><trkpt lat="45.31675" lon="7.6361317"><ele>316.40000000000003</ele><time>2026-04-06T12:37:27.823Z</time></trkpt><trkpt lat="45.3167083" lon="7.6359933"><ele>316.0</ele><time>2026-04-06T12:37:29.821Z</time></trkpt><trkpt lat="45.316665" lon="7.63585"><ele>316.0</ele><time>2026-04-06T12:37:31.828Z</time></trkpt><trkpt lat="45.3166233" lon="7.6357083"><ele>316.0</ele><time>2026-04-06T12:37:33.82Z</time></trkpt><trkpt lat="45.3165767" lon="7.6355733"><ele>316.0</ele><time>2026-04-06T12:37:35.823Z</time></trkpt><trkpt lat="45.31653" lon="7.63544"><ele>316.0</ele><time>2026-04-06T12:37:37.824Z</time></trkpt><trkpt lat="45.316485" lon="7.6353083"><ele>316.0</ele><time>2026-04-06T12:37:39.822Z</time></trkpt><trkpt lat="45.3164367" lon="7.6351783"><ele>315.6</ele><time>2026-04-06T12:37:41.828Z</time></trkpt><trkpt lat="45.3163817" lon="7.6350617"><ele>315.20000000000005</ele><time>2026-04-06T12:37:43.831Z</time></trkpt><trkpt lat="45.3163017" lon="7.63498"><ele>314.79999999999995</ele><time>2026-04-06T12:37:45.825Z</time></trkpt><trkpt lat="45.3162" lon="7.634985"><ele>314.4</ele><time>2026-04-06T12:37:47.821Z</time></trkpt><trkpt lat="45.3161083" lon="7.63506"><ele>314.0</ele><time>2026-04-06T12:37:49.822Z</time></trkpt><trkpt lat="45.31602" lon="7.63516"><ele>314.0</ele><time>2026-04-06T12:37:51.822Z</time></trkpt><trkpt lat="45.315925" lon="7.63525"><ele>314.0</ele><time>2026-04-06T12:37:53.824Z</time></trkpt><trkpt lat="45.3158233" lon="7.6353033"><ele>314.0</ele><time>2026-04-06T12:37:55.819Z</time></trkpt><trkpt lat="45.3157267" lon="7.635255"><ele>314.0</ele><time>2026-04-06T12:37:57.822Z</time></trkpt><trkpt lat="45.3156833" lon="7.6351283"><ele>314.0</ele><time>2026-04-06T12:37:59.822Z</time></trkpt><trkpt lat="45.3156867" lon="7.634975"><ele>314.0</ele><time>2026-04-06T12:38:01.823Z</time></trkpt><trkpt lat="45.3156883" lon="7.634825"><ele>314.0</ele><time>2026-04-06T12:38:03.826Z</time></trkpt><trkpt lat="45.315685" lon="7.6346783"><ele>314.0</ele><time>2026-04-06T12:38:05.821Z</time></trkpt><trkpt lat="45.3156783" lon="7.6345317"><ele>314.0</ele><time>2026-04-06T12:38:07.823Z</time></trkpt><trkpt lat="45.3156767" lon="7.6343833"><ele>314.0</ele><time>2026-04-06T12:38:09.822Z</time></trkpt><trkpt lat="45.315675" lon="7.6342333"><ele>314.2</ele><time>2026-04-06T12:38:11.819Z</time></trkpt><trkpt lat="45.3156617" lon="7.6340867"><ele>314.4</ele><time>2026-04-06T12:38:13.824Z</time></trkpt><trkpt lat="45.3156417" lon="7.6339433"><ele>314.6</ele><time>2026-04-06T12:38:15.822Z</time></trkpt><trkpt lat="45.3156133" lon="7.6338"><ele>314.8</ele><time>2026-04-06T12:38:17.826Z</time></trkpt><trkpt lat="45.3155933" lon="7.6336583"><ele>315.0</ele><time>2026-04-06T12:38:19.823Z</time></trkpt><trkpt lat="45.3155983" lon="7.6335183"><ele>315.3333333333333</ele><time>2026-04-06T12:38:21.824Z</time></trkpt><trkpt lat="45.3156533" lon="7.6334133"><ele>315.6666666666667</ele><time>2026-04-06T12:38:23.827Z</time></trkpt><trkpt lat="45.31574" lon="7.63336"><ele>316.0</ele><time>2026-04-06T12:38:25.818Z</time></trkpt><trkpt lat="45.3157917" lon="7.63328"><ele>316.33333333333337</ele><time>2026-04-06T12:38:27.819Z</time></trkpt><trkpt lat="45.31578" lon="7.6331683"><ele>316.6666666666667</ele><time>2026-04-06T12:38:29.822Z</time></trkpt><trkpt lat="45.3157333" lon="7.6330567"><ele>317.0</ele><time>2026-04-06T12:38:31.818Z</time></trkpt><trkpt lat="45.3156833" lon="7.6329383"><ele>317.0</ele><time>2026-04-06T12:38:33.822Z</time></trkpt><trkpt lat="45.3156283" lon="7.6328133"><ele>317.0</ele><time>2026-04-06T12:38:35.822Z</time></trkpt><trkpt lat="45.3155683" lon="7.6326933"><ele>317.0</ele><time>2026-04-06T12:38:37.821Z</time></trkpt><trkpt lat="45.3155183" lon="7.63257"><ele>317.0</ele><time>2026-04-06T12:38:39.819Z</time></trkpt><trkpt lat="45.3154817" lon="7.6324417"><ele>317.0</ele><time>2026-04-06T12:38:41.818Z</time></trkpt><trkpt lat="45.3154667" lon="7.6323033"><ele>316.8</ele><time>2026-04-06T12:38:43.819Z</time></trkpt><trkpt lat="45.31547" lon="7.63217"><ele>316.6</ele><time>2026-04-06T12:38:45.821Z</time></trkpt><trkpt lat="45.3154767" lon="7.6320383"><ele>316.40000000000003</ele><time>2026-04-06T12:38:47.821Z</time></trkpt><trkpt lat="45.3154883" lon="7.6319067"><ele>316.2</ele><time>2026-04-06T12:38:49.822Z</time></trkpt><trkpt lat="45.31549" lon="7.6317717"><ele>316.0</ele><time>2026-04-06T12:38:51.82Z</time></trkpt><trkpt lat="45.3154833" lon="7.63164"><ele>316.0</ele><time>2026-04-06T12:38:53.819Z</time></trkpt><trkpt lat="45.3154683" lon="7.6315067"><ele>316.0</ele><time>2026-04-06T12:38:55.821Z</time></trkpt><trkpt lat="45.3154467" lon="7.63137"><ele>316.0</ele><time>2026-04-06T12:38:57.82Z</time></trkpt><trkpt lat="45.3154267" lon="7.6312317"><ele>316.0</ele><time>2026-04-06T12:38:59.82Z</time></trkpt><trkpt lat="45.31541" lon="7.63109"><ele>316.0</ele><time>2026-04-06T12:39:01.819Z</time></trkpt><trkpt lat="45.3154" lon="7.6309467"><ele>316.8</ele><time>2026-04-06T12:39:03.822Z</time></trkpt><trkpt lat="45.315385" lon="7.6308067"><ele>317.6</ele><time>2026-04-06T12:39:05.828Z</time></trkpt><trkpt lat="45.315365" lon="7.6306667"><ele>318.4</ele><time>2026-04-06T12:39:07.824Z</time></trkpt><trkpt lat="45.3153567" lon="7.630525"><ele>319.2</ele><time>2026-04-06T12:39:09.819Z</time></trkpt><trkpt lat="45.315365" lon="7.63038"><ele>320.0</ele><time>2026-04-06T12:39:11.819Z</time></trkpt><trkpt lat="45.31539" lon="7.6302383"><ele>320.4</ele><time>2026-04-06T12:39:13.82Z</time></trkpt><trkpt lat="45.3154217" lon="7.6300983"><ele>320.8</ele><time>2026-04-06T12:39:15.819Z</time></trkpt><trkpt lat="45.3154667" lon="7.629965"><ele>321.20000000000005</ele><time>2026-04-06T12:39:17.822Z</time></trkpt><trkpt lat="45.3155033" lon="7.6298383"><ele>321.6</ele><time>2026-04-06T12:39:19.825Z</time></trkpt><trkpt lat="45.3155417" lon="7.629715"><ele>322.0</ele><time>2026-04-06T12:39:21.823Z</time></trkpt><trkpt lat="45.3155867" lon="7.6295933"><ele>321.40000000000003</ele><time>2026-04-06T12:39:23.82Z</time></trkpt><trkpt lat="45.3156417" lon="7.629475"><ele>320.8</ele><time>2026-04-06T12:39:25.82Z</time></trkpt><trkpt lat="45.315695" lon="7.62936"><ele>320.2</ele><time>2026-04-06T12:39:27.819Z</time></trkpt><trkpt lat="45.31574" lon="7.6292433"><ele>319.6</ele><time>2026-04-06T12:39:29.821Z</time></trkpt><trkpt lat="45.315775" lon="7.6291183"><ele>319.0</ele><time>2026-04-06T12:39:31.822Z</time></trkpt><trkpt lat="45.31581" lon="7.6289933"><ele>319.0</ele><time>2026-04-06T12:39:33.821Z</time></trkpt><trkpt lat="45.3158367" lon="7.6288683"><ele>319.0</ele><time>2026-04-06T12:39:35.822Z</time></trkpt><trkpt lat="45.31587" lon="7.6287467"><ele>319.0</ele><time>2026-04-06T12:39:37.819Z</time></trkpt><trkpt lat="45.3159117" lon="7.6286267"><ele>319.0</ele><time>2026-04-06T12:39:39.823Z</time></trkpt><trkpt lat="45.315965" lon="7.6285217"><ele>319.0</ele><time>2026-04-06T12:39:41.829Z</time></trkpt><trkpt lat="45.3160267" lon="7.62842"><ele>318.8</ele><time>2026-04-06T12:39:43.819Z</time></trkpt><trkpt lat="45.31608" lon="7.62832"><ele>318.59999999999997</ele><time>2026-04-06T12:39:45.821Z</time></trkpt><trkpt lat="45.316125" lon="7.6282033"><ele>318.4</ele><time>2026-04-06T12:39:47.824Z</time></trkpt><trkpt lat="45.3161517" lon="7.6280733"><ele>318.2</ele><time>2026-04-06T12:39:49.824Z</time></trkpt><trkpt lat="45.3161633" lon="7.62794"><ele>318.0</ele><time>2026-04-06T12:39:51.819Z</time></trkpt><trkpt lat="45.3161667" lon="7.6278017"><ele>318.4</ele><time>2026-04-06T12:39:53.819Z</time></trkpt><trkpt lat="45.3161767" lon="7.6276617"><ele>318.8</ele><time>2026-04-06T12:39:55.821Z</time></trkpt><trkpt lat="45.3161933" lon="7.6275217"><ele>319.2</ele><time>2026-04-06T12:39:57.821Z</time></trkpt><trkpt lat="45.3162083" lon="7.62739"><ele>319.6</ele><time>2026-04-06T12:39:59.823Z</time></trkpt><trkpt lat="45.3162117" lon="7.6272617"><ele>320.0</ele><time>2026-04-06T12:40:01.819Z</time></trkpt><trkpt lat="45.3161983" lon="7.627135"><ele>320.0</ele><time>2026-04-06T12:40:03.822Z</time></trkpt><trkpt lat="45.3161767" lon="7.6270033"><ele>320.0</ele><time>2026-04-06T12:40:05.818Z</time></trkpt><trkpt lat="45.3161783" lon="7.6268683"><ele>320.0</ele><time>2026-04-06T12:40:07.821Z</time></trkpt><trkpt lat="45.316205" lon="7.62674"><ele>320.0</ele><time>2026-04-06T12:40:09.825Z</time></trkpt><trkpt lat="45.3162417" lon="7.626615"><ele>320.0</ele><time>2026-04-06T12:40:11.822Z</time></trkpt><trkpt lat="45.31628" lon="7.6264917"><ele>320.4</ele><time>2026-04-06T12:40:13.825Z</time></trkpt><trkpt lat="45.31631" lon="7.6263633"><ele>320.8</ele><time>2026-04-06T12:40:15.818Z</time></trkpt><trkpt lat="45.3163383" lon="7.6262333"><ele>321.20000000000005</ele><time>2026-04-06T12:40:17.825Z</time></trkpt><trkpt lat="45.316365" lon="7.626105"><ele>321.6</ele><time>2026-04-06T12:40:19.823Z</time></trkpt><trkpt lat="45.3163983" lon="7.6259783"><ele>322.0</ele><time>2026-04-06T12:40:21.819Z</time></trkpt><trkpt lat="45.3164317" lon="7.6258583"><ele>322.20000000000005</ele><time>2026-04-06T12:40:23.822Z</time></trkpt><trkpt lat="45.3164567" lon="7.6257267"><ele>322.4</ele><time>2026-04-06T12:40:25.82Z</time></trkpt><trkpt lat="45.31648" lon="7.625595"><ele>322.6</ele><time>2026-04-06T12:40:27.818Z</time></trkpt><trkpt lat="45.316505" lon="7.6254717"><ele>322.79999999999995</ele><time>2026-04-06T12:40:29.827Z</time></trkpt><trkpt lat="45.3165217" lon="7.6253317"><ele>323.0</ele><time>2026-04-06T12:40:31.821Z</time></trkpt><trkpt lat="45.3165417" lon="7.6251933"><ele>323.4</ele><time>2026-04-06T12:40:33.821Z</time></trkpt><trkpt lat="45.3165667" lon="7.6250533"><ele>323.79999999999995</ele><time>2026-04-06T12:40:35.821Z</time></trkpt><trkpt lat="45.316585" lon="7.624915"><ele>324.2</ele><time>2026-04-06T12:40:37.826Z</time></trkpt><trkpt lat="45.3166017" lon="7.624775"><ele>324.6</ele><time>2026-04-06T12:40:39.825Z</time></trkpt><trkpt lat="45.3166167" lon="7.6246383"><ele>325.0</ele><time>2026-04-06T12:40:41.825Z</time></trkpt><trkpt lat="45.316635" lon="7.6245017"><ele>325.0</ele><time>2026-04-06T12:40:43.821Z</time></trkpt><trkpt lat="45.316655" lon="7.624365"><ele>325.0</ele><time>2026-04-06T12:40:45.821Z</time></trkpt><trkpt lat="45.316665" lon="7.624235"><ele>325.0</ele><time>2026-04-06T12:40:47.824Z</time></trkpt><trkpt lat="45.3166233" lon="7.6241483"><ele>325.0</ele><time>2026-04-06T12:40:49.821Z</time></trkpt><trkpt lat="45.316545" lon="7.6241417"><ele>325.0</ele><time>2026-04-06T12:40:51.819Z</time></trkpt><trkpt lat="45.3164633" lon="7.6241517"><ele>325.0</ele><time>2026-04-06T12:40:53.825Z</time></trkpt><trkpt lat="45.316375" lon="7.6241567"><ele>325.0</ele><time>2026-04-06T12:40:55.824Z</time></trkpt><trkpt lat="45.3162817" lon="7.6241617"><ele>325.0</ele><time>2026-04-06T12:40:57.821Z</time></trkpt><trkpt lat="45.3161833" lon="7.62416"><ele>325.0</ele><time>2026-04-06T12:40:59.831Z</time></trkpt><trkpt lat="45.316085" lon="7.6241633"><ele>325.0</ele><time>2026-04-06T12:41:01.822Z</time></trkpt><trkpt lat="45.3159867" lon="7.62417"><ele>325.0</ele><time>2026-04-06T12:41:03.825Z</time></trkpt><trkpt lat="45.3158867" lon="7.6241733"><ele>325.0</ele><time>2026-04-06T12:41:05.82Z</time></trkpt><trkpt lat="45.31579" lon="7.6241833"><ele>325.0</ele><time>2026-04-06T12:41:07.819Z</time></trkpt><trkpt lat="45.315695" lon="7.6242"><ele>325.0</ele><time>2026-04-06T12:41:09.828Z</time></trkpt><trkpt lat="45.3156" lon="7.6242133"><ele>325.0</ele><time>2026-04-06T12:41:11.819Z</time></trkpt><trkpt lat="45.3155033" lon="7.624225"><ele>325.0</ele><time>2026-04-06T12:41:13.823Z</time></trkpt><trkpt lat="45.3154067" lon="7.62424"><ele>325.2</ele><time>2026-04-06T12:41:15.824Z</time></trkpt><trkpt lat="45.3153083" lon="7.6242467"><ele>325.4</ele><time>2026-04-06T12:41:17.819Z</time></trkpt><trkpt lat="45.315205" lon="7.62425"><ele>325.6</ele><time>2026-04-06T12:41:19.823Z</time></trkpt><trkpt lat="45.3150983" lon="7.62425"><ele>325.8</ele><time>2026-04-06T12:41:21.824Z</time></trkpt><trkpt lat="45.3149917" lon="7.62426"><ele>326.0</ele><time>2026-04-06T12:41:23.824Z</time></trkpt><trkpt lat="45.3148883" lon="7.6242817"><ele>326.0</ele><time>2026-04-06T12:41:25.823Z</time></trkpt><trkpt lat="45.3147867" lon="7.6243267"><ele>326.0</ele><time>2026-04-06T12:41:27.823Z</time></trkpt><trkpt lat="45.314685" lon="7.624385"><ele>326.0</ele><time>2026-04-06T12:41:29.823Z</time></trkpt><trkpt lat="45.314585" lon="7.6244367"><ele>326.0</ele><time>2026-04-06T12:41:31.82Z</time></trkpt><trkpt lat="45.314485" lon="7.6244883"><ele>326.0</ele><time>2026-04-06T12:41:33.821Z</time></trkpt><trkpt lat="45.3143833" lon="7.6245317"><ele>325.8</ele><time>2026-04-06T12:41:35.821Z</time></trkpt><trkpt lat="45.314275" lon="7.6245467"><ele>325.6</ele><time>2026-04-06T12:41:37.824Z</time></trkpt><trkpt lat="45.3141683" lon="7.62456"><ele>325.4</ele><time>2026-04-06T12:41:39.824Z</time></trkpt><trkpt lat="45.31406" lon="7.6245917"><ele>325.2</ele><time>2026-04-06T12:41:41.824Z</time></trkpt><trkpt lat="45.3139533" lon="7.6246167"><ele>325.0</ele><time>2026-04-06T12:41:43.819Z</time></trkpt><trkpt lat="45.313845" lon="7.62462"><ele>325.0</ele><time>2026-04-06T12:41:45.821Z</time></trkpt><trkpt lat="45.3137417" lon="7.62461"><ele>325.0</ele><time>2026-04-06T12:41:47.826Z</time></trkpt><trkpt lat="45.3136367" lon="7.6246"><ele>325.0</ele><time>2026-04-06T12:41:49.825Z</time></trkpt><trkpt lat="45.3135317" lon="7.62459"><ele>325.0</ele><time>2026-04-06T12:41:51.82Z</time></trkpt><trkpt lat="45.3134283" lon="7.6245533"><ele>325.0</ele><time>2026-04-06T12:41:53.827Z</time></trkpt><trkpt lat="45.313325" lon="7.624535"><ele>325.0</ele><time>2026-04-06T12:41:55.827Z</time></trkpt><trkpt lat="45.3132183" lon="7.6245183"><ele>325.0</ele><time>2026-04-06T12:41:57.82Z</time></trkpt><trkpt lat="45.313115" lon="7.624495"><ele>325.0</ele><time>2026-04-06T12:41:59.822Z</time></trkpt><trkpt lat="45.3130117" lon="7.6244717"><ele>325.0</ele><time>2026-04-06T12:42:01.826Z</time></trkpt><trkpt lat="45.31291" lon="7.6244467"><ele>325.0</ele><time>2026-04-06T12:42:03.824Z</time></trkpt><trkpt lat="45.3128117" lon="7.62443"><ele>324.8</ele><time>2026-04-06T12:42:05.818Z</time></trkpt><trkpt lat="45.3127167" lon="7.62442"><ele>324.6</ele><time>2026-04-06T12:42:07.821Z</time></trkpt><trkpt lat="45.3126217" lon="7.6244267"><ele>324.4</ele><time>2026-04-06T12:42:09.824Z</time></trkpt><trkpt lat="45.31253" lon="7.6244433"><ele>324.2</ele><time>2026-04-06T12:42:11.822Z</time></trkpt><trkpt lat="45.3124383" lon="7.6244533"><ele>324.0</ele><time>2026-04-06T12:42:13.824Z</time></trkpt><trkpt lat="45.312345" lon="7.6244633"><ele>324.0</ele><time>2026-04-06T12:42:15.82Z</time></trkpt><trkpt lat="45.3122517" lon="7.62446"><ele>324.0</ele><time>2026-04-06T12:42:17.82Z</time></trkpt><trkpt lat="45.3121667" lon="7.6244433"><ele>324.0</ele><time>2026-04-06T12:42:19.821Z</time></trkpt><trkpt lat="45.312085" lon="7.624425"><ele>324.0</ele><time>2026-04-06T12:42:21.823Z</time></trkpt><trkpt lat="45.3120733" lon="7.6243167"><ele>324.0</ele><time>2026-04-06T12:42:23.823Z</time></trkpt><trkpt lat="45.3120933" lon="7.6241833"><ele>324.0</ele><time>2026-04-06T12:42:25.825Z</time></trkpt><trkpt lat="45.31211" lon="7.6240583"><ele>324.1666666666667</ele><time>2026-04-06T12:42:27.824Z</time></trkpt><trkpt lat="45.312125" lon="7.6239383"><ele>324.3333333333333</ele><time>2026-04-06T12:42:29.823Z</time></trkpt><trkpt lat="45.31214" lon="7.623815"><ele>324.5</ele><time>2026-04-06T12:42:31.823Z</time></trkpt><trkpt lat="45.312155" lon="7.6236867"><ele>324.66666666666663</ele><time>2026-04-06T12:42:33.821Z</time></trkpt><trkpt lat="45.3121733" lon="7.6235617"><ele>324.8333333333333</ele><time>2026-04-06T12:42:35.827Z</time></trkpt><trkpt lat="45.3121917" lon="7.6234417"><ele>325.0</ele><time>2026-04-06T12:42:37.823Z</time></trkpt><trkpt lat="45.3122133" lon="7.6233167"><ele>325.2</ele><time>2026-04-06T12:42:39.822Z</time></trkpt><trkpt lat="45.3122383" lon="7.6231883"><ele>325.4</ele><time>2026-04-06T12:42:41.826Z</time></trkpt><trkpt lat="45.3122667" lon="7.6230633"><ele>325.6</ele><time>2026-04-06T12:42:43.823Z</time></trkpt><trkpt lat="45.3123017" lon="7.6229383"><ele>325.8</ele><time>2026-04-06T12:42:45.819Z</time></trkpt><trkpt lat="45.312345" lon="7.622815"><ele>326.0</ele><time>2026-04-06T12:42:47.828Z</time></trkpt><trkpt lat="45.3123817" lon="7.62269"><ele>326.20000000000005</ele><time>2026-04-06T12:42:49.825Z</time></trkpt><trkpt lat="45.3124017" lon="7.622555"><ele>326.40000000000003</ele><time>2026-04-06T12:42:51.824Z</time></trkpt><trkpt lat="45.31242" lon="7.6224183"><ele>326.6</ele><time>2026-04-06T12:42:53.818Z</time></trkpt><trkpt lat="45.312435" lon="7.62228"><ele>326.8</ele><time>2026-04-06T12:42:55.823Z</time></trkpt><trkpt lat="45.3124467" lon="7.62214"><ele>327.0</ele><time>2026-04-06T12:42:57.823Z</time></trkpt><trkpt lat="45.3124617" lon="7.622"><ele>327.5</ele><time>2026-04-06T12:42:59.82Z</time></trkpt><trkpt lat="45.312475" lon="7.6218633"><ele>328.0</ele><time>2026-04-06T12:43:01.82Z</time></trkpt><trkpt lat="45.3124867" lon="7.6217317"><ele>328.5</ele><time>2026-04-06T12:43:03.819Z</time></trkpt><trkpt lat="45.3125017" lon="7.6216067"><ele>329.0</ele><time>2026-04-06T12:43:05.824Z</time></trkpt><trkpt lat="45.312525" lon="7.6214933"><ele>329.5</ele><time>2026-04-06T12:43:07.824Z</time></trkpt><trkpt lat="45.3125833" lon="7.62141"><ele>330.0</ele><time>2026-04-06T12:43:09.822Z</time></trkpt><trkpt lat="45.3126667" lon="7.6213517"><ele>330.0</ele><time>2026-04-06T12:43:11.821Z</time></trkpt><trkpt lat="45.3127617" lon="7.6213283"><ele>330.0</ele><time>2026-04-06T12:43:13.823Z</time></trkpt><trkpt lat="45.3128483" lon="7.6212833"><ele>330.0</ele><time>2026-04-06T12:43:15.818Z</time></trkpt><trkpt lat="45.3129067" lon="7.621185"><ele>330.0</ele><time>2026-04-06T12:43:17.822Z</time></trkpt><trkpt lat="45.3129317" lon="7.62106"><ele>330.0</ele><time>2026-04-06T12:43:19.822Z</time></trkpt><trkpt lat="45.3129767" lon="7.62094"><ele>330.2</ele><time>2026-04-06T12:43:21.82Z</time></trkpt><trkpt lat="45.3130583" lon="7.6208667"><ele>330.4</ele><time>2026-04-06T12:43:23.822Z</time></trkpt><trkpt lat="45.3131567" lon="7.62083"><ele>330.6</ele><time>2026-04-06T12:43:25.828Z</time></trkpt><trkpt lat="45.313255" lon="7.6207833"><ele>330.8</ele><time>2026-04-06T12:43:27.82Z</time></trkpt><trkpt lat="45.313335" lon="7.6207033"><ele>331.0</ele><time>2026-04-06T12:43:29.822Z</time></trkpt><trkpt lat="45.3133867" lon="7.6205933"><ele>331.0</ele><time>2026-04-06T12:43:31.821Z</time></trkpt><trkpt lat="45.31341" lon="7.6204617"><ele>331.0</ele><time>2026-04-06T12:43:33.823Z</time></trkpt><trkpt lat="45.313435" lon="7.6203233"><ele>331.0</ele><time>2026-04-06T12:43:35.821Z</time></trkpt><trkpt lat="45.3134617" lon="7.6201917"><ele>331.0</ele><time>2026-04-06T12:43:37.823Z</time></trkpt><trkpt lat="45.3134833" lon="7.62006"><ele>331.0</ele><time>2026-04-06T12:43:39.824Z</time></trkpt><trkpt lat="45.3135033" lon="7.61993"><ele>331.20000000000005</ele><time>2026-04-06T12:43:41.821Z</time></trkpt><trkpt lat="45.3135183" lon="7.6198"><ele>331.40000000000003</ele><time>2026-04-06T12:43:43.826Z</time></trkpt><trkpt lat="45.3135333" lon="7.6196633"><ele>331.6</ele><time>2026-04-06T12:43:45.824Z</time></trkpt><trkpt lat="45.313545" lon="7.6195233"><ele>331.8</ele><time>2026-04-06T12:43:47.822Z</time></trkpt><trkpt lat="45.3135583" lon="7.6193833"><ele>332.0</ele><time>2026-04-06T12:43:49.821Z</time></trkpt><trkpt lat="45.3135867" lon="7.6192517"><ele>332.20000000000005</ele><time>2026-04-06T12:43:51.828Z</time></trkpt><trkpt lat="45.313655" lon="7.6191567"><ele>332.4</ele><time>2026-04-06T12:43:53.827Z</time></trkpt><trkpt lat="45.3137517" lon="7.6191317"><ele>332.6</ele><time>2026-04-06T12:43:55.819Z</time></trkpt><trkpt lat="45.313835" lon="7.6190767"><ele>332.79999999999995</ele><time>2026-04-06T12:43:57.821Z</time></trkpt><trkpt lat="45.3138817" lon="7.6189633"><ele>333.0</ele><time>2026-04-06T12:43:59.82Z</time></trkpt><trkpt lat="45.313895" lon="7.6188217"><ele>333.0</ele><time>2026-04-06T12:44:01.824Z</time></trkpt><trkpt lat="45.3139017" lon="7.61868"><ele>333.0</ele><time>2026-04-06T12:44:03.818Z</time></trkpt><trkpt lat="45.3139067" lon="7.6185383"><ele>333.0</ele><time>2026-04-06T12:44:05.82Z</time></trkpt><trkpt lat="45.313915" lon="7.6183983"><ele>333.0</ele><time>2026-04-06T12:44:07.824Z</time></trkpt><trkpt lat="45.3139267" lon="7.6182567"><ele>333.0</ele><time>2026-04-06T12:44:09.824Z</time></trkpt><trkpt lat="45.313935" lon="7.61812"><ele>332.79999999999995</ele><time>2026-04-06T12:44:11.827Z</time></trkpt><trkpt lat="45.3139283" lon="7.6179883"><ele>332.6</ele><time>2026-04-06T12:44:13.826Z</time></trkpt><trkpt lat="45.3139033" lon="7.6178517"><ele>332.4</ele><time>2026-04-06T12:44:15.82Z</time></trkpt><trkpt lat="45.313865" lon="7.61773"><ele>332.20000000000005</ele><time>2026-04-06T12:44:17.821Z</time></trkpt><trkpt lat="45.3138233" lon="7.6176067"><ele>332.0</ele><time>2026-04-06T12:44:19.821Z</time></trkpt><trkpt lat="45.3137783" lon="7.6174833"><ele>332.33333333333337</ele><time>2026-04-06T12:44:21.82Z</time></trkpt><trkpt lat="45.3137333" lon="7.6173667"><ele>332.6666666666667</ele><time>2026-04-06T12:44:23.819Z</time></trkpt><trkpt lat="45.3136883" lon="7.6172567"><ele>333.0</ele><time>2026-04-06T12:44:25.82Z</time></trkpt><trkpt lat="45.3136567" lon="7.6171467"><ele>333.3333333333333</ele><time>2026-04-06T12:44:27.827Z</time></trkpt><trkpt lat="45.3136383" lon="7.617035"><ele>333.66666666666663</ele><time>2026-04-06T12:44:29.82Z</time></trkpt><trkpt lat="45.3136333" lon="7.6169217"><ele>334.0</ele><time>2026-04-06T12:44:31.821Z</time></trkpt><trkpt lat="45.3136383" lon="7.6168017"><ele>334.4</ele><time>2026-04-06T12:44:33.822Z</time></trkpt><trkpt lat="45.3136467" lon="7.6166767"><ele>334.79999999999995</ele><time>2026-04-06T12:44:35.822Z</time></trkpt><trkpt lat="45.3136483" lon="7.616545"><ele>335.20000000000005</ele><time>2026-04-06T12:44:37.82Z</time></trkpt><trkpt lat="45.3136483" lon="7.6164133"><ele>335.6</ele><time>2026-04-06T12:44:39.822Z</time></trkpt><trkpt lat="45.3136483" lon="7.6162767"><ele>336.0</ele><time>2026-04-06T12:44:41.824Z</time></trkpt><trkpt lat="45.313645" lon="7.6161367"><ele>336.0</ele><time>2026-04-06T12:44:43.82Z</time></trkpt><trkpt lat="45.3136367" lon="7.6160017"><ele>336.0</ele><time>2026-04-06T12:44:45.821Z</time></trkpt><trkpt lat="45.31363" lon="7.6158667"><ele>336.0</ele><time>2026-04-06T12:44:47.82Z</time></trkpt><trkpt lat="45.3136367" lon="7.6157383"><ele>336.0</ele><time>2026-04-06T12:44:49.825Z</time></trkpt><trkpt lat="45.3136417" lon="7.6156183"><ele>336.0</ele><time>2026-04-06T12:44:51.823Z</time></trkpt><trkpt lat="45.31365" lon="7.6154883"><ele>336.0</ele><time>2026-04-06T12:44:53.821Z</time></trkpt><trkpt lat="45.31365" lon="7.61536"><ele>336.0</ele><time>2026-04-06T12:44:55.826Z</time></trkpt><trkpt lat="45.31364" lon="7.61523"><ele>336.0</ele><time>2026-04-06T12:44:57.819Z</time></trkpt><trkpt lat="45.3136267" lon="7.615095"><ele>336.0</ele><time>2026-04-06T12:44:59.821Z</time></trkpt><trkpt lat="45.313615" lon="7.614965"><ele>336.0</ele><time>2026-04-06T12:45:01.821Z</time></trkpt><trkpt lat="45.3136" lon="7.6148333"><ele>336.4</ele><time>2026-04-06T12:45:03.822Z</time></trkpt><trkpt lat="45.313585" lon="7.614705"><ele>336.8</ele><time>2026-04-06T12:45:05.821Z</time></trkpt><trkpt lat="45.3135767" lon="7.6145733"><ele>337.2</ele><time>2026-04-06T12:45:07.826Z</time></trkpt><trkpt lat="45.3135767" lon="7.61443"><ele>337.59999999999997</ele><time>2026-04-06T12:45:09.821Z</time></trkpt><trkpt lat="45.3135717" lon="7.6142917"><ele>338.0</ele><time>2026-04-06T12:45:11.822Z</time></trkpt><trkpt lat="45.313575" lon="7.614155"><ele>338.1666666666667</ele><time>2026-04-06T12:45:13.827Z</time></trkpt><trkpt lat="45.3135733" lon="7.614015"><ele>338.33333333333337</ele><time>2026-04-06T12:45:15.819Z</time></trkpt><trkpt lat="45.3135667" lon="7.6138783"><ele>338.5</ele><time>2026-04-06T12:45:17.825Z</time></trkpt><trkpt lat="45.313555" lon="7.61375"><ele>338.6666666666667</ele><time>2026-04-06T12:45:19.821Z</time></trkpt><trkpt lat="45.3135467" lon="7.6136367"><ele>338.8333333333333</ele><time>2026-04-06T12:45:21.822Z</time></trkpt><trkpt lat="45.3135433" lon="7.613525"><ele>339.0</ele><time>2026-04-06T12:45:23.822Z</time></trkpt><trkpt lat="45.3135317" lon="7.613405"><ele>339.4</ele><time>2026-04-06T12:45:25.826Z</time></trkpt><trkpt lat="45.3135217" lon="7.6132733"><ele>339.79999999999995</ele><time>2026-04-06T12:45:27.821Z</time></trkpt><trkpt lat="45.313515" lon="7.6131383"><ele>340.20000000000005</ele><time>2026-04-06T12:45:29.824Z</time></trkpt><trkpt lat="45.313505" lon="7.613005"><ele>340.6</ele><time>2026-04-06T12:45:31.826Z</time></trkpt><trkpt lat="45.313495" lon="7.61287"><ele>341.0</ele><time>2026-04-06T12:45:33.823Z</time></trkpt><trkpt lat="45.3134833" lon="7.6127317"><ele>341.20000000000005</ele><time>2026-04-06T12:45:35.82Z</time></trkpt><trkpt lat="45.3134767" lon="7.6125967"><ele>341.40000000000003</ele><time>2026-04-06T12:45:37.819Z</time></trkpt><trkpt lat="45.3134617" lon="7.6124633"><ele>341.6</ele><time>2026-04-06T12:45:39.821Z</time></trkpt><trkpt lat="45.31345" lon="7.61233"><ele>341.8</ele><time>2026-04-06T12:45:41.821Z</time></trkpt><trkpt lat="45.3134367" lon="7.6121967"><ele>342.0</ele><time>2026-04-06T12:45:43.822Z</time></trkpt><trkpt lat="45.3134233" lon="7.612065"><ele>342.3333333333333</ele><time>2026-04-06T12:45:45.821Z</time></trkpt><trkpt lat="45.3134083" lon="7.611935"><ele>342.6666666666667</ele><time>2026-04-06T12:45:47.822Z</time></trkpt><trkpt lat="45.3133967" lon="7.6118033"><ele>343.0</ele><time>2026-04-06T12:45:49.823Z</time></trkpt><trkpt lat="45.3133883" lon="7.611675"><ele>343.33333333333337</ele><time>2026-04-06T12:45:51.822Z</time></trkpt><trkpt lat="45.3133917" lon="7.611555"><ele>343.6666666666667</ele><time>2026-04-06T12:45:53.832Z</time></trkpt><trkpt lat="45.3134117" lon="7.6114367"><ele>344.0</ele><time>2026-04-06T12:45:55.82Z</time></trkpt><trkpt lat="45.3134267" lon="7.611315"><ele>344.0</ele><time>2026-04-06T12:45:57.82Z</time></trkpt><trkpt lat="45.31344" lon="7.6111967"><ele>344.0</ele><time>2026-04-06T12:45:59.825Z</time></trkpt><trkpt lat="45.3134417" lon="7.611075"><ele>344.0</ele><time>2026-04-06T12:46:01.825Z</time></trkpt><trkpt lat="45.313425" lon="7.6109583"><ele>344.0</ele><time>2026-04-06T12:46:03.822Z</time></trkpt><trkpt lat="45.313375" lon="7.6108867"><ele>344.0</ele><time>2026-04-06T12:46:05.823Z</time></trkpt><trkpt lat="45.3133067" lon="7.6109067"><ele>344.0</ele><time>2026-04-06T12:46:07.828Z</time></trkpt><trkpt lat="45.3132417" lon="7.61098"><ele>344.2</ele><time>2026-04-06T12:46:09.825Z</time></trkpt><trkpt lat="45.31317" lon="7.6110633"><ele>344.4</ele><time>2026-04-06T12:46:11.821Z</time></trkpt><trkpt lat="45.3130867" lon="7.6111283"><ele>344.6</ele><time>2026-04-06T12:46:13.821Z</time></trkpt><trkpt lat="45.3129967" lon="7.61116"><ele>344.8</ele><time>2026-04-06T12:46:15.821Z</time></trkpt><trkpt lat="45.3129" lon="7.611175"><ele>345.0</ele><time>2026-04-06T12:46:17.825Z</time></trkpt><trkpt lat="45.3128017" lon="7.61118"><ele>345.0</ele><time>2026-04-06T12:46:19.822Z</time></trkpt><trkpt lat="45.3127033" lon="7.6111817"><ele>345.0</ele><time>2026-04-06T12:46:21.82Z</time></trkpt><trkpt lat="45.3126067" lon="7.6111783"><ele>345.0</ele><time>2026-04-06T12:46:23.823Z</time></trkpt><trkpt lat="45.3125233" lon="7.611145"><ele>345.0</ele><time>2026-04-06T12:46:25.824Z</time></trkpt><trkpt lat="45.3124583" lon="7.6110783"><ele>345.0</ele><time>2026-04-06T12:46:27.824Z</time></trkpt><trkpt lat="45.3124083" lon="7.610995"><ele>345.0</ele><time>2026-04-06T12:46:29.82Z</time></trkpt><trkpt lat="45.3123533" lon="7.6109183"><ele>344.8333333333333</ele><time>2026-04-06T12:46:31.822Z</time></trkpt><trkpt lat="45.3122983" lon="7.6108367"><ele>344.6666666666667</ele><time>2026-04-06T12:46:33.824Z</time></trkpt><trkpt lat="45.3122417" lon="7.6107567"><ele>344.5</ele><time>2026-04-06T12:46:35.823Z</time></trkpt><trkpt lat="45.3121883" lon="7.6106783"><ele>344.33333333333337</ele><time>2026-04-06T12:46:37.821Z</time></trkpt><trkpt lat="45.3121333" lon="7.6106"><ele>344.1666666666667</ele><time>2026-04-06T12:46:39.821Z</time></trkpt><trkpt lat="45.312085" lon="7.6105133"><ele>344.0</ele><time>2026-04-06T12:46:41.821Z</time></trkpt><trkpt lat="45.3120317" lon="7.6104267"><ele>344.0</ele><time>2026-04-06T12:46:43.827Z</time></trkpt><trkpt lat="45.3119817" lon="7.6103317"><ele>344.0</ele><time>2026-04-06T12:46:45.829Z</time></trkpt><trkpt lat="45.311935" lon="7.6102267"><ele>344.0</ele><time>2026-04-06T12:46:47.82Z</time></trkpt><trkpt lat="45.31189" lon="7.6101167"><ele>344.0</ele><time>2026-04-06T12:46:49.821Z</time></trkpt><trkpt lat="45.3118483" lon="7.610015"><ele>344.0</ele><time>2026-04-06T12:46:51.827Z</time></trkpt><trkpt lat="45.3118083" lon="7.6099167"><ele>344.0</ele><time>2026-04-06T12:46:53.825Z</time></trkpt><trkpt lat="45.3117617" lon="7.60982"><ele>344.83333333333337</ele><time>2026-04-06T12:46:55.823Z</time></trkpt><trkpt lat="45.3117133" lon="7.6097267"><ele>345.6666666666667</ele><time>2026-04-06T12:46:57.826Z</time></trkpt><trkpt lat="45.3116667" lon="7.60964"><ele>346.5</ele><time>2026-04-06T12:46:59.821Z</time></trkpt><trkpt lat="45.3116217" lon="7.60952"><ele>347.3333333333333</ele><time>2026-04-06T12:47:02.82Z</time></trkpt><trkpt lat="45.3115917" lon="7.6094333"><ele>348.16666666666663</ele><time>2026-04-06T12:47:04.826Z</time></trkpt><trkpt lat="45.3115517" lon="7.6093467"><ele>349.0</ele><time>2026-04-06T12:47:06.824Z</time></trkpt><trkpt lat="45.3114967" lon="7.6092517"><ele>349.16666666666663</ele><time>2026-04-06T12:47:08.824Z</time></trkpt><trkpt lat="45.3114333" lon="7.6091533"><ele>349.3333333333333</ele><time>2026-04-06T12:47:10.824Z</time></trkpt><trkpt lat="45.3113867" lon="7.6090517"><ele>349.5</ele><time>2026-04-06T12:47:12.821Z</time></trkpt><trkpt lat="45.31137" lon="7.6089483"><ele>349.6666666666667</ele><time>2026-04-06T12:47:14.824Z</time></trkpt><trkpt lat="45.3113667" lon="7.6088583"><ele>349.83333333333337</ele><time>2026-04-06T12:47:16.821Z</time></trkpt><trkpt lat="45.31137" lon="7.6087667"><ele>350.0</ele><time>2026-04-06T12:47:18.821Z</time></trkpt><trkpt lat="45.311385" lon="7.6086683"><ele>350.1666666666667</ele><time>2026-04-06T12:47:20.823Z</time></trkpt><trkpt lat="45.3114117" lon="7.6085533"><ele>350.33333333333337</ele><time>2026-04-06T12:47:22.823Z</time></trkpt><trkpt lat="45.31144" lon="7.60845"><ele>350.5</ele><time>2026-04-06T12:47:24.818Z</time></trkpt><trkpt lat="45.3114767" lon="7.6083467"><ele>350.6666666666667</ele><time>2026-04-06T12:47:26.82Z</time></trkpt><trkpt lat="45.3115133" lon="7.6082383"><ele>350.8333333333333</ele><time>2026-04-06T12:47:28.819Z</time></trkpt><trkpt lat="45.3115283" lon="7.6081233"><ele>351.0</ele><time>2026-04-06T12:47:30.821Z</time></trkpt><trkpt lat="45.3115183" lon="7.6080133"><ele>351.0</ele><time>2026-04-06T12:47:32.821Z</time></trkpt><trkpt lat="45.3114933" lon="7.6079033"><ele>351.0</ele><time>2026-04-06T12:47:34.821Z</time></trkpt><trkpt lat="45.3114633" lon="7.6077767"><ele>351.0</ele><time>2026-04-06T12:47:36.821Z</time></trkpt><trkpt lat="45.3114433" lon="7.6076567"><ele>351.0</ele><time>2026-04-06T12:47:38.821Z</time></trkpt><trkpt lat="45.31142" lon="7.6075467"><ele>351.0</ele><time>2026-04-06T12:47:40.826Z</time></trkpt><trkpt lat="45.3113967" lon="7.6074367"><ele>351.0</ele><time>2026-04-06T12:47:42.824Z</time></trkpt><trkpt lat="45.31137" lon="7.607335"><ele>351.6666666666667</ele><time>2026-04-06T12:47:44.825Z</time></trkpt><trkpt lat="45.311345" lon="7.6072317"><ele>352.3333333333333</ele><time>2026-04-06T12:47:46.82Z</time></trkpt><trkpt lat="45.3113183" lon="7.6071217"><ele>353.0</ele><time>2026-04-06T12:47:48.823Z</time></trkpt><trkpt lat="45.31129" lon="7.6070117"><ele>353.66666666666663</ele><time>2026-04-06T12:47:50.821Z</time></trkpt><trkpt lat="45.31125" lon="7.6068917"><ele>354.3333333333333</ele><time>2026-04-06T12:47:52.828Z</time></trkpt><trkpt lat="45.3112233" lon="7.6067717"><ele>355.0</ele><time>2026-04-06T12:47:54.822Z</time></trkpt><trkpt lat="45.311205" lon="7.6066417"><ele>355.16666666666663</ele><time>2026-04-06T12:47:56.82Z</time></trkpt><trkpt lat="45.3111833" lon="7.6065233"><ele>355.3333333333333</ele><time>2026-04-06T12:47:58.822Z</time></trkpt><trkpt lat="45.3111417" lon="7.606425"><ele>355.5</ele><time>2026-04-06T12:48:00.821Z</time></trkpt><trkpt lat="45.3111" lon="7.6063333"><ele>355.6666666666667</ele><time>2026-04-06T12:48:02.825Z</time></trkpt><trkpt lat="45.3110683" lon="7.60624"><ele>355.83333333333337</ele><time>2026-04-06T12:48:04.825Z</time></trkpt><trkpt lat="45.311045" lon="7.6061317"><ele>356.0</ele><time>2026-04-06T12:48:06.821Z</time></trkpt><trkpt lat="45.311035" lon="7.6060167"><ele>356.0</ele><time>2026-04-06T12:48:08.821Z</time></trkpt><trkpt lat="45.3110267" lon="7.6058917"><ele>356.0</ele><time>2026-04-06T12:48:10.821Z</time></trkpt><trkpt lat="45.3110183" lon="7.6057733"><ele>356.0</ele><time>2026-04-06T12:48:12.822Z</time></trkpt><trkpt lat="45.3109983" lon="7.6056817"><ele>356.0</ele><time>2026-04-06T12:48:14.83Z</time></trkpt><trkpt lat="45.31091" lon="7.6056283"><ele>356.0</ele><time>2026-04-06T12:48:17.822Z</time></trkpt><trkpt lat="45.3108317" lon="7.6056317"><ele>356.0</ele><time>2026-04-06T12:48:19.83Z</time></trkpt><trkpt lat="45.310745" lon="7.6056417"><ele>356.0</ele><time>2026-04-06T12:48:21.829Z</time></trkpt><trkpt lat="45.31065" lon="7.6056467"><ele>356.0</ele><time>2026-04-06T12:48:23.821Z</time></trkpt><trkpt lat="45.3105467" lon="7.6056483"><ele>356.0</ele><time>2026-04-06T12:48:25.824Z</time></trkpt><trkpt lat="45.3104433" lon="7.6056533"><ele>356.0</ele><time>2026-04-06T12:48:27.824Z</time></trkpt><trkpt lat="45.3103467" lon="7.6056267"><ele>356.0</ele><time>2026-04-06T12:48:29.821Z</time></trkpt><trkpt lat="45.3102833" lon="7.60554"><ele>356.20000000000005</ele><time>2026-04-06T12:48:31.821Z</time></trkpt><trkpt lat="45.3102633" lon="7.6054217"><ele>356.40000000000003</ele><time>2026-04-06T12:48:33.822Z</time></trkpt><trkpt lat="45.3102417" lon="7.605295"><ele>356.6</ele><time>2026-04-06T12:48:35.825Z</time></trkpt><trkpt lat="45.310215" lon="7.6051683"><ele>356.8</ele><time>2026-04-06T12:48:37.822Z</time></trkpt><trkpt lat="45.3101767" lon="7.6050467"><ele>357.0</ele><time>2026-04-06T12:48:39.824Z</time></trkpt><trkpt lat="45.3101367" lon="7.6049283"><ele>357.40000000000003</ele><time>2026-04-06T12:48:41.819Z</time></trkpt><trkpt lat="45.3100933" lon="7.6048083"><ele>357.8</ele><time>2026-04-06T12:48:43.825Z</time></trkpt><trkpt lat="45.3100617" lon="7.6046833"><ele>358.2</ele><time>2026-04-06T12:48:45.821Z</time></trkpt><trkpt lat="45.3100417" lon="7.604555"><ele>358.6</ele><time>2026-04-06T12:48:47.824Z</time></trkpt><trkpt lat="45.310035" lon="7.6044233"><ele>359.0</ele><time>2026-04-06T12:48:49.824Z</time></trkpt><trkpt lat="45.31004" lon="7.6042917"><ele>359.2</ele><time>2026-04-06T12:48:51.823Z</time></trkpt><trkpt lat="45.3100433" lon="7.604165"><ele>359.4</ele><time>2026-04-06T12:48:53.823Z</time></trkpt><trkpt lat="45.31004" lon="7.6040333"><ele>359.6</ele><time>2026-04-06T12:48:55.822Z</time></trkpt><trkpt lat="45.3100267" lon="7.6039033"><ele>359.8</ele><time>2026-04-06T12:48:57.823Z</time></trkpt><trkpt lat="45.309995" lon="7.603775"><ele>360.0</ele><time>2026-04-06T12:48:59.824Z</time></trkpt><trkpt lat="45.3099583" lon="7.60365"><ele>360.0</ele><time>2026-04-06T12:49:01.827Z</time></trkpt><trkpt lat="45.3099233" lon="7.603525"><ele>360.0</ele><time>2026-04-06T12:49:03.831Z</time></trkpt><trkpt lat="45.3098783" lon="7.6034067"><ele>360.0</ele><time>2026-04-06T12:49:05.824Z</time></trkpt><trkpt lat="45.30983" lon="7.603295"><ele>360.0</ele><time>2026-04-06T12:49:07.823Z</time></trkpt><trkpt lat="45.30978" lon="7.6031817"><ele>360.0</ele><time>2026-04-06T12:49:09.821Z</time></trkpt><trkpt lat="45.3097317" lon="7.6030683"><ele>360.6</ele><time>2026-04-06T12:49:11.822Z</time></trkpt><trkpt lat="45.3096917" lon="7.602955"><ele>361.2</ele><time>2026-04-06T12:49:13.821Z</time></trkpt><trkpt lat="45.3096617" lon="7.6028333"><ele>361.79999999999995</ele><time>2026-04-06T12:49:15.82Z</time></trkpt><trkpt lat="45.309645" lon="7.6027017"><ele>362.4</ele><time>2026-04-06T12:49:17.821Z</time></trkpt><trkpt lat="45.3096367" lon="7.6025667"><ele>363.0</ele><time>2026-04-06T12:49:19.824Z</time></trkpt><trkpt lat="45.3096333" lon="7.6024333"><ele>363.1666666666667</ele><time>2026-04-06T12:49:21.824Z</time></trkpt><trkpt lat="45.3096283" lon="7.6023067"><ele>363.3333333333333</ele><time>2026-04-06T12:49:23.823Z</time></trkpt><trkpt lat="45.3096233" lon="7.6021817"><ele>363.5</ele><time>2026-04-06T12:49:25.825Z</time></trkpt><trkpt lat="45.309615" lon="7.6020567"><ele>363.66666666666663</ele><time>2026-04-06T12:49:27.822Z</time></trkpt><trkpt lat="45.3096" lon="7.6019367"><ele>363.8333333333333</ele><time>2026-04-06T12:49:29.82Z</time></trkpt><trkpt lat="45.3095817" lon="7.6018183"><ele>364.0</ele><time>2026-04-06T12:49:31.822Z</time></trkpt><trkpt lat="45.3095617" lon="7.6016967"><ele>364.0</ele><time>2026-04-06T12:49:33.822Z</time></trkpt><trkpt lat="45.3095467" lon="7.6015683"><ele>364.0</ele><time>2026-04-06T12:49:35.818Z</time></trkpt><trkpt lat="45.30953" lon="7.6014433"><ele>364.0</ele><time>2026-04-06T12:49:37.825Z</time></trkpt><trkpt lat="45.3095033" lon="7.6013133"><ele>364.0</ele><time>2026-04-06T12:49:39.825Z</time></trkpt><trkpt lat="45.3094717" lon="7.60119"><ele>364.0</ele><time>2026-04-06T12:49:41.821Z</time></trkpt><trkpt lat="45.3094383" lon="7.6010717"><ele>364.6</ele><time>2026-04-06T12:49:43.825Z</time></trkpt><trkpt lat="45.3094133" lon="7.6009467"><ele>365.2</ele><time>2026-04-06T12:49:45.821Z</time></trkpt><trkpt lat="45.30939" lon="7.6008167"><ele>365.8</ele><time>2026-04-06T12:49:47.821Z</time></trkpt><trkpt lat="45.30938" lon="7.6006917"><ele>366.40000000000003</ele><time>2026-04-06T12:49:49.826Z</time></trkpt><trkpt lat="45.3093767" lon="7.6005667"><ele>367.0</ele><time>2026-04-06T12:49:51.823Z</time></trkpt><trkpt lat="45.3093717" lon="7.6004367"><ele>367.6</ele><time>2026-04-06T12:49:53.821Z</time></trkpt><trkpt lat="45.3093633" lon="7.6003083"><ele>368.20000000000005</ele><time>2026-04-06T12:49:55.822Z</time></trkpt><trkpt lat="45.3093533" lon="7.6001767"><ele>368.8</ele><time>2026-04-06T12:49:57.823Z</time></trkpt><trkpt lat="45.30934" lon="7.6000467"><ele>369.4</ele><time>2026-04-06T12:49:59.822Z</time></trkpt><trkpt lat="45.3093283" lon="7.5999133"><ele>370.0</ele><time>2026-04-06T12:50:01.82Z</time></trkpt><trkpt lat="45.3093167" lon="7.59978"><ele>370.0</ele><time>2026-04-06T12:50:03.823Z</time></trkpt><trkpt lat="45.3093133" lon="7.59965"><ele>370.0</ele><time>2026-04-06T12:50:05.821Z</time></trkpt><trkpt lat="45.309295" lon="7.5995217"><ele>370.0</ele><time>2026-04-06T12:50:07.829Z</time></trkpt><trkpt lat="45.3092667" lon="7.5994017"><ele>370.0</ele><time>2026-04-06T12:50:09.821Z</time></trkpt><trkpt lat="45.3092233" lon="7.5992867"><ele>370.0</ele><time>2026-04-06T12:50:11.827Z</time></trkpt><trkpt lat="45.3091533" lon="7.5992"><ele>369.8</ele><time>2026-04-06T12:50:13.823Z</time></trkpt><trkpt lat="45.30908" lon="7.5991183"><ele>369.6</ele><time>2026-04-06T12:50:15.825Z</time></trkpt><trkpt lat="45.309015" lon="7.5990217"><ele>369.4</ele><time>2026-04-06T12:50:17.821Z</time></trkpt><trkpt lat="45.30897" lon="7.5989"><ele>369.2</ele><time>2026-04-06T12:50:19.817Z</time></trkpt><trkpt lat="45.3089317" lon="7.5987767"><ele>369.0</ele><time>2026-04-06T12:50:21.821Z</time></trkpt><trkpt lat="45.3088967" lon="7.5986583"><ele>369.3333333333333</ele><time>2026-04-06T12:50:23.821Z</time></trkpt><trkpt lat="45.3088633" lon="7.5985367"><ele>369.6666666666667</ele><time>2026-04-06T12:50:25.82Z</time></trkpt><trkpt lat="45.30883" lon="7.5984217"><ele>370.0</ele><time>2026-04-06T12:50:27.822Z</time></trkpt><trkpt lat="45.308795" lon="7.5983017"><ele>370.33333333333337</ele><time>2026-04-06T12:50:29.827Z</time></trkpt><trkpt lat="45.3087667" lon="7.5981833"><ele>370.6666666666667</ele><time>2026-04-06T12:50:31.823Z</time></trkpt><trkpt lat="45.3087433" lon="7.5980617"><ele>371.0</ele><time>2026-04-06T12:50:33.822Z</time></trkpt><trkpt lat="45.30873" lon="7.59793"><ele>372.0</ele><time>2026-04-06T12:50:35.82Z</time></trkpt><trkpt lat="45.308725" lon="7.5977983"><ele>373.0</ele><time>2026-04-06T12:50:37.821Z</time></trkpt><trkpt lat="45.3087283" lon="7.5976583"><ele>374.0</ele><time>2026-04-06T12:50:39.822Z</time></trkpt><trkpt lat="45.3087267" lon="7.5975217"><ele>375.0</ele><time>2026-04-06T12:50:41.825Z</time></trkpt><trkpt lat="45.3087267" lon="7.5973883"><ele>376.0</ele><time>2026-04-06T12:50:43.826Z</time></trkpt><trkpt lat="45.3087267" lon="7.5972533"><ele>376.0</ele><time>2026-04-06T12:50:45.823Z</time></trkpt><trkpt lat="45.3087267" lon="7.5971217"><ele>376.0</ele><time>2026-04-06T12:50:47.822Z</time></trkpt><trkpt lat="45.3087333" lon="7.596995"><ele>376.0</ele><time>2026-04-06T12:50:49.822Z</time></trkpt><trkpt lat="45.3087517" lon="7.5968683"><ele>376.0</ele><time>2026-04-06T12:50:51.824Z</time></trkpt><trkpt lat="45.3087567" lon="7.5967433"><ele>376.0</ele><time>2026-04-06T12:50:53.818Z</time></trkpt><trkpt lat="45.3087483" lon="7.5966233"><ele>376.0</ele><time>2026-04-06T12:50:55.824Z</time></trkpt><trkpt lat="45.308725" lon="7.5965083"><ele>376.0</ele><time>2026-04-06T12:50:57.82Z</time></trkpt><trkpt lat="45.30869" lon="7.5963867"><ele>376.0</ele><time>2026-04-06T12:50:59.826Z</time></trkpt><trkpt lat="45.3086533" lon="7.5962733"><ele>376.0</ele><time>2026-04-06T12:51:01.82Z</time></trkpt><trkpt lat="45.3086233" lon="7.5961517"><ele>376.0</ele><time>2026-04-06T12:51:03.821Z</time></trkpt><trkpt lat="45.3086083" lon="7.5960217"><ele>376.0</ele><time>2026-04-06T12:51:05.823Z</time></trkpt><trkpt lat="45.3086133" lon="7.5958867"><ele>376.0</ele><time>2026-04-06T12:51:07.824Z</time></trkpt><trkpt lat="45.308625" lon="7.5957517"><ele>376.0</ele><time>2026-04-06T12:51:09.821Z</time></trkpt><trkpt lat="45.30863" lon="7.5956233"><ele>376.0</ele><time>2026-04-06T12:51:11.827Z</time></trkpt><trkpt lat="45.3086317" lon="7.5955033"><ele>376.0</ele><time>2026-04-06T12:51:13.822Z</time></trkpt><trkpt lat="45.30863" lon="7.5953767"><ele>376.0</ele><time>2026-04-06T12:51:15.819Z</time></trkpt><trkpt lat="45.3086267" lon="7.595255"><ele>376.0</ele><time>2026-04-06T12:51:17.825Z</time></trkpt><trkpt lat="45.3086283" lon="7.595135"><ele>376.3333333333333</ele><time>2026-04-06T12:51:19.822Z</time></trkpt><trkpt lat="45.3086283" lon="7.5950117"><ele>376.66666666666663</ele><time>2026-04-06T12:51:21.824Z</time></trkpt><trkpt lat="45.30864" lon="7.594895"><ele>377.0</ele><time>2026-04-06T12:51:23.823Z</time></trkpt><trkpt lat="45.3086567" lon="7.5947783"><ele>377.3333333333333</ele><time>2026-04-06T12:51:25.826Z</time></trkpt><trkpt lat="45.3086733" lon="7.594655"><ele>377.6666666666667</ele><time>2026-04-06T12:51:27.821Z</time></trkpt><trkpt lat="45.3086867" lon="7.59453"><ele>378.0</ele><time>2026-04-06T12:51:29.825Z</time></trkpt><trkpt lat="45.30869" lon="7.5944083"><ele>378.5</ele><time>2026-04-06T12:51:31.823Z</time></trkpt><trkpt lat="45.3087" lon="7.5942883"><ele>379.0</ele><time>2026-04-06T12:51:33.818Z</time></trkpt><trkpt lat="45.3087117" lon="7.59417"><ele>379.5</ele><time>2026-04-06T12:51:35.825Z</time></trkpt><trkpt lat="45.308725" lon="7.5940533"><ele>380.0</ele><time>2026-04-06T12:51:37.825Z</time></trkpt><trkpt lat="45.30874" lon="7.5939383"><ele>380.5</ele><time>2026-04-06T12:51:39.829Z</time></trkpt><trkpt lat="45.3087583" lon="7.5938283"><ele>381.0</ele><time>2026-04-06T12:51:41.823Z</time></trkpt><trkpt lat="45.308775" lon="7.593725"><ele>381.1666666666667</ele><time>2026-04-06T12:51:43.819Z</time></trkpt><trkpt lat="45.308785" lon="7.5936133"><ele>381.3333333333333</ele><time>2026-04-06T12:51:45.823Z</time></trkpt><trkpt lat="45.3087983" lon="7.5935067"><ele>381.5</ele><time>2026-04-06T12:51:47.817Z</time></trkpt><trkpt lat="45.308815" lon="7.5933867"><ele>381.66666666666663</ele><time>2026-04-06T12:51:49.825Z</time></trkpt><trkpt lat="45.3088267" lon="7.5932683"><ele>381.8333333333333</ele><time>2026-04-06T12:51:51.819Z</time></trkpt><trkpt lat="45.308835" lon="7.5931483"><ele>382.0</ele><time>2026-04-06T12:51:53.828Z</time></trkpt><trkpt lat="45.308845" lon="7.59303"><ele>382.0</ele><time>2026-04-06T12:51:55.826Z</time></trkpt><trkpt lat="45.3088583" lon="7.5929167"><ele>382.0</ele><time>2026-04-06T12:51:57.823Z</time></trkpt><trkpt lat="45.3088783" lon="7.5928033"><ele>382.0</ele><time>2026-04-06T12:51:59.822Z</time></trkpt><trkpt lat="45.308895" lon="7.5926917"><ele>382.0</ele><time>2026-04-06T12:52:01.827Z</time></trkpt><trkpt lat="45.3089133" lon="7.59258"><ele>382.0</ele><time>2026-04-06T12:52:03.825Z</time></trkpt><trkpt lat="45.3089267" lon="7.592465"><ele>382.0</ele><time>2026-04-06T12:52:05.824Z</time></trkpt><trkpt lat="45.3089267" lon="7.59235"><ele>382.3333333333333</ele><time>2026-04-06T12:52:07.823Z</time></trkpt><trkpt lat="45.3089133" lon="7.5922333"><ele>382.66666666666663</ele><time>2026-04-06T12:52:09.819Z</time></trkpt><trkpt lat="45.3088933" lon="7.5921167"><ele>383.0</ele><time>2026-04-06T12:52:11.826Z</time></trkpt><trkpt lat="45.30886" lon="7.5920033"><ele>383.3333333333333</ele><time>2026-04-06T12:52:13.825Z</time></trkpt><trkpt lat="45.3088117" lon="7.591895"><ele>383.6666666666667</ele><time>2026-04-06T12:52:15.823Z</time></trkpt><trkpt lat="45.3087633" lon="7.5917867"><ele>384.0</ele><time>2026-04-06T12:52:17.822Z</time></trkpt><trkpt lat="45.3087267" lon="7.5916717"><ele>384.3333333333333</ele><time>2026-04-06T12:52:19.827Z</time></trkpt><trkpt lat="45.3086983" lon="7.5915567"><ele>384.66666666666663</ele><time>2026-04-06T12:52:21.828Z</time></trkpt><trkpt lat="45.3086733" lon="7.5914417"><ele>385.0</ele><time>2026-04-06T12:52:23.821Z</time></trkpt><trkpt lat="45.30865" lon="7.5913267"><ele>385.3333333333333</ele><time>2026-04-06T12:52:25.824Z</time></trkpt><trkpt lat="45.308635" lon="7.591205"><ele>385.66666666666663</ele><time>2026-04-06T12:52:27.825Z</time></trkpt><trkpt lat="45.3086283" lon="7.5910833"><ele>386.0</ele><time>2026-04-06T12:52:29.822Z</time></trkpt><trkpt lat="45.308625" lon="7.59096"><ele>386.49999999999994</ele><time>2026-04-06T12:52:31.823Z</time></trkpt><trkpt lat="45.30863" lon="7.5908367"><ele>387.0</ele><time>2026-04-06T12:52:33.822Z</time></trkpt><trkpt lat="45.3086317" lon="7.5907133"><ele>387.5</ele><time>2026-04-06T12:52:35.822Z</time></trkpt><trkpt lat="45.30863" lon="7.5905933"><ele>388.0</ele><time>2026-04-06T12:52:37.826Z</time></trkpt><trkpt lat="45.3086217" lon="7.5904717"><ele>388.49999999999994</ele><time>2026-04-06T12:52:39.824Z</time></trkpt><trkpt lat="45.3086067" lon="7.5903533"><ele>389.0</ele><time>2026-04-06T12:52:41.824Z</time></trkpt><trkpt lat="45.3086033" lon="7.590235"><ele>388.99999999999994</ele><time>2026-04-06T12:52:43.822Z</time></trkpt><trkpt lat="45.3086033" lon="7.5901117"><ele>389.0</ele><time>2026-04-06T12:52:45.821Z</time></trkpt><trkpt lat="45.3086033" lon="7.58999"><ele>389.0</ele><time>2026-04-06T12:52:47.825Z</time></trkpt><trkpt lat="45.3086133" lon="7.5898667"><ele>389.0</ele><time>2026-04-06T12:52:49.824Z</time></trkpt><trkpt lat="45.3086217" lon="7.5897433"><ele>388.99999999999994</ele><time>2026-04-06T12:52:51.825Z</time></trkpt><trkpt lat="45.308635" lon="7.58962"><ele>389.0</ele><time>2026-04-06T12:52:53.822Z</time></trkpt><trkpt lat="45.3086517" lon="7.5894967"><ele>389.49999999999994</ele><time>2026-04-06T12:52:55.823Z</time></trkpt><trkpt lat="45.3086817" lon="7.5893817"><ele>390.0</ele><time>2026-04-06T12:52:57.824Z</time></trkpt><trkpt lat="45.3087133" lon="7.5892683"><ele>390.5</ele><time>2026-04-06T12:52:59.824Z</time></trkpt><trkpt lat="45.3087333" lon="7.589155"><ele>391.0</ele><time>2026-04-06T12:53:01.829Z</time></trkpt><trkpt lat="45.3087533" lon="7.5890367"><ele>391.49999999999994</ele><time>2026-04-06T12:53:03.821Z</time></trkpt><trkpt lat="45.3087767" lon="7.58892"><ele>392.0</ele><time>2026-04-06T12:53:05.817Z</time></trkpt><trkpt lat="45.3087983" lon="7.5888083"><ele>391.99999999999994</ele><time>2026-04-06T12:53:07.819Z</time></trkpt><trkpt lat="45.3088167" lon="7.5886883"><ele>392.0</ele><time>2026-04-06T12:53:09.825Z</time></trkpt><trkpt lat="45.3088333" lon="7.5885667"><ele>392.0</ele><time>2026-04-06T12:53:11.823Z</time></trkpt><trkpt lat="45.3088483" lon="7.58845"><ele>392.0</ele><time>2026-04-06T12:53:13.825Z</time></trkpt><trkpt lat="45.3088583" lon="7.5883333"><ele>391.99999999999994</ele><time>2026-04-06T12:53:15.825Z</time></trkpt><trkpt lat="45.30887" lon="7.5882133"><ele>392.0</ele><time>2026-04-06T12:53:17.822Z</time></trkpt><trkpt lat="45.3088733" lon="7.588095"><ele>391.99999999999994</ele><time>2026-04-06T12:53:19.824Z</time></trkpt><trkpt lat="45.3088717" lon="7.58798"><ele>392.0</ele><time>2026-04-06T12:53:21.819Z</time></trkpt><trkpt lat="45.30887" lon="7.5878617"><ele>392.0</ele><time>2026-04-06T12:53:23.828Z</time></trkpt><trkpt lat="45.3088633" lon="7.5877417"><ele>392.0</ele><time>2026-04-06T12:53:25.827Z</time></trkpt><trkpt lat="45.308855" lon="7.58762"><ele>391.99999999999994</ele><time>2026-04-06T12:53:27.825Z</time></trkpt><trkpt lat="45.3088417" lon="7.5874967"><ele>392.0</ele><time>2026-04-06T12:53:29.825Z</time></trkpt><trkpt lat="45.30883" lon="7.5873733"><ele>391.99999999999994</ele><time>2026-04-06T12:53:31.829Z</time></trkpt><trkpt lat="45.3088183" lon="7.58725"><ele>392.0</ele><time>2026-04-06T12:53:33.823Z</time></trkpt><trkpt lat="45.3087983" lon="7.587125"><ele>392.0</ele><time>2026-04-06T12:53:35.824Z</time></trkpt><trkpt lat="45.30878" lon="7.5869983"><ele>392.0</ele><time>2026-04-06T12:53:37.822Z</time></trkpt><trkpt lat="45.3087617" lon="7.586875"><ele>391.99999999999994</ele><time>2026-04-06T12:53:39.825Z</time></trkpt><trkpt lat="45.308745" lon="7.5867517"><ele>392.0</ele><time>2026-04-06T12:53:41.825Z</time></trkpt><trkpt lat="45.3087283" lon="7.5866283"><ele>392.66666666666663</ele><time>2026-04-06T12:53:43.825Z</time></trkpt><trkpt lat="45.3087067" lon="7.5865067"><ele>393.3333333333333</ele><time>2026-04-06T12:53:45.819Z</time></trkpt><trkpt lat="45.3086867" lon="7.5863883"><ele>394.0</ele><time>2026-04-06T12:53:47.823Z</time></trkpt><trkpt lat="45.3086667" lon="7.5862733"><ele>394.66666666666663</ele><time>2026-04-06T12:53:49.826Z</time></trkpt><trkpt lat="45.3086483" lon="7.5861567"><ele>395.3333333333333</ele><time>2026-04-06T12:53:51.829Z</time></trkpt><trkpt lat="45.3086367" lon="7.5860417"><ele>396.0</ele><time>2026-04-06T12:53:53.821Z</time></trkpt><trkpt lat="45.3086367" lon="7.5859217"><ele>396.3333333333333</ele><time>2026-04-06T12:53:55.825Z</time></trkpt><trkpt lat="45.3086417" lon="7.5858"><ele>396.66666666666663</ele><time>2026-04-06T12:53:57.825Z</time></trkpt><trkpt lat="45.308645" lon="7.5856767"><ele>397.0</ele><time>2026-04-06T12:53:59.826Z</time></trkpt><trkpt lat="45.3086533" lon="7.5855533"><ele>397.3333333333333</ele><time>2026-04-06T12:54:01.82Z</time></trkpt><trkpt lat="45.3086633" lon="7.5854333"><ele>397.66666666666663</ele><time>2026-04-06T12:54:03.823Z</time></trkpt><trkpt lat="45.3086733" lon="7.5853117"><ele>398.0</ele><time>2026-04-06T12:54:05.826Z</time></trkpt><trkpt lat="45.3086867" lon="7.58519"><ele>398.0</ele><time>2026-04-06T12:54:07.824Z</time></trkpt><trkpt lat="45.3087033" lon="7.5850617"><ele>398.0</ele><time>2026-04-06T12:54:09.822Z</time></trkpt><trkpt lat="45.308725" lon="7.58493"><ele>398.0</ele><time>2026-04-06T12:54:11.823Z</time></trkpt><trkpt lat="45.3087583" lon="7.584805"><ele>398.0</ele><time>2026-04-06T12:54:13.825Z</time></trkpt><trkpt lat="45.3088067" lon="7.58469"><ele>398.0</ele><time>2026-04-06T12:54:15.825Z</time></trkpt><trkpt lat="45.3088567" lon="7.5845817"><ele>398.3333333333333</ele><time>2026-04-06T12:54:17.822Z</time></trkpt><trkpt lat="45.30891" lon="7.5844783"><ele>398.66666666666663</ele><time>2026-04-06T12:54:19.822Z</time></trkpt><trkpt lat="45.3089617" lon="7.5843767"><ele>399.0</ele><time>2026-04-06T12:54:21.825Z</time></trkpt><trkpt lat="45.3090233" lon="7.5842883"><ele>399.33333333333337</ele><time>2026-04-06T12:54:23.825Z</time></trkpt><trkpt lat="45.3090883" lon="7.5842183"><ele>399.6666666666667</ele><time>2026-04-06T12:54:25.823Z</time></trkpt><trkpt lat="45.3091517" lon="7.5841517"><ele>400.0</ele><time>2026-04-06T12:54:27.826Z</time></trkpt><trkpt lat="45.30922" lon="7.584095"><ele>400.00000000000006</ele><time>2026-04-06T12:54:29.824Z</time></trkpt><trkpt lat="45.3092933" lon="7.5840433"><ele>400.0</ele><time>2026-04-06T12:54:31.822Z</time></trkpt><trkpt lat="45.3093683" lon="7.5839883"><ele>400.0</ele><time>2026-04-06T12:54:33.826Z</time></trkpt><trkpt lat="45.3094417" lon="7.5839333"><ele>400.0</ele><time>2026-04-06T12:54:35.824Z</time></trkpt><trkpt lat="45.3095183" lon="7.5838833"><ele>400.00000000000006</ele><time>2026-04-06T12:54:37.825Z</time></trkpt><trkpt lat="45.309595" lon="7.5838333"><ele>400.0</ele><time>2026-04-06T12:54:39.821Z</time></trkpt><trkpt lat="45.3096717" lon="7.5837817"><ele>400.33333333333337</ele><time>2026-04-06T12:54:41.824Z</time></trkpt><trkpt lat="45.30975" lon="7.583735"><ele>400.6666666666667</ele><time>2026-04-06T12:54:43.822Z</time></trkpt><trkpt lat="45.3098167" lon="7.58367"><ele>401.0</ele><time>2026-04-06T12:54:45.827Z</time></trkpt><trkpt lat="45.309865" lon="7.5835683"><ele>401.33333333333337</ele><time>2026-04-06T12:54:47.822Z</time></trkpt><trkpt lat="45.309905" lon="7.583455"><ele>401.6666666666667</ele><time>2026-04-06T12:54:49.821Z</time></trkpt><trkpt lat="45.309945" lon="7.5833483"><ele>402.0</ele><time>2026-04-06T12:54:51.823Z</time></trkpt><trkpt lat="45.30999" lon="7.5832433"><ele>402.5</ele><time>2026-04-06T12:54:53.818Z</time></trkpt><trkpt lat="45.3100367" lon="7.5831517"><ele>403.0</ele><time>2026-04-06T12:54:55.822Z</time></trkpt><trkpt lat="45.310105" lon="7.5830967"><ele>403.5</ele><time>2026-04-06T12:54:57.824Z</time></trkpt><trkpt lat="45.3101867" lon="7.583075"><ele>404.0</ele><time>2026-04-06T12:54:59.82Z</time></trkpt><trkpt lat="45.3102583" lon="7.5830683"><ele>404.5</ele><time>2026-04-06T12:55:01.828Z</time></trkpt><trkpt lat="45.3103283" lon="7.5830633"><ele>405.0</ele><time>2026-04-06T12:55:03.821Z</time></trkpt><trkpt lat="45.3104" lon="7.5830483"><ele>404.99999999999994</ele><time>2026-04-06T12:55:05.82Z</time></trkpt><trkpt lat="45.3104683" lon="7.58303"><ele>405.0</ele><time>2026-04-06T12:55:07.828Z</time></trkpt><trkpt lat="45.3105367" lon="7.58301"><ele>405.0</ele><time>2026-04-06T12:55:09.825Z</time></trkpt><trkpt lat="45.310605" lon="7.58299"><ele>405.0</ele><time>2026-04-06T12:55:11.823Z</time></trkpt><trkpt lat="45.310675" lon="7.5829683"><ele>405.0</ele><time>2026-04-06T12:55:13.824Z</time></trkpt><trkpt lat="45.310745" lon="7.5829517"><ele>404.99999999999994</ele><time>2026-04-06T12:55:15.82Z</time></trkpt><trkpt lat="45.3108183" lon="7.58294"><ele>405.0</ele><time>2026-04-06T12:55:17.826Z</time></trkpt><trkpt lat="45.310895" lon="7.5829283"><ele>405.85714285714283</ele><time>2026-04-06T12:55:19.829Z</time></trkpt><trkpt lat="45.3109633" lon="7.5829117"><ele>406.7142857142857</ele><time>2026-04-06T12:55:21.821Z</time></trkpt><trkpt lat="45.3110333" lon="7.582895"><ele>407.57142857142856</ele><time>2026-04-06T12:55:23.824Z</time></trkpt><trkpt lat="45.3111017" lon="7.582885"><ele>408.42857142857144</ele><time>2026-04-06T12:55:25.824Z</time></trkpt><trkpt lat="45.3111717" lon="7.5828667"><ele>409.2857142857143</ele><time>2026-04-06T12:55:27.824Z</time></trkpt><trkpt lat="45.3112417" lon="7.5828467"><ele>410.1428571428571</ele><time>2026-04-06T12:55:29.825Z</time></trkpt><trkpt lat="45.3113117" lon="7.5828217"><ele>411.0</ele><time>2026-04-06T12:55:31.827Z</time></trkpt><trkpt lat="45.3113783" lon="7.5827967"><ele>411.85714285714283</ele><time>2026-04-06T12:55:33.823Z</time></trkpt><trkpt lat="45.3114467" lon="7.5827767"><ele>412.71428571428567</ele><time>2026-04-06T12:55:35.819Z</time></trkpt><trkpt lat="45.3115083" lon="7.5827467"><ele>413.57142857142856</ele><time>2026-04-06T12:55:37.82Z</time></trkpt><trkpt lat="45.3115633" lon="7.58269"><ele>414.42857142857144</ele><time>2026-04-06T12:55:39.823Z</time></trkpt><trkpt lat="45.3116117" lon="7.5826267"><ele>415.2857142857143</ele><time>2026-04-06T12:55:41.821Z</time></trkpt><trkpt lat="45.3116583" lon="7.582565"><ele>416.14285714285717</ele><time>2026-04-06T12:55:43.821Z</time></trkpt><trkpt lat="45.3116967" lon="7.5824933"><ele>417.0</ele><time>2026-04-06T12:55:45.823Z</time></trkpt><trkpt lat="45.3117417" lon="7.58242"><ele>417.0</ele><time>2026-04-06T12:55:47.821Z</time></trkpt><trkpt lat="45.3117883" lon="7.5823533"><ele>417.0</ele><time>2026-04-06T12:55:49.82Z</time></trkpt><trkpt lat="45.3118533" lon="7.5822617"><ele>417.0</ele><time>2026-04-06T12:55:52.824Z</time></trkpt><trkpt lat="45.311895" lon="7.58219"><ele>417.0</ele><time>2026-04-06T12:55:54.823Z</time></trkpt><trkpt lat="45.311915" lon="7.5821"><ele>417.0</ele><time>2026-04-06T12:55:56.821Z</time></trkpt><trkpt lat="45.3118933" lon="7.58199"><ele>417.0</ele><time>2026-04-06T12:55:59.823Z</time></trkpt><trkpt lat="45.3118583" lon="7.581905"><ele>417.0</ele><time>2026-04-06T12:56:02.82Z</time></trkpt><trkpt lat="45.311815" lon="7.5818233"><ele>417.5714285714286</ele><time>2026-04-06T12:56:05.822Z</time></trkpt><trkpt lat="45.311775" lon="7.58174"><ele>418.1428571428571</ele><time>2026-04-06T12:56:08.824Z</time></trkpt><trkpt lat="45.3117367" lon="7.581655"><ele>418.7142857142857</ele><time>2026-04-06T12:56:11.823Z</time></trkpt><trkpt lat="45.3116967" lon="7.581565"><ele>419.28571428571433</ele><time>2026-04-06T12:56:14.822Z</time></trkpt><trkpt lat="45.3116633" lon="7.5814617"><ele>419.8571428571429</ele><time>2026-04-06T12:56:17.819Z</time></trkpt><trkpt lat="45.3116417" lon="7.581355"><ele>420.42857142857144</ele><time>2026-04-06T12:56:20.82Z</time></trkpt><trkpt lat="45.311615" lon="7.5812567"><ele>421.0</ele><time>2026-04-06T12:56:23.825Z</time></trkpt><trkpt lat="45.3115983" lon="7.5811533"><ele>422.33333333333337</ele><time>2026-04-06T12:56:26.82Z</time></trkpt><trkpt lat="45.31158" lon="7.581045"><ele>423.6666666666667</ele><time>2026-04-06T12:56:29.824Z</time></trkpt><trkpt lat="45.3115633" lon="7.5809417"><ele>425.0</ele><time>2026-04-06T12:56:32.83Z</time></trkpt><trkpt lat="45.3115567" lon="7.5808383"><ele>426.33333333333337</ele><time>2026-04-06T12:56:35.828Z</time></trkpt><trkpt lat="45.31154" lon="7.5807283"><ele>427.6666666666667</ele><time>2026-04-06T12:56:38.82Z</time></trkpt><trkpt lat="45.3115333" lon="7.580625"><ele>429.0</ele><time>2026-04-06T12:56:41.823Z</time></trkpt><trkpt lat="45.3115367" lon="7.5805217"><ele>429.0</ele><time>2026-04-06T12:56:44.825Z</time></trkpt><trkpt lat="45.3115467" lon="7.5804167"><ele>429.0</ele><time>2026-04-06T12:56:47.821Z</time></trkpt><trkpt lat="45.3115567" lon="7.5803133"><ele>429.0</ele><time>2026-04-06T12:56:50.818Z</time></trkpt><trkpt lat="45.3115617" lon="7.5802067"><ele>429.0</ele><time>2026-04-06T12:56:53.822Z</time></trkpt><trkpt lat="45.31156" lon="7.580095"><ele>429.0</ele><time>2026-04-06T12:56:56.82Z</time></trkpt><trkpt lat="45.3115533" lon="7.5799933"><ele>429.0</ele><time>2026-04-06T12:56:59.828Z</time></trkpt><trkpt lat="45.3115467" lon="7.5798983"><ele>429.0</ele><time>2026-04-06T12:57:02.823Z</time></trkpt><trkpt lat="45.3115364" lon="7.5797788"><ele>430.5</ele><time>2026-04-06T12:57:06.822Z</time></trkpt><trkpt lat="45.3115168" lon="7.5796671"><ele>432.0</ele><time>2026-04-06T12:57:10.823Z</time></trkpt><trkpt lat="45.3114943" lon="7.5795623"><ele>433.5</ele><time>2026-04-06T12:57:14.82Z</time></trkpt><trkpt lat="45.3115055" lon="7.5794632"><ele>435.0</ele><time>2026-04-06T13:00:10.821Z</time></trkpt><trkpt lat="45.3115028" lon="7.5793453"><ele>436.5</ele><time>2026-04-06T13:00:12.817Z</time></trkpt><trkpt lat="45.3115122" lon="7.5792447"><ele>438.0</ele><time>2026-04-06T13:00:15.817Z</time></trkpt><trkpt lat="45.3115436" lon="7.5791543"><ele>437.8571428571429</ele><time>2026-04-06T13:00:19.822Z</time></trkpt><trkpt lat="45.3115818" lon="7.5790812"><ele>437.71428571428567</ele><time>2026-04-06T13:00:22.825Z</time></trkpt><trkpt lat="45.3115947" lon="7.5789866"><ele>437.57142857142856</ele><time>2026-04-06T13:00:25.82Z</time></trkpt><trkpt lat="45.3115783" lon="7.5788872"><ele>437.42857142857144</ele><time>2026-04-06T13:00:28.824Z</time></trkpt><trkpt lat="45.3115349" lon="7.578815"><ele>437.28571428571433</ele><time>2026-04-06T13:00:31.824Z</time></trkpt><trkpt lat="45.3114816" lon="7.5787591"><ele>437.1428571428571</ele><time>2026-04-06T13:00:34.817Z</time></trkpt><trkpt lat="45.3114303" lon="7.5786929"><ele>437.0</ele><time>2026-04-06T13:00:37.825Z</time></trkpt><trkpt lat="45.3113834" lon="7.5786192"><ele>437.0</ele><time>2026-04-06T13:00:40.82Z</time></trkpt><trkpt lat="45.311349" lon="7.5785275"><ele>437.0</ele><time>2026-04-06T13:00:43.824Z</time></trkpt><trkpt lat="45.3113236" lon="7.5784307"><ele>437.0</ele><time>2026-04-06T13:00:46.817Z</time></trkpt><trkpt lat="45.3113014" lon="7.5783364"><ele>437.0</ele><time>2026-04-06T13:00:49.824Z</time></trkpt><trkpt lat="45.311284" lon="7.5782343"><ele>437.0</ele><time>2026-04-06T13:00:52.823Z</time></trkpt><trkpt lat="45.3112573" lon="7.5781412"><ele>437.0</ele><time>2026-04-06T13:00:55.825Z</time></trkpt><trkpt lat="45.3112136" lon="7.5780553"><ele>437.0</ele><time>2026-04-06T13:00:58.821Z</time></trkpt><trkpt lat="45.3111632" lon="7.5779748"><ele>436.99999999999994</ele><time>2026-04-06T13:01:01.822Z</time></trkpt><trkpt lat="45.3111237" lon="7.5778863"><ele>437.0</ele><time>2026-04-06T13:01:04.82Z</time></trkpt><trkpt lat="45.3110879" lon="7.5777932"><ele>437.0</ele><time>2026-04-06T13:01:07.823Z</time></trkpt><trkpt lat="45.3110894" lon="7.5776844"><ele>437.0</ele><time>2026-04-06T13:01:10.819Z</time></trkpt><trkpt lat="45.3111036" lon="7.5775691"><ele>436.99999999999994</ele><time>2026-04-06T13:01:13.823Z</time></trkpt><trkpt lat="45.311108" lon="7.5774476"><ele>437.0</ele><time>2026-04-06T13:01:16.85Z</time></trkpt><trkpt lat="45.3111162" lon="7.5773269"><ele>437.8333333333333</ele><time>2026-04-06T13:01:19.819Z</time></trkpt><trkpt lat="45.311145" lon="7.5772119"><ele>438.66666666666663</ele><time>2026-04-06T13:01:22.849Z</time></trkpt><trkpt lat="45.3111803" lon="7.5770953"><ele>439.5</ele><time>2026-04-06T13:01:25.849Z</time></trkpt><trkpt lat="45.3112199" lon="7.5769817"><ele>440.33333333333337</ele><time>2026-04-06T13:01:28.849Z</time></trkpt><trkpt lat="45.3112802" lon="7.5768863"><ele>441.1666666666667</ele><time>2026-04-06T13:01:31.848Z</time></trkpt><trkpt lat="45.3113455" lon="7.5768061"><ele>442.0</ele><time>2026-04-06T13:01:34.848Z</time></trkpt><trkpt lat="45.3114099" lon="7.5767247"><ele>444.50000000000006</ele><time>2026-04-06T13:01:37.846Z</time></trkpt><trkpt lat="45.3114634" lon="7.5766466"><ele>447.0</ele><time>2026-04-06T13:01:40.818Z</time></trkpt><trkpt lat="45.3115151" lon="7.5765668"><ele>449.5</ele><time>2026-04-06T13:01:43.821Z</time></trkpt><trkpt lat="45.3115675" lon="7.5764763"><ele>452.0</ele><time>2026-04-06T13:01:46.845Z</time></trkpt><trkpt lat="45.311617" lon="7.5763876"><ele>454.50000000000006</ele><time>2026-04-06T13:01:49.845Z</time></trkpt><trkpt lat="45.3116523" lon="7.5762852"><ele>457.0</ele><time>2026-04-06T13:01:52.844Z</time></trkpt><trkpt lat="45.3116946" lon="7.5761856"><ele>457.00000000000006</ele><time>2026-04-06T13:01:55.843Z</time></trkpt><trkpt lat="45.3117425" lon="7.5760824"><ele>457.0</ele><time>2026-04-06T13:01:58.843Z</time></trkpt><trkpt lat="45.3118048" lon="7.5759928"><ele>457.0</ele><time>2026-04-06T13:02:01.842Z</time></trkpt><trkpt lat="45.3118784" lon="7.5759161"><ele>457.0</ele><time>2026-04-06T13:02:04.841Z</time></trkpt><trkpt lat="45.3119571" lon="7.575864"><ele>457.00000000000006</ele><time>2026-04-06T13:02:07.841Z</time></trkpt><trkpt lat="45.312044" lon="7.5758479"><ele>457.0</ele><time>2026-04-06T13:02:10.841Z</time></trkpt><trkpt lat="45.3121246" lon="7.5758451"><ele>457.00000000000006</ele><time>2026-04-06T13:02:13.841Z</time></trkpt><trkpt lat="45.3121983" lon="7.575869"><ele>457.0</ele><time>2026-04-06T13:02:16.84Z</time></trkpt><trkpt lat="45.312262" lon="7.5759264"><ele>457.0</ele><time>2026-04-06T13:02:19.839Z</time></trkpt><trkpt lat="45.3123325" lon="7.5759701"><ele>457.0</ele><time>2026-04-06T13:02:22.839Z</time></trkpt><trkpt lat="45.3124098" lon="7.5759948"><ele>457.00000000000006</ele><time>2026-04-06T13:02:25.839Z</time></trkpt><trkpt lat="45.3124842" lon="7.5760377"><ele>457.0</ele><time>2026-04-06T13:02:28.838Z</time></trkpt><trkpt lat="45.312545" lon="7.5760975"><ele>459.33333333333337</ele><time>2026-04-06T13:02:31.783Z</time></trkpt><trkpt lat="45.3126103" lon="7.576176"><ele>461.6666666666667</ele><time>2026-04-06T13:02:34.837Z</time></trkpt><trkpt lat="45.312643" lon="7.5762859"><ele>464.0</ele><time>2026-04-06T13:02:37.836Z</time></trkpt><trkpt lat="45.3126575" lon="7.5764024"><ele>466.33333333333337</ele><time>2026-04-06T13:02:40.836Z</time></trkpt><trkpt lat="45.3126682" lon="7.5765134"><ele>468.6666666666667</ele><time>2026-04-06T13:02:43.835Z</time></trkpt><trkpt lat="45.3126761" lon="7.57662"><ele>471.0</ele><time>2026-04-06T13:02:46.834Z</time></trkpt><trkpt lat="45.3126984" lon="7.5767248"><ele>471.6666666666667</ele><time>2026-04-06T13:02:49.834Z</time></trkpt><trkpt lat="45.3127332" lon="7.5768264"><ele>472.33333333333337</ele><time>2026-04-06T13:02:52.833Z</time></trkpt><trkpt lat="45.3127832" lon="7.5769112"><ele>473.0</ele><time>2026-04-06T13:02:55.833Z</time></trkpt><trkpt lat="45.3127947" lon="7.576802"><ele>473.6666666666667</ele><time>2026-04-06T13:03:02.824Z</time></trkpt><trkpt lat="45.3127672" lon="7.5766779"><ele>474.33333333333337</ele><time>2026-04-06T13:03:05.823Z</time></trkpt><trkpt lat="45.3127636" lon="7.5765554"><ele>475.0</ele><time>2026-04-06T13:03:08.821Z</time></trkpt><trkpt lat="45.3127781" lon="7.5764284"><ele>475.00000000000006</ele><time>2026-04-06T13:03:11.827Z</time></trkpt><trkpt lat="45.312804" lon="7.5763072"><ele>475.0</ele><time>2026-04-06T13:03:14.823Z</time></trkpt><trkpt lat="45.3128385" lon="7.5761935"><ele>475.0</ele><time>2026-04-06T13:03:17.822Z</time></trkpt><trkpt lat="45.3128851" lon="7.5760858"><ele>475.0</ele><time>2026-04-06T13:03:20.824Z</time></trkpt><trkpt lat="45.3129419" lon="7.5759851"><ele>475.00000000000006</ele><time>2026-04-06T13:03:23.823Z</time></trkpt><trkpt lat="45.3130188" lon="7.5759158"><ele>475.0</ele><time>2026-04-06T13:03:26.822Z</time></trkpt><trkpt lat="45.3131015" lon="7.5758545"><ele>476.6666666666667</ele><time>2026-04-06T13:03:29.82Z</time></trkpt><trkpt lat="45.313181" lon="7.5757961"><ele>478.33333333333337</ele><time>2026-04-06T13:03:32.821Z</time></trkpt><trkpt lat="45.3132549" lon="7.5757509"><ele>480.0</ele><time>2026-04-06T13:03:35.821Z</time></trkpt><trkpt lat="45.3133367" lon="7.5757273"><ele>481.66666666666663</ele><time>2026-04-06T13:03:38.821Z</time></trkpt><trkpt lat="45.3134132" lon="7.5757341"><ele>483.3333333333333</ele><time>2026-04-06T13:03:41.826Z</time></trkpt><trkpt lat="45.3134884" lon="7.5757481"><ele>485.0</ele><time>2026-04-06T13:03:44.821Z</time></trkpt><trkpt lat="45.3135642" lon="7.5757542"><ele>484.99999999999994</ele><time>2026-04-06T13:03:47.784Z</time></trkpt><trkpt lat="45.3136456" lon="7.5757422"><ele>485.0</ele><time>2026-04-06T13:03:50.824Z</time></trkpt><trkpt lat="45.3137321" lon="7.5757197"><ele>485.0</ele><time>2026-04-06T13:03:53.821Z</time></trkpt><trkpt lat="45.3138219" lon="7.575692"><ele>485.0</ele><time>2026-04-06T13:03:56.821Z</time></trkpt><trkpt lat="45.3138872" lon="7.575666"><ele>484.99999999999994</ele><time>2026-04-06T13:03:58.823Z</time></trkpt><trkpt lat="45.3139516" lon="7.5756438"><ele>485.0</ele><time>2026-04-06T13:04:00.822Z</time></trkpt><trkpt lat="45.3140403" lon="7.5756042"><ele>484.3333333333333</ele><time>2026-04-06T13:04:03.823Z</time></trkpt><trkpt lat="45.3141246" lon="7.5755587"><ele>483.66666666666663</ele><time>2026-04-06T13:04:06.822Z</time></trkpt><trkpt lat="45.3142" lon="7.5755263"><ele>483.0</ele><time>2026-04-06T13:04:09.821Z</time></trkpt><trkpt lat="45.314266" lon="7.5755084"><ele>482.33333333333337</ele><time>2026-04-06T13:04:12.823Z</time></trkpt><trkpt lat="45.3143258" lon="7.5754404"><ele>481.6666666666667</ele><time>2026-04-06T13:04:15.815Z</time></trkpt><trkpt lat="45.3143662" lon="7.5753688"><ele>481.0</ele><time>2026-04-06T13:04:17.694Z</time></trkpt><trkpt lat="45.3144462" lon="7.5752829"><ele>481.0</ele><time>2026-04-06T13:04:19.823Z</time></trkpt><trkpt lat="45.3145259" lon="7.5752305"><ele>481.0</ele><time>2026-04-06T13:04:21.825Z</time></trkpt><trkpt lat="45.3146109" lon="7.5751836"><ele>481.0</ele><time>2026-04-06T13:04:23.821Z</time></trkpt><trkpt lat="45.3146978" lon="7.5751388"><ele>481.0</ele><time>2026-04-06T13:04:25.822Z</time></trkpt><trkpt lat="45.3148033" lon="7.5750767"><ele>481.0</ele><time>2026-04-06T13:04:27.824Z</time></trkpt><trkpt lat="45.314895" lon="7.57503"><ele>483.1666666666667</ele><time>2026-04-06T13:04:29.825Z</time></trkpt><trkpt lat="45.31498" lon="7.574985"><ele>485.33333333333337</ele><time>2026-04-06T13:04:31.827Z</time></trkpt><trkpt lat="45.315065" lon="7.57494"><ele>487.5</ele><time>2026-04-06T13:04:33.82Z</time></trkpt><trkpt lat="45.3151483" lon="7.5748967"><ele>489.66666666666663</ele><time>2026-04-06T13:04:35.82Z</time></trkpt><trkpt lat="45.3152267" lon="7.5748517"><ele>491.8333333333333</ele><time>2026-04-06T13:04:37.821Z</time></trkpt><trkpt lat="45.3153033" lon="7.5748067"><ele>494.0</ele><time>2026-04-06T13:04:39.826Z</time></trkpt><trkpt lat="45.315375" lon="7.574765"><ele>494.0</ele><time>2026-04-06T13:04:41.82Z</time></trkpt><trkpt lat="45.31544" lon="7.5747133"><ele>494.0</ele><time>2026-04-06T13:04:43.827Z</time></trkpt><trkpt lat="45.315505" lon="7.5746683"><ele>494.0</ele><time>2026-04-06T13:04:45.827Z</time></trkpt><trkpt lat="45.31557" lon="7.5746283"><ele>494.0</ele><time>2026-04-06T13:04:47.824Z</time></trkpt><trkpt lat="45.31564" lon="7.5745983"><ele>494.0</ele><time>2026-04-06T13:04:49.82Z</time></trkpt><trkpt lat="45.31571" lon="7.5745783"><ele>494.0</ele><time>2026-04-06T13:04:51.821Z</time></trkpt><trkpt lat="45.315785" lon="7.574565"><ele>494.0</ele><time>2026-04-06T13:04:53.823Z</time></trkpt><trkpt lat="45.315855" lon="7.574555"><ele>493.66666666666663</ele><time>2026-04-06T13:04:55.822Z</time></trkpt><trkpt lat="45.31593" lon="7.574545"><ele>493.3333333333333</ele><time>2026-04-06T13:04:57.823Z</time></trkpt><trkpt lat="45.3160067" lon="7.57452"><ele>493.0</ele><time>2026-04-06T13:04:59.82Z</time></trkpt><trkpt lat="45.316075" lon="7.5744717"><ele>492.66666666666663</ele><time>2026-04-06T13:05:01.825Z</time></trkpt><trkpt lat="45.316135" lon="7.5744183"><ele>492.3333333333333</ele><time>2026-04-06T13:05:03.824Z</time></trkpt><trkpt lat="45.3161967" lon="7.5743483"><ele>492.0</ele><time>2026-04-06T13:05:05.826Z</time></trkpt><trkpt lat="45.3162633" lon="7.57428"><ele>492.0</ele><time>2026-04-06T13:05:07.824Z</time></trkpt><trkpt lat="45.316335" lon="7.5742217"><ele>492.0</ele><time>2026-04-06T13:05:09.821Z</time></trkpt><trkpt lat="45.3163933" lon="7.5741517"><ele>492.0</ele><time>2026-04-06T13:05:11.82Z</time></trkpt><trkpt lat="45.3164567" lon="7.5740867"><ele>492.0</ele><time>2026-04-06T13:05:13.823Z</time></trkpt><trkpt lat="45.3165233" lon="7.5740233"><ele>492.0</ele><time>2026-04-06T13:05:15.822Z</time></trkpt><trkpt lat="45.3165933" lon="7.5739617"><ele>492.0</ele><time>2026-04-06T13:05:17.822Z</time></trkpt><trkpt lat="45.31667" lon="7.5739017"><ele>494.00000000000006</ele><time>2026-04-06T13:05:19.825Z</time></trkpt><trkpt lat="45.3167367" lon="7.5738317"><ele>496.0</ele><time>2026-04-06T13:05:21.82Z</time></trkpt><trkpt lat="45.3167833" lon="7.5737467"><ele>498.00000000000006</ele><time>2026-04-06T13:05:23.829Z</time></trkpt><trkpt lat="45.3168" lon="7.57365"><ele>500.00000000000006</ele><time>2026-04-06T13:05:25.821Z</time></trkpt><trkpt lat="45.3167717" lon="7.5735517"><ele>502.0</ele><time>2026-04-06T13:05:27.823Z</time></trkpt><trkpt lat="45.3167317" lon="7.5734767"><ele>504.00000000000006</ele><time>2026-04-06T13:05:29.825Z</time></trkpt><trkpt lat="45.31668" lon="7.5734233"><ele>506.00000000000006</ele><time>2026-04-06T13:05:31.824Z</time></trkpt><trkpt lat="45.3166017" lon="7.573365"><ele>505.99999999999994</ele><time>2026-04-06T13:05:34.825Z</time></trkpt><trkpt lat="45.3165283" lon="7.5732983"><ele>506.0</ele><time>2026-04-06T13:05:37.824Z</time></trkpt><trkpt lat="45.316455" lon="7.5732367"><ele>506.0</ele><time>2026-04-06T13:05:40.82Z</time></trkpt><trkpt lat="45.3163883" lon="7.573165"><ele>506.0</ele><time>2026-04-06T13:05:43.822Z</time></trkpt><trkpt lat="45.31634" lon="7.573075"><ele>505.99999999999994</ele><time>2026-04-06T13:05:46.822Z</time></trkpt><trkpt lat="45.31629" lon="7.5729833"><ele>506.0</ele><time>2026-04-06T13:05:49.827Z</time></trkpt><trkpt lat="45.3162233" lon="7.57294"><ele>506.8333333333333</ele><time>2026-04-06T13:05:52.822Z</time></trkpt><trkpt lat="45.3161583" lon="7.5729"><ele>507.66666666666663</ele><time>2026-04-06T13:05:55.822Z</time></trkpt><trkpt lat="45.31609" lon="7.5728517"><ele>508.5</ele><time>2026-04-06T13:05:58.823Z</time></trkpt><trkpt lat="45.3160267" lon="7.57279"><ele>509.33333333333337</ele><time>2026-04-06T13:06:01.823Z</time></trkpt><trkpt lat="45.3159867" lon="7.5726983"><ele>510.1666666666667</ele><time>2026-04-06T13:06:04.827Z</time></trkpt><trkpt lat="45.315975" lon="7.5725833"><ele>511.0</ele><time>2026-04-06T13:06:07.827Z</time></trkpt><trkpt lat="45.3160117" lon="7.5724917"><ele>511.00000000000006</ele><time>2026-04-06T13:06:10.822Z</time></trkpt><trkpt lat="45.31608" lon="7.5724267"><ele>511.0</ele><time>2026-04-06T13:06:13.821Z</time></trkpt><trkpt lat="45.3161583" lon="7.5723833"><ele>511.0</ele><time>2026-04-06T13:06:16.821Z</time></trkpt><trkpt lat="45.31623" lon="7.57235"><ele>511.0</ele><time>2026-04-06T13:06:19.824Z</time></trkpt><trkpt lat="45.31631" lon="7.5723133"><ele>511.00000000000006</ele><time>2026-04-06T13:06:22.823Z</time></trkpt><trkpt lat="45.31637" lon="7.5722517"><ele>511.0</ele><time>2026-04-06T13:06:25.825Z</time></trkpt><trkpt lat="45.3164167" lon="7.5721717"><ele>512.1666666666667</ele><time>2026-04-06T13:06:28.826Z</time></trkpt><trkpt lat="45.316445" lon="7.5720617"><ele>513.3333333333334</ele><time>2026-04-06T13:06:31.821Z</time></trkpt><trkpt lat="45.3164267" lon="7.5719467"><ele>514.5</ele><time>2026-04-06T13:06:34.824Z</time></trkpt><trkpt lat="45.3163783" lon="7.5718617"><ele>515.6666666666666</ele><time>2026-04-06T13:06:37.823Z</time></trkpt><trkpt lat="45.3163117" lon="7.5718283"><ele>516.8333333333333</ele><time>2026-04-06T13:06:40.823Z</time></trkpt><trkpt lat="45.316235" lon="7.57181"><ele>518.0</ele><time>2026-04-06T13:06:43.824Z</time></trkpt><trkpt lat="45.3161667" lon="7.5718033"><ele>518.7142857142857</ele><time>2026-04-06T13:06:46.827Z</time></trkpt><trkpt lat="45.3160983" lon="7.571805"><ele>519.4285714285714</ele><time>2026-04-06T13:06:49.825Z</time></trkpt><trkpt lat="45.3160283" lon="7.57181"><ele>520.1428571428571</ele><time>2026-04-06T13:06:52.822Z</time></trkpt><trkpt lat="45.3159617" lon="7.5718183"><ele>520.8571428571429</ele><time>2026-04-06T13:06:55.828Z</time></trkpt><trkpt lat="45.315895" lon="7.5718283"><ele>521.5714285714286</ele><time>2026-04-06T13:06:58.821Z</time></trkpt><trkpt lat="45.315825" lon="7.5718317"><ele>522.2857142857142</ele><time>2026-04-06T13:07:01.822Z</time></trkpt><trkpt lat="45.315745" lon="7.571805"><ele>523.0</ele><time>2026-04-06T13:07:04.822Z</time></trkpt><trkpt lat="45.3156817" lon="7.571745"><ele>522.9999999999999</ele><time>2026-04-06T13:07:07.818Z</time></trkpt><trkpt lat="45.315615" lon="7.57168"><ele>523.0</ele><time>2026-04-06T13:07:10.821Z</time></trkpt><trkpt lat="45.3155617" lon="7.5716017"><ele>523.0</ele><time>2026-04-06T13:07:13.821Z</time></trkpt><trkpt lat="45.3155317" lon="7.57151"><ele>523.0</ele><time>2026-04-06T13:07:16.822Z</time></trkpt><trkpt lat="45.3155083" lon="7.57142"><ele>523.0</ele><time>2026-04-06T13:07:19.82Z</time></trkpt><trkpt lat="45.3155017" lon="7.5713133"><ele>522.9999999999999</ele><time>2026-04-06T13:07:22.821Z</time></trkpt><trkpt lat="45.3154917" lon="7.5712083"><ele>523.0</ele><time>2026-04-06T13:07:25.821Z</time></trkpt><trkpt lat="45.3154883" lon="7.5711017"><ele>521.3333333333334</ele><time>2026-04-06T13:07:28.829Z</time></trkpt><trkpt lat="45.31548" lon="7.5709933"><ele>519.6666666666667</ele><time>2026-04-06T13:07:31.819Z</time></trkpt><trkpt lat="45.3154833" lon="7.5708867"><ele>518.0</ele><time>2026-04-06T13:07:34.819Z</time></trkpt><trkpt lat="45.31549" lon="7.5707833"><ele>516.3333333333334</ele><time>2026-04-06T13:07:37.82Z</time></trkpt><trkpt lat="45.315505" lon="7.570675"><ele>514.6666666666666</ele><time>2026-04-06T13:07:40.828Z</time></trkpt><trkpt lat="45.3155217" lon="7.5705667"><ele>513.0</ele><time>2026-04-06T13:07:43.821Z</time></trkpt><trkpt lat="45.315545" lon="7.5704583"><ele>514.8333333333334</ele><time>2026-04-06T13:07:46.82Z</time></trkpt><trkpt lat="45.31557" lon="7.5703533"><ele>516.6666666666666</ele><time>2026-04-06T13:07:49.82Z</time></trkpt><trkpt lat="45.3155933" lon="7.57025"><ele>518.5</ele><time>2026-04-06T13:07:52.826Z</time></trkpt><trkpt lat="45.31561" lon="7.5701467"><ele>520.3333333333333</ele><time>2026-04-06T13:07:55.825Z</time></trkpt><trkpt lat="45.3156233" lon="7.5700383"><ele>522.1666666666666</ele><time>2026-04-06T13:07:58.825Z</time></trkpt><trkpt lat="45.3156317" lon="7.569925"><ele>524.0</ele><time>2026-04-06T13:08:01.827Z</time></trkpt><trkpt lat="45.31563" lon="7.5698167"><ele>527.3333333333333</ele><time>2026-04-06T13:08:04.823Z</time></trkpt><trkpt lat="45.3156217" lon="7.569715"><ele>530.6666666666666</ele><time>2026-04-06T13:08:07.828Z</time></trkpt><trkpt lat="45.3156217" lon="7.5696083"><ele>534.0</ele><time>2026-04-06T13:08:10.823Z</time></trkpt><trkpt lat="45.3156283" lon="7.569495"><ele>537.3333333333334</ele><time>2026-04-06T13:08:13.823Z</time></trkpt><trkpt lat="45.31564" lon="7.5693833"><ele>540.6666666666667</ele><time>2026-04-06T13:08:16.821Z</time></trkpt><trkpt lat="45.3156483" lon="7.5692767"><ele>544.0</ele><time>2026-04-06T13:08:19.824Z</time></trkpt><trkpt lat="45.315665" lon="7.5691717"><ele>543.5714285714286</ele><time>2026-04-06T13:08:22.822Z</time></trkpt><trkpt lat="45.3156767" lon="7.5690767"><ele>543.1428571428571</ele><time>2026-04-06T13:08:25.823Z</time></trkpt><trkpt lat="45.315685" lon="7.56897"><ele>542.7142857142858</ele><time>2026-04-06T13:08:28.823Z</time></trkpt><trkpt lat="45.3156633" lon="7.5688717"><ele>542.2857142857142</ele><time>2026-04-06T13:08:31.825Z</time></trkpt><trkpt lat="45.31561" lon="7.56882"><ele>541.8571428571429</ele><time>2026-04-06T13:08:34.825Z</time></trkpt><trkpt lat="45.3155433" lon="7.5688033"><ele>541.4285714285714</ele><time>2026-04-06T13:08:37.823Z</time></trkpt><trkpt lat="45.3154633" lon="7.5688017"><ele>541.0</ele><time>2026-04-06T13:08:40.821Z</time></trkpt><trkpt lat="45.31539" lon="7.5688"><ele>541.0</ele><time>2026-04-06T13:08:43.824Z</time></trkpt><trkpt lat="45.3153117" lon="7.5687867"><ele>541.0</ele><time>2026-04-06T13:08:46.821Z</time></trkpt><trkpt lat="45.3152317" lon="7.5687983"><ele>541.0</ele><time>2026-04-06T13:08:49.826Z</time></trkpt><trkpt lat="45.3151517" lon="7.5688283"><ele>541.0</ele><time>2026-04-06T13:08:52.823Z</time></trkpt><trkpt lat="45.3150833" lon="7.5688867"><ele>541.0</ele><time>2026-04-06T13:08:55.826Z</time></trkpt><trkpt lat="45.315015" lon="7.56894"><ele>541.0</ele><time>2026-04-06T13:08:58.825Z</time></trkpt><trkpt lat="45.3149367" lon="7.5689817"><ele>541.0000000000001</ele><time>2026-04-06T13:09:01.828Z</time></trkpt><trkpt lat="45.3148567" lon="7.5689817"><ele>541.0</ele><time>2026-04-06T13:09:04.821Z</time></trkpt><trkpt lat="45.31479" lon="7.5689417"><ele>541.0</ele><time>2026-04-06T13:09:07.82Z</time></trkpt><trkpt lat="45.3147333" lon="7.568885"><ele>541.0</ele><time>2026-04-06T13:09:10.825Z</time></trkpt><trkpt lat="45.31468" lon="7.56882"><ele>541.0</ele><time>2026-04-06T13:09:13.823Z</time></trkpt><trkpt lat="45.3146283" lon="7.56873"><ele>541.0000000000001</ele><time>2026-04-06T13:09:16.823Z</time></trkpt><trkpt lat="45.3145783" lon="7.5686583"><ele>541.0</ele><time>2026-04-06T13:09:19.822Z</time></trkpt><trkpt lat="45.3145267" lon="7.568585"><ele>543.8571428571429</ele><time>2026-04-06T13:09:22.822Z</time></trkpt><trkpt lat="45.3144633" lon="7.568535"><ele>546.7142857142858</ele><time>2026-04-06T13:09:25.822Z</time></trkpt><trkpt lat="45.3144017" lon="7.5684883"><ele>549.5714285714286</ele><time>2026-04-06T13:09:28.825Z</time></trkpt><trkpt lat="45.314335" lon="7.5684533"><ele>552.4285714285714</ele><time>2026-04-06T13:09:31.822Z</time></trkpt><trkpt lat="45.3142567" lon="7.5684333"><ele>555.2857142857142</ele><time>2026-04-06T13:09:34.822Z</time></trkpt><trkpt lat="45.31418" lon="7.568435"><ele>558.1428571428571</ele><time>2026-04-06T13:09:37.826Z</time></trkpt><trkpt lat="45.31411" lon="7.5684333"><ele>561.0</ele><time>2026-04-06T13:09:40.823Z</time></trkpt><trkpt lat="45.31404" lon="7.56842"><ele>561.0</ele><time>2026-04-06T13:09:43.826Z</time></trkpt><trkpt lat="45.3139667" lon="7.568395"><ele>561.0</ele><time>2026-04-06T13:09:46.821Z</time></trkpt><trkpt lat="45.3139067" lon="7.5683467"><ele>561.0</ele><time>2026-04-06T13:09:49.822Z</time></trkpt><trkpt lat="45.3138517" lon="7.5682783"><ele>561.0</ele><time>2026-04-06T13:09:52.817Z</time></trkpt><trkpt lat="45.3138033" lon="7.5681933"><ele>561.0</ele><time>2026-04-06T13:09:55.824Z</time></trkpt><trkpt lat="45.3137667" lon="7.5681"><ele>561.0</ele><time>2026-04-06T13:09:58.825Z</time></trkpt><trkpt lat="45.3137333" lon="7.5680033"><ele>561.0</ele><time>2026-04-06T13:10:01.823Z</time></trkpt><trkpt lat="45.3137" lon="7.5679067"><ele>561.7142857142857</ele><time>2026-04-06T13:10:04.823Z</time></trkpt><trkpt lat="45.313655" lon="7.567825"><ele>562.4285714285713</ele><time>2026-04-06T13:10:07.827Z</time></trkpt><trkpt lat="45.313605" lon="7.567745"><ele>563.1428571428571</ele><time>2026-04-06T13:10:10.824Z</time></trkpt><trkpt lat="45.3135533" lon="7.567685"><ele>563.8571428571429</ele><time>2026-04-06T13:10:13.823Z</time></trkpt><trkpt lat="45.3134917" lon="7.5676317"><ele>564.5714285714287</ele><time>2026-04-06T13:10:16.822Z</time></trkpt><trkpt lat="45.3134233" lon="7.56758"><ele>565.2857142857143</ele><time>2026-04-06T13:10:19.823Z</time></trkpt><trkpt lat="45.31336" lon="7.5675167"><ele>566.0</ele><time>2026-04-06T13:10:22.817Z</time></trkpt><trkpt lat="45.3133017" lon="7.5674267"><ele>566.0</ele><time>2026-04-06T13:10:25.82Z</time></trkpt><trkpt lat="45.31324" lon="7.56735"><ele>566.0</ele><time>2026-04-06T13:10:28.822Z</time></trkpt><trkpt lat="45.3131867" lon="7.5672683"><ele>566.0</ele><time>2026-04-06T13:10:31.821Z</time></trkpt><trkpt lat="45.3131383" lon="7.567175"><ele>566.0</ele><time>2026-04-06T13:10:34.82Z</time></trkpt><trkpt lat="45.3130933" lon="7.567075"><ele>566.0</ele><time>2026-04-06T13:10:37.824Z</time></trkpt><trkpt lat="45.3130533" lon="7.566975"><ele>566.0</ele><time>2026-04-06T13:10:40.825Z</time></trkpt><trkpt lat="45.3130033" lon="7.5668983"><ele>564.3333333333333</ele><time>2026-04-06T13:10:43.824Z</time></trkpt><trkpt lat="45.312945" lon="7.5668233"><ele>562.6666666666666</ele><time>2026-04-06T13:10:46.824Z</time></trkpt><trkpt lat="45.3128767" lon="7.566755"><ele>561.0</ele><time>2026-04-06T13:10:49.83Z</time></trkpt><trkpt lat="45.3128267" lon="7.5666733"><ele>559.3333333333334</ele><time>2026-04-06T13:10:52.82Z</time></trkpt><trkpt lat="45.3128017" lon="7.566575"><ele>557.6666666666667</ele><time>2026-04-06T13:10:55.824Z</time></trkpt><trkpt lat="45.3128133" lon="7.5664733"><ele>556.0</ele><time>2026-04-06T13:10:58.824Z</time></trkpt><trkpt lat="45.3128467" lon="7.5663667"><ele>556.0</ele><time>2026-04-06T13:11:01.824Z</time></trkpt><trkpt lat="45.3128933" lon="7.5662717"><ele>556.0</ele><time>2026-04-06T13:11:04.818Z</time></trkpt><trkpt lat="45.3129417" lon="7.56619"><ele>556.0</ele><time>2026-04-06T13:11:07.824Z</time></trkpt><trkpt lat="45.312995" lon="7.5661067"><ele>556.0</ele><time>2026-04-06T13:11:10.824Z</time></trkpt><trkpt lat="45.31306" lon="7.5660317"><ele>556.0</ele><time>2026-04-06T13:11:13.822Z</time></trkpt><trkpt lat="45.3131267" lon="7.5659617"><ele>556.0</ele><time>2026-04-06T13:11:16.821Z</time></trkpt><trkpt lat="45.3131917" lon="7.565895"><ele>557.8333333333334</ele><time>2026-04-06T13:11:19.824Z</time></trkpt><trkpt lat="45.31326" lon="7.5658833"><ele>559.6666666666667</ele><time>2026-04-06T13:11:22.821Z</time></trkpt><trkpt lat="45.3133233" lon="7.565935"><ele>561.5</ele><time>2026-04-06T13:11:25.821Z</time></trkpt><trkpt lat="45.313375" lon="7.5660117"><ele>563.3333333333334</ele><time>2026-04-06T13:11:28.817Z</time></trkpt><trkpt lat="45.3134283" lon="7.5661"><ele>565.1666666666666</ele><time>2026-04-06T13:11:31.829Z</time></trkpt><trkpt lat="45.31349" lon="7.5661717"><ele>567.0</ele><time>2026-04-06T13:11:34.821Z</time></trkpt><trkpt lat="45.31356" lon="7.5662267"><ele>568.5</ele><time>2026-04-06T13:11:37.824Z</time></trkpt><trkpt lat="45.3136267" lon="7.5662633"><ele>570.0</ele><time>2026-04-06T13:11:40.825Z</time></trkpt><trkpt lat="45.313695" lon="7.5662817"><ele>571.5</ele><time>2026-04-06T13:11:43.828Z</time></trkpt><trkpt lat="45.31377" lon="7.5663017"><ele>573.0</ele><time>2026-04-06T13:11:46.821Z</time></trkpt><trkpt lat="45.313845" lon="7.5663333"><ele>574.5</ele><time>2026-04-06T13:11:49.825Z</time></trkpt><trkpt lat="45.3139217" lon="7.5663633"><ele>576.0</ele><time>2026-04-06T13:11:52.821Z</time></trkpt><trkpt lat="45.31401" lon="7.5663933"><ele>578.3333333333334</ele><time>2026-04-06T13:11:55.824Z</time></trkpt><trkpt lat="45.31409" lon="7.5664233"><ele>580.6666666666666</ele><time>2026-04-06T13:11:58.822Z</time></trkpt><trkpt lat="45.31417" lon="7.56645"><ele>583.0</ele><time>2026-04-06T13:12:01.82Z</time></trkpt><trkpt lat="45.314255" lon="7.5664867"><ele>585.3333333333333</ele><time>2026-04-06T13:12:04.82Z</time></trkpt><trkpt lat="45.3143217" lon="7.5665233"><ele>587.6666666666666</ele><time>2026-04-06T13:12:07.826Z</time></trkpt><trkpt lat="45.3143967" lon="7.5665683"><ele>590.0</ele><time>2026-04-06T13:12:11.826Z</time></trkpt><trkpt lat="45.314465" lon="7.566635"><ele>590.0</ele><time>2026-04-06T13:12:15.82Z</time></trkpt><trkpt lat="45.3145283" lon="7.5666883"><ele>590.0</ele><time>2026-04-06T13:12:18.824Z</time></trkpt><trkpt lat="45.3145883" lon="7.5667383"><ele>590.0</ele><time>2026-04-06T13:12:21.82Z</time></trkpt><trkpt lat="45.3146483" lon="7.566805"><ele>590.0</ele><time>2026-04-06T13:12:24.823Z</time></trkpt><trkpt lat="45.314715" lon="7.5668533"><ele>590.0</ele><time>2026-04-06T13:12:27.823Z</time></trkpt><trkpt lat="45.3147783" lon="7.5669083"><ele>590.0</ele><time>2026-04-06T13:12:30.826Z</time></trkpt><trkpt lat="45.3148583" lon="7.5669533"><ele>589.8333333333333</ele><time>2026-04-06T13:12:33.824Z</time></trkpt><trkpt lat="45.3149433" lon="7.5670033"><ele>589.6666666666666</ele><time>2026-04-06T13:12:36.822Z</time></trkpt><trkpt lat="45.3150133" lon="7.5670283"><ele>589.5</ele><time>2026-04-06T13:12:38.829Z</time></trkpt><trkpt lat="45.3150967" lon="7.5670667"><ele>589.3333333333334</ele><time>2026-04-06T13:12:41.822Z</time></trkpt><trkpt lat="45.3151583" lon="7.5671"><ele>589.1666666666667</ele><time>2026-04-06T13:12:44.825Z</time></trkpt><trkpt lat="45.3152383" lon="7.5671417"><ele>589.0</ele><time>2026-04-06T13:12:48.824Z</time></trkpt><trkpt lat="45.315305" lon="7.5671483"><ele>589.0</ele><time>2026-04-06T13:12:51.825Z</time></trkpt><trkpt lat="45.3153717" lon="7.5671783"><ele>589.0</ele><time>2026-04-06T13:12:54.823Z</time></trkpt><trkpt lat="45.3154383" lon="7.5672117"><ele>589.0</ele><time>2026-04-06T13:12:57.823Z</time></trkpt><trkpt lat="45.3155033" lon="7.5672617"><ele>589.0</ele><time>2026-04-06T13:13:00.828Z</time></trkpt><trkpt lat="45.3155717" lon="7.567315"><ele>589.0</ele><time>2026-04-06T13:13:03.824Z</time></trkpt><trkpt lat="45.3156367" lon="7.5673767"><ele>589.0</ele><time>2026-04-06T13:13:06.82Z</time></trkpt><trkpt lat="45.3157017" lon="7.56742"><ele>589.0</ele><time>2026-04-06T13:13:09.824Z</time></trkpt><trkpt lat="45.3157617" lon="7.56737"><ele>589.0</ele><time>2026-04-06T13:13:12.82Z</time></trkpt><trkpt lat="45.3158133" lon="7.5672967"><ele>589.0</ele><time>2026-04-06T13:13:15.822Z</time></trkpt><trkpt lat="45.315875" lon="7.567225"><ele>589.0</ele><time>2026-04-06T13:13:18.828Z</time></trkpt><trkpt lat="45.3159383" lon="7.5671633"><ele>589.0</ele><time>2026-04-06T13:13:21.822Z</time></trkpt><trkpt lat="45.3159967" lon="7.5671017"><ele>589.0</ele><time>2026-04-06T13:13:24.825Z</time></trkpt><trkpt lat="45.316055" lon="7.567045"><ele>589.0</ele><time>2026-04-06T13:13:27.827Z</time></trkpt><trkpt lat="45.31612" lon="7.56699"><ele>589.0</ele><time>2026-04-06T13:13:30.823Z</time></trkpt><trkpt lat="45.31619" lon="7.56694"><ele>588.8333333333334</ele><time>2026-04-06T13:13:33.822Z</time></trkpt><trkpt lat="45.3162617" lon="7.5668967"><ele>588.6666666666667</ele><time>2026-04-06T13:13:36.829Z</time></trkpt><trkpt lat="45.3163267" lon="7.5668417"><ele>588.5</ele><time>2026-04-06T13:13:39.821Z</time></trkpt><trkpt lat="45.3163733" lon="7.5667783"><ele>588.3333333333334</ele><time>2026-04-06T13:13:42.824Z</time></trkpt><trkpt lat="45.316405" lon="7.5666833"><ele>588.1666666666666</ele><time>2026-04-06T13:13:46.819Z</time></trkpt><trkpt lat="45.3164167" lon="7.5665583"><ele>588.0</ele><time>2026-04-06T13:13:50.828Z</time></trkpt><trkpt lat="45.3164183" lon="7.566445"><ele>588.0</ele><time>2026-04-06T13:13:53.818Z</time></trkpt><trkpt lat="45.316405" lon="7.5663333"><ele>588.0</ele><time>2026-04-06T13:13:56.826Z</time></trkpt><trkpt lat="45.3163867" lon="7.5662283"><ele>588.0</ele><time>2026-04-06T13:13:59.824Z</time></trkpt><trkpt lat="45.3164033" lon="7.5661233"><ele>588.0</ele><time>2026-04-06T13:14:02.828Z</time></trkpt><trkpt lat="45.3164417" lon="7.5660333"><ele>588.0</ele><time>2026-04-06T13:14:05.826Z</time></trkpt><trkpt lat="45.31649" lon="7.5659617"><ele>588.0</ele><time>2026-04-06T13:14:08.818Z</time></trkpt><trkpt lat="45.316555" lon="7.56591"><ele>590.8571428571429</ele><time>2026-04-06T13:14:11.822Z</time></trkpt><trkpt lat="45.31662" lon="7.565865"><ele>593.7142857142858</ele><time>2026-04-06T13:14:14.824Z</time></trkpt><trkpt lat="45.3166867" lon="7.5658217"><ele>596.5714285714286</ele><time>2026-04-06T13:14:17.824Z</time></trkpt><trkpt lat="45.3167483" lon="7.56578"><ele>599.4285714285714</ele><time>2026-04-06T13:14:20.82Z</time></trkpt><trkpt lat="45.3168067" lon="7.565735"><ele>602.2857142857143</ele><time>2026-04-06T13:14:23.824Z</time></trkpt><trkpt lat="45.3168733" lon="7.5656983"><ele>605.1428571428571</ele><time>2026-04-06T13:14:26.826Z</time></trkpt><trkpt lat="45.3169367" lon="7.5656633"><ele>608.0</ele><time>2026-04-06T13:14:29.822Z</time></trkpt><trkpt lat="45.3170033" lon="7.5656283"><ele>608.0</ele><time>2026-04-06T13:14:32.824Z</time></trkpt><trkpt lat="45.31708" lon="7.5655767"><ele>608.0</ele><time>2026-04-06T13:14:36.821Z</time></trkpt><trkpt lat="45.31713" lon="7.5655183"><ele>608.0</ele><time>2026-04-06T13:14:39.821Z</time></trkpt><trkpt lat="45.3171783" lon="7.5654483"><ele>608.0</ele><time>2026-04-06T13:14:42.827Z</time></trkpt><trkpt lat="45.31722" lon="7.5653767"><ele>608.0</ele><time>2026-04-06T13:14:45.825Z</time></trkpt><trkpt lat="45.3172717" lon="7.565305"><ele>608.0</ele><time>2026-04-06T13:14:48.822Z</time></trkpt><trkpt lat="45.3173183" lon="7.5652317"><ele>608.0</ele><time>2026-04-06T13:14:51.823Z</time></trkpt><trkpt lat="45.3173667" lon="7.565155"><ele>610.4285714285714</ele><time>2026-04-06T13:14:54.825Z</time></trkpt><trkpt lat="45.3174117" lon="7.5650733"><ele>612.8571428571429</ele><time>2026-04-06T13:14:57.821Z</time></trkpt><trkpt lat="45.3174617" lon="7.5649933"><ele>615.2857142857143</ele><time>2026-04-06T13:15:00.825Z</time></trkpt><trkpt lat="45.3175067" lon="7.5649167"><ele>617.7142857142858</ele><time>2026-04-06T13:15:03.822Z</time></trkpt><trkpt lat="45.3175483" lon="7.564835"><ele>620.1428571428571</ele><time>2026-04-06T13:15:06.823Z</time></trkpt><trkpt lat="45.317585" lon="7.5647533"><ele>622.5714285714287</ele><time>2026-04-06T13:15:09.82Z</time></trkpt><trkpt lat="45.317625" lon="7.5646783"><ele>625.0</ele><time>2026-04-06T13:15:12.824Z</time></trkpt><trkpt lat="45.3176667" lon="7.5646033"><ele>622.2857142857143</ele><time>2026-04-06T13:15:15.823Z</time></trkpt><trkpt lat="45.3177133" lon="7.5645283"><ele>619.5714285714286</ele><time>2026-04-06T13:15:18.822Z</time></trkpt><trkpt lat="45.3177633" lon="7.5644533"><ele>616.8571428571429</ele><time>2026-04-06T13:15:21.826Z</time></trkpt><trkpt lat="45.3178217" lon="7.5643733"><ele>614.1428571428571</ele><time>2026-04-06T13:15:24.824Z</time></trkpt><trkpt lat="45.317875" lon="7.5643017"><ele>611.4285714285714</ele><time>2026-04-06T13:15:27.824Z</time></trkpt><trkpt lat="45.31792" lon="7.56423"><ele>608.7142857142858</ele><time>2026-04-06T13:15:30.826Z</time></trkpt><trkpt lat="45.3179717" lon="7.5641633"><ele>606.0</ele><time>2026-04-06T13:15:33.816Z</time></trkpt><trkpt lat="45.318015" lon="7.5640883"><ele>606.0</ele><time>2026-04-06T13:15:36.816Z</time></trkpt><trkpt lat="45.3180617" lon="7.564015"><ele>606.0</ele><time>2026-04-06T13:15:39.821Z</time></trkpt><trkpt lat="45.318115" lon="7.5639467"><ele>606.0</ele><time>2026-04-06T13:15:42.819Z</time></trkpt><trkpt lat="45.3181633" lon="7.5638783"><ele>606.0</ele><time>2026-04-06T13:15:45.819Z</time></trkpt><trkpt lat="45.3182217" lon="7.5638117"><ele>606.0</ele><time>2026-04-06T13:15:48.822Z</time></trkpt><trkpt lat="45.31828" lon="7.5637267"><ele>606.0</ele><time>2026-04-06T13:15:51.82Z</time></trkpt><trkpt lat="45.3183267" lon="7.5636467"><ele>606.0</ele><time>2026-04-06T13:15:54.822Z</time></trkpt><trkpt lat="45.3183783" lon="7.5635683"><ele>610.4285714285714</ele><time>2026-04-06T13:15:57.82Z</time></trkpt><trkpt lat="45.318425" lon="7.5634867"><ele>614.8571428571429</ele><time>2026-04-06T13:16:00.826Z</time></trkpt><trkpt lat="45.3184717" lon="7.56341"><ele>619.2857142857142</ele><time>2026-04-06T13:16:03.818Z</time></trkpt><trkpt lat="45.31852" lon="7.5633417"><ele>623.7142857142858</ele><time>2026-04-06T13:16:06.817Z</time></trkpt><trkpt lat="45.3185717" lon="7.56325"><ele>628.1428571428571</ele><time>2026-04-06T13:16:10.822Z</time></trkpt><trkpt lat="45.31862" lon="7.56319"><ele>632.5714285714286</ele><time>2026-04-06T13:16:13.824Z</time></trkpt><trkpt lat="45.318665" lon="7.5631267"><ele>637.0</ele><time>2026-04-06T13:16:16.82Z</time></trkpt><trkpt lat="45.31868" lon="7.5630333"><ele>637.0</ele><time>2026-04-06T13:16:19.82Z</time></trkpt><trkpt lat="45.3186517" lon="7.562945"><ele>637.0</ele><time>2026-04-06T13:16:22.822Z</time></trkpt><trkpt lat="45.3186167" lon="7.5628617"><ele>637.0</ele><time>2026-04-06T13:16:25.818Z</time></trkpt><trkpt lat="45.3185733" lon="7.5627817"><ele>637.0</ele><time>2026-04-06T13:16:28.822Z</time></trkpt><trkpt lat="45.3185367" lon="7.5626883"><ele>637.0</ele><time>2026-04-06T13:16:31.821Z</time></trkpt><trkpt lat="45.3185383" lon="7.5625783"><ele>637.0</ele><time>2026-04-06T13:16:34.823Z</time></trkpt><trkpt lat="45.3185567" lon="7.5624733"><ele>637.0</ele><time>2026-04-06T13:16:37.823Z</time></trkpt><trkpt lat="45.3185717" lon="7.5623717"><ele>636.4285714285714</ele><time>2026-04-06T13:16:40.823Z</time></trkpt><trkpt lat="45.3186083" lon="7.562285"><ele>635.8571428571429</ele><time>2026-04-06T13:16:43.82Z</time></trkpt><trkpt lat="45.3186467" lon="7.562195"><ele>635.2857142857142</ele><time>2026-04-06T13:16:46.822Z</time></trkpt><trkpt lat="45.31868" lon="7.5620933"><ele>634.7142857142858</ele><time>2026-04-06T13:16:49.822Z</time></trkpt><trkpt lat="45.31872" lon="7.5620083"><ele>634.1428571428571</ele><time>2026-04-06T13:16:52.82Z</time></trkpt><trkpt lat="45.318755" lon="7.56192"><ele>633.5714285714286</ele><time>2026-04-06T13:16:55.825Z</time></trkpt><trkpt lat="45.3187867" lon="7.5618367"><ele>633.0</ele><time>2026-04-06T13:16:58.823Z</time></trkpt><trkpt lat="45.3188183" lon="7.5617467"><ele>632.8571428571429</ele><time>2026-04-06T13:17:01.819Z</time></trkpt><trkpt lat="45.318845" lon="7.56166"><ele>632.7142857142858</ele><time>2026-04-06T13:17:04.82Z</time></trkpt><trkpt lat="45.3188417" lon="7.5615567"><ele>632.5714285714287</ele><time>2026-04-06T13:17:07.821Z</time></trkpt><trkpt lat="45.3188217" lon="7.5614533"><ele>632.4285714285714</ele><time>2026-04-06T13:17:10.825Z</time></trkpt><trkpt lat="45.3187867" lon="7.5613617"><ele>632.2857142857143</ele><time>2026-04-06T13:17:13.824Z</time></trkpt><trkpt lat="45.3187517" lon="7.5612767"><ele>632.1428571428572</ele><time>2026-04-06T13:17:16.827Z</time></trkpt><trkpt lat="45.3187483" lon="7.5611767"><ele>632.0</ele><time>2026-04-06T13:17:19.823Z</time></trkpt><trkpt lat="45.3187733" lon="7.5610717"><ele>631.2857142857143</ele><time>2026-04-06T13:17:22.823Z</time></trkpt><trkpt lat="45.3188167" lon="7.560985"><ele>630.5714285714286</ele><time>2026-04-06T13:17:25.826Z</time></trkpt><trkpt lat="45.3188783" lon="7.5609183"><ele>629.8571428571429</ele><time>2026-04-06T13:17:28.82Z</time></trkpt><trkpt lat="45.3189333" lon="7.56086"><ele>629.1428571428571</ele><time>2026-04-06T13:17:31.827Z</time></trkpt><trkpt lat="45.318995" lon="7.5608317"><ele>628.4285714285714</ele><time>2026-04-06T13:17:34.822Z</time></trkpt><trkpt lat="45.3190767" lon="7.5608433"><ele>627.7142857142858</ele><time>2026-04-06T13:17:38.823Z</time></trkpt><trkpt lat="45.3191383" lon="7.560885"><ele>627.0</ele><time>2026-04-06T13:17:41.822Z</time></trkpt><trkpt lat="45.3191917" lon="7.56095"><ele>630.7142857142858</ele><time>2026-04-06T13:17:45.819Z</time></trkpt><trkpt lat="45.3192533" lon="7.56101"><ele>634.4285714285714</ele><time>2026-04-06T13:17:49.824Z</time></trkpt><trkpt lat="45.3193217" lon="7.56106"><ele>638.1428571428571</ele><time>2026-04-06T13:17:53.82Z</time></trkpt><trkpt lat="45.319385" lon="7.5610783"><ele>641.8571428571429</ele><time>2026-04-06T13:17:57.822Z</time></trkpt><trkpt lat="45.3194567" lon="7.5610683"><ele>645.5714285714286</ele><time>2026-04-06T13:18:01.823Z</time></trkpt><trkpt lat="45.319525" lon="7.5610517"><ele>649.2857142857143</ele><time>2026-04-06T13:18:05.822Z</time></trkpt><trkpt lat="45.3195867" lon="7.5610233"><ele>653.0</ele><time>2026-04-06T13:18:09.821Z</time></trkpt><trkpt lat="45.3196583" lon="7.5610167"><ele>653.0000000000001</ele><time>2026-04-06T13:18:13.823Z</time></trkpt><trkpt lat="45.31973" lon="7.5610117"><ele>653.0</ele><time>2026-04-06T13:18:17.823Z</time></trkpt><trkpt lat="45.3198117" lon="7.561"><ele>653.0</ele><time>2026-04-06T13:18:21.826Z</time></trkpt><trkpt lat="45.3198767" lon="7.560955"><ele>653.0</ele><time>2026-04-06T13:18:25.827Z</time></trkpt><trkpt lat="45.31994" lon="7.5608933"><ele>653.0</ele><time>2026-04-06T13:18:29.825Z</time></trkpt><trkpt lat="45.319995" lon="7.56083"><ele>653.0000000000001</ele><time>2026-04-06T13:18:33.824Z</time></trkpt><trkpt lat="45.3200417" lon="7.5607567"><ele>653.0</ele><time>2026-04-06T13:18:37.825Z</time></trkpt><trkpt lat="45.320075" lon="7.56068"><ele>656.1428571428572</ele><time>2026-04-06T13:18:41.817Z</time></trkpt><trkpt lat="45.32012" lon="7.5606017"><ele>659.2857142857143</ele><time>2026-04-06T13:18:45.822Z</time></trkpt><trkpt lat="45.3201683" lon="7.5605367"><ele>662.4285714285714</ele><time>2026-04-06T13:18:49.82Z</time></trkpt><trkpt lat="45.32023" lon="7.5604733"><ele>665.5714285714287</ele><time>2026-04-06T13:18:53.819Z</time></trkpt><trkpt lat="45.3203033" lon="7.5604383"><ele>668.7142857142858</ele><time>2026-04-06T13:18:57.83Z</time></trkpt><trkpt lat="45.32037" lon="7.5604383"><ele>671.8571428571429</ele><time>2026-04-06T13:19:00.821Z</time></trkpt><trkpt lat="45.3204367" lon="7.5604483"><ele>675.0</ele><time>2026-04-06T13:19:03.829Z</time></trkpt><trkpt lat="45.320515" lon="7.560445"><ele>675.8571428571429</ele><time>2026-04-06T13:19:07.826Z</time></trkpt><trkpt lat="45.3205783" lon="7.5604483"><ele>676.7142857142858</ele><time>2026-04-06T13:19:10.824Z</time></trkpt><trkpt lat="45.3206583" lon="7.5604183"><ele>677.5714285714287</ele><time>2026-04-06T13:19:14.82Z</time></trkpt><trkpt lat="45.32074" lon="7.5603817"><ele>678.4285714285714</ele><time>2026-04-06T13:19:18.82Z</time></trkpt><trkpt lat="45.3208033" lon="7.5603417"><ele>679.2857142857143</ele><time>2026-04-06T13:19:21.822Z</time></trkpt><trkpt lat="45.3208617" lon="7.56027"><ele>680.1428571428572</ele><time>2026-04-06T13:19:25.823Z</time></trkpt><trkpt lat="45.3209183" lon="7.56022"><ele>681.0</ele><time>2026-04-06T13:19:29.821Z</time></trkpt><trkpt lat="45.3209733" lon="7.560165"><ele>681.0000000000001</ele><time>2026-04-06T13:19:33.824Z</time></trkpt><trkpt lat="45.32105" lon="7.5601483"><ele>681.0</ele><time>2026-04-06T13:19:37.82Z</time></trkpt><trkpt lat="45.3211283" lon="7.5601667"><ele>681.0</ele><time>2026-04-06T13:19:41.82Z</time></trkpt><trkpt lat="45.3211917" lon="7.5601933"><ele>681.0</ele><time>2026-04-06T13:19:44.822Z</time></trkpt><trkpt lat="45.3212633" lon="7.5602417"><ele>681.0</ele><time>2026-04-06T13:19:48.824Z</time></trkpt><trkpt lat="45.3213317" lon="7.5602783"><ele>681.0000000000001</ele><time>2026-04-06T13:19:53.823Z</time></trkpt><trkpt lat="45.3214017" lon="7.560305"><ele>681.0</ele><time>2026-04-06T13:19:58.822Z</time></trkpt><trkpt lat="45.3214567" lon="7.5603583"><ele>685.4285714285714</ele><time>2026-04-06T13:20:02.826Z</time></trkpt><trkpt lat="45.3215233" lon="7.5604167"><ele>689.8571428571429</ele><time>2026-04-06T13:20:06.82Z</time></trkpt><trkpt lat="45.3215917" lon="7.560475"><ele>694.2857142857142</ele><time>2026-04-06T13:20:10.824Z</time></trkpt><trkpt lat="45.3216433" lon="7.5605383"><ele>698.7142857142858</ele><time>2026-04-06T13:20:14.826Z</time></trkpt><trkpt lat="45.321695" lon="7.560595"><ele>703.1428571428571</ele><time>2026-04-06T13:20:18.823Z</time></trkpt><trkpt lat="45.321755" lon="7.5606467"><ele>707.5714285714286</ele><time>2026-04-06T13:20:22.824Z</time></trkpt><trkpt lat="45.3218333" lon="7.5606583"><ele>712.0</ele><time>2026-04-06T13:20:27.823Z</time></trkpt><trkpt lat="45.3219067" lon="7.5606283"><ele>711.9999999999999</ele><time>2026-04-06T13:20:31.824Z</time></trkpt><trkpt lat="45.3219667" lon="7.5605717"><ele>712.0</ele><time>2026-04-06T13:20:35.831Z</time></trkpt><trkpt lat="45.32202" lon="7.5604967"><ele>712.0</ele><time>2026-04-06T13:20:39.821Z</time></trkpt><trkpt lat="45.3220717" lon="7.5604217"><ele>712.0</ele><time>2026-04-06T13:20:43.822Z</time></trkpt><trkpt lat="45.3221017" lon="7.56034"><ele>712.0</ele><time>2026-04-06T13:20:47.82Z</time></trkpt><trkpt lat="45.3221283" lon="7.56025"><ele>711.9999999999999</ele><time>2026-04-06T13:20:51.821Z</time></trkpt><trkpt lat="45.322175" lon="7.5601833"><ele>712.0</ele><time>2026-04-06T13:20:55.826Z</time></trkpt><trkpt lat="45.3222267" lon="7.56013"><ele>710.4285714285713</ele><time>2026-04-06T13:20:59.821Z</time></trkpt><trkpt lat="45.322295" lon="7.56012"><ele>708.8571428571429</ele><time>2026-04-06T13:21:03.816Z</time></trkpt><trkpt lat="45.3223683" lon="7.5601367"><ele>707.2857142857142</ele><time>2026-04-06T13:21:07.826Z</time></trkpt><trkpt lat="45.32243" lon="7.560165"><ele>705.7142857142857</ele><time>2026-04-06T13:21:11.826Z</time></trkpt><trkpt lat="45.3224449" lon="7.5602559"><ele>704.1428571428571</ele><time>2026-04-06T13:21:17.822Z</time></trkpt><trkpt lat="45.3223793" lon="7.5602792"><ele>702.5714285714286</ele><time>2026-04-06T13:21:22.836Z</time></trkpt><trkpt lat="45.3223176" lon="7.5603346"><ele>701.0</ele><time>2026-04-06T13:21:27.829Z</time></trkpt><trkpt lat="45.322311" lon="7.5604391"><ele>704.4285714285714</ele><time>2026-04-06T13:21:32.822Z</time></trkpt><trkpt lat="45.3223235" lon="7.5605349"><ele>707.8571428571428</ele><time>2026-04-06T13:21:37.826Z</time></trkpt><trkpt lat="45.3223415" lon="7.5606344"><ele>711.2857142857142</ele><time>2026-04-06T13:21:42.826Z</time></trkpt><trkpt lat="45.322351" lon="7.5607254"><ele>714.7142857142858</ele><time>2026-04-06T13:21:46.827Z</time></trkpt><trkpt lat="45.3223568" lon="7.5608178"><ele>718.1428571428571</ele><time>2026-04-06T13:21:50.822Z</time></trkpt><trkpt lat="45.3223566" lon="7.5609282"><ele>721.5714285714286</ele><time>2026-04-06T13:21:55.746Z</time></trkpt><trkpt lat="45.3223483" lon="7.561035"><ele>725.0</ele><time>2026-04-06T13:21:58.822Z</time></trkpt><trkpt lat="45.32232" lon="7.5611233"><ele>726.7142857142858</ele><time>2026-04-06T13:22:02.822Z</time></trkpt><trkpt lat="45.3222917" lon="7.5612217"><ele>728.4285714285714</ele><time>2026-04-06T13:22:07.819Z</time></trkpt><trkpt lat="45.322265" lon="7.56131"><ele>730.1428571428571</ele><time>2026-04-06T13:22:12.823Z</time></trkpt><trkpt lat="45.3222247" lon="7.5613986"><ele>731.8571428571429</ele><time>2026-04-06T13:22:18.823Z</time></trkpt><trkpt lat="45.3221875" lon="7.5614864"><ele>733.5714285714286</ele><time>2026-04-06T13:22:23.82Z</time></trkpt><trkpt lat="45.322149" lon="7.5615587"><ele>735.2857142857143</ele><time>2026-04-06T13:22:27.822Z</time></trkpt><trkpt lat="45.3221067" lon="7.5616282"><ele>737.0</ele><time>2026-04-06T13:22:31.826Z</time></trkpt><trkpt lat="45.3220486" lon="7.561684"><ele>737.0000000000001</ele><time>2026-04-06T13:22:36.825Z</time></trkpt><trkpt lat="45.321987" lon="7.5617157"><ele>737.0</ele><time>2026-04-06T13:22:41.823Z</time></trkpt><trkpt lat="45.3219104" lon="7.5617394"><ele>737.0</ele><time>2026-04-06T13:22:46.798Z</time></trkpt><trkpt lat="45.3218333" lon="7.5617817"><ele>737.0</ele><time>2026-04-06T13:22:50.82Z</time></trkpt><trkpt lat="45.3217617" lon="7.56179"><ele>737.0</ele><time>2026-04-06T13:22:54.821Z</time></trkpt><trkpt lat="45.3217033" lon="7.5618367"><ele>737.0000000000001</ele><time>2026-04-06T13:22:58.823Z</time></trkpt><trkpt lat="45.321635" lon="7.561885"><ele>737.0</ele><time>2026-04-06T13:23:03.819Z</time></trkpt><trkpt lat="45.32157" lon="7.5619433"><ele>737.0000000000001</ele><time>2026-04-06T13:23:09.824Z</time></trkpt><trkpt lat="45.3215017" lon="7.561985"><ele>737.0</ele><time>2026-04-06T13:23:13.825Z</time></trkpt><trkpt lat="45.32145" lon="7.5620367"><ele>737.0</ele><time>2026-04-06T13:23:16.823Z</time></trkpt><trkpt lat="45.3213783" lon="7.56209"><ele>737.0</ele><time>2026-04-06T13:23:20.819Z</time></trkpt><trkpt lat="45.3213333" lon="7.56216"><ele>737.0</ele><time>2026-04-06T13:23:24.82Z</time></trkpt><trkpt lat="45.3212933" lon="7.56223"><ele>737.0000000000001</ele><time>2026-04-06T13:23:28.823Z</time></trkpt><trkpt lat="45.3212467" lon="7.5623167"><ele>737.0</ele><time>2026-04-06T13:23:33.82Z</time></trkpt><trkpt lat="45.3212" lon="7.562385"><ele>738.1428571428572</ele><time>2026-04-06T13:23:37.822Z</time></trkpt><trkpt lat="45.321155" lon="7.5624717"><ele>739.2857142857143</ele><time>2026-04-06T13:23:42.819Z</time></trkpt><trkpt lat="45.32111" lon="7.56256"><ele>740.4285714285714</ele><time>2026-04-06T13:23:47.824Z</time></trkpt><trkpt lat="45.3210733" lon="7.56265"><ele>741.5714285714287</ele><time>2026-04-06T13:23:51.822Z</time></trkpt><trkpt lat="45.3210383" lon="7.5627383"><ele>742.7142857142857</ele><time>2026-04-06T13:23:56.823Z</time></trkpt><trkpt lat="45.321015" lon="7.562825"><ele>743.8571428571429</ele><time>2026-04-06T13:24:00.828Z</time></trkpt><trkpt lat="45.320975" lon="7.5629"><ele>745.0</ele><time>2026-04-06T13:24:04.824Z</time></trkpt><trkpt lat="45.3209133" lon="7.56298"><ele>747.4285714285714</ele><time>2026-04-06T13:24:09.823Z</time></trkpt><trkpt lat="45.3208633" lon="7.56304"><ele>749.8571428571429</ele><time>2026-04-06T13:24:13.824Z</time></trkpt><trkpt lat="45.3208167" lon="7.5631017"><ele>752.2857142857142</ele><time>2026-04-06T13:24:16.824Z</time></trkpt><trkpt lat="45.320825" lon="7.5631917"><ele>754.7142857142858</ele><time>2026-04-06T13:24:20.82Z</time></trkpt><trkpt lat="45.32089" lon="7.5631533"><ele>757.1428571428572</ele><time>2026-04-06T13:24:26.822Z</time></trkpt><trkpt lat="45.320945" lon="7.563105"><ele>759.5714285714286</ele><time>2026-04-06T13:24:30.823Z</time></trkpt><trkpt lat="45.3210117" lon="7.563085"><ele>762.0</ele><time>2026-04-06T13:24:35.821Z</time></trkpt><trkpt lat="45.3210867" lon="7.56306"><ele>762.0</ele><time>2026-04-06T13:24:40.822Z</time></trkpt><trkpt lat="45.3211483" lon="7.5630333"><ele>762.0</ele><time>2026-04-06T13:24:44.827Z</time></trkpt><trkpt lat="45.3212133" lon="7.5630117"><ele>762.0</ele><time>2026-04-06T13:24:48.822Z</time></trkpt><trkpt lat="45.32128" lon="7.5629883"><ele>762.0</ele><time>2026-04-06T13:24:52.823Z</time></trkpt><trkpt lat="45.32135" lon="7.5629883"><ele>762.0</ele><time>2026-04-06T13:24:56.82Z</time></trkpt><trkpt lat="45.3214183" lon="7.56298"><ele>762.0</ele><time>2026-04-06T13:25:00.819Z</time></trkpt><trkpt lat="45.3214917" lon="7.562985"><ele>762.0</ele><time>2026-04-06T13:25:04.827Z</time></trkpt><trkpt lat="45.3215633" lon="7.5629667"><ele>762.8571428571428</ele><time>2026-04-06T13:25:08.826Z</time></trkpt><trkpt lat="45.32164" lon="7.562935"><ele>763.7142857142858</ele><time>2026-04-06T13:25:13.827Z</time></trkpt><trkpt lat="45.321705" lon="7.5629033"><ele>764.5714285714286</ele><time>2026-04-06T13:25:19.827Z</time></trkpt><trkpt lat="45.321765" lon="7.56287"><ele>765.4285714285713</ele><time>2026-04-06T13:25:24.819Z</time></trkpt><trkpt lat="45.32183" lon="7.56284"><ele>766.2857142857142</ele><time>2026-04-06T13:25:29.821Z</time></trkpt><trkpt lat="45.3218983" lon="7.5628233"><ele>767.1428571428571</ele><time>2026-04-06T13:25:34.82Z</time></trkpt><trkpt lat="45.321975" lon="7.56284"><ele>768.0</ele><time>2026-04-06T13:25:39.822Z</time></trkpt><trkpt lat="45.3220483" lon="7.5628717"><ele>771.8571428571428</ele><time>2026-04-06T13:25:44.822Z</time></trkpt><trkpt lat="45.3221117" lon="7.5628817"><ele>775.7142857142857</ele><time>2026-04-06T13:25:48.821Z</time></trkpt><trkpt lat="45.32218" lon="7.5629133"><ele>779.5714285714286</ele><time>2026-04-06T13:25:52.821Z</time></trkpt><trkpt lat="45.322255" lon="7.56295"><ele>783.4285714285713</ele><time>2026-04-06T13:25:57.821Z</time></trkpt><trkpt lat="45.3223267" lon="7.5629833"><ele>787.2857142857143</ele><time>2026-04-06T13:26:02.82Z</time></trkpt><trkpt lat="45.3223917" lon="7.5630083"><ele>791.1428571428571</ele><time>2026-04-06T13:26:06.821Z</time></trkpt><trkpt lat="45.3224583" lon="7.5630317"><ele>795.0</ele><time>2026-04-06T13:26:11.828Z</time></trkpt><trkpt lat="45.3225317" lon="7.5630483"><ele>797.4285714285714</ele><time>2026-04-06T13:26:15.822Z</time></trkpt><trkpt lat="45.3226067" lon="7.5630617"><ele>799.8571428571429</ele><time>2026-04-06T13:26:20.825Z</time></trkpt><trkpt lat="45.322675" lon="7.5630633"><ele>802.2857142857142</ele><time>2026-04-06T13:26:25.821Z</time></trkpt><trkpt lat="45.3227383" lon="7.5631033"><ele>804.7142857142858</ele><time>2026-04-06T13:26:30.822Z</time></trkpt><trkpt lat="45.3228017" lon="7.5631383"><ele>807.1428571428571</ele><time>2026-04-06T13:26:34.826Z</time></trkpt><trkpt lat="45.32287" lon="7.5631583"><ele>809.5714285714286</ele><time>2026-04-06T13:26:39.821Z</time></trkpt><trkpt lat="45.322935" lon="7.5631767"><ele>812.0</ele><time>2026-04-06T13:26:44.826Z</time></trkpt><trkpt lat="45.3230083" lon="7.5631783"><ele>813.5000000000001</ele><time>2026-04-06T13:26:49.821Z</time></trkpt><trkpt lat="45.3230867" lon="7.5631983"><ele>815.0</ele><time>2026-04-06T13:26:54.824Z</time></trkpt><trkpt lat="45.32317" lon="7.5632083"><ele>816.5</ele><time>2026-04-06T13:26:58.824Z</time></trkpt><trkpt lat="45.3232417" lon="7.5632467"><ele>818.0</ele><time>2026-04-06T13:27:02.82Z</time></trkpt><trkpt lat="45.323305" lon="7.5632783"><ele>819.5000000000001</ele><time>2026-04-06T13:27:06.823Z</time></trkpt><trkpt lat="45.3233783" lon="7.563315"><ele>821.0</ele><time>2026-04-06T13:27:11.825Z</time></trkpt><trkpt lat="45.3234446" lon="7.563338"><ele>821.0000000000001</ele><time>2026-04-06T13:27:16.82Z</time></trkpt><trkpt lat="45.3235116" lon="7.5633498"><ele>821.0</ele><time>2026-04-06T13:27:22.819Z</time></trkpt><trkpt lat="45.3235844" lon="7.5633723"><ele>821.0</ele><time>2026-04-06T13:27:27.823Z</time></trkpt><trkpt lat="45.323655" lon="7.563403"><ele>821.0</ele><time>2026-04-06T13:27:31.821Z</time></trkpt><trkpt lat="45.3237181" lon="7.5634322"><ele>821.0</ele><time>2026-04-06T13:27:34.822Z</time></trkpt><trkpt lat="45.3237719" lon="7.5634826"><ele>821.0000000000001</ele><time>2026-04-06T13:27:38.835Z</time></trkpt><trkpt lat="45.3238315" lon="7.5635354"><ele>821.0</ele><time>2026-04-06T13:27:42.827Z</time></trkpt><trkpt lat="45.3238938" lon="7.5635989"><ele>821.4285714285714</ele><time>2026-04-06T13:27:48.825Z</time></trkpt><trkpt lat="45.3239502" lon="7.5636412"><ele>821.8571428571429</ele><time>2026-04-06T13:27:52.822Z</time></trkpt><trkpt lat="45.32402" lon="7.5636933"><ele>822.2857142857142</ele><time>2026-04-06T13:27:55.822Z</time></trkpt><trkpt lat="45.3240817" lon="7.563745"><ele>822.7142857142858</ele><time>2026-04-06T13:28:00.822Z</time></trkpt><trkpt lat="45.3241433" lon="7.5638083"><ele>823.1428571428571</ele><time>2026-04-06T13:28:06.825Z</time></trkpt><trkpt lat="45.3242017" lon="7.5638817"><ele>823.5714285714286</ele><time>2026-04-06T13:28:11.819Z</time></trkpt><trkpt lat="45.3242683" lon="7.5639467"><ele>824.0</ele><time>2026-04-06T13:28:16.823Z</time></trkpt><trkpt lat="45.324325" lon="7.5639933"><ele>824.9999999999999</ele><time>2026-04-06T13:28:20.823Z</time></trkpt><trkpt lat="45.3243967" lon="7.5640467"><ele>826.0</ele><time>2026-04-06T13:28:25.823Z</time></trkpt><trkpt lat="45.324455" lon="7.5641067"><ele>827.0</ele><time>2026-04-06T13:28:29.822Z</time></trkpt><trkpt lat="45.3245167" lon="7.564145"><ele>828.0</ele><time>2026-04-06T13:28:34.821Z</time></trkpt><trkpt lat="45.3245717" lon="7.5642017"><ele>829.0</ele><time>2026-04-06T13:28:57.824Z</time></trkpt><trkpt lat="45.3246417" lon="7.5642533"><ele>829.9999999999999</ele><time>2026-04-06T13:29:00.823Z</time></trkpt><trkpt lat="45.3246983" lon="7.5643117"><ele>831.0</ele><time>2026-04-06T13:29:03.816Z</time></trkpt><trkpt lat="45.3247433" lon="7.5643867"><ele>831.8571428571428</ele><time>2026-04-06T13:29:07.826Z</time></trkpt><trkpt lat="45.3247817" lon="7.5644683"><ele>832.7142857142857</ele><time>2026-04-06T13:29:10.82Z</time></trkpt><trkpt lat="45.3248167" lon="7.5645533"><ele>833.5714285714286</ele><time>2026-04-06T13:29:13.822Z</time></trkpt><trkpt lat="45.32485" lon="7.564645"><ele>834.4285714285713</ele><time>2026-04-06T13:29:16.821Z</time></trkpt><trkpt lat="45.324875" lon="7.56473"><ele>835.2857142857143</ele><time>2026-04-06T13:29:19.823Z</time></trkpt><trkpt lat="45.3249117" lon="7.564835"><ele>836.1428571428571</ele><time>2026-04-06T13:29:22.825Z</time></trkpt><trkpt lat="45.32497" lon="7.5649233"><ele>837.0</ele><time>2026-04-06T13:29:25.82Z</time></trkpt><trkpt lat="45.3250383" lon="7.5649883"><ele>837.0</ele><time>2026-04-06T13:29:28.822Z</time></trkpt><trkpt lat="45.3251083" lon="7.56505"><ele>837.0</ele><time>2026-04-06T13:29:31.823Z</time></trkpt><trkpt lat="45.3251717" lon="7.565105"><ele>837.0</ele><time>2026-04-06T13:29:34.819Z</time></trkpt><trkpt lat="45.3252417" lon="7.5651517"><ele>837.0</ele><time>2026-04-06T13:29:38.83Z</time></trkpt><trkpt lat="45.3253133" lon="7.5651633"><ele>837.0</ele><time>2026-04-06T13:29:42.821Z</time></trkpt><trkpt lat="45.32539" lon="7.5651983"><ele>837.0</ele><time>2026-04-06T13:29:46.822Z</time></trkpt><trkpt lat="45.3254767" lon="7.5652533"><ele>837.0</ele><time>2026-04-06T13:29:49.823Z</time></trkpt><trkpt lat="45.3255433" lon="7.5652983"><ele>837.0</ele><time>2026-04-06T13:29:51.821Z</time></trkpt><trkpt lat="45.3256067" lon="7.565345"><ele>837.0</ele><time>2026-04-06T13:29:53.82Z</time></trkpt><trkpt lat="45.32567" lon="7.5653917"><ele>837.0</ele><time>2026-04-06T13:29:55.822Z</time></trkpt><trkpt lat="45.3257283" lon="7.5654317"><ele>837.0</ele><time>2026-04-06T13:29:57.825Z</time></trkpt><trkpt lat="45.3258033" lon="7.565475"><ele>837.0</ele><time>2026-04-06T13:29:59.823Z</time></trkpt><trkpt lat="45.325885" lon="7.5655217"><ele>836.2</ele><time>2026-04-06T13:30:02.817Z</time></trkpt><trkpt lat="45.3259667" lon="7.5655833"><ele>835.4000000000001</ele><time>2026-04-06T13:30:05.824Z</time></trkpt><trkpt lat="45.3260283" lon="7.5656367"><ele>834.5999999999999</ele><time>2026-04-06T13:30:07.822Z</time></trkpt><trkpt lat="45.3261183" lon="7.5656933"><ele>833.8</ele><time>2026-04-06T13:30:09.821Z</time></trkpt><trkpt lat="45.3262067" lon="7.5657867"><ele>833.0</ele><time>2026-04-06T13:30:11.824Z</time></trkpt><trkpt lat="45.326265" lon="7.5659183"><ele>833.0000000000001</ele><time>2026-04-06T13:30:13.826Z</time></trkpt><trkpt lat="45.3262983" lon="7.5660417"><ele>833.0</ele><time>2026-04-06T13:30:15.825Z</time></trkpt><trkpt lat="45.326325" lon="7.5661883"><ele>833.0</ele><time>2026-04-06T13:30:17.822Z</time></trkpt><trkpt lat="45.3263767" lon="7.56629"><ele>833.0</ele><time>2026-04-06T13:30:19.83Z</time></trkpt><trkpt lat="45.3264267" lon="7.566365"><ele>833.0000000000001</ele><time>2026-04-06T13:30:21.823Z</time></trkpt><trkpt lat="45.326485" lon="7.5664417"><ele>833.0</ele><time>2026-04-06T13:30:23.821Z</time></trkpt><trkpt lat="45.3265533" lon="7.5665333"><ele>834.6666666666667</ele><time>2026-04-06T13:30:26.822Z</time></trkpt><trkpt lat="45.326625" lon="7.5665583"><ele>836.3333333333334</ele><time>2026-04-06T13:30:29.821Z</time></trkpt><trkpt lat="45.326685" lon="7.56659"><ele>838.0</ele><time>2026-04-06T13:30:32.818Z</time></trkpt><trkpt lat="45.3267467" lon="7.5666283"><ele>839.6666666666667</ele><time>2026-04-06T13:30:35.819Z</time></trkpt><trkpt lat="45.326825" lon="7.5666867"><ele>841.3333333333334</ele><time>2026-04-06T13:30:39.821Z</time></trkpt><trkpt lat="45.32691" lon="7.5667417"><ele>843.0</ele><time>2026-04-06T13:30:42.821Z</time></trkpt><trkpt lat="45.3269817" lon="7.566775"><ele>843.0</ele><time>2026-04-06T13:30:45.819Z</time></trkpt><trkpt lat="45.3270483" lon="7.566825"><ele>843.0</ele><time>2026-04-06T13:30:48.825Z</time></trkpt><trkpt lat="45.3271017" lon="7.566885"><ele>843.0</ele><time>2026-04-06T13:30:51.823Z</time></trkpt><trkpt lat="45.3271317" lon="7.5669883"><ele>843.0</ele><time>2026-04-06T13:30:55.823Z</time></trkpt><trkpt lat="45.3271583" lon="7.5670717"><ele>843.0</ele><time>2026-04-06T13:30:58.822Z</time></trkpt><trkpt lat="45.3271533" lon="7.56717"><ele>843.0</ele><time>2026-04-06T13:31:01.822Z</time></trkpt><trkpt lat="45.327145" lon="7.56728"><ele>843.0</ele><time>2026-04-06T13:31:05.824Z</time></trkpt><trkpt lat="45.327135" lon="7.5673917"><ele>844.2857142857142</ele><time>2026-04-06T13:31:10.823Z</time></trkpt><trkpt lat="45.32712" lon="7.56748"><ele>845.5714285714286</ele><time>2026-04-06T13:31:13.825Z</time></trkpt><trkpt lat="45.327095" lon="7.567565"><ele>846.8571428571429</ele><time>2026-04-06T13:31:16.824Z</time></trkpt><trkpt lat="45.3270733" lon="7.5676617"><ele>848.1428571428571</ele><time>2026-04-06T13:31:20.825Z</time></trkpt><trkpt lat="45.3270583" lon="7.56776"><ele>849.4285714285714</ele><time>2026-04-06T13:31:24.821Z</time></trkpt><trkpt lat="45.32704" lon="7.5678633"><ele>850.7142857142857</ele><time>2026-04-06T13:31:28.826Z</time></trkpt><trkpt lat="45.3270283" lon="7.5679533"><ele>852.0</ele><time>2026-04-06T13:31:32.823Z</time></trkpt><trkpt lat="45.32703" lon="7.5680517"><ele>851.9999999999999</ele><time>2026-04-06T13:31:36.822Z</time></trkpt><trkpt lat="45.32702" lon="7.5681517"><ele>852.0</ele><time>2026-04-06T13:31:40.828Z</time></trkpt><trkpt lat="45.32699" lon="7.568245"><ele>852.0</ele><time>2026-04-06T13:31:44.828Z</time></trkpt><trkpt lat="45.3269817" lon="7.568345"><ele>852.0</ele><time>2026-04-06T13:31:48.823Z</time></trkpt><trkpt lat="45.3269417" lon="7.5684267"><ele>852.0</ele><time>2026-04-06T13:31:53.825Z</time></trkpt><trkpt lat="45.3268883" lon="7.5685117"><ele>851.9999999999999</ele><time>2026-04-06T13:31:58.822Z</time></trkpt><trkpt lat="45.3268583" lon="7.5686"><ele>852.0</ele><time>2026-04-06T13:32:02.823Z</time></trkpt><trkpt lat="45.3268467" lon="7.5686983"><ele>853.8571428571428</ele><time>2026-04-06T13:32:06.823Z</time></trkpt><trkpt lat="45.32682" lon="7.5688"><ele>855.7142857142857</ele><time>2026-04-06T13:32:10.822Z</time></trkpt><trkpt lat="45.3267917" lon="7.568895"><ele>857.5714285714286</ele><time>2026-04-06T13:32:14.827Z</time></trkpt><trkpt lat="45.3267667" lon="7.5689867"><ele>859.4285714285713</ele><time>2026-04-06T13:32:18.824Z</time></trkpt><trkpt lat="45.3268067" lon="7.569075"><ele>861.2857142857143</ele><time>2026-04-06T13:32:22.822Z</time></trkpt><trkpt lat="45.32685" lon="7.5691633"><ele>863.1428571428571</ele><time>2026-04-06T13:32:26.822Z</time></trkpt><trkpt lat="45.3269017" lon="7.5692333"><ele>865.0</ele><time>2026-04-06T13:32:31.82Z</time></trkpt><trkpt lat="45.3269433" lon="7.5693033"><ele>865.0</ele><time>2026-04-06T13:32:35.825Z</time></trkpt><trkpt lat="45.3270033" lon="7.5693617"><ele>865.0</ele><time>2026-04-06T13:32:41.821Z</time></trkpt><trkpt lat="45.3270767" lon="7.5693867"><ele>865.0</ele><time>2026-04-06T13:32:46.816Z</time></trkpt><trkpt lat="45.32714" lon="7.5693983"><ele>865.0</ele><time>2026-04-06T13:32:50.816Z</time></trkpt><trkpt lat="45.3272167" lon="7.5694333"><ele>865.0</ele><time>2026-04-06T13:32:54.817Z</time></trkpt><trkpt lat="45.3272883" lon="7.5694683"><ele>865.0</ele><time>2026-04-06T13:32:58.818Z</time></trkpt><trkpt lat="45.32736" lon="7.5695"><ele>865.0</ele><time>2026-04-06T13:33:02.824Z</time></trkpt><trkpt lat="45.3274283" lon="7.5695283"><ele>867.1428571428571</ele><time>2026-04-06T13:33:06.818Z</time></trkpt><trkpt lat="45.3274883" lon="7.5695783"><ele>869.2857142857143</ele><time>2026-04-06T13:33:10.817Z</time></trkpt><trkpt lat="45.3275133" lon="7.56968"><ele>871.4285714285713</ele><time>2026-04-06T13:33:15.823Z</time></trkpt><trkpt lat="45.32752" lon="7.5697783"><ele>873.5714285714286</ele><time>2026-04-06T13:33:19.819Z</time></trkpt><trkpt lat="45.327515" lon="7.5698733"><ele>875.7142857142857</ele><time>2026-04-06T13:33:23.817Z</time></trkpt><trkpt lat="45.32753" lon="7.5699617"><ele>877.8571428571428</ele><time>2026-04-06T13:33:27.818Z</time></trkpt><trkpt lat="45.3275417" lon="7.5700667"><ele>880.0</ele><time>2026-04-06T13:33:31.827Z</time></trkpt><trkpt lat="45.3275683" lon="7.57017"><ele>879.9999999999999</ele><time>2026-04-06T13:33:36.825Z</time></trkpt><trkpt lat="45.3276017" lon="7.5702517"><ele>880.0</ele><time>2026-04-06T13:33:40.817Z</time></trkpt><trkpt lat="45.327615" lon="7.5703433"><ele>880.0</ele><time>2026-04-06T13:33:44.817Z</time></trkpt><trkpt lat="45.3276333" lon="7.57043"><ele>880.0</ele><time>2026-04-06T13:33:48.819Z</time></trkpt><trkpt lat="45.3276533" lon="7.570515"><ele>880.0</ele><time>2026-04-06T13:33:52.827Z</time></trkpt><trkpt lat="45.3276317" lon="7.57061"><ele>879.9999999999999</ele><time>2026-04-06T13:33:57.825Z</time></trkpt><trkpt lat="45.3275917" lon="7.5706967"><ele>880.0</ele><time>2026-04-06T13:34:01.825Z</time></trkpt><trkpt lat="45.327555" lon="7.5707733"><ele>880.8571428571428</ele><time>2026-04-06T13:34:05.825Z</time></trkpt><trkpt lat="45.3275383" lon="7.5708783"><ele>881.7142857142857</ele><time>2026-04-06T13:34:09.822Z</time></trkpt><trkpt lat="45.3275183" lon="7.5709783"><ele>882.5714285714286</ele><time>2026-04-06T13:34:13.82Z</time></trkpt><trkpt lat="45.3275117" lon="7.5710683"><ele>883.4285714285713</ele><time>2026-04-06T13:34:17.821Z</time></trkpt><trkpt lat="45.32752" lon="7.571175"><ele>884.2857142857143</ele><time>2026-04-06T13:34:22.823Z</time></trkpt><trkpt lat="45.3275433" lon="7.5712683"><ele>885.1428571428571</ele><time>2026-04-06T13:34:26.822Z</time></trkpt><trkpt lat="45.3275517" lon="7.571365"><ele>886.0</ele><time>2026-04-06T13:34:30.826Z</time></trkpt><trkpt lat="45.327565" lon="7.5714633"><ele>887.2857142857143</ele><time>2026-04-06T13:34:34.824Z</time></trkpt><trkpt lat="45.3275633" lon="7.5715617"><ele>888.5714285714287</ele><time>2026-04-06T13:34:38.822Z</time></trkpt><trkpt lat="45.3275567" lon="7.5716583"><ele>889.8571428571429</ele><time>2026-04-06T13:34:42.825Z</time></trkpt><trkpt lat="45.327565" lon="7.5717533"><ele>891.1428571428571</ele><time>2026-04-06T13:34:46.827Z</time></trkpt><trkpt lat="45.32758" lon="7.5718617"><ele>892.4285714285714</ele><time>2026-04-06T13:34:51.822Z</time></trkpt><trkpt lat="45.3276" lon="7.57196"><ele>893.7142857142857</ele><time>2026-04-06T13:34:56.826Z</time></trkpt><trkpt lat="45.3276317" lon="7.57204"><ele>895.0</ele><time>2026-04-06T13:35:00.82Z</time></trkpt><trkpt lat="45.3276683" lon="7.5721133"><ele>895.5714285714286</ele><time>2026-04-06T13:35:04.823Z</time></trkpt><trkpt lat="45.3277067" lon="7.5721883"><ele>896.1428571428571</ele><time>2026-04-06T13:35:08.819Z</time></trkpt><trkpt lat="45.32772" lon="7.5722933"><ele>896.7142857142857</ele><time>2026-04-06T13:35:12.823Z</time></trkpt><trkpt lat="45.3277367" lon="7.572395"><ele>897.2857142857142</ele><time>2026-04-06T13:35:17.822Z</time></trkpt><trkpt lat="45.3277883" lon="7.5723333"><ele>897.8571428571429</ele><time>2026-04-06T13:39:02.821Z</time></trkpt><trkpt lat="45.3278283" lon="7.57224"><ele>898.4285714285713</ele><time>2026-04-06T13:39:07.821Z</time></trkpt><trkpt lat="45.32786" lon="7.5721483"><ele>898.9999999999999</ele><time>2026-04-06T13:39:12.824Z</time></trkpt><trkpt lat="45.3278733" lon="7.57206"><ele>898.4285714285713</ele><time>2026-04-06T13:39:15.819Z</time></trkpt><trkpt lat="45.3278967" lon="7.5719633"><ele>897.8571428571429</ele><time>2026-04-06T13:39:19.82Z</time></trkpt><trkpt lat="45.32791" lon="7.5718533"><ele>897.2857142857142</ele><time>2026-04-06T13:39:23.824Z</time></trkpt><trkpt lat="45.32791" lon="7.5717467"><ele>896.7142857142857</ele><time>2026-04-06T13:39:27.822Z</time></trkpt><trkpt lat="45.3279083" lon="7.571655"><ele>896.1428571428571</ele><time>2026-04-06T13:39:30.818Z</time></trkpt><trkpt lat="45.3279217" lon="7.5715517"><ele>895.5714285714286</ele><time>2026-04-06T13:39:34.823Z</time></trkpt><trkpt lat="45.3279383" lon="7.5714367"><ele>895.0</ele><time>2026-04-06T13:39:38.819Z</time></trkpt><trkpt lat="45.3279517" lon="7.571335"><ele>895.0</ele><time>2026-04-06T13:39:41.82Z</time></trkpt><trkpt lat="45.3279933" lon="7.5712633"><ele>895.0</ele><time>2026-04-06T13:39:44.823Z</time></trkpt><trkpt lat="45.3280567" lon="7.5712117"><ele>895.0</ele><time>2026-04-06T13:39:47.817Z</time></trkpt><trkpt lat="45.32812" lon="7.571135"><ele>895.0</ele><time>2026-04-06T13:39:50.82Z</time></trkpt><trkpt lat="45.3281817" lon="7.5710617"><ele>895.0</ele><time>2026-04-06T13:39:53.826Z</time></trkpt><trkpt lat="45.32823" lon="7.570985"><ele>895.0</ele><time>2026-04-06T13:39:56.824Z</time></trkpt><trkpt lat="45.3282767" lon="7.5709233"><ele>895.0</ele><time>2026-04-06T13:39:59.824Z</time></trkpt><trkpt lat="45.3283317" lon="7.5708483"><ele>898.4285714285713</ele><time>2026-04-06T13:40:03.821Z</time></trkpt><trkpt lat="45.3283683" lon="7.5707733"><ele>901.8571428571429</ele><time>2026-04-06T13:40:06.824Z</time></trkpt><trkpt lat="45.32841" lon="7.5706983"><ele>905.2857142857142</ele><time>2026-04-06T13:40:09.82Z</time></trkpt><trkpt lat="45.3284583" lon="7.57061"><ele>908.7142857142857</ele><time>2026-04-06T13:40:12.822Z</time></trkpt><trkpt lat="45.3285033" lon="7.570515"><ele>912.1428571428571</ele><time>2026-04-06T13:40:15.822Z</time></trkpt><trkpt lat="45.32853" lon="7.570425"><ele>915.5714285714286</ele><time>2026-04-06T13:40:18.823Z</time></trkpt><trkpt lat="45.3285567" lon="7.5703417"><ele>919.0</ele><time>2026-04-06T13:40:21.824Z</time></trkpt><trkpt lat="45.3286006" lon="7.5702536"><ele>919.0</ele><time>2026-04-06T13:40:25.828Z</time></trkpt><trkpt lat="45.328655" lon="7.5701717"><ele>918.9999999999999</ele><time>2026-04-06T13:40:30.822Z</time></trkpt><trkpt lat="45.3287267" lon="7.5701717"><ele>919.0</ele><time>2026-04-06T13:40:34.826Z</time></trkpt><trkpt lat="45.3287867" lon="7.5702083"><ele>919.0</ele><time>2026-04-06T13:40:38.821Z</time></trkpt><trkpt lat="45.32882" lon="7.570305"><ele>918.9999999999999</ele><time>2026-04-06T13:40:41.823Z</time></trkpt><trkpt lat="45.3288617" lon="7.570405"><ele>919.0</ele><time>2026-04-06T13:40:44.827Z</time></trkpt><trkpt lat="45.3289017" lon="7.5704783"><ele>919.0</ele><time>2026-04-06T13:40:46.826Z</time></trkpt><trkpt lat="45.3289717" lon="7.5705567"><ele>920.0</ele><time>2026-04-06T13:40:49.826Z</time></trkpt><trkpt lat="45.32903" lon="7.57064"><ele>920.9999999999999</ele><time>2026-04-06T13:40:52.82Z</time></trkpt><trkpt lat="45.3290783" lon="7.5707017"><ele>922.0</ele><time>2026-04-06T13:40:54.823Z</time></trkpt><trkpt lat="45.3291267" lon="7.5707783"><ele>923.0</ele><time>2026-04-06T13:40:56.829Z</time></trkpt><trkpt lat="45.3291717" lon="7.5708467"><ele>923.9999999999999</ele><time>2026-04-06T13:40:58.82Z</time></trkpt><trkpt lat="45.3292217" lon="7.57092"><ele>925.0</ele><time>2026-04-06T13:41:00.826Z</time></trkpt><trkpt lat="45.3292883" lon="7.5709967"><ele>926.0</ele><time>2026-04-06T13:41:03.821Z</time></trkpt><trkpt lat="45.3293317" lon="7.571065"><ele>926.0</ele><time>2026-04-06T13:41:05.824Z</time></trkpt><trkpt lat="45.329385" lon="7.5711283"><ele>925.9999999999999</ele><time>2026-04-06T13:41:07.821Z</time></trkpt><trkpt lat="45.3294383" lon="7.5712017"><ele>926.0</ele><time>2026-04-06T13:41:09.818Z</time></trkpt><trkpt lat="45.3294883" lon="7.5712667"><ele>926.0</ele><time>2026-04-06T13:41:11.823Z</time></trkpt><trkpt lat="45.329535" lon="7.5713317"><ele>925.9999999999999</ele><time>2026-04-06T13:41:13.824Z</time></trkpt><trkpt lat="45.3295883" lon="7.5714167"><ele>926.0</ele><time>2026-04-06T13:41:16.823Z</time></trkpt><trkpt lat="45.3296483" lon="7.5714967"><ele>926.0</ele><time>2026-04-06T13:41:18.825Z</time></trkpt><trkpt lat="45.3297083" lon="7.57156"><ele>922.8333333333334</ele><time>2026-04-06T13:41:20.822Z</time></trkpt><trkpt lat="45.3297667" lon="7.5716217"><ele>919.6666666666667</ele><time>2026-04-06T13:41:22.823Z</time></trkpt><trkpt lat="45.32982" lon="7.5716933"><ele>916.5</ele><time>2026-04-06T13:41:24.82Z</time></trkpt><trkpt lat="45.32987" lon="7.5717533"><ele>913.3333333333333</ele><time>2026-04-06T13:41:26.827Z</time></trkpt><trkpt lat="45.3299417" lon="7.5718233"><ele>910.1666666666666</ele><time>2026-04-06T13:41:29.822Z</time></trkpt><trkpt lat="45.3300167" lon="7.5718733"><ele>907.0</ele><time>2026-04-06T13:41:32.82Z</time></trkpt><trkpt lat="45.3300917" lon="7.57195"><ele>906.9999999999999</ele><time>2026-04-06T13:41:35.823Z</time></trkpt><trkpt lat="45.3301317" lon="7.5720217"><ele>907.0</ele><time>2026-04-06T13:41:37.821Z</time></trkpt><trkpt lat="45.3301467" lon="7.57212"><ele>907.0</ele><time>2026-04-06T13:41:39.823Z</time></trkpt><trkpt lat="45.3301383" lon="7.5722367"><ele>907.0</ele><time>2026-04-06T13:41:42.826Z</time></trkpt><trkpt lat="45.3301133" lon="7.572345"><ele>906.9999999999999</ele><time>2026-04-06T13:41:45.819Z</time></trkpt><trkpt lat="45.3300733" lon="7.5724467"><ele>907.0</ele><time>2026-04-06T13:41:48.825Z</time></trkpt><trkpt lat="45.3300267" lon="7.5725433"><ele>905.0000000000001</ele><time>2026-04-06T13:41:51.825Z</time></trkpt><trkpt lat="45.3299833" lon="7.57261"><ele>903.0</ele><time>2026-04-06T13:41:53.82Z</time></trkpt><trkpt lat="45.3299283" lon="7.572675"><ele>901.0</ele><time>2026-04-06T13:41:55.823Z</time></trkpt><trkpt lat="45.3298683" lon="7.5727183"><ele>899.0</ele><time>2026-04-06T13:41:57.821Z</time></trkpt><trkpt lat="45.3297967" lon="7.5727533"><ele>897.0</ele><time>2026-04-06T13:41:59.823Z</time></trkpt><trkpt lat="45.3297167" lon="7.57278"><ele>895.0</ele><time>2026-04-06T13:42:01.824Z</time></trkpt><trkpt lat="45.3296467" lon="7.5728117"><ele>893.0</ele><time>2026-04-06T13:42:03.819Z</time></trkpt><trkpt lat="45.3295917" lon="7.5728933"><ele>890.8571428571429</ele><time>2026-04-06T13:42:06.817Z</time></trkpt><trkpt lat="45.3296183" lon="7.5729967"><ele>888.7142857142858</ele><time>2026-04-06T13:42:10.821Z</time></trkpt><trkpt lat="45.3296433" lon="7.5730867"><ele>886.5714285714286</ele><time>2026-04-06T13:42:12.822Z</time></trkpt><trkpt lat="45.3296667" lon="7.5731783"><ele>884.4285714285714</ele><time>2026-04-06T13:42:14.825Z</time></trkpt><trkpt lat="45.32971" lon="7.5732533"><ele>882.2857142857142</ele><time>2026-04-06T13:42:16.818Z</time></trkpt><trkpt lat="45.329755" lon="7.5733217"><ele>880.1428571428571</ele><time>2026-04-06T13:42:18.821Z</time></trkpt><trkpt lat="45.329835" lon="7.5733767"><ele>878.0</ele><time>2026-04-06T13:42:21.823Z</time></trkpt><trkpt lat="45.329915" lon="7.5734033"><ele>878.0000000000001</ele><time>2026-04-06T13:42:24.825Z</time></trkpt><trkpt lat="45.3299783" lon="7.5734017"><ele>878.0</ele><time>2026-04-06T13:42:26.818Z</time></trkpt><trkpt lat="45.3300483" lon="7.573395"><ele>878.0</ele><time>2026-04-06T13:42:28.82Z</time></trkpt><trkpt lat="45.3301333" lon="7.5733783"><ele>878.0</ele><time>2026-04-06T13:42:31.821Z</time></trkpt><trkpt lat="45.3302333" lon="7.5733967"><ele>878.0000000000001</ele><time>2026-04-06T13:42:34.825Z</time></trkpt><trkpt lat="45.3303" lon="7.5734067"><ele>878.0</ele><time>2026-04-06T13:42:36.826Z</time></trkpt><trkpt lat="45.3303833" lon="7.573415"><ele>878.0</ele><time>2026-04-06T13:42:39.826Z</time></trkpt><trkpt lat="45.330455" lon="7.573415"><ele>878.0</ele><time>2026-04-06T13:42:41.819Z</time></trkpt><trkpt lat="45.3305217" lon="7.573415"><ele>878.0</ele><time>2026-04-06T13:42:43.823Z</time></trkpt><trkpt lat="45.330585" lon="7.5734133"><ele>878.0</ele><time>2026-04-06T13:42:45.823Z</time></trkpt><trkpt lat="45.3306483" lon="7.57341"><ele>878.0</ele><time>2026-04-06T13:42:47.825Z</time></trkpt><trkpt lat="45.330715" lon="7.5734033"><ele>878.0</ele><time>2026-04-06T13:42:49.823Z</time></trkpt><trkpt lat="45.33078" lon="7.5734017"><ele>878.0</ele><time>2026-04-06T13:42:51.819Z</time></trkpt><trkpt lat="45.3308417" lon="7.57338"><ele>876.8333333333334</ele><time>2026-04-06T13:42:53.825Z</time></trkpt><trkpt lat="45.33091" lon="7.5733667"><ele>875.6666666666667</ele><time>2026-04-06T13:42:55.829Z</time></trkpt><trkpt lat="45.3309783" lon="7.5733567"><ele>874.5</ele><time>2026-04-06T13:42:57.821Z</time></trkpt><trkpt lat="45.3310467" lon="7.5734"><ele>873.3333333333333</ele><time>2026-04-06T13:43:00.823Z</time></trkpt><trkpt lat="45.33108" lon="7.57352"><ele>872.1666666666666</ele><time>2026-04-06T13:43:03.823Z</time></trkpt><trkpt lat="45.3310617" lon="7.5736233"><ele>871.0</ele><time>2026-04-06T13:43:06.825Z</time></trkpt><trkpt lat="45.3310067" lon="7.57372"><ele>867.3333333333333</ele><time>2026-04-06T13:43:09.822Z</time></trkpt><trkpt lat="45.3309433" lon="7.5738067"><ele>863.6666666666666</ele><time>2026-04-06T13:43:12.82Z</time></trkpt><trkpt lat="45.33089" lon="7.573855"><ele>860.0</ele><time>2026-04-06T13:43:14.822Z</time></trkpt><trkpt lat="45.3308183" lon="7.5739083"><ele>856.3333333333333</ele><time>2026-04-06T13:43:16.819Z</time></trkpt><trkpt lat="45.3307317" lon="7.573985"><ele>852.6666666666666</ele><time>2026-04-06T13:43:18.826Z</time></trkpt><trkpt lat="45.3306633" lon="7.57408"><ele>849.0</ele><time>2026-04-06T13:43:20.823Z</time></trkpt><trkpt lat="45.3306217" lon="7.5741883"><ele>849.0</ele><time>2026-04-06T13:43:22.819Z</time></trkpt><trkpt lat="45.3306" lon="7.57429"><ele>849.0</ele><time>2026-04-06T13:43:24.822Z</time></trkpt><trkpt lat="45.3305933" lon="7.57439"><ele>849.0</ele><time>2026-04-06T13:43:26.824Z</time></trkpt><trkpt lat="45.3306183" lon="7.5745067"><ele>849.0</ele><time>2026-04-06T13:43:29.822Z</time></trkpt><trkpt lat="45.3306433" lon="7.5746183"><ele>849.0</ele><time>2026-04-06T13:43:32.823Z</time></trkpt><trkpt lat="45.3306483" lon="7.57473"><ele>849.0</ele><time>2026-04-06T13:43:35.824Z</time></trkpt><trkpt lat="45.3306283" lon="7.5748417"><ele>846.1428571428572</ele><time>2026-04-06T13:43:38.821Z</time></trkpt><trkpt lat="45.3305883" lon="7.5749183"><ele>843.2857142857143</ele><time>2026-04-06T13:43:41.821Z</time></trkpt><trkpt lat="45.3305417" lon="7.575005"><ele>840.4285714285714</ele><time>2026-04-06T13:43:45.828Z</time></trkpt><trkpt lat="45.3306117" lon="7.575045"><ele>837.5714285714287</ele><time>2026-04-06T13:43:51.822Z</time></trkpt><trkpt lat="45.3306817" lon="7.5750483"><ele>834.7142857142857</ele><time>2026-04-06T13:43:55.821Z</time></trkpt><trkpt lat="45.330745" lon="7.5750033"><ele>831.8571428571429</ele><time>2026-04-06T13:43:59.825Z</time></trkpt><trkpt lat="45.330805" lon="7.574925"><ele>829.0</ele><time>2026-04-06T13:44:03.825Z</time></trkpt><trkpt lat="45.330865" lon="7.5748867"><ele>829.0</ele><time>2026-04-06T13:44:06.825Z</time></trkpt><trkpt lat="45.3308983" lon="7.5749667"><ele>829.0</ele><time>2026-04-06T13:44:09.83Z</time></trkpt><trkpt lat="45.33092" lon="7.57508"><ele>829.0</ele><time>2026-04-06T13:44:12.823Z</time></trkpt><trkpt lat="45.3309417" lon="7.5751717"><ele>829.0</ele><time>2026-04-06T13:44:15.827Z</time></trkpt><trkpt lat="45.330965" lon="7.5752567"><ele>829.0</ele><time>2026-04-06T13:44:18.82Z</time></trkpt><trkpt lat="45.3309933" lon="7.5753383"><ele>829.0</ele><time>2026-04-06T13:44:21.822Z</time></trkpt><trkpt lat="45.3309833" lon="7.575435"><ele>829.0</ele><time>2026-04-06T13:44:24.819Z</time></trkpt><trkpt lat="45.3309933" lon="7.5755283"><ele>825.5714285714286</ele><time>2026-04-06T13:44:27.83Z</time></trkpt><trkpt lat="45.3310517" lon="7.5755817"><ele>822.1428571428571</ele><time>2026-04-06T13:44:30.822Z</time></trkpt><trkpt lat="45.3311283" lon="7.57561"><ele>818.7142857142858</ele><time>2026-04-06T13:44:34.821Z</time></trkpt><trkpt lat="45.3311933" lon="7.57563"><ele>815.2857142857142</ele><time>2026-04-06T13:44:38.822Z</time></trkpt><trkpt lat="45.3312567" lon="7.575635"><ele>811.8571428571429</ele><time>2026-04-06T13:44:42.823Z</time></trkpt><trkpt lat="45.3313233" lon="7.5756583"><ele>808.4285714285714</ele><time>2026-04-06T13:44:46.821Z</time></trkpt><trkpt lat="45.3313783" lon="7.5757183"><ele>805.0</ele><time>2026-04-06T13:44:50.818Z</time></trkpt><trkpt lat="45.3314333" lon="7.5758083"><ele>803.8333333333333</ele><time>2026-04-06T13:44:54.826Z</time></trkpt><trkpt lat="45.331475" lon="7.5759"><ele>802.6666666666666</ele><time>2026-04-06T13:44:58.821Z</time></trkpt><trkpt lat="45.3315267" lon="7.5759733"><ele>801.5</ele><time>2026-04-06T13:45:02.824Z</time></trkpt><trkpt lat="45.3315767" lon="7.57606"><ele>800.3333333333333</ele><time>2026-04-06T13:45:06.82Z</time></trkpt><trkpt lat="45.3316167" lon="7.576155"><ele>799.1666666666666</ele><time>2026-04-06T13:45:09.822Z</time></trkpt><trkpt lat="45.3316583" lon="7.5762517"><ele>798.0</ele><time>2026-04-06T13:45:12.82Z</time></trkpt><trkpt lat="45.3316983" lon="7.57633"><ele>796.1428571428571</ele><time>2026-04-06T13:45:15.819Z</time></trkpt><trkpt lat="45.3317433" lon="7.5764217"><ele>794.2857142857142</ele><time>2026-04-06T13:45:19.822Z</time></trkpt><trkpt lat="45.3317783" lon="7.5765083"><ele>792.4285714285714</ele><time>2026-04-06T13:45:23.821Z</time></trkpt><trkpt lat="45.3317833" lon="7.576615"><ele>790.5714285714286</ele><time>2026-04-06T13:45:27.824Z</time></trkpt><trkpt lat="45.3317833" lon="7.57672"><ele>788.7142857142857</ele><time>2026-04-06T13:45:31.82Z</time></trkpt><trkpt lat="45.3318483" lon="7.576745"><ele>786.8571428571429</ele><time>2026-04-06T13:45:35.824Z</time></trkpt><trkpt lat="45.3319167" lon="7.5767217"><ele>785.0</ele><time>2026-04-06T13:45:39.819Z</time></trkpt><trkpt lat="45.33195" lon="7.576625"><ele>785.0000000000001</ele><time>2026-04-06T13:45:43.82Z</time></trkpt><trkpt lat="45.3319667" lon="7.5765283"><ele>785.0</ele><time>2026-04-06T13:45:46.828Z</time></trkpt><trkpt lat="45.3319633" lon="7.576425"><ele>785.0</ele><time>2026-04-06T13:45:49.829Z</time></trkpt><trkpt lat="45.331955" lon="7.576315"><ele>785.0</ele><time>2026-04-06T13:45:52.821Z</time></trkpt><trkpt lat="45.3319367" lon="7.5761983"><ele>785.0000000000001</ele><time>2026-04-06T13:45:55.821Z</time></trkpt><trkpt lat="45.3319117" lon="7.576085"><ele>785.0</ele><time>2026-04-06T13:45:58.826Z</time></trkpt><trkpt lat="45.331895" lon="7.5759583"><ele>785.0</ele><time>2026-04-06T13:46:01.818Z</time></trkpt><trkpt lat="45.3319283" lon="7.5758567"><ele>785.0</ele><time>2026-04-06T13:46:04.819Z</time></trkpt><trkpt lat="45.3319917" lon="7.5758917"><ele>785.0</ele><time>2026-04-06T13:46:07.82Z</time></trkpt><trkpt lat="45.3320417" lon="7.5759733"><ele>785.0</ele><time>2026-04-06T13:46:09.821Z</time></trkpt><trkpt lat="45.33209" lon="7.5760583"><ele>785.0</ele><time>2026-04-06T13:46:11.82Z</time></trkpt><trkpt lat="45.3321433" lon="7.576125"><ele>785.0</ele><time>2026-04-06T13:46:13.82Z</time></trkpt><trkpt lat="45.3321917" lon="7.5761867"><ele>785.0</ele><time>2026-04-06T13:46:15.819Z</time></trkpt><trkpt lat="45.3322367" lon="7.5762533"><ele>783.0</ele><time>2026-04-06T13:46:17.818Z</time></trkpt><trkpt lat="45.3323" lon="7.5763467"><ele>781.0</ele><time>2026-04-06T13:46:20.82Z</time></trkpt><trkpt lat="45.3323367" lon="7.5764233"><ele>779.0</ele><time>2026-04-06T13:46:22.818Z</time></trkpt><trkpt lat="45.3323683" lon="7.57651"><ele>777.0</ele><time>2026-04-06T13:46:24.819Z</time></trkpt><trkpt lat="45.3324" lon="7.5766167"><ele>775.0</ele><time>2026-04-06T13:46:27.817Z</time></trkpt><trkpt lat="45.3324583" lon="7.5766533"><ele>773.0</ele><time>2026-04-06T13:46:34.82Z</time></trkpt><trkpt lat="45.3324667" lon="7.576765"><ele>771.0</ele><time>2026-04-06T13:46:52.824Z</time></trkpt><trkpt lat="45.332525" lon="7.57686"><ele>771.0</ele><time>2026-04-06T13:46:55.823Z</time></trkpt><trkpt lat="45.3325783" lon="7.5769317"><ele>771.0</ele><time>2026-04-06T13:46:57.824Z</time></trkpt><trkpt lat="45.3326317" lon="7.5769933"><ele>771.0</ele><time>2026-04-06T13:46:59.82Z</time></trkpt><trkpt lat="45.3327" lon="7.57709"><ele>771.0</ele><time>2026-04-06T13:47:02.82Z</time></trkpt><trkpt lat="45.3327517" lon="7.5771633"><ele>771.0</ele><time>2026-04-06T13:47:04.819Z</time></trkpt><trkpt lat="45.332805" lon="7.5772283"><ele>771.0</ele><time>2026-04-06T13:47:06.82Z</time></trkpt><trkpt lat="45.332855" lon="7.5773067"><ele>769.8333333333334</ele><time>2026-04-06T13:47:08.821Z</time></trkpt><trkpt lat="45.3328983" lon="7.5773917"><ele>768.6666666666666</ele><time>2026-04-06T13:47:10.822Z</time></trkpt><trkpt lat="45.332935" lon="7.57747"><ele>767.5</ele><time>2026-04-06T13:47:12.824Z</time></trkpt><trkpt lat="45.3329717" lon="7.577545"><ele>766.3333333333333</ele><time>2026-04-06T13:47:14.823Z</time></trkpt><trkpt lat="45.33302" lon="7.5776567"><ele>765.1666666666666</ele><time>2026-04-06T13:47:17.827Z</time></trkpt><trkpt lat="45.333065" lon="7.5777583"><ele>764.0</ele><time>2026-04-06T13:47:20.822Z</time></trkpt><trkpt lat="45.3331017" lon="7.5778483"><ele>760.0</ele><time>2026-04-06T13:47:23.822Z</time></trkpt><trkpt lat="45.333145" lon="7.5779417"><ele>756.0</ele><time>2026-04-06T13:47:26.817Z</time></trkpt><trkpt lat="45.33319" lon="7.578005"><ele>752.0</ele><time>2026-04-06T13:47:28.822Z</time></trkpt><trkpt lat="45.333245" lon="7.57806"><ele>748.0</ele><time>2026-04-06T13:47:30.823Z</time></trkpt><trkpt lat="45.3333133" lon="7.578105"><ele>744.0</ele><time>2026-04-06T13:47:32.823Z</time></trkpt><trkpt lat="45.33339" lon="7.57816"><ele>740.0</ele><time>2026-04-06T13:47:34.821Z</time></trkpt><trkpt lat="45.3334683" lon="7.5782317"><ele>740.0</ele><time>2026-04-06T13:47:36.822Z</time></trkpt><trkpt lat="45.33356" lon="7.578315"><ele>740.0</ele><time>2026-04-06T13:47:38.821Z</time></trkpt><trkpt lat="45.333655" lon="7.578395"><ele>740.0</ele><time>2026-04-06T13:47:40.822Z</time></trkpt><trkpt lat="45.33375" lon="7.5784617"><ele>740.0</ele><time>2026-04-06T13:47:42.824Z</time></trkpt><trkpt lat="45.33385" lon="7.5785267"><ele>740.0</ele><time>2026-04-06T13:47:44.823Z</time></trkpt><trkpt lat="45.33396" lon="7.5786017"><ele>739.4</ele><time>2026-04-06T13:47:46.82Z</time></trkpt><trkpt lat="45.33402" lon="7.5786483"><ele>738.8</ele><time>2026-04-06T13:47:47.823Z</time></trkpt><trkpt lat="45.334115" lon="7.5787517"><ele>738.2</ele><time>2026-04-06T13:47:49.822Z</time></trkpt><trkpt lat="45.3341883" lon="7.5788783"><ele>737.6</ele><time>2026-04-06T13:47:51.826Z</time></trkpt><trkpt lat="45.33425" lon="7.5790133"><ele>737.0</ele><time>2026-04-06T13:47:53.82Z</time></trkpt><trkpt lat="45.33429" lon="7.5791317"><ele>734.8</ele><time>2026-04-06T13:47:55.821Z</time></trkpt><trkpt lat="45.33433" lon="7.5792617"><ele>732.6</ele><time>2026-04-06T13:47:57.82Z</time></trkpt><trkpt lat="45.3343867" lon="7.57942"><ele>730.4</ele><time>2026-04-06T13:47:59.824Z</time></trkpt><trkpt lat="45.33442" lon="7.5795033"><ele>728.1999999999999</ele><time>2026-04-06T13:48:00.819Z</time></trkpt><trkpt lat="45.3344883" lon="7.57965"><ele>726.0</ele><time>2026-04-06T13:48:02.818Z</time></trkpt><trkpt lat="45.3345533" lon="7.57978"><ele>724.5999999999999</ele><time>2026-04-06T13:48:04.819Z</time></trkpt><trkpt lat="45.3346167" lon="7.57991"><ele>723.2</ele><time>2026-04-06T13:48:06.823Z</time></trkpt><trkpt lat="45.3346867" lon="7.580045"><ele>721.8</ele><time>2026-04-06T13:48:08.824Z</time></trkpt><trkpt lat="45.3347617" lon="7.5801617"><ele>720.4000000000001</ele><time>2026-04-06T13:48:10.821Z</time></trkpt><trkpt lat="45.3348283" lon="7.580265"><ele>719.0</ele><time>2026-04-06T13:48:12.822Z</time></trkpt><trkpt lat="45.3348833" lon="7.5803667"><ele>715.3333333333333</ele><time>2026-04-06T13:48:14.821Z</time></trkpt><trkpt lat="45.3349267" lon="7.580465"><ele>711.6666666666666</ele><time>2026-04-06T13:48:16.826Z</time></trkpt><trkpt lat="45.334975" lon="7.5805533"><ele>708.0</ele><time>2026-04-06T13:48:18.821Z</time></trkpt><trkpt lat="45.3350383" lon="7.58063"><ele>704.3333333333334</ele><time>2026-04-06T13:48:20.824Z</time></trkpt><trkpt lat="45.3351117" lon="7.5806733"><ele>700.6666666666667</ele><time>2026-04-06T13:48:22.82Z</time></trkpt><trkpt lat="45.33519" lon="7.58068"><ele>697.0</ele><time>2026-04-06T13:48:24.824Z</time></trkpt><trkpt lat="45.335265" lon="7.5806583"><ele>697.0</ele><time>2026-04-06T13:48:26.822Z</time></trkpt><trkpt lat="45.33533" lon="7.5806183"><ele>697.0</ele><time>2026-04-06T13:48:28.825Z</time></trkpt><trkpt lat="45.3353917" lon="7.5805717"><ele>697.0</ele><time>2026-04-06T13:48:30.822Z</time></trkpt><trkpt lat="45.3354483" lon="7.5805167"><ele>697.0</ele><time>2026-04-06T13:48:32.821Z</time></trkpt><trkpt lat="45.335505" lon="7.580465"><ele>697.0</ele><time>2026-04-06T13:48:34.821Z</time></trkpt><trkpt lat="45.33557" lon="7.5804217"><ele>697.0</ele><time>2026-04-06T13:48:36.82Z</time></trkpt><trkpt lat="45.3356333" lon="7.580385"><ele>697.0</ele><time>2026-04-06T13:48:38.821Z</time></trkpt><trkpt lat="45.3356883" lon="7.58033"><ele>697.8333333333334</ele><time>2026-04-06T13:48:40.826Z</time></trkpt><trkpt lat="45.3357367" lon="7.580265"><ele>698.6666666666667</ele><time>2026-04-06T13:48:42.82Z</time></trkpt><trkpt lat="45.335775" lon="7.5801833"><ele>699.5</ele><time>2026-04-06T13:48:44.822Z</time></trkpt><trkpt lat="45.3358233" lon="7.5802833"><ele>700.3333333333334</ele><time>2026-04-06T13:48:48.823Z</time></trkpt><trkpt lat="45.33579" lon="7.5803967"><ele>701.1666666666666</ele><time>2026-04-06T13:48:50.826Z</time></trkpt><trkpt lat="45.3357267" lon="7.58049"><ele>702.0</ele><time>2026-04-06T13:48:52.822Z</time></trkpt><trkpt lat="45.3356717" lon="7.58062"><ele>699.4000000000001</ele><time>2026-04-06T13:48:54.823Z</time></trkpt><trkpt lat="45.335665" lon="7.58079"><ele>696.8000000000001</ele><time>2026-04-06T13:48:56.822Z</time></trkpt><trkpt lat="45.3356767" lon="7.5808783"><ele>694.2</ele><time>2026-04-06T13:48:57.818Z</time></trkpt><trkpt lat="45.3356933" lon="7.5810267"><ele>691.6</ele><time>2026-04-06T13:48:59.822Z</time></trkpt><trkpt lat="45.3357083" lon="7.581155"><ele>689.0</ele><time>2026-04-06T13:49:01.822Z</time></trkpt><trkpt lat="45.3357183" lon="7.58127"><ele>686.8333333333333</ele><time>2026-04-06T13:49:03.829Z</time></trkpt><trkpt lat="45.3357183" lon="7.5814"><ele>684.6666666666666</ele><time>2026-04-06T13:49:05.823Z</time></trkpt><trkpt lat="45.335695" lon="7.58151"><ele>682.5</ele><time>2026-04-06T13:49:07.823Z</time></trkpt><trkpt lat="45.3356417" lon="7.58159"><ele>680.3333333333334</ele><time>2026-04-06T13:49:09.822Z</time></trkpt><trkpt lat="45.3355583" lon="7.5815967"><ele>678.1666666666667</ele><time>2026-04-06T13:49:11.822Z</time></trkpt><trkpt lat="45.3354617" lon="7.58161"><ele>676.0</ele><time>2026-04-06T13:49:13.824Z</time></trkpt><trkpt lat="45.3354117" lon="7.5816967"><ele>674.4</ele><time>2026-04-06T13:49:15.822Z</time></trkpt><trkpt lat="45.33545" lon="7.5818167"><ele>672.8</ele><time>2026-04-06T13:49:17.823Z</time></trkpt><trkpt lat="45.3355" lon="7.5819467"><ele>671.1999999999999</ele><time>2026-04-06T13:49:19.831Z</time></trkpt><trkpt lat="45.3355667" lon="7.5820517"><ele>669.5999999999999</ele><time>2026-04-06T13:49:21.823Z</time></trkpt><trkpt lat="45.335665" lon="7.5821167"><ele>668.0</ele><time>2026-04-06T13:49:23.823Z</time></trkpt><trkpt lat="45.335765" lon="7.5821333"><ele>669.5999999999999</ele><time>2026-04-06T13:49:25.817Z</time></trkpt><trkpt lat="45.3358433" lon="7.582075"><ele>671.1999999999999</ele><time>2026-04-06T13:49:27.824Z</time></trkpt><trkpt lat="45.3359033" lon="7.5819767"><ele>672.8</ele><time>2026-04-06T13:49:29.825Z</time></trkpt><trkpt lat="45.335955" lon="7.5818817"><ele>674.4</ele><time>2026-04-06T13:49:31.824Z</time></trkpt><trkpt lat="45.336015" lon="7.5817733"><ele>676.0</ele><time>2026-04-06T13:49:33.823Z</time></trkpt><trkpt lat="45.3360833" lon="7.5816483"><ele>676.0</ele><time>2026-04-06T13:49:35.817Z</time></trkpt><trkpt lat="45.3361383" lon="7.5815117"><ele>676.0</ele><time>2026-04-06T13:49:37.823Z</time></trkpt><trkpt lat="45.3361983" lon="7.581395"><ele>676.0</ele><time>2026-04-06T13:49:39.824Z</time></trkpt><trkpt lat="45.33626" lon="7.5812867"><ele>676.0</ele><time>2026-04-06T13:49:41.821Z</time></trkpt><trkpt lat="45.3363383" lon="7.5812083"><ele>676.0</ele><time>2026-04-06T13:49:43.825Z</time></trkpt><trkpt lat="45.3364233" lon="7.581175"><ele>673.1999999999999</ele><time>2026-04-06T13:49:45.82Z</time></trkpt><trkpt lat="45.3365167" lon="7.581115"><ele>670.4</ele><time>2026-04-06T13:49:47.822Z</time></trkpt><trkpt lat="45.3365867" lon="7.5810117"><ele>667.6</ele><time>2026-04-06T13:49:49.825Z</time></trkpt><trkpt lat="45.33663" lon="7.5808867"><ele>664.8</ele><time>2026-04-06T13:49:51.821Z</time></trkpt><trkpt lat="45.336655" lon="7.5807717"><ele>662.0</ele><time>2026-04-06T13:49:53.824Z</time></trkpt><trkpt lat="45.336675" lon="7.5806483"><ele>662.0</ele><time>2026-04-06T13:49:55.822Z</time></trkpt><trkpt lat="45.3367017" lon="7.5805083"><ele>662.0</ele><time>2026-04-06T13:49:57.824Z</time></trkpt><trkpt lat="45.336745" lon="7.5803633"><ele>662.0</ele><time>2026-04-06T13:49:59.824Z</time></trkpt><trkpt lat="45.3368067" lon="7.5802183"><ele>662.0</ele><time>2026-04-06T13:50:01.823Z</time></trkpt><trkpt lat="45.33686" lon="7.5800717"><ele>662.0</ele><time>2026-04-06T13:50:03.821Z</time></trkpt><trkpt lat="45.3369033" lon="7.5799417"><ele>662.4000000000001</ele><time>2026-04-06T13:50:05.823Z</time></trkpt><trkpt lat="45.33693" lon="7.57978"><ele>662.8000000000001</ele><time>2026-04-06T13:50:07.822Z</time></trkpt><trkpt lat="45.336955" lon="7.5796033"><ele>663.2</ele><time>2026-04-06T13:50:09.823Z</time></trkpt><trkpt lat="45.3369633" lon="7.5794983"><ele>663.6</ele><time>2026-04-06T13:50:10.821Z</time></trkpt><trkpt lat="45.3369783" lon="7.5793967"><ele>664.0</ele><time>2026-04-06T13:50:11.824Z</time></trkpt><trkpt lat="45.3369733" lon="7.5792967"><ele>663.0</ele><time>2026-04-06T13:50:12.823Z</time></trkpt><trkpt lat="45.336955" lon="7.5792033"><ele>662.0</ele><time>2026-04-06T13:50:13.826Z</time></trkpt><trkpt lat="45.3369067" lon="7.5790533"><ele>661.0</ele><time>2026-04-06T13:50:15.826Z</time></trkpt><trkpt lat="45.3368717" lon="7.578925"><ele>660.0</ele><time>2026-04-06T13:50:17.822Z</time></trkpt><trkpt lat="45.3369167" lon="7.57884"><ele>659.0</ele><time>2026-04-06T13:50:20.827Z</time></trkpt><trkpt lat="45.3370133" lon="7.5788883"><ele>659.0</ele><time>2026-04-06T13:50:22.822Z</time></trkpt><trkpt lat="45.3370867" lon="7.5789267"><ele>659.0</ele><time>2026-04-06T13:50:23.822Z</time></trkpt><trkpt lat="45.3371617" lon="7.578965"><ele>659.0</ele><time>2026-04-06T13:50:24.819Z</time></trkpt><trkpt lat="45.3372317" lon="7.579005"><ele>659.0</ele><time>2026-04-06T13:50:25.829Z</time></trkpt><trkpt lat="45.3372967" lon="7.5790483"><ele>659.0</ele><time>2026-04-06T13:50:26.82Z</time></trkpt><trkpt lat="45.337365" lon="7.57909"><ele>659.0</ele><time>2026-04-06T13:50:27.823Z</time></trkpt><trkpt lat="45.33743" lon="7.5791283"><ele>654.6666666666666</ele><time>2026-04-06T13:50:28.822Z</time></trkpt><trkpt lat="45.3374933" lon="7.57916"><ele>650.3333333333333</ele><time>2026-04-06T13:50:29.818Z</time></trkpt><trkpt lat="45.3375583" lon="7.579195"><ele>646.0</ele><time>2026-04-06T13:50:30.828Z</time></trkpt><trkpt lat="45.3376667" lon="7.579255"><ele>641.6666666666666</ele><time>2026-04-06T13:50:32.818Z</time></trkpt><trkpt lat="45.337755" lon="7.5792783"><ele>637.3333333333334</ele><time>2026-04-06T13:50:34.821Z</time></trkpt><trkpt lat="45.3378517" lon="7.5792683"><ele>633.0</ele><time>2026-04-06T13:50:36.818Z</time></trkpt><trkpt lat="45.3379633" lon="7.579255"><ele>628.0</ele><time>2026-04-06T13:50:38.822Z</time></trkpt><trkpt lat="45.3380733" lon="7.57921"><ele>623.0</ele><time>2026-04-06T13:50:40.818Z</time></trkpt><trkpt lat="45.3381883" lon="7.5791367"><ele>618.0</ele><time>2026-04-06T13:50:42.82Z</time></trkpt><trkpt lat="45.3382867" lon="7.5790617"><ele>613.0</ele><time>2026-04-06T13:50:44.824Z</time></trkpt><trkpt lat="45.3383917" lon="7.5790167"><ele>613.0</ele><time>2026-04-06T13:50:46.822Z</time></trkpt><trkpt lat="45.3384833" lon="7.57905"><ele>613.0</ele><time>2026-04-06T13:50:48.821Z</time></trkpt><trkpt lat="45.3385267" lon="7.5791717"><ele>613.0</ele><time>2026-04-06T13:50:50.822Z</time></trkpt><trkpt lat="45.3385383" lon="7.5793517"><ele>613.0</ele><time>2026-04-06T13:50:52.822Z</time></trkpt><trkpt lat="45.338535" lon="7.579445"><ele>613.0</ele><time>2026-04-06T13:50:53.828Z</time></trkpt><trkpt lat="45.3385083" lon="7.5795983"><ele>612.6</ele><time>2026-04-06T13:50:55.824Z</time></trkpt><trkpt lat="45.338455" lon="7.5797083"><ele>612.1999999999999</ele><time>2026-04-06T13:50:57.825Z</time></trkpt><trkpt lat="45.33839" lon="7.57983"><ele>611.8</ele><time>2026-04-06T13:50:59.827Z</time></trkpt><trkpt lat="45.3383833" lon="7.579955"><ele>611.4</ele><time>2026-04-06T13:51:01.825Z</time></trkpt><trkpt lat="45.33846" lon="7.5799767"><ele>611.0</ele><time>2026-04-06T13:51:03.823Z</time></trkpt><trkpt lat="45.3385567" lon="7.5799467"><ele>611.0</ele><time>2026-04-06T13:51:05.824Z</time></trkpt><trkpt lat="45.3386317" lon="7.5798933"><ele>611.0</ele><time>2026-04-06T13:51:07.824Z</time></trkpt><trkpt lat="45.338735" lon="7.5798433"><ele>611.0</ele><time>2026-04-06T13:51:09.822Z</time></trkpt><trkpt lat="45.3388" lon="7.5798167"><ele>611.0</ele><time>2026-04-06T13:51:10.825Z</time></trkpt><trkpt lat="45.3388617" lon="7.5797817"><ele>611.0</ele><time>2026-04-06T13:51:11.825Z</time></trkpt><trkpt lat="45.3389167" lon="7.579735"><ele>611.0</ele><time>2026-04-06T13:51:12.822Z</time></trkpt><trkpt lat="45.3389733" lon="7.5796833"><ele>608.0</ele><time>2026-04-06T13:51:13.817Z</time></trkpt><trkpt lat="45.3390583" lon="7.57956"><ele>605.0</ele><time>2026-04-06T13:51:15.82Z</time></trkpt><trkpt lat="45.3390867" lon="7.5794783"><ele>602.0</ele><time>2026-04-06T13:51:16.823Z</time></trkpt><trkpt lat="45.3391133" lon="7.5793933"><ele>599.0</ele><time>2026-04-06T13:51:17.823Z</time></trkpt><trkpt lat="45.339135" lon="7.5793"><ele>596.0</ele><time>2026-04-06T13:51:18.824Z</time></trkpt><trkpt lat="45.33914" lon="7.579205"><ele>593.0</ele><time>2026-04-06T13:51:19.821Z</time></trkpt><trkpt lat="45.33914" lon="7.5790317"><ele>593.0</ele><time>2026-04-06T13:51:21.821Z</time></trkpt><trkpt lat="45.339155" lon="7.5789083"><ele>593.0</ele><time>2026-04-06T13:51:23.819Z</time></trkpt><trkpt lat="45.3392217" lon="7.5788867"><ele>593.0</ele><time>2026-04-06T13:51:25.822Z</time></trkpt><trkpt lat="45.3392883" lon="7.5789717"><ele>593.0</ele><time>2026-04-06T13:51:27.824Z</time></trkpt><trkpt lat="45.3393383" lon="7.57903"><ele>593.0</ele><time>2026-04-06T13:51:28.821Z</time></trkpt><trkpt lat="45.3394067" lon="7.5790983"><ele>593.0</ele><time>2026-04-06T13:51:29.826Z</time></trkpt><trkpt lat="45.3394617" lon="7.5791617"><ele>593.0</ele><time>2026-04-06T13:51:30.822Z</time></trkpt><trkpt lat="45.3395033" lon="7.579235"><ele>593.0</ele><time>2026-04-06T13:51:31.823Z</time></trkpt><trkpt lat="45.3395317" lon="7.5793183"><ele>593.0</ele><time>2026-04-06T13:51:32.824Z</time></trkpt><trkpt lat="45.3395483" lon="7.5795"><ele>593.0</ele><time>2026-04-06T13:51:34.82Z</time></trkpt><trkpt lat="45.3395483" lon="7.5795967"><ele>593.0</ele><time>2026-04-06T13:51:35.821Z</time></trkpt><trkpt lat="45.3395483" lon="7.5796917"><ele>593.0</ele><time>2026-04-06T13:51:36.827Z</time></trkpt><trkpt lat="45.33954" lon="7.5797933"><ele>592.3333333333333</ele><time>2026-04-06T13:51:37.822Z</time></trkpt><trkpt lat="45.33952" lon="7.5798883"><ele>591.6666666666666</ele><time>2026-04-06T13:51:38.823Z</time></trkpt><trkpt lat="45.3395017" lon="7.5799783"><ele>591.0</ele><time>2026-04-06T13:51:39.823Z</time></trkpt><trkpt lat="45.33948" lon="7.5800633"><ele>590.3333333333334</ele><time>2026-04-06T13:51:40.82Z</time></trkpt><trkpt lat="45.3394533" lon="7.580225"><ele>589.6666666666667</ele><time>2026-04-06T13:51:42.825Z</time></trkpt><trkpt lat="45.3394517" lon="7.580375"><ele>589.0</ele><time>2026-04-06T13:51:44.825Z</time></trkpt><trkpt lat="45.3394433" lon="7.5805233"><ele>587.2</ele><time>2026-04-06T13:51:46.818Z</time></trkpt><trkpt lat="45.3394283" lon="7.5806783"><ele>585.4</ele><time>2026-04-06T13:51:48.823Z</time></trkpt><trkpt lat="45.3394317" lon="7.5808333"><ele>583.6</ele><time>2026-04-06T13:51:50.825Z</time></trkpt><trkpt lat="45.3394733" lon="7.5809717"><ele>581.8</ele><time>2026-04-06T13:51:52.82Z</time></trkpt><trkpt lat="45.3395133" lon="7.581045"><ele>580.0</ele><time>2026-04-06T13:51:53.824Z</time></trkpt><trkpt lat="45.339555" lon="7.5811183"><ele>578.1666666666667</ele><time>2026-04-06T13:51:54.818Z</time></trkpt><trkpt lat="45.33959" lon="7.5812"><ele>576.3333333333334</ele><time>2026-04-06T13:51:55.824Z</time></trkpt><trkpt lat="45.3396317" lon="7.581305"><ele>574.5</ele><time>2026-04-06T13:51:56.826Z</time></trkpt><trkpt lat="45.33964" lon="7.5814067"><ele>572.6666666666666</ele><time>2026-04-06T13:51:57.82Z</time></trkpt><trkpt lat="45.33966" lon="7.581515"><ele>570.8333333333333</ele><time>2026-04-06T13:51:58.823Z</time></trkpt><trkpt lat="45.3396817" lon="7.5816083"><ele>569.0</ele><time>2026-04-06T13:51:59.822Z</time></trkpt><trkpt lat="45.3397167" lon="7.5817133"><ele>568.8</ele><time>2026-04-06T13:52:00.821Z</time></trkpt><trkpt lat="45.3397583" lon="7.5818517"><ele>568.5999999999999</ele><time>2026-04-06T13:52:02.82Z</time></trkpt><trkpt lat="45.339725" lon="7.5819817"><ele>568.4</ele><time>2026-04-06T13:52:04.824Z</time></trkpt><trkpt lat="45.3396667" lon="7.582105"><ele>568.1999999999999</ele><time>2026-04-06T13:52:06.818Z</time></trkpt><trkpt lat="45.3396133" lon="7.5822317"><ele>568.0</ele><time>2026-04-06T13:52:08.824Z</time></trkpt><trkpt lat="45.3395783" lon="7.5823567"><ele>565.6666666666667</ele><time>2026-04-06T13:52:10.821Z</time></trkpt><trkpt lat="45.3395733" lon="7.5824983"><ele>563.3333333333334</ele><time>2026-04-06T13:52:12.819Z</time></trkpt><trkpt lat="45.3395917" lon="7.5826"><ele>561.0</ele><time>2026-04-06T13:52:14.819Z</time></trkpt><trkpt lat="45.3396133" lon="7.5826917"><ele>558.6666666666666</ele><time>2026-04-06T13:52:16.82Z</time></trkpt><trkpt lat="45.3396167" lon="7.5828017"><ele>556.3333333333333</ele><time>2026-04-06T13:52:19.823Z</time></trkpt><trkpt lat="45.3396167" lon="7.5828983"><ele>554.0</ele><time>2026-04-06T13:52:22.821Z</time></trkpt><trkpt lat="45.3395783" lon="7.583005"><ele>553.8333333333333</ele><time>2026-04-06T13:52:26.824Z</time></trkpt><trkpt lat="45.3395517" lon="7.5830883"><ele>553.6666666666666</ele><time>2026-04-06T13:52:28.828Z</time></trkpt><trkpt lat="45.3395183" lon="7.5832"><ele>553.5</ele><time>2026-04-06T13:52:31.826Z</time></trkpt><trkpt lat="45.3394733" lon="7.5833033"><ele>553.3333333333334</ele><time>2026-04-06T13:52:34.827Z</time></trkpt><trkpt lat="45.3394417" lon="7.58341"><ele>553.1666666666667</ele><time>2026-04-06T13:52:37.824Z</time></trkpt><trkpt lat="45.3394133" lon="7.583515"><ele>553.0</ele><time>2026-04-06T13:52:40.819Z</time></trkpt><trkpt lat="45.3393717" lon="7.5836333"><ele>554.3333333333334</ele><time>2026-04-06T13:52:43.822Z</time></trkpt><trkpt lat="45.3393517" lon="7.5837617"><ele>555.6666666666667</ele><time>2026-04-06T13:52:46.825Z</time></trkpt><trkpt lat="45.33932" lon="7.5838767"><ele>557.0</ele><time>2026-04-06T13:52:49.823Z</time></trkpt><trkpt lat="45.3392983" lon="7.5840017"><ele>558.3333333333334</ele><time>2026-04-06T13:52:52.82Z</time></trkpt><trkpt lat="45.33927" lon="7.5840833"><ele>559.6666666666666</ele><time>2026-04-06T13:52:54.829Z</time></trkpt><trkpt lat="45.3392183" lon="7.5841917"><ele>561.0</ele><time>2026-04-06T13:52:57.826Z</time></trkpt><trkpt lat="45.3391667" lon="7.5842967"><ele>561.0</ele><time>2026-04-06T13:53:00.822Z</time></trkpt><trkpt lat="45.339115" lon="7.5843967"><ele>561.0</ele><time>2026-04-06T13:53:03.826Z</time></trkpt><trkpt lat="45.339065" lon="7.5845"><ele>561.0</ele><time>2026-04-06T13:53:06.824Z</time></trkpt><trkpt lat="45.3390167" lon="7.584585"><ele>561.0</ele><time>2026-04-06T13:53:09.826Z</time></trkpt><trkpt lat="45.33897" lon="7.5846633"><ele>561.0</ele><time>2026-04-06T13:53:12.821Z</time></trkpt><trkpt lat="45.338905" lon="7.5847433"><ele>561.0</ele><time>2026-04-06T13:53:15.823Z</time></trkpt><trkpt lat="45.3388317" lon="7.58479"><ele>560.3333333333334</ele><time>2026-04-06T13:53:18.822Z</time></trkpt><trkpt lat="45.338765" lon="7.5848183"><ele>559.6666666666666</ele><time>2026-04-06T13:53:21.825Z</time></trkpt><trkpt lat="45.3386983" lon="7.584865"><ele>559.0</ele><time>2026-04-06T13:53:24.823Z</time></trkpt><trkpt lat="45.3386433" lon="7.584935"><ele>558.3333333333333</ele><time>2026-04-06T13:53:27.824Z</time></trkpt><trkpt lat="45.338595" lon="7.5850267"><ele>557.6666666666666</ele><time>2026-04-06T13:53:30.826Z</time></trkpt><trkpt lat="45.3385767" lon="7.5851533"><ele>557.0</ele><time>2026-04-06T13:53:33.821Z</time></trkpt><trkpt lat="45.3385583" lon="7.5852667"><ele>558.0</ele><time>2026-04-06T13:53:36.819Z</time></trkpt><trkpt lat="45.33854" lon="7.5853583"><ele>559.0</ele><time>2026-04-06T13:53:38.821Z</time></trkpt><trkpt lat="45.3385233" lon="7.5854467"><ele>560.0</ele><time>2026-04-06T13:53:40.822Z</time></trkpt><trkpt lat="45.3385067" lon="7.5855333"><ele>561.0</ele><time>2026-04-06T13:53:42.819Z</time></trkpt><trkpt lat="45.338475" lon="7.5856133"><ele>562.0</ele><time>2026-04-06T13:53:44.821Z</time></trkpt><trkpt lat="45.3384333" lon="7.58569"><ele>563.0</ele><time>2026-04-06T13:53:46.825Z</time></trkpt><trkpt lat="45.3384017" lon="7.5857817"><ele>564.0</ele><time>2026-04-06T13:53:48.823Z</time></trkpt><trkpt lat="45.3383933" lon="7.5858867"><ele>564.0</ele><time>2026-04-06T13:53:50.822Z</time></trkpt><trkpt lat="45.3383967" lon="7.585995"><ele>564.0</ele><time>2026-04-06T13:53:52.821Z</time></trkpt><trkpt lat="45.3384433" lon="7.5861133"><ele>564.0</ele><time>2026-04-06T13:53:54.821Z</time></trkpt><trkpt lat="45.3385067" lon="7.58622"><ele>564.0</ele><time>2026-04-06T13:53:56.823Z</time></trkpt><trkpt lat="45.3385683" lon="7.5863133"><ele>564.0</ele><time>2026-04-06T13:53:58.83Z</time></trkpt><trkpt lat="45.338625" lon="7.586405"><ele>564.0</ele><time>2026-04-06T13:54:01.828Z</time></trkpt><trkpt lat="45.3386867" lon="7.5864933"><ele>564.3333333333334</ele><time>2026-04-06T13:54:04.821Z</time></trkpt><trkpt lat="45.3387483" lon="7.58656"><ele>564.6666666666666</ele><time>2026-04-06T13:54:06.825Z</time></trkpt><trkpt lat="45.338805" lon="7.5866283"><ele>565.0</ele><time>2026-04-06T13:54:08.819Z</time></trkpt><trkpt lat="45.3388683" lon="7.58672"><ele>565.3333333333333</ele><time>2026-04-06T13:54:11.828Z</time></trkpt><trkpt lat="45.338925" lon="7.5868017"><ele>565.6666666666666</ele><time>2026-04-06T13:54:14.819Z</time></trkpt><trkpt lat="45.338995" lon="7.5868833"><ele>566.0</ele><time>2026-04-06T13:54:17.821Z</time></trkpt><trkpt lat="45.3390767" lon="7.5869433"><ele>566.0</ele><time>2026-04-06T13:54:20.82Z</time></trkpt><trkpt lat="45.339135" lon="7.5869883"><ele>566.0</ele><time>2026-04-06T13:54:22.821Z</time></trkpt><trkpt lat="45.3392183" lon="7.5870383"><ele>566.0</ele><time>2026-04-06T13:54:25.823Z</time></trkpt><trkpt lat="45.33928" lon="7.587075"><ele>566.0</ele><time>2026-04-06T13:54:27.829Z</time></trkpt><trkpt lat="45.33937" lon="7.587105"><ele>566.0</ele><time>2026-04-06T13:54:30.822Z</time></trkpt><trkpt lat="45.3394583" lon="7.5871333"><ele>566.0</ele><time>2026-04-06T13:54:33.824Z</time></trkpt><trkpt lat="45.339545" lon="7.587165"><ele>566.0</ele><time>2026-04-06T13:54:36.824Z</time></trkpt><trkpt lat="45.3396283" lon="7.5872"><ele>566.0</ele><time>2026-04-06T13:54:39.819Z</time></trkpt><trkpt lat="45.339705" lon="7.5872217"><ele>566.0</ele><time>2026-04-06T13:54:42.821Z</time></trkpt><trkpt lat="45.33978" lon="7.58716"><ele>566.0</ele><time>2026-04-06T13:54:46.82Z</time></trkpt><trkpt lat="45.3398733" lon="7.5871133"><ele>566.0</ele><time>2026-04-06T13:54:49.823Z</time></trkpt><trkpt lat="45.33994" lon="7.5870583"><ele>566.0</ele><time>2026-04-06T13:54:51.825Z</time></trkpt><trkpt lat="45.339995" lon="7.5869817"><ele>566.8571428571429</ele><time>2026-04-06T13:54:53.825Z</time></trkpt><trkpt lat="45.34004" lon="7.5869117"><ele>567.7142857142858</ele><time>2026-04-06T13:54:55.829Z</time></trkpt><trkpt lat="45.34009" lon="7.5868417"><ele>568.5714285714286</ele><time>2026-04-06T13:54:57.827Z</time></trkpt><trkpt lat="45.3401483" lon="7.586745"><ele>569.4285714285714</ele><time>2026-04-06T13:55:00.822Z</time></trkpt><trkpt lat="45.3401967" lon="7.5866767"><ele>570.2857142857142</ele><time>2026-04-06T13:55:02.819Z</time></trkpt><trkpt lat="45.34025" lon="7.5866083"><ele>571.1428571428571</ele><time>2026-04-06T13:55:04.822Z</time></trkpt><trkpt lat="45.3403033" lon="7.586545"><ele>572.0</ele><time>2026-04-06T13:55:06.824Z</time></trkpt><trkpt lat="45.3403567" lon="7.5864867"><ele>571.9999999999999</ele><time>2026-04-06T13:55:08.821Z</time></trkpt><trkpt lat="45.3404117" lon="7.5864267"><ele>572.0</ele><time>2026-04-06T13:55:10.822Z</time></trkpt><trkpt lat="45.3404583" lon="7.5863533"><ele>572.0</ele><time>2026-04-06T13:55:12.821Z</time></trkpt><trkpt lat="45.34051" lon="7.586275"><ele>572.0</ele><time>2026-04-06T13:55:14.827Z</time></trkpt><trkpt lat="45.3405717" lon="7.5862"><ele>572.0</ele><time>2026-04-06T13:55:16.823Z</time></trkpt><trkpt lat="45.3406283" lon="7.58613"><ele>571.9999999999999</ele><time>2026-04-06T13:55:18.819Z</time></trkpt><trkpt lat="45.340675" lon="7.5860433"><ele>572.0</ele><time>2026-04-06T13:55:20.822Z</time></trkpt><trkpt lat="45.3407233" lon="7.5859633"><ele>572.1666666666666</ele><time>2026-04-06T13:55:22.822Z</time></trkpt><trkpt lat="45.3407767" lon="7.5858917"><ele>572.3333333333333</ele><time>2026-04-06T13:55:24.822Z</time></trkpt><trkpt lat="45.34083" lon="7.5858167"><ele>572.5</ele><time>2026-04-06T13:55:26.822Z</time></trkpt><trkpt lat="45.3408833" lon="7.58573"><ele>572.6666666666666</ele><time>2026-04-06T13:55:28.822Z</time></trkpt><trkpt lat="45.34094" lon="7.5856517"><ele>572.8333333333334</ele><time>2026-04-06T13:55:30.82Z</time></trkpt><trkpt lat="45.3409983" lon="7.585585"><ele>573.0</ele><time>2026-04-06T13:55:32.824Z</time></trkpt><trkpt lat="45.341045" lon="7.585515"><ele>573.0</ele><time>2026-04-06T13:55:34.825Z</time></trkpt><trkpt lat="45.3410983" lon="7.58545"><ele>573.0</ele><time>2026-04-06T13:55:36.825Z</time></trkpt><trkpt lat="45.3411533" lon="7.585375"><ele>573.0</ele><time>2026-04-06T13:55:38.824Z</time></trkpt><trkpt lat="45.341205" lon="7.585305"><ele>573.0</ele><time>2026-04-06T13:55:40.822Z</time></trkpt><trkpt lat="45.3412583" lon="7.5852367"><ele>573.0</ele><time>2026-04-06T13:55:42.825Z</time></trkpt><trkpt lat="45.3413117" lon="7.58517"><ele>573.0</ele><time>2026-04-06T13:55:44.825Z</time></trkpt><trkpt lat="45.341365" lon="7.5851133"><ele>573.0</ele><time>2026-04-06T13:55:46.824Z</time></trkpt><trkpt lat="45.3414167" lon="7.58506"><ele>573.8571428571429</ele><time>2026-04-06T13:55:48.821Z</time></trkpt><trkpt lat="45.3414767" lon="7.5850067"><ele>574.7142857142858</ele><time>2026-04-06T13:55:50.824Z</time></trkpt><trkpt lat="45.3415383" lon="7.5849517"><ele>575.5714285714286</ele><time>2026-04-06T13:55:52.828Z</time></trkpt><trkpt lat="45.341605" lon="7.5848983"><ele>576.4285714285714</ele><time>2026-04-06T13:55:54.828Z</time></trkpt><trkpt lat="45.3416683" lon="7.5848483"><ele>577.2857142857142</ele><time>2026-04-06T13:55:56.823Z</time></trkpt><trkpt lat="45.3417333" lon="7.5848"><ele>578.1428571428571</ele><time>2026-04-06T13:55:58.823Z</time></trkpt><trkpt lat="45.3418017" lon="7.5847567"><ele>579.0</ele><time>2026-04-06T13:56:00.821Z</time></trkpt><trkpt lat="45.341885" lon="7.5846967"><ele>579.0</ele><time>2026-04-06T13:56:03.823Z</time></trkpt><trkpt lat="45.3419667" lon="7.58466"><ele>579.0</ele><time>2026-04-06T13:56:06.828Z</time></trkpt><trkpt lat="45.3420567" lon="7.5846183"><ele>579.0</ele><time>2026-04-06T13:56:09.822Z</time></trkpt><trkpt lat="45.3421467" lon="7.58456"><ele>579.0</ele><time>2026-04-06T13:56:12.825Z</time></trkpt><trkpt lat="45.342235" lon="7.584535"><ele>579.0</ele><time>2026-04-06T13:56:14.822Z</time></trkpt><trkpt lat="45.3423383" lon="7.5845133"><ele>580.4</ele><time>2026-04-06T13:56:16.823Z</time></trkpt><trkpt lat="45.3424667" lon="7.58449"><ele>581.8</ele><time>2026-04-06T13:56:18.821Z</time></trkpt><trkpt lat="45.342555" lon="7.5844883"><ele>583.2</ele><time>2026-04-06T13:56:19.82Z</time></trkpt><trkpt lat="45.3426333" lon="7.5844733"><ele>584.6</ele><time>2026-04-06T13:56:20.823Z</time></trkpt><trkpt lat="45.3427133" lon="7.584475"><ele>586.0</ele><time>2026-04-06T13:56:21.824Z</time></trkpt><trkpt lat="45.3428033" lon="7.5844683"><ele>586.0</ele><time>2026-04-06T13:56:22.819Z</time></trkpt><trkpt lat="45.3428933" lon="7.5844583"><ele>586.0</ele><time>2026-04-06T13:56:23.82Z</time></trkpt><trkpt lat="45.342985" lon="7.58445"><ele>586.0</ele><time>2026-04-06T13:56:24.82Z</time></trkpt><trkpt lat="45.3430783" lon="7.584435"><ele>586.0</ele><time>2026-04-06T13:56:25.826Z</time></trkpt><trkpt lat="45.3431733" lon="7.58441"><ele>586.0</ele><time>2026-04-06T13:56:26.82Z</time></trkpt><trkpt lat="45.343265" lon="7.5843767"><ele>584.6</ele><time>2026-04-06T13:56:27.826Z</time></trkpt><trkpt lat="45.343355" lon="7.58434"><ele>583.2</ele><time>2026-04-06T13:56:28.82Z</time></trkpt><trkpt lat="45.3434483" lon="7.5843033"><ele>581.8</ele><time>2026-04-06T13:56:29.82Z</time></trkpt><trkpt lat="45.3435433" lon="7.5842667"><ele>580.4</ele><time>2026-04-06T13:56:30.82Z</time></trkpt><trkpt lat="45.3436367" lon="7.5842317"><ele>579.0</ele><time>2026-04-06T13:56:31.818Z</time></trkpt><trkpt lat="45.3437333" lon="7.5841933"><ele>579.0</ele><time>2026-04-06T13:56:32.819Z</time></trkpt><trkpt lat="45.3438267" lon="7.584155"><ele>579.0</ele><time>2026-04-06T13:56:33.82Z</time></trkpt><trkpt lat="45.3439167" lon="7.5841167"><ele>579.0</ele><time>2026-04-06T13:56:34.826Z</time></trkpt><trkpt lat="45.3440083" lon="7.5840817"><ele>579.0</ele><time>2026-04-06T13:56:35.824Z</time></trkpt><trkpt lat="45.3441" lon="7.5840433"><ele>579.0</ele><time>2026-04-06T13:56:36.825Z</time></trkpt><trkpt lat="45.3441933" lon="7.584"><ele>577.2</ele><time>2026-04-06T13:56:37.819Z</time></trkpt><trkpt lat="45.3442817" lon="7.5839583"><ele>575.4</ele><time>2026-04-06T13:56:38.828Z</time></trkpt><trkpt lat="45.3443733" lon="7.5839217"><ele>573.6</ele><time>2026-04-06T13:56:39.82Z</time></trkpt><trkpt lat="45.344465" lon="7.58389"><ele>571.8</ele><time>2026-04-06T13:56:40.824Z</time></trkpt><trkpt lat="45.3445517" lon="7.583855"><ele>570.0</ele><time>2026-04-06T13:56:41.822Z</time></trkpt><trkpt lat="45.3446367" lon="7.58382"><ele>570.5714285714286</ele><time>2026-04-06T13:56:42.828Z</time></trkpt><trkpt lat="45.344715" lon="7.583785"><ele>571.1428571428571</ele><time>2026-04-06T13:56:43.823Z</time></trkpt><trkpt lat="45.3447917" lon="7.5837517"><ele>571.7142857142858</ele><time>2026-04-06T13:56:44.824Z</time></trkpt><trkpt lat="45.34486" lon="7.5837167"><ele>572.2857142857142</ele><time>2026-04-06T13:56:45.821Z</time></trkpt><trkpt lat="45.3449217" lon="7.5836817"><ele>572.8571428571429</ele><time>2026-04-06T13:56:46.829Z</time></trkpt><trkpt lat="45.344985" lon="7.5836467"><ele>573.4285714285714</ele><time>2026-04-06T13:56:47.822Z</time></trkpt><trkpt lat="45.3450483" lon="7.583615"><ele>574.0</ele><time>2026-04-06T13:56:48.82Z</time></trkpt><trkpt lat="45.345115" lon="7.58358"><ele>574.0</ele><time>2026-04-06T13:56:49.824Z</time></trkpt><trkpt lat="45.3451833" lon="7.5835417"><ele>574.0</ele><time>2026-04-06T13:56:50.828Z</time></trkpt><trkpt lat="45.34525" lon="7.5835033"><ele>574.0</ele><time>2026-04-06T13:56:51.825Z</time></trkpt><trkpt lat="45.3453183" lon="7.5834683"><ele>574.0</ele><time>2026-04-06T13:56:52.823Z</time></trkpt><trkpt lat="45.3453833" lon="7.5834267"><ele>574.0</ele><time>2026-04-06T13:56:53.824Z</time></trkpt><trkpt lat="45.34545" lon="7.58338"><ele>574.0</ele><time>2026-04-06T13:56:54.821Z</time></trkpt><trkpt lat="45.345515" lon="7.58333"><ele>574.0</ele><time>2026-04-06T13:56:55.82Z</time></trkpt><trkpt lat="45.3455817" lon="7.5832783"><ele>572.1428571428571</ele><time>2026-04-06T13:56:56.82Z</time></trkpt><trkpt lat="45.345645" lon="7.5832233"><ele>570.2857142857142</ele><time>2026-04-06T13:56:57.824Z</time></trkpt><trkpt lat="45.3457083" lon="7.5831683"><ele>568.4285714285714</ele><time>2026-04-06T13:56:58.82Z</time></trkpt><trkpt lat="45.3457717" lon="7.5831133"><ele>566.5714285714286</ele><time>2026-04-06T13:56:59.824Z</time></trkpt><trkpt lat="45.3458317" lon="7.5830583"><ele>564.7142857142857</ele><time>2026-04-06T13:57:00.824Z</time></trkpt><trkpt lat="45.3458883" lon="7.5830017"><ele>562.8571428571429</ele><time>2026-04-06T13:57:01.826Z</time></trkpt><trkpt lat="45.3459517" lon="7.5829467"><ele>561.0</ele><time>2026-04-06T13:57:02.822Z</time></trkpt><trkpt lat="45.3460167" lon="7.5828967"><ele>561.0</ele><time>2026-04-06T13:57:03.819Z</time></trkpt><trkpt lat="45.3460833" lon="7.58285"><ele>561.0</ele><time>2026-04-06T13:57:04.823Z</time></trkpt><trkpt lat="45.34615" lon="7.5828067"><ele>561.0</ele><time>2026-04-06T13:57:05.819Z</time></trkpt><trkpt lat="45.3462217" lon="7.582765"><ele>561.0</ele><time>2026-04-06T13:57:06.821Z</time></trkpt><trkpt lat="45.3463017" lon="7.5827283"><ele>561.0</ele><time>2026-04-06T13:57:07.824Z</time></trkpt><trkpt lat="45.3463767" lon="7.5826917"><ele>561.0</ele><time>2026-04-06T13:57:08.822Z</time></trkpt><trkpt lat="45.3464517" lon="7.58266"><ele>561.5</ele><time>2026-04-06T13:57:09.825Z</time></trkpt><trkpt lat="45.346525" lon="7.5826367"><ele>562.0</ele><time>2026-04-06T13:57:10.821Z</time></trkpt><trkpt lat="45.3466067" lon="7.58263"><ele>562.5</ele><time>2026-04-06T13:57:11.822Z</time></trkpt><trkpt lat="45.346685" lon="7.5826467"><ele>563.0</ele><time>2026-04-06T13:57:12.819Z</time></trkpt><trkpt lat="45.3467517" lon="7.5826983"><ele>563.5</ele><time>2026-04-06T13:57:13.819Z</time></trkpt><trkpt lat="45.3468117" lon="7.58277"><ele>564.0</ele><time>2026-04-06T13:57:14.819Z</time></trkpt><trkpt lat="45.3468333" lon="7.5828867"><ele>563.0</ele><time>2026-04-06T13:57:15.819Z</time></trkpt><trkpt lat="45.34684" lon="7.5829917"><ele>562.0</ele><time>2026-04-06T13:57:16.821Z</time></trkpt><trkpt lat="45.346835" lon="7.58309"><ele>561.0</ele><time>2026-04-06T13:57:17.826Z</time></trkpt><trkpt lat="45.3468283" lon="7.583185"><ele>560.0</ele><time>2026-04-06T13:57:18.82Z</time></trkpt><trkpt lat="45.3468233" lon="7.583275"><ele>559.0</ele><time>2026-04-06T13:57:19.822Z</time></trkpt><trkpt lat="45.34682" lon="7.5834283"><ele>558.0</ele><time>2026-04-06T13:57:21.821Z</time></trkpt><trkpt lat="45.34681" lon="7.5835617"><ele>557.9999999999999</ele><time>2026-04-06T13:57:23.821Z</time></trkpt><trkpt lat="45.3468033" lon="7.5836733"><ele>558.0</ele><time>2026-04-06T13:57:25.826Z</time></trkpt><trkpt lat="45.3467967" lon="7.58378"><ele>558.0</ele><time>2026-04-06T13:57:27.827Z</time></trkpt><trkpt lat="45.346785" lon="7.5838817"><ele>558.0</ele><time>2026-04-06T13:57:29.819Z</time></trkpt><trkpt lat="45.346785" lon="7.58398"><ele>558.0</ele><time>2026-04-06T13:57:31.82Z</time></trkpt><trkpt lat="45.3468" lon="7.5840733"><ele>557.9999999999999</ele><time>2026-04-06T13:57:33.827Z</time></trkpt><trkpt lat="45.34682" lon="7.58416"><ele>558.0</ele><time>2026-04-06T13:57:35.824Z</time></trkpt><trkpt lat="45.34685" lon="7.58424"><ele>557.8333333333334</ele><time>2026-04-06T13:57:37.822Z</time></trkpt><trkpt lat="45.3469217" lon="7.584315"><ele>557.6666666666666</ele><time>2026-04-06T13:57:40.823Z</time></trkpt><trkpt lat="45.3469967" lon="7.58438"><ele>557.5</ele><time>2026-04-06T13:57:43.819Z</time></trkpt><trkpt lat="45.3470533" lon="7.5844333"><ele>557.3333333333333</ele><time>2026-04-06T13:57:46.82Z</time></trkpt><trkpt lat="45.3471083" lon="7.5845067"><ele>557.1666666666666</ele><time>2026-04-06T13:57:49.819Z</time></trkpt><trkpt lat="45.347175" lon="7.58459"><ele>557.0</ele><time>2026-04-06T13:57:52.82Z</time></trkpt><trkpt lat="45.34722" lon="7.5846733"><ele>560.0</ele><time>2026-04-06T13:57:55.824Z</time></trkpt><trkpt lat="45.3472683" lon="7.5847833"><ele>563.0</ele><time>2026-04-06T13:57:58.82Z</time></trkpt><trkpt lat="45.34727" lon="7.5848967"><ele>566.0</ele><time>2026-04-06T13:58:01.819Z</time></trkpt><trkpt lat="45.3472933" lon="7.5850017"><ele>569.0</ele><time>2026-04-06T13:58:51.822Z</time></trkpt><trkpt lat="45.3473533" lon="7.585075"><ele>572.0</ele><time>2026-04-06T13:58:55.821Z</time></trkpt><trkpt lat="45.3473717" lon="7.5851617"><ele>575.0</ele><time>2026-04-06T13:58:59.823Z</time></trkpt><trkpt lat="45.3474033" lon="7.5852583"><ele>575.0</ele><time>2026-04-06T13:59:02.825Z</time></trkpt><trkpt lat="45.3474483" lon="7.58533"><ele>575.0</ele><time>2026-04-06T13:59:04.823Z</time></trkpt><trkpt lat="45.3474817" lon="7.5854083"><ele>575.0</ele><time>2026-04-06T13:59:06.823Z</time></trkpt><trkpt lat="45.3474967" lon="7.5855267"><ele>575.0</ele><time>2026-04-06T13:59:09.823Z</time></trkpt><trkpt lat="45.3474917" lon="7.5856317"><ele>575.0</ele><time>2026-04-06T13:59:12.821Z</time></trkpt><trkpt lat="45.3474817" lon="7.585745"><ele>575.0</ele><time>2026-04-06T13:59:15.821Z</time></trkpt><trkpt lat="45.34746" lon="7.5858683"><ele>574.8333333333333</ele><time>2026-04-06T13:59:18.823Z</time></trkpt><trkpt lat="45.347445" lon="7.585995"><ele>574.6666666666666</ele><time>2026-04-06T13:59:21.822Z</time></trkpt><trkpt lat="45.3474367" lon="7.5861283"><ele>574.5</ele><time>2026-04-06T13:59:24.821Z</time></trkpt><trkpt lat="45.3474383" lon="7.5862183"><ele>574.3333333333334</ele><time>2026-04-06T13:59:26.822Z</time></trkpt><trkpt lat="45.3474517" lon="7.5863167"><ele>574.1666666666667</ele><time>2026-04-06T13:59:28.822Z</time></trkpt><trkpt lat="45.347475" lon="7.58641"><ele>574.0</ele><time>2026-04-06T13:59:30.821Z</time></trkpt><trkpt lat="45.3475117" lon="7.5865017"><ele>573.6666666666667</ele><time>2026-04-06T13:59:32.821Z</time></trkpt><trkpt lat="45.3475583" lon="7.5865867"><ele>573.3333333333334</ele><time>2026-04-06T13:59:34.824Z</time></trkpt><trkpt lat="45.3475967" lon="7.5866833"><ele>573.0</ele><time>2026-04-06T13:59:36.823Z</time></trkpt><trkpt lat="45.34765" lon="7.58677"><ele>572.6666666666666</ele><time>2026-04-06T13:59:38.819Z</time></trkpt><trkpt lat="45.3477" lon="7.5868517"><ele>572.3333333333333</ele><time>2026-04-06T13:59:40.823Z</time></trkpt><trkpt lat="45.3477467" lon="7.58694"><ele>572.0</ele><time>2026-04-06T13:59:42.822Z</time></trkpt><trkpt lat="45.3478" lon="7.5870167"><ele>571.8571428571428</ele><time>2026-04-06T13:59:44.819Z</time></trkpt><trkpt lat="45.3478667" lon="7.5870733"><ele>571.7142857142857</ele><time>2026-04-06T13:59:46.82Z</time></trkpt><trkpt lat="45.3479383" lon="7.5871183"><ele>571.5714285714286</ele><time>2026-04-06T13:59:48.819Z</time></trkpt><trkpt lat="45.3480117" lon="7.5871567"><ele>571.4285714285713</ele><time>2026-04-06T13:59:50.823Z</time></trkpt><trkpt lat="45.3480733" lon="7.5872017"><ele>571.2857142857142</ele><time>2026-04-06T13:59:52.825Z</time></trkpt><trkpt lat="45.348105" lon="7.5872833"><ele>571.1428571428571</ele><time>2026-04-06T13:59:55.825Z</time></trkpt><trkpt lat="45.3481333" lon="7.587365"><ele>571.0</ele><time>2026-04-06T13:59:59.82Z</time></trkpt><trkpt lat="45.348175" lon="7.5874367"><ele>571.0</ele><time>2026-04-06T14:00:01.819Z</time></trkpt><trkpt lat="45.3482517" lon="7.5874483"><ele>571.0</ele><time>2026-04-06T14:00:04.821Z</time></trkpt><trkpt lat="45.3483033" lon="7.58739"><ele>571.0</ele><time>2026-04-06T14:00:06.825Z</time></trkpt><trkpt lat="45.3483767" lon="7.5873433"><ele>571.0</ele><time>2026-04-06T14:00:08.826Z</time></trkpt><trkpt lat="45.3484533" lon="7.5873017"><ele>571.0</ele><time>2026-04-06T14:00:10.825Z</time></trkpt><trkpt lat="45.34853" lon="7.587265"><ele>571.0</ele><time>2026-04-06T14:00:12.825Z</time></trkpt><trkpt lat="45.3486083" lon="7.5872333"><ele>571.0</ele><time>2026-04-06T14:00:14.822Z</time></trkpt><trkpt lat="45.3486867" lon="7.587205"><ele>571.0</ele><time>2026-04-06T14:00:16.818Z</time></trkpt><trkpt lat="45.34877" lon="7.5871667"><ele>571.0</ele><time>2026-04-06T14:00:18.828Z</time></trkpt><trkpt lat="45.3488633" lon="7.5871333"><ele>571.0</ele><time>2026-04-06T14:00:20.823Z</time></trkpt><trkpt lat="45.34895" lon="7.5871"><ele>571.0</ele><time>2026-04-06T14:00:22.819Z</time></trkpt><trkpt lat="45.34903" lon="7.5870683"><ele>571.0</ele><time>2026-04-06T14:00:24.823Z</time></trkpt><trkpt lat="45.3491133" lon="7.5870333"><ele>572.0</ele><time>2026-04-06T14:00:26.821Z</time></trkpt><trkpt lat="45.34919" lon="7.5870017"><ele>573.0</ele><time>2026-04-06T14:00:28.826Z</time></trkpt><trkpt lat="45.34927" lon="7.5869733"><ele>574.0</ele><time>2026-04-06T14:00:30.819Z</time></trkpt><trkpt lat="45.349355" lon="7.5869567"><ele>575.0</ele><time>2026-04-06T14:00:32.821Z</time></trkpt><trkpt lat="45.3494333" lon="7.5869533"><ele>576.0</ele><time>2026-04-06T14:00:34.819Z</time></trkpt><trkpt lat="45.3496833" lon="7.5869567"><ele>575.6666666666666</ele><time>2026-04-06T14:00:40.817Z</time></trkpt><trkpt lat="45.3497617" lon="7.586955"><ele>575.3333333333334</ele><time>2026-04-06T14:00:42.82Z</time></trkpt><trkpt lat="45.3498467" lon="7.5869483"><ele>575.0</ele><time>2026-04-06T14:00:44.825Z</time></trkpt><trkpt lat="45.3499333" lon="7.5869417"><ele>574.6666666666667</ele><time>2026-04-06T14:00:46.819Z</time></trkpt><trkpt lat="45.3500133" lon="7.58693"><ele>574.3333333333334</ele><time>2026-04-06T14:00:48.82Z</time></trkpt><trkpt lat="45.3500917" lon="7.5869167"><ele>574.0</ele><time>2026-04-06T14:00:50.822Z</time></trkpt><trkpt lat="45.350175" lon="7.5868967"><ele>574.0</ele><time>2026-04-06T14:00:52.824Z</time></trkpt><trkpt lat="45.35026" lon="7.5868767"><ele>574.0</ele><time>2026-04-06T14:00:54.823Z</time></trkpt><trkpt lat="45.350335" lon="7.5868433"><ele>574.0</ele><time>2026-04-06T14:00:56.824Z</time></trkpt><trkpt lat="45.3504167" lon="7.5868117"><ele>574.0</ele><time>2026-04-06T14:00:58.822Z</time></trkpt><trkpt lat="45.3505" lon="7.5867917"><ele>574.0</ele><time>2026-04-06T14:01:00.821Z</time></trkpt><trkpt lat="45.3505783" lon="7.5867617"><ele>574.0</ele><time>2026-04-06T14:01:02.822Z</time></trkpt><trkpt lat="45.35065" lon="7.58673"><ele>573.8333333333334</ele><time>2026-04-06T14:01:04.824Z</time></trkpt><trkpt lat="45.3507233" lon="7.5866967"><ele>573.6666666666667</ele><time>2026-04-06T14:01:06.822Z</time></trkpt><trkpt lat="45.3507983" lon="7.5866683"><ele>573.5</ele><time>2026-04-06T14:01:08.82Z</time></trkpt><trkpt lat="45.3508767" lon="7.58665"><ele>573.3333333333334</ele><time>2026-04-06T14:01:10.821Z</time></trkpt><trkpt lat="45.3509583" lon="7.5866367"><ele>573.1666666666666</ele><time>2026-04-06T14:01:12.818Z</time></trkpt><trkpt lat="45.3510417" lon="7.58663"><ele>573.0</ele><time>2026-04-06T14:01:14.818Z</time></trkpt><trkpt lat="45.3511283" lon="7.5866517"><ele>573.0</ele><time>2026-04-06T14:01:16.819Z</time></trkpt><trkpt lat="45.3512183" lon="7.586685"><ele>573.0</ele><time>2026-04-06T14:01:18.819Z</time></trkpt><trkpt lat="45.35132" lon="7.5867167"><ele>573.0</ele><time>2026-04-06T14:01:20.821Z</time></trkpt><trkpt lat="45.3514167" lon="7.586765"><ele>573.0</ele><time>2026-04-06T14:01:22.819Z</time></trkpt><trkpt lat="45.3515267" lon="7.5868333"><ele>573.0</ele><time>2026-04-06T14:01:24.825Z</time></trkpt><trkpt lat="45.3515983" lon="7.586855"><ele>573.1999999999999</ele><time>2026-04-06T14:01:25.823Z</time></trkpt><trkpt lat="45.35166" lon="7.5868883"><ele>573.4</ele><time>2026-04-06T14:01:26.82Z</time></trkpt><trkpt lat="45.3517217" lon="7.5869183"><ele>573.5999999999999</ele><time>2026-04-06T14:01:27.82Z</time></trkpt><trkpt lat="45.351835" lon="7.586995"><ele>573.8</ele><time>2026-04-06T14:01:29.819Z</time></trkpt><trkpt lat="45.3519433" lon="7.5870817"><ele>574.0</ele><time>2026-04-06T14:01:31.822Z</time></trkpt><trkpt lat="45.3520533" lon="7.587175"><ele>573.6666666666667</ele><time>2026-04-06T14:01:33.818Z</time></trkpt><trkpt lat="45.3521067" lon="7.5872483"><ele>573.3333333333334</ele><time>2026-04-06T14:01:34.822Z</time></trkpt><trkpt lat="45.352155" lon="7.587325"><ele>573.0</ele><time>2026-04-06T14:01:35.826Z</time></trkpt><trkpt lat="45.3522083" lon="7.5874067"><ele>572.6666666666666</ele><time>2026-04-06T14:01:36.823Z</time></trkpt><trkpt lat="45.352255" lon="7.5875"><ele>572.3333333333333</ele><time>2026-04-06T14:01:37.834Z</time></trkpt><trkpt lat="45.3522883" lon="7.5875967"><ele>572.0</ele><time>2026-04-06T14:01:38.819Z</time></trkpt><trkpt lat="45.352315" lon="7.5876917"><ele>572.0</ele><time>2026-04-06T14:01:39.82Z</time></trkpt><trkpt lat="45.35233" lon="7.58779"><ele>572.0</ele><time>2026-04-06T14:01:40.818Z</time></trkpt><trkpt lat="45.3523467" lon="7.5878933"><ele>572.0</ele><time>2026-04-06T14:01:41.819Z</time></trkpt><trkpt lat="45.35235" lon="7.587995"><ele>572.0</ele><time>2026-04-06T14:01:42.82Z</time></trkpt><trkpt lat="45.35234" lon="7.5880883"><ele>572.0</ele><time>2026-04-06T14:01:43.819Z</time></trkpt><trkpt lat="45.3523267" lon="7.588255"><ele>572.0</ele><time>2026-04-06T14:01:45.819Z</time></trkpt><trkpt lat="45.3523083" lon="7.5884033"><ele>572.0</ele><time>2026-04-06T14:01:47.818Z</time></trkpt><trkpt lat="45.3522883" lon="7.588525"><ele>572.0</ele><time>2026-04-06T14:01:49.822Z</time></trkpt><trkpt lat="45.3522667" lon="7.5886383"><ele>572.0</ele><time>2026-04-06T14:01:51.821Z</time></trkpt><trkpt lat="45.3522383" lon="7.588745"><ele>572.0</ele><time>2026-04-06T14:01:54.819Z</time></trkpt><trkpt lat="45.3522783" lon="7.5888383"><ele>572.0</ele><time>2026-04-06T14:04:03.822Z</time></trkpt><trkpt lat="45.35228" lon="7.58895"><ele>572.0</ele><time>2026-04-06T14:04:07.82Z</time></trkpt><trkpt lat="45.352315" lon="7.589065"><ele>572.0</ele><time>2026-04-06T14:04:10.822Z</time></trkpt><trkpt lat="45.3523483" lon="7.5891417"><ele>572.0</ele><time>2026-04-06T14:04:12.822Z</time></trkpt><trkpt lat="45.3523933" lon="7.5892233"><ele>572.0</ele><time>2026-04-06T14:04:14.823Z</time></trkpt><trkpt lat="45.352435" lon="7.589305"><ele>572.0</ele><time>2026-04-06T14:04:16.824Z</time></trkpt><trkpt lat="45.3524867" lon="7.589375"><ele>572.0</ele><time>2026-04-06T14:04:18.821Z</time></trkpt><trkpt lat="45.35256" lon="7.5894467"><ele>572.0</ele><time>2026-04-06T14:04:20.824Z</time></trkpt><trkpt lat="45.3526233" lon="7.58953"><ele>572.1666666666666</ele><time>2026-04-06T14:04:22.822Z</time></trkpt><trkpt lat="45.3526833" lon="7.5896133"><ele>572.3333333333333</ele><time>2026-04-06T14:04:24.818Z</time></trkpt><trkpt lat="45.35275" lon="7.5896967"><ele>572.5</ele><time>2026-04-06T14:04:26.824Z</time></trkpt><trkpt lat="45.352795" lon="7.5897917"><ele>572.6666666666666</ele><time>2026-04-06T14:04:28.818Z</time></trkpt><trkpt lat="45.35279" lon="7.589905"><ele>572.8333333333334</ele><time>2026-04-06T14:04:30.822Z</time></trkpt><trkpt lat="45.35278" lon="7.5900117"><ele>573.0</ele><time>2026-04-06T14:04:32.82Z</time></trkpt><trkpt lat="45.3527583" lon="7.5901067"><ele>573.0</ele><time>2026-04-06T14:04:34.824Z</time></trkpt><trkpt lat="45.352725" lon="7.590195"><ele>573.0</ele><time>2026-04-06T14:04:36.82Z</time></trkpt><trkpt lat="45.3526917" lon="7.59028"><ele>573.0</ele><time>2026-04-06T14:04:38.822Z</time></trkpt><trkpt lat="45.3526683" lon="7.5903767"><ele>573.0</ele><time>2026-04-06T14:04:40.82Z</time></trkpt><trkpt lat="45.3526433" lon="7.59047"><ele>573.0</ele><time>2026-04-06T14:04:42.823Z</time></trkpt><trkpt lat="45.35262" lon="7.5905967"><ele>573.0</ele><time>2026-04-06T14:04:45.819Z</time></trkpt><trkpt lat="45.3526133" lon="7.590725"><ele>573.3333333333334</ele><time>2026-04-06T14:04:48.821Z</time></trkpt><trkpt lat="45.35261" lon="7.59085"><ele>573.6666666666666</ele><time>2026-04-06T14:04:51.819Z</time></trkpt><trkpt lat="45.3525967" lon="7.590975"><ele>574.0</ele><time>2026-04-06T14:04:54.823Z</time></trkpt><trkpt lat="45.3525867" lon="7.591105"><ele>574.3333333333333</ele><time>2026-04-06T14:04:57.82Z</time></trkpt><trkpt lat="45.3525867" lon="7.5911967"><ele>574.6666666666666</ele><time>2026-04-06T14:04:59.822Z</time></trkpt><trkpt lat="45.352585" lon="7.5912867"><ele>575.0</ele><time>2026-04-06T14:05:01.82Z</time></trkpt><trkpt lat="45.3525783" lon="7.5914183"><ele>575.8333333333333</ele><time>2026-04-06T14:05:04.82Z</time></trkpt><trkpt lat="45.35257" lon="7.591545"><ele>576.6666666666666</ele><time>2026-04-06T14:05:07.822Z</time></trkpt><trkpt lat="45.352565" lon="7.5916733"><ele>577.5</ele><time>2026-04-06T14:05:10.818Z</time></trkpt><trkpt lat="45.3525717" lon="7.5918033"><ele>578.3333333333334</ele><time>2026-04-06T14:05:13.82Z</time></trkpt><trkpt lat="45.3525733" lon="7.59193"><ele>579.1666666666667</ele><time>2026-04-06T14:05:16.82Z</time></trkpt><trkpt lat="45.35258" lon="7.59202"><ele>580.0</ele><time>2026-04-06T14:05:18.824Z</time></trkpt><trkpt lat="45.35259" lon="7.5921483"><ele>580.6666666666667</ele><time>2026-04-06T14:05:21.822Z</time></trkpt><trkpt lat="45.3526067" lon="7.5922783"><ele>581.3333333333334</ele><time>2026-04-06T14:05:24.822Z</time></trkpt><trkpt lat="45.352615" lon="7.5923683"><ele>582.0</ele><time>2026-04-06T14:05:26.822Z</time></trkpt><trkpt lat="45.352625" lon="7.592495"><ele>582.6666666666666</ele><time>2026-04-06T14:05:29.819Z</time></trkpt><trkpt lat="45.35263" lon="7.592585"><ele>583.3333333333333</ele><time>2026-04-06T14:05:31.821Z</time></trkpt><trkpt lat="45.35263" lon="7.5926767"><ele>584.0</ele><time>2026-04-06T14:05:33.821Z</time></trkpt><trkpt lat="45.3526233" lon="7.5928117"><ele>584.8333333333333</ele><time>2026-04-06T14:05:36.82Z</time></trkpt><trkpt lat="45.352615" lon="7.592905"><ele>585.6666666666666</ele><time>2026-04-06T14:05:38.826Z</time></trkpt><trkpt lat="45.3526133" lon="7.5929967"><ele>586.5</ele><time>2026-04-06T14:05:40.822Z</time></trkpt><trkpt lat="45.3526083" lon="7.5931183"><ele>587.3333333333334</ele><time>2026-04-06T14:05:43.824Z</time></trkpt><trkpt lat="45.3525967" lon="7.593235"><ele>588.1666666666667</ele><time>2026-04-06T14:05:46.822Z</time></trkpt><trkpt lat="45.3525967" lon="7.5933467"><ele>589.0</ele><time>2026-04-06T14:05:49.822Z</time></trkpt><trkpt lat="45.352605" lon="7.5934633"><ele>589.0</ele><time>2026-04-06T14:05:52.82Z</time></trkpt><trkpt lat="45.352615" lon="7.5935783"><ele>589.0</ele><time>2026-04-06T14:05:55.826Z</time></trkpt><trkpt lat="45.35262" lon="7.59369"><ele>589.0</ele><time>2026-04-06T14:05:58.821Z</time></trkpt><trkpt lat="45.352625" lon="7.593795"><ele>589.0</ele><time>2026-04-06T14:06:01.82Z</time></trkpt><trkpt lat="45.35263" lon="7.5939"><ele>589.0</ele><time>2026-04-06T14:06:04.821Z</time></trkpt><trkpt lat="45.35263" lon="7.59401"><ele>589.0</ele><time>2026-04-06T14:06:07.821Z</time></trkpt><trkpt lat="45.3526267" lon="7.59411"><ele>590.1428571428571</ele><time>2026-04-06T14:06:10.821Z</time></trkpt><trkpt lat="45.3526183" lon="7.59421"><ele>591.2857142857142</ele><time>2026-04-06T14:06:13.827Z</time></trkpt><trkpt lat="45.352615" lon="7.5943083"><ele>592.4285714285714</ele><time>2026-04-06T14:06:16.822Z</time></trkpt><trkpt lat="45.35262" lon="7.5944133"><ele>593.5714285714286</ele><time>2026-04-06T14:06:19.819Z</time></trkpt><trkpt lat="45.3526233" lon="7.5945233"><ele>594.7142857142858</ele><time>2026-04-06T14:06:22.821Z</time></trkpt><trkpt lat="45.3526233" lon="7.5946283"><ele>595.8571428571429</ele><time>2026-04-06T14:06:25.824Z</time></trkpt><trkpt lat="45.352625" lon="7.5947417"><ele>597.0</ele><time>2026-04-06T14:06:28.816Z</time></trkpt><trkpt lat="45.3526317" lon="7.5948533"><ele>598.0</ele><time>2026-04-06T14:06:31.823Z</time></trkpt><trkpt lat="45.3526467" lon="7.5949517"><ele>599.0</ele><time>2026-04-06T14:06:34.821Z</time></trkpt><trkpt lat="45.3526583" lon="7.5950567"><ele>600.0</ele><time>2026-04-06T14:06:37.828Z</time></trkpt><trkpt lat="45.3526317" lon="7.59517"><ele>601.0</ele><time>2026-04-06T14:06:40.82Z</time></trkpt><trkpt lat="45.3526017" lon="7.5952533"><ele>602.0</ele><time>2026-04-06T14:06:42.824Z</time></trkpt><trkpt lat="45.3525267" lon="7.5953333"><ele>603.0</ele><time>2026-04-06T14:06:45.82Z</time></trkpt><trkpt lat="45.3524667" lon="7.595365"><ele>603.4285714285714</ele><time>2026-04-06T14:06:47.824Z</time></trkpt><trkpt lat="45.3524017" lon="7.5953833"><ele>603.8571428571428</ele><time>2026-04-06T14:06:49.821Z</time></trkpt><trkpt lat="45.3523283" lon="7.5953833"><ele>604.2857142857142</ele><time>2026-04-06T14:06:51.824Z</time></trkpt><trkpt lat="45.3522583" lon="7.5953883"><ele>604.7142857142858</ele><time>2026-04-06T14:06:53.82Z</time></trkpt><trkpt lat="45.352195" lon="7.5953967"><ele>605.1428571428571</ele><time>2026-04-06T14:06:55.82Z</time></trkpt><trkpt lat="45.3521183" lon="7.5953983"><ele>605.5714285714286</ele><time>2026-04-06T14:06:57.82Z</time></trkpt><trkpt lat="45.35205" lon="7.595415"><ele>606.0</ele><time>2026-04-06T14:06:59.82Z</time></trkpt><trkpt lat="45.351985" lon="7.5954417"><ele>606.0</ele><time>2026-04-06T14:07:01.821Z</time></trkpt><trkpt lat="45.3519217" lon="7.59549"><ele>606.0</ele><time>2026-04-06T14:07:03.831Z</time></trkpt><trkpt lat="45.351865" lon="7.59554"><ele>606.0</ele><time>2026-04-06T14:07:05.82Z</time></trkpt><trkpt lat="45.3518033" lon="7.59559"><ele>606.0</ele><time>2026-04-06T14:07:07.825Z</time></trkpt><trkpt lat="45.35175" lon="7.5956417"><ele>606.0</ele><time>2026-04-06T14:07:09.825Z</time></trkpt><trkpt lat="45.351685" lon="7.595695"><ele>606.0</ele><time>2026-04-06T14:07:11.823Z</time></trkpt><trkpt lat="45.35162" lon="7.5957533"><ele>606.0</ele><time>2026-04-06T14:07:13.821Z</time></trkpt><trkpt lat="45.3515633" lon="7.5958067"><ele>606.0</ele><time>2026-04-06T14:07:15.82Z</time></trkpt><trkpt lat="45.3515017" lon="7.5958617"><ele>606.0</ele><time>2026-04-06T14:07:17.821Z</time></trkpt><trkpt lat="45.35144" lon="7.5959133"><ele>606.0</ele><time>2026-04-06T14:07:19.82Z</time></trkpt><trkpt lat="45.351375" lon="7.5959567"><ele>606.0</ele><time>2026-04-06T14:07:21.821Z</time></trkpt><trkpt lat="45.3513117" lon="7.595995"><ele>606.0</ele><time>2026-04-06T14:07:23.819Z</time></trkpt><trkpt lat="45.35125" lon="7.59604"><ele>606.0</ele><time>2026-04-06T14:07:25.821Z</time></trkpt><trkpt lat="45.3511933" lon="7.5960967"><ele>606.0</ele><time>2026-04-06T14:07:27.822Z</time></trkpt><trkpt lat="45.35114" lon="7.5961583"><ele>606.0</ele><time>2026-04-06T14:07:29.822Z</time></trkpt><trkpt lat="45.351095" lon="7.59623"><ele>606.0</ele><time>2026-04-06T14:07:31.821Z</time></trkpt><trkpt lat="45.3510483" lon="7.59631"><ele>606.0</ele><time>2026-04-06T14:07:33.824Z</time></trkpt><trkpt lat="45.3510067" lon="7.596385"><ele>606.0</ele><time>2026-04-06T14:07:35.822Z</time></trkpt><trkpt lat="45.3509617" lon="7.5964617"><ele>606.0</ele><time>2026-04-06T14:07:37.824Z</time></trkpt><trkpt lat="45.3509267" lon="7.5965383"><ele>606.0</ele><time>2026-04-06T14:07:39.822Z</time></trkpt><trkpt lat="45.3508933" lon="7.59662"><ele>606.0</ele><time>2026-04-06T14:07:41.821Z</time></trkpt><trkpt lat="45.3508533" lon="7.596705"><ele>606.0</ele><time>2026-04-06T14:07:43.823Z</time></trkpt><trkpt lat="45.3508117" lon="7.5967933"><ele>606.0</ele><time>2026-04-06T14:07:45.827Z</time></trkpt><trkpt lat="45.35078" lon="7.5968883"><ele>606.0</ele><time>2026-04-06T14:07:47.821Z</time></trkpt><trkpt lat="45.350745" lon="7.596975"><ele>606.0</ele><time>2026-04-06T14:07:49.822Z</time></trkpt><trkpt lat="45.350705" lon="7.5970617"><ele>606.0</ele><time>2026-04-06T14:07:51.822Z</time></trkpt><trkpt lat="45.3506683" lon="7.5971483"><ele>606.0</ele><time>2026-04-06T14:07:53.823Z</time></trkpt><trkpt lat="45.350625" lon="7.5972317"><ele>606.0</ele><time>2026-04-06T14:07:55.819Z</time></trkpt><trkpt lat="45.3505917" lon="7.59731"><ele>606.4285714285714</ele><time>2026-04-06T14:07:57.822Z</time></trkpt><trkpt lat="45.3505667" lon="7.597395"><ele>606.8571428571429</ele><time>2026-04-06T14:07:59.822Z</time></trkpt><trkpt lat="45.35056" lon="7.5974917"><ele>607.2857142857142</ele><time>2026-04-06T14:08:01.823Z</time></trkpt><trkpt lat="45.350565" lon="7.597585"><ele>607.7142857142858</ele><time>2026-04-06T14:08:03.824Z</time></trkpt><trkpt lat="45.35058" lon="7.5976767"><ele>608.1428571428571</ele><time>2026-04-06T14:08:05.823Z</time></trkpt><trkpt lat="45.3505967" lon="7.5977733"><ele>608.5714285714286</ele><time>2026-04-06T14:08:07.822Z</time></trkpt><trkpt lat="45.3506083" lon="7.5978683"><ele>609.0</ele><time>2026-04-06T14:08:09.821Z</time></trkpt><trkpt lat="45.3506283" lon="7.5979683"><ele>609.0</ele><time>2026-04-06T14:08:11.821Z</time></trkpt><trkpt lat="45.350645" lon="7.598065"><ele>609.0</ele><time>2026-04-06T14:08:13.818Z</time></trkpt><trkpt lat="45.350665" lon="7.5981583"><ele>609.0</ele><time>2026-04-06T14:08:15.822Z</time></trkpt><trkpt lat="45.350685" lon="7.5982517"><ele>609.0</ele><time>2026-04-06T14:08:17.822Z</time></trkpt><trkpt lat="45.35071" lon="7.5983433"><ele>609.0</ele><time>2026-04-06T14:08:19.824Z</time></trkpt><trkpt lat="45.3507417" lon="7.598465"><ele>609.0</ele><time>2026-04-06T14:08:22.82Z</time></trkpt><trkpt lat="45.3507833" lon="7.598535"><ele>609.0</ele><time>2026-04-06T14:08:24.828Z</time></trkpt><trkpt lat="45.3508783" lon="7.5985533"><ele>609.0</ele><time>2026-04-06T14:08:27.822Z</time></trkpt><trkpt lat="45.3509467" lon="7.598505"><ele>609.0</ele><time>2026-04-06T14:08:29.825Z</time></trkpt><trkpt lat="45.3510033" lon="7.5984383"><ele>609.0</ele><time>2026-04-06T14:08:31.826Z</time></trkpt><trkpt lat="45.3510467" lon="7.5983717"><ele>609.0</ele><time>2026-04-06T14:08:33.821Z</time></trkpt><trkpt lat="45.3510933" lon="7.5983083"><ele>609.0</ele><time>2026-04-06T14:08:35.819Z</time></trkpt><trkpt lat="45.35114" lon="7.5982417"><ele>609.0</ele><time>2026-04-06T14:08:37.821Z</time></trkpt><trkpt lat="45.3511917" lon="7.598175"><ele>609.0</ele><time>2026-04-06T14:08:39.821Z</time></trkpt><trkpt lat="45.3512367" lon="7.5981067"><ele>609.0</ele><time>2026-04-06T14:08:41.821Z</time></trkpt><trkpt lat="45.3512883" lon="7.59804"><ele>609.0</ele><time>2026-04-06T14:08:43.821Z</time></trkpt><trkpt lat="45.3513383" lon="7.597965"><ele>609.0</ele><time>2026-04-06T14:08:45.82Z</time></trkpt><trkpt lat="45.3513867" lon="7.5979"><ele>609.0</ele><time>2026-04-06T14:08:47.822Z</time></trkpt><trkpt lat="45.351435" lon="7.5978367"><ele>609.0</ele><time>2026-04-06T14:08:49.822Z</time></trkpt><trkpt lat="45.3514833" lon="7.59777"><ele>609.0</ele><time>2026-04-06T14:08:51.818Z</time></trkpt><trkpt lat="45.351545" lon="7.5976683"><ele>609.0</ele><time>2026-04-06T14:08:54.825Z</time></trkpt><trkpt lat="45.351595" lon="7.5975983"><ele>610.1428571428571</ele><time>2026-04-06T14:08:56.82Z</time></trkpt><trkpt lat="45.35165" lon="7.59753"><ele>611.2857142857142</ele><time>2026-04-06T14:08:58.825Z</time></trkpt><trkpt lat="45.3516983" lon="7.5974583"><ele>612.4285714285714</ele><time>2026-04-06T14:09:00.818Z</time></trkpt><trkpt lat="45.3517517" lon="7.5973917"><ele>613.5714285714286</ele><time>2026-04-06T14:09:02.822Z</time></trkpt><trkpt lat="45.351805" lon="7.5973317"><ele>614.7142857142857</ele><time>2026-04-06T14:09:04.826Z</time></trkpt><trkpt lat="45.3518517" lon="7.59726"><ele>615.8571428571429</ele><time>2026-04-06T14:09:06.82Z</time></trkpt><trkpt lat="45.3519" lon="7.5971867"><ele>617.0</ele><time>2026-04-06T14:09:08.823Z</time></trkpt><trkpt lat="45.3519533" lon="7.5971217"><ele>617.0</ele><time>2026-04-06T14:09:10.824Z</time></trkpt><trkpt lat="45.3520033" lon="7.59706"><ele>617.0</ele><time>2026-04-06T14:09:12.821Z</time></trkpt><trkpt lat="45.352055" lon="7.5969933"><ele>617.0</ele><time>2026-04-06T14:09:14.821Z</time></trkpt><trkpt lat="45.3521067" lon="7.59693"><ele>617.0</ele><time>2026-04-06T14:09:16.825Z</time></trkpt><trkpt lat="45.352165" lon="7.596875"><ele>617.0</ele><time>2026-04-06T14:09:18.824Z</time></trkpt><trkpt lat="45.3522217" lon="7.5968283"><ele>617.0</ele><time>2026-04-06T14:09:20.822Z</time></trkpt><trkpt lat="45.3522817" lon="7.5967867"><ele>617.0</ele><time>2026-04-06T14:09:22.822Z</time></trkpt><trkpt lat="45.3523717" lon="7.596725"><ele>617.0</ele><time>2026-04-06T14:09:25.825Z</time></trkpt><trkpt lat="45.3524317" lon="7.5966783"><ele>617.0</ele><time>2026-04-06T14:09:27.821Z</time></trkpt><trkpt lat="45.3524883" lon="7.59663"><ele>617.0</ele><time>2026-04-06T14:09:29.821Z</time></trkpt><trkpt lat="45.3525417" lon="7.5965583"><ele>617.0</ele><time>2026-04-06T14:09:31.817Z</time></trkpt><trkpt lat="45.3526167" lon="7.5964817"><ele>617.0</ele><time>2026-04-06T14:09:33.819Z</time></trkpt><trkpt lat="45.352715" lon="7.596405"><ele>617.0</ele><time>2026-04-06T14:09:35.821Z</time></trkpt><trkpt lat="45.3528233" lon="7.59631"><ele>617.0</ele><time>2026-04-06T14:09:37.82Z</time></trkpt><trkpt lat="45.3528817" lon="7.596265"><ele>617.0</ele><time>2026-04-06T14:09:38.82Z</time></trkpt><trkpt lat="45.3529483" lon="7.5962317"><ele>617.0</ele><time>2026-04-06T14:09:39.82Z</time></trkpt><trkpt lat="45.3530167" lon="7.5962183"><ele>617.0</ele><time>2026-04-06T14:09:40.818Z</time></trkpt><trkpt lat="45.3530817" lon="7.5962133"><ele>617.0</ele><time>2026-04-06T14:09:41.819Z</time></trkpt><trkpt lat="45.3531483" lon="7.5962017"><ele>617.0</ele><time>2026-04-06T14:09:42.819Z</time></trkpt><trkpt lat="45.3532717" lon="7.596165"><ele>617.2</ele><time>2026-04-06T14:09:44.82Z</time></trkpt><trkpt lat="45.3533767" lon="7.596105"><ele>617.4000000000001</ele><time>2026-04-06T14:09:46.821Z</time></trkpt><trkpt lat="45.3534783" lon="7.596045"><ele>617.5999999999999</ele><time>2026-04-06T14:09:48.822Z</time></trkpt><trkpt lat="45.3535717" lon="7.595995"><ele>617.8</ele><time>2026-04-06T14:09:50.82Z</time></trkpt><trkpt lat="45.35366" lon="7.5959367"><ele>618.0</ele><time>2026-04-06T14:09:52.825Z</time></trkpt><trkpt lat="45.3537433" lon="7.595875"><ele>618.0</ele><time>2026-04-06T14:09:54.821Z</time></trkpt><trkpt lat="45.3538367" lon="7.5958317"><ele>618.0</ele><time>2026-04-06T14:09:56.824Z</time></trkpt><trkpt lat="45.3539317" lon="7.5957867"><ele>618.0</ele><time>2026-04-06T14:09:58.822Z</time></trkpt><trkpt lat="45.354025" lon="7.5957333"><ele>618.0</ele><time>2026-04-06T14:10:00.823Z</time></trkpt><trkpt lat="45.354115" lon="7.5956717"><ele>618.0</ele><time>2026-04-06T14:10:02.825Z</time></trkpt><trkpt lat="45.3542033" lon="7.5955883"><ele>619.1999999999999</ele><time>2026-04-06T14:10:04.824Z</time></trkpt><trkpt lat="45.35427" lon="7.5954767"><ele>620.4</ele><time>2026-04-06T14:10:06.823Z</time></trkpt><trkpt lat="45.3543217" lon="7.5953583"><ele>621.5999999999999</ele><time>2026-04-06T14:10:08.824Z</time></trkpt><trkpt lat="45.3543667" lon="7.595225"><ele>622.8</ele><time>2026-04-06T14:10:10.83Z</time></trkpt><trkpt lat="45.3544083" lon="7.5950917"><ele>624.0</ele><time>2026-04-06T14:10:12.821Z</time></trkpt><trkpt lat="45.3544467" lon="7.594955"><ele>624.0</ele><time>2026-04-06T14:10:14.822Z</time></trkpt><trkpt lat="45.3544833" lon="7.594815"><ele>624.0</ele><time>2026-04-06T14:10:16.82Z</time></trkpt><trkpt lat="45.35453" lon="7.59468"><ele>624.0</ele><time>2026-04-06T14:10:18.819Z</time></trkpt><trkpt lat="45.3546017" lon="7.5945783"><ele>624.0</ele><time>2026-04-06T14:10:20.824Z</time></trkpt><trkpt lat="45.3546867" lon="7.594525"><ele>624.0</ele><time>2026-04-06T14:10:22.821Z</time></trkpt><trkpt lat="45.3547667" lon="7.5944933"><ele>625.4</ele><time>2026-04-06T14:10:24.822Z</time></trkpt><trkpt lat="45.3548533" lon="7.594455"><ele>626.8</ele><time>2026-04-06T14:10:26.823Z</time></trkpt><trkpt lat="45.354955" lon="7.5944133"><ele>628.2</ele><time>2026-04-06T14:10:28.818Z</time></trkpt><trkpt lat="45.35507" lon="7.5943917"><ele>629.6</ele><time>2026-04-06T14:10:30.824Z</time></trkpt><trkpt lat="45.355185" lon="7.5943683"><ele>631.0</ele><time>2026-04-06T14:10:32.819Z</time></trkpt><trkpt lat="45.355305" lon="7.594345"><ele>631.0</ele><time>2026-04-06T14:10:34.822Z</time></trkpt><trkpt lat="45.3554283" lon="7.5943317"><ele>631.0</ele><time>2026-04-06T14:10:36.823Z</time></trkpt><trkpt lat="45.3555417" lon="7.5943333"><ele>631.0</ele><time>2026-04-06T14:10:38.824Z</time></trkpt><trkpt lat="45.355645" lon="7.59433"><ele>631.0</ele><time>2026-04-06T14:10:40.819Z</time></trkpt><trkpt lat="45.3557533" lon="7.5943167"><ele>631.0</ele><time>2026-04-06T14:10:42.825Z</time></trkpt><trkpt lat="45.3558567" lon="7.5943"><ele>627.75</ele><time>2026-04-06T14:10:44.819Z</time></trkpt><trkpt lat="45.3559667" lon="7.5942733"><ele>624.5</ele><time>2026-04-06T14:10:46.823Z</time></trkpt><trkpt lat="45.3560783" lon="7.5942917"><ele>621.25</ele><time>2026-04-06T14:10:48.822Z</time></trkpt><trkpt lat="45.3561783" lon="7.5943833"><ele>618.0</ele><time>2026-04-06T14:10:50.819Z</time></trkpt><trkpt lat="45.3562483" lon="7.5945283"><ele>616.0</ele><time>2026-04-06T14:10:52.818Z</time></trkpt><trkpt lat="45.3562833" lon="7.594605"><ele>614.0</ele><time>2026-04-06T14:10:53.821Z</time></trkpt><trkpt lat="45.3563317" lon="7.5947483"><ele>612.0</ele><time>2026-04-06T14:10:55.824Z</time></trkpt><trkpt lat="45.35639" lon="7.5948717"><ele>610.0</ele><time>2026-04-06T14:10:57.825Z</time></trkpt><trkpt lat="45.356475" lon="7.5949767"><ele>608.0</ele><time>2026-04-06T14:10:59.826Z</time></trkpt><trkpt lat="45.35657" lon="7.5950617"><ele>608.0</ele><time>2026-04-06T14:11:01.827Z</time></trkpt><trkpt lat="45.3566617" lon="7.5951033"><ele>608.0</ele><time>2026-04-06T14:11:03.818Z</time></trkpt><trkpt lat="45.356775" lon="7.59512"><ele>608.0</ele><time>2026-04-06T14:11:05.822Z</time></trkpt><trkpt lat="45.356885" lon="7.5950967"><ele>608.0</ele><time>2026-04-06T14:11:07.824Z</time></trkpt><trkpt lat="45.357" lon="7.595045"><ele>608.0</ele><time>2026-04-06T14:11:09.825Z</time></trkpt><trkpt lat="45.3570917" lon="7.59496"><ele>608.0</ele><time>2026-04-06T14:11:11.823Z</time></trkpt><trkpt lat="45.3571883" lon="7.594865"><ele>608.0</ele><time>2026-04-06T14:11:13.823Z</time></trkpt><trkpt lat="45.3572833" lon="7.5947717"><ele>608.0</ele><time>2026-04-06T14:11:15.823Z</time></trkpt><trkpt lat="45.35739" lon="7.5946867"><ele>608.0</ele><time>2026-04-06T14:11:17.822Z</time></trkpt><trkpt lat="45.3574967" lon="7.5946017"><ele>606.5</ele><time>2026-04-06T14:11:19.826Z</time></trkpt><trkpt lat="45.3576067" lon="7.5945233"><ele>605.0</ele><time>2026-04-06T14:11:21.826Z</time></trkpt><trkpt lat="45.3577017" lon="7.5944483"><ele>603.5</ele><time>2026-04-06T14:11:23.817Z</time></trkpt><trkpt lat="45.35779" lon="7.5943567"><ele>602.0</ele><time>2026-04-06T14:11:25.822Z</time></trkpt><trkpt lat="45.3578667" lon="7.594235"><ele>602.6</ele><time>2026-04-06T14:11:27.824Z</time></trkpt><trkpt lat="45.3579333" lon="7.5941033"><ele>603.2</ele><time>2026-04-06T14:11:29.826Z</time></trkpt><trkpt lat="45.3579933" lon="7.5939633"><ele>603.8</ele><time>2026-04-06T14:11:31.825Z</time></trkpt><trkpt lat="45.358025" lon="7.593885"><ele>604.4</ele><time>2026-04-06T14:11:32.821Z</time></trkpt><trkpt lat="45.358075" lon="7.5937283"><ele>605.0</ele><time>2026-04-06T14:11:34.818Z</time></trkpt><trkpt lat="45.3581067" lon="7.5935667"><ele>608.75</ele><time>2026-04-06T14:11:36.82Z</time></trkpt><trkpt lat="45.3581533" lon="7.5934167"><ele>612.5</ele><time>2026-04-06T14:11:38.82Z</time></trkpt><trkpt lat="45.35824" lon="7.5933083"><ele>616.25</ele><time>2026-04-06T14:11:40.821Z</time></trkpt><trkpt lat="45.35835" lon="7.5932917"><ele>620.0</ele><time>2026-04-06T14:11:42.825Z</time></trkpt><trkpt lat="45.35847" lon="7.59331"><ele>620.0</ele><time>2026-04-06T14:11:44.823Z</time></trkpt><trkpt lat="45.3585883" lon="7.593325"><ele>620.0</ele><time>2026-04-06T14:11:46.817Z</time></trkpt><trkpt lat="45.3587067" lon="7.59335"><ele>620.0</ele><time>2026-04-06T14:11:48.822Z</time></trkpt><trkpt lat="45.3588117" lon="7.59345"><ele>620.0</ele><time>2026-04-06T14:11:50.826Z</time></trkpt><trkpt lat="45.3588683" lon="7.5936033"><ele>617.5</ele><time>2026-04-06T14:11:52.822Z</time></trkpt><trkpt lat="45.35888" lon="7.5937633"><ele>615.0</ele><time>2026-04-06T14:11:54.824Z</time></trkpt><trkpt lat="45.3588833" lon="7.5939233"><ele>612.5</ele><time>2026-04-06T14:11:56.819Z</time></trkpt><trkpt lat="45.3589217" lon="7.594075"><ele>610.0</ele><time>2026-04-06T14:11:58.82Z</time></trkpt><trkpt lat="45.3589883" lon="7.594205"><ele>610.0</ele><time>2026-04-06T14:12:00.822Z</time></trkpt><trkpt lat="45.3590817" lon="7.594285"><ele>610.0</ele><time>2026-04-06T14:12:02.818Z</time></trkpt><trkpt lat="45.3592" lon="7.594285"><ele>610.0</ele><time>2026-04-06T14:12:04.822Z</time></trkpt><trkpt lat="45.3593167" lon="7.59426"><ele>610.0</ele><time>2026-04-06T14:12:06.825Z</time></trkpt><trkpt lat="45.3594167" lon="7.5942133"><ele>610.0</ele><time>2026-04-06T14:12:08.818Z</time></trkpt><trkpt lat="45.359505" lon="7.594125"><ele>610.0</ele><time>2026-04-06T14:12:10.822Z</time></trkpt><trkpt lat="45.3595567" lon="7.5939867"><ele>610.0</ele><time>2026-04-06T14:12:12.818Z</time></trkpt><trkpt lat="45.3595883" lon="7.5938283"><ele>610.0</ele><time>2026-04-06T14:12:14.817Z</time></trkpt><trkpt lat="45.3595917" lon="7.5936617"><ele>611.8</ele><time>2026-04-06T14:12:16.83Z</time></trkpt><trkpt lat="45.3595867" lon="7.5934983"><ele>613.6</ele><time>2026-04-06T14:12:18.823Z</time></trkpt><trkpt lat="45.3596033" lon="7.593345"><ele>615.4</ele><time>2026-04-06T14:12:20.824Z</time></trkpt><trkpt lat="45.3596833" lon="7.5932567"><ele>617.2</ele><time>2026-04-06T14:12:22.824Z</time></trkpt><trkpt lat="45.3597883" lon="7.5933067"><ele>619.0</ele><time>2026-04-06T14:12:24.823Z</time></trkpt><trkpt lat="45.3598667" lon="7.59342"><ele>619.0</ele><time>2026-04-06T14:12:26.823Z</time></trkpt><trkpt lat="45.3599417" lon="7.59354"><ele>619.0</ele><time>2026-04-06T14:12:28.819Z</time></trkpt><trkpt lat="45.3600033" lon="7.5936717"><ele>619.0</ele><time>2026-04-06T14:12:30.826Z</time></trkpt><trkpt lat="45.3600383" lon="7.5938133"><ele>619.0</ele><time>2026-04-06T14:12:32.825Z</time></trkpt><trkpt lat="45.3600733" lon="7.593955"><ele>619.0</ele><time>2026-04-06T14:12:34.822Z</time></trkpt><trkpt lat="45.3601133" lon="7.5940983"><ele>617.4</ele><time>2026-04-06T14:12:36.822Z</time></trkpt><trkpt lat="45.36014" lon="7.5942483"><ele>615.8</ele><time>2026-04-06T14:12:38.825Z</time></trkpt><trkpt lat="45.360195" lon="7.5943833"><ele>614.2</ele><time>2026-04-06T14:12:40.824Z</time></trkpt><trkpt lat="45.360275" lon="7.5944733"><ele>612.6</ele><time>2026-04-06T14:12:42.825Z</time></trkpt><trkpt lat="45.3603717" lon="7.5944883"><ele>611.0</ele><time>2026-04-06T14:12:44.82Z</time></trkpt><trkpt lat="45.3604767" lon="7.5944633"><ele>613.6</ele><time>2026-04-06T14:12:46.821Z</time></trkpt><trkpt lat="45.3605783" lon="7.59442"><ele>616.2</ele><time>2026-04-06T14:12:48.822Z</time></trkpt><trkpt lat="45.360675" lon="7.5943967"><ele>618.8</ele><time>2026-04-06T14:12:50.821Z</time></trkpt><trkpt lat="45.3607683" lon="7.5944233"><ele>621.4</ele><time>2026-04-06T14:12:52.818Z</time></trkpt><trkpt lat="45.360815" lon="7.59454"><ele>624.0</ele><time>2026-04-06T14:12:54.831Z</time></trkpt><trkpt lat="45.360775" lon="7.5946683"><ele>624.0</ele><time>2026-04-06T14:12:56.825Z</time></trkpt><trkpt lat="45.3606933" lon="7.594775"><ele>624.0</ele><time>2026-04-06T14:12:58.824Z</time></trkpt><trkpt lat="45.3606117" lon="7.5948783"><ele>624.0</ele><time>2026-04-06T14:13:00.823Z</time></trkpt><trkpt lat="45.3605433" lon="7.594995"><ele>624.0</ele><time>2026-04-06T14:13:02.824Z</time></trkpt><trkpt lat="45.3604883" lon="7.5951283"><ele>624.0</ele><time>2026-04-06T14:13:04.821Z</time></trkpt><trkpt lat="45.36046" lon="7.595275"><ele>618.8</ele><time>2026-04-06T14:13:06.822Z</time></trkpt><trkpt lat="45.36044" lon="7.59543"><ele>613.5999999999999</ele><time>2026-04-06T14:13:08.826Z</time></trkpt><trkpt lat="45.3604033" lon="7.5955883"><ele>608.4</ele><time>2026-04-06T14:13:10.82Z</time></trkpt><trkpt lat="45.3603433" lon="7.5957167"><ele>603.1999999999999</ele><time>2026-04-06T14:13:12.817Z</time></trkpt><trkpt lat="45.3602717" lon="7.5958367"><ele>598.0</ele><time>2026-04-06T14:13:14.819Z</time></trkpt><trkpt lat="45.3602067" lon="7.5959467"><ele>598.0</ele><time>2026-04-06T14:13:16.821Z</time></trkpt><trkpt lat="45.3601433" lon="7.5960617"><ele>598.0</ele><time>2026-04-06T14:13:18.823Z</time></trkpt><trkpt lat="45.3600817" lon="7.5961867"><ele>598.0</ele><time>2026-04-06T14:13:20.825Z</time></trkpt><trkpt lat="45.3600167" lon="7.5963"><ele>598.0</ele><time>2026-04-06T14:13:22.825Z</time></trkpt><trkpt lat="45.3599517" lon="7.5964133"><ele>598.0</ele><time>2026-04-06T14:13:24.818Z</time></trkpt><trkpt lat="45.3598933" lon="7.5965317"><ele>600.0</ele><time>2026-04-06T14:13:26.823Z</time></trkpt><trkpt lat="45.3598433" lon="7.5966617"><ele>602.0</ele><time>2026-04-06T14:13:28.824Z</time></trkpt><trkpt lat="45.3598133" lon="7.596805"><ele>604.0</ele><time>2026-04-06T14:13:30.822Z</time></trkpt><trkpt lat="45.3597967" lon="7.5969517"><ele>606.0</ele><time>2026-04-06T14:13:32.823Z</time></trkpt><trkpt lat="45.3597917" lon="7.5970933"><ele>608.0</ele><time>2026-04-06T14:13:34.824Z</time></trkpt><trkpt lat="45.3598083" lon="7.597225"><ele>608.0</ele><time>2026-04-06T14:13:36.821Z</time></trkpt><trkpt lat="45.3598683" lon="7.5973317"><ele>608.0</ele><time>2026-04-06T14:13:38.822Z</time></trkpt><trkpt lat="45.3599333" lon="7.5974317"><ele>608.0</ele><time>2026-04-06T14:13:40.824Z</time></trkpt><trkpt lat="45.3600017" lon="7.5975433"><ele>608.0</ele><time>2026-04-06T14:13:42.823Z</time></trkpt><trkpt lat="45.36008" lon="7.597655"><ele>608.0</ele><time>2026-04-06T14:13:44.827Z</time></trkpt><trkpt lat="45.3601633" lon="7.5977567"><ele>605.8</ele><time>2026-04-06T14:13:46.824Z</time></trkpt><trkpt lat="45.3602333" lon="7.597865"><ele>603.5999999999999</ele><time>2026-04-06T14:13:48.825Z</time></trkpt><trkpt lat="45.3603167" lon="7.597975"><ele>601.4000000000001</ele><time>2026-04-06T14:13:50.819Z</time></trkpt><trkpt lat="45.3604033" lon="7.598055"><ele>599.2</ele><time>2026-04-06T14:13:52.822Z</time></trkpt><trkpt lat="45.3604883" lon="7.5981067"><ele>597.0</ele><time>2026-04-06T14:13:54.824Z</time></trkpt><trkpt lat="45.3605717" lon="7.598155"><ele>601.75</ele><time>2026-04-06T14:13:56.825Z</time></trkpt><trkpt lat="45.3606583" lon="7.598265"><ele>606.5</ele><time>2026-04-06T14:13:58.825Z</time></trkpt><trkpt lat="45.3606717" lon="7.598415"><ele>611.25</ele><time>2026-04-06T14:14:00.821Z</time></trkpt><trkpt lat="45.3606267" lon="7.5985633"><ele>616.0</ele><time>2026-04-06T14:14:02.826Z</time></trkpt><trkpt lat="45.3605783" lon="7.59871"><ele>607.75</ele><time>2026-04-06T14:14:04.825Z</time></trkpt><trkpt lat="45.360525" lon="7.5988483"><ele>599.5</ele><time>2026-04-06T14:14:06.826Z</time></trkpt><trkpt lat="45.3604733" lon="7.5989917"><ele>591.25</ele><time>2026-04-06T14:14:08.822Z</time></trkpt><trkpt lat="45.3604517" lon="7.5991517"><ele>583.0</ele><time>2026-04-06T14:14:10.822Z</time></trkpt><trkpt lat="45.3605017" lon="7.599305"><ele>587.1666666666667</ele><time>2026-04-06T14:14:12.826Z</time></trkpt><trkpt lat="45.3605983" lon="7.5994317"><ele>591.3333333333334</ele><time>2026-04-06T14:14:14.821Z</time></trkpt><trkpt lat="45.3606467" lon="7.5995017"><ele>595.5</ele><time>2026-04-06T14:14:15.826Z</time></trkpt><trkpt lat="45.36068" lon="7.5995883"><ele>599.6666666666666</ele><time>2026-04-06T14:14:16.825Z</time></trkpt><trkpt lat="45.3606933" lon="7.59969"><ele>603.8333333333333</ele><time>2026-04-06T14:14:17.822Z</time></trkpt><trkpt lat="45.360675" lon="7.59979"><ele>608.0</ele><time>2026-04-06T14:14:18.825Z</time></trkpt><trkpt lat="45.360645" lon="7.5998767"><ele>608.0</ele><time>2026-04-06T14:14:19.824Z</time></trkpt><trkpt lat="45.3606167" lon="7.5999667"><ele>608.0</ele><time>2026-04-06T14:14:20.823Z</time></trkpt><trkpt lat="45.3605983" lon="7.6000633"><ele>608.0</ele><time>2026-04-06T14:14:21.817Z</time></trkpt><trkpt lat="45.360595" lon="7.60016"><ele>608.0</ele><time>2026-04-06T14:14:22.825Z</time></trkpt><trkpt lat="45.3606133" lon="7.60025"><ele>608.0</ele><time>2026-04-06T14:14:23.821Z</time></trkpt><trkpt lat="45.36064" lon="7.60034"><ele>608.0</ele><time>2026-04-06T14:14:24.826Z</time></trkpt><trkpt lat="45.360665" lon="7.6004233"><ele>608.0</ele><time>2026-04-06T14:14:25.826Z</time></trkpt><trkpt lat="45.360695" lon="7.6005117"><ele>606.5</ele><time>2026-04-06T14:14:26.82Z</time></trkpt><trkpt lat="45.3607233" lon="7.6006017"><ele>605.0</ele><time>2026-04-06T14:14:27.825Z</time></trkpt><trkpt lat="45.36075" lon="7.6006933"><ele>603.5</ele><time>2026-04-06T14:14:28.822Z</time></trkpt><trkpt lat="45.3607767" lon="7.6007767"><ele>602.0</ele><time>2026-04-06T14:14:29.822Z</time></trkpt><trkpt lat="45.3608017" lon="7.6008633"><ele>600.5</ele><time>2026-04-06T14:14:30.821Z</time></trkpt><trkpt lat="45.3608267" lon="7.6009467"><ele>599.0</ele><time>2026-04-06T14:14:31.822Z</time></trkpt><trkpt lat="45.3609017" lon="7.6010867"><ele>594.0</ele><time>2026-04-06T14:14:33.82Z</time></trkpt><trkpt lat="45.361" lon="7.6011867"><ele>589.0</ele><time>2026-04-06T14:14:35.821Z</time></trkpt><trkpt lat="45.3611083" lon="7.6012467"><ele>584.0</ele><time>2026-04-06T14:14:37.828Z</time></trkpt><trkpt lat="45.3612167" lon="7.601275"><ele>579.0</ele><time>2026-04-06T14:14:39.823Z</time></trkpt><trkpt lat="45.3613333" lon="7.6012867"><ele>581.75</ele><time>2026-04-06T14:14:41.825Z</time></trkpt><trkpt lat="45.3614517" lon="7.6012967"><ele>584.5</ele><time>2026-04-06T14:14:43.821Z</time></trkpt><trkpt lat="45.3615667" lon="7.6013117"><ele>587.25</ele><time>2026-04-06T14:14:45.819Z</time></trkpt><trkpt lat="45.3616817" lon="7.601335"><ele>590.0</ele><time>2026-04-06T14:14:47.825Z</time></trkpt><trkpt lat="45.361785" lon="7.6013417"><ele>590.0</ele><time>2026-04-06T14:14:49.827Z</time></trkpt><trkpt lat="45.3618733" lon="7.6013183"><ele>590.0</ele><time>2026-04-06T14:14:51.825Z</time></trkpt><trkpt lat="45.361965" lon="7.6012583"><ele>590.0</ele><time>2026-04-06T14:14:53.823Z</time></trkpt><trkpt lat="45.3620633" lon="7.6012267"><ele>590.0</ele><time>2026-04-06T14:14:55.824Z</time></trkpt><trkpt lat="45.362175" lon="7.6012917"><ele>590.0</ele><time>2026-04-06T14:14:57.821Z</time></trkpt><trkpt lat="45.3622517" lon="7.6014017"><ele>592.0</ele><time>2026-04-06T14:14:59.82Z</time></trkpt><trkpt lat="45.362325" lon="7.6015333"><ele>594.0</ele><time>2026-04-06T14:15:01.829Z</time></trkpt><trkpt lat="45.3623983" lon="7.6016533"><ele>596.0</ele><time>2026-04-06T14:15:03.827Z</time></trkpt><trkpt lat="45.3624483" lon="7.601775"><ele>598.0</ele><time>2026-04-06T14:15:05.821Z</time></trkpt><trkpt lat="45.36252" lon="7.6018467"><ele>600.0</ele><time>2026-04-06T14:15:07.826Z</time></trkpt><trkpt lat="45.3625983" lon="7.601845"><ele>600.0</ele><time>2026-04-06T14:15:09.822Z</time></trkpt><trkpt lat="45.3627133" lon="7.601825"><ele>600.0</ele><time>2026-04-06T14:15:11.822Z</time></trkpt><trkpt lat="45.3628217" lon="7.6018517"><ele>600.0</ele><time>2026-04-06T14:15:13.822Z</time></trkpt><trkpt lat="45.3629133" lon="7.601915"><ele>600.0</ele><time>2026-04-06T14:15:15.823Z</time></trkpt><trkpt lat="45.363005" lon="7.6019667"><ele>600.0</ele><time>2026-04-06T14:15:17.824Z</time></trkpt><trkpt lat="45.3631133" lon="7.60199"><ele>600.5</ele><time>2026-04-06T14:15:19.824Z</time></trkpt><trkpt lat="45.363225" lon="7.602045"><ele>601.0</ele><time>2026-04-06T14:15:21.823Z</time></trkpt><trkpt lat="45.3633067" lon="7.60217"><ele>601.5</ele><time>2026-04-06T14:15:23.823Z</time></trkpt><trkpt lat="45.3633" lon="7.602315"><ele>602.0</ele><time>2026-04-06T14:15:25.82Z</time></trkpt><trkpt lat="45.3632333" lon="7.6024433"><ele>602.0</ele><time>2026-04-06T14:15:27.82Z</time></trkpt><trkpt lat="45.3632117" lon="7.6025533"><ele>602.0</ele><time>2026-04-06T14:15:29.824Z</time></trkpt><trkpt lat="45.36321" lon="7.6027017"><ele>602.0</ele><time>2026-04-06T14:15:31.827Z</time></trkpt><trkpt lat="45.3632417" lon="7.6028533"><ele>602.0</ele><time>2026-04-06T14:15:33.824Z</time></trkpt><trkpt lat="45.3632983" lon="7.6029733"><ele>602.0</ele><time>2026-04-06T14:15:35.825Z</time></trkpt><trkpt lat="45.3634" lon="7.60307"><ele>600.25</ele><time>2026-04-06T14:15:37.823Z</time></trkpt><trkpt lat="45.363485" lon="7.603185"><ele>598.5</ele><time>2026-04-06T14:15:39.821Z</time></trkpt><trkpt lat="45.3635483" lon="7.6033167"><ele>596.75</ele><time>2026-04-06T14:15:41.824Z</time></trkpt><trkpt lat="45.363575" lon="7.6034783"><ele>595.0</ele><time>2026-04-06T14:15:43.828Z</time></trkpt><trkpt lat="45.3635567" lon="7.60363"><ele>594.6</ele><time>2026-04-06T14:15:45.82Z</time></trkpt><trkpt lat="45.363525" lon="7.603765"><ele>594.2</ele><time>2026-04-06T14:15:47.821Z</time></trkpt><trkpt lat="45.3634933" lon="7.6039033"><ele>593.8</ele><time>2026-04-06T14:15:49.827Z</time></trkpt><trkpt lat="45.3634667" lon="7.6040533"><ele>593.4</ele><time>2026-04-06T14:15:51.824Z</time></trkpt><trkpt lat="45.36346" lon="7.6042017"><ele>593.0</ele><time>2026-04-06T14:15:53.823Z</time></trkpt><trkpt lat="45.3634733" lon="7.6043417"><ele>593.0</ele><time>2026-04-06T14:15:55.823Z</time></trkpt><trkpt lat="45.363505" lon="7.6044817"><ele>593.0</ele><time>2026-04-06T14:15:57.823Z</time></trkpt><trkpt lat="45.3635683" lon="7.6045867"><ele>593.0</ele><time>2026-04-06T14:15:59.82Z</time></trkpt><trkpt lat="45.3636467" lon="7.60466"><ele>593.0</ele><time>2026-04-06T14:16:01.823Z</time></trkpt><trkpt lat="45.3637283" lon="7.604735"><ele>593.0</ele><time>2026-04-06T14:16:03.82Z</time></trkpt><trkpt lat="45.36377" lon="7.60487"><ele>592.4</ele><time>2026-04-06T14:16:05.825Z</time></trkpt><trkpt lat="45.3637683" lon="7.60496"><ele>591.8</ele><time>2026-04-06T14:16:06.821Z</time></trkpt><trkpt lat="45.363685" lon="7.6050767"><ele>591.2</ele><time>2026-04-06T14:16:08.821Z</time></trkpt><trkpt lat="45.3635767" lon="7.6051183"><ele>590.6</ele><time>2026-04-06T14:16:10.823Z</time></trkpt><trkpt lat="45.3634717" lon="7.60517"><ele>590.0</ele><time>2026-04-06T14:16:12.824Z</time></trkpt><trkpt lat="45.3633783" lon="7.6052617"><ele>591.2</ele><time>2026-04-06T14:16:14.822Z</time></trkpt><trkpt lat="45.3633033" lon="7.60538"><ele>592.4</ele><time>2026-04-06T14:16:16.822Z</time></trkpt><trkpt lat="45.3632333" lon="7.605525"><ele>593.6</ele><time>2026-04-06T14:16:18.823Z</time></trkpt><trkpt lat="45.3632033" lon="7.6056067"><ele>594.8</ele><time>2026-04-06T14:16:19.822Z</time></trkpt><trkpt lat="45.36318" lon="7.6057733"><ele>596.0</ele><time>2026-04-06T14:16:21.823Z</time></trkpt><trkpt lat="45.3632133" lon="7.6059333"><ele>596.0</ele><time>2026-04-06T14:16:23.822Z</time></trkpt><trkpt lat="45.3632817" lon="7.60608"><ele>596.0</ele><time>2026-04-06T14:16:25.823Z</time></trkpt><trkpt lat="45.3633433" lon="7.60622"><ele>596.0</ele><time>2026-04-06T14:16:27.827Z</time></trkpt><trkpt lat="45.363395" lon="7.6063467"><ele>596.0</ele><time>2026-04-06T14:16:29.823Z</time></trkpt><trkpt lat="45.3634367" lon="7.6064717"><ele>596.0</ele><time>2026-04-06T14:16:31.823Z</time></trkpt><trkpt lat="45.363445" lon="7.60661"><ele>596.4</ele><time>2026-04-06T14:16:33.82Z</time></trkpt><trkpt lat="45.3634317" lon="7.606745"><ele>596.8</ele><time>2026-04-06T14:16:35.82Z</time></trkpt><trkpt lat="45.3633883" lon="7.60687"><ele>597.1999999999999</ele><time>2026-04-06T14:16:37.826Z</time></trkpt><trkpt lat="45.36334" lon="7.6069883"><ele>597.6</ele><time>2026-04-06T14:16:39.82Z</time></trkpt><trkpt lat="45.363315" lon="7.60711"><ele>598.0</ele><time>2026-04-06T14:16:41.819Z</time></trkpt><trkpt lat="45.3633283" lon="7.6072267"><ele>597.1999999999999</ele><time>2026-04-06T14:16:43.829Z</time></trkpt><trkpt lat="45.3633567" lon="7.607355"><ele>596.4</ele><time>2026-04-06T14:16:45.818Z</time></trkpt><trkpt lat="45.36339" lon="7.6074833"><ele>595.5999999999999</ele><time>2026-04-06T14:16:47.821Z</time></trkpt><trkpt lat="45.363425" lon="7.6076033"><ele>594.8</ele><time>2026-04-06T14:16:49.824Z</time></trkpt><trkpt lat="45.3634567" lon="7.6077233"><ele>594.0</ele><time>2026-04-06T14:16:51.823Z</time></trkpt><trkpt lat="45.3634917" lon="7.60783"><ele>593.1666666666666</ele><time>2026-04-06T14:16:53.818Z</time></trkpt><trkpt lat="45.363535" lon="7.60792"><ele>592.3333333333334</ele><time>2026-04-06T14:16:55.824Z</time></trkpt><trkpt lat="45.36359" lon="7.6080117"><ele>591.5</ele><time>2026-04-06T14:16:57.82Z</time></trkpt><trkpt lat="45.3636533" lon="7.608105"><ele>590.6666666666667</ele><time>2026-04-06T14:16:59.82Z</time></trkpt><trkpt lat="45.3637067" lon="7.6082117"><ele>589.8333333333334</ele><time>2026-04-06T14:17:01.821Z</time></trkpt><trkpt lat="45.36375" lon="7.608325"><ele>589.0</ele><time>2026-04-06T14:17:03.82Z</time></trkpt><trkpt lat="45.3637683" lon="7.6084667"><ele>589.0</ele><time>2026-04-06T14:17:05.821Z</time></trkpt><trkpt lat="45.3637283" lon="7.60859"><ele>589.0</ele><time>2026-04-06T14:17:07.82Z</time></trkpt><trkpt lat="45.3636533" lon="7.6086567"><ele>589.0</ele><time>2026-04-06T14:17:09.819Z</time></trkpt><trkpt lat="45.3635667" lon="7.608715"><ele>589.0</ele><time>2026-04-06T14:17:11.817Z</time></trkpt><trkpt lat="45.3634833" lon="7.6087667"><ele>589.0</ele><time>2026-04-06T14:17:13.821Z</time></trkpt><trkpt lat="45.3634133" lon="7.6088367"><ele>589.8</ele><time>2026-04-06T14:17:15.827Z</time></trkpt><trkpt lat="45.363355" lon="7.6089383"><ele>590.5999999999999</ele><time>2026-04-06T14:17:17.822Z</time></trkpt><trkpt lat="45.3633433" lon="7.6090567"><ele>591.4</ele><time>2026-04-06T14:17:19.829Z</time></trkpt><trkpt lat="45.3633717" lon="7.6091817"><ele>592.1999999999999</ele><time>2026-04-06T14:17:21.82Z</time></trkpt><trkpt lat="45.3634267" lon="7.6093117"><ele>593.0</ele><time>2026-04-06T14:17:23.821Z</time></trkpt><trkpt lat="45.363485" lon="7.60945"><ele>590.8</ele><time>2026-04-06T14:17:25.821Z</time></trkpt><trkpt lat="45.3635483" lon="7.609585"><ele>588.5999999999999</ele><time>2026-04-06T14:17:27.824Z</time></trkpt><trkpt lat="45.3636167" lon="7.6097117"><ele>586.4000000000001</ele><time>2026-04-06T14:17:29.818Z</time></trkpt><trkpt lat="45.3636833" lon="7.6098367"><ele>584.2</ele><time>2026-04-06T14:17:31.822Z</time></trkpt><trkpt lat="45.3637517" lon="7.609955"><ele>582.0</ele><time>2026-04-06T14:17:33.821Z</time></trkpt><trkpt lat="45.363825" lon="7.6100817"><ele>580.0</ele><time>2026-04-06T14:17:35.822Z</time></trkpt><trkpt lat="45.36388" lon="7.6102367"><ele>578.0</ele><time>2026-04-06T14:17:37.82Z</time></trkpt><trkpt lat="45.3638883" lon="7.6104083"><ele>576.0</ele><time>2026-04-06T14:17:39.819Z</time></trkpt><trkpt lat="45.3638633" lon="7.61057"><ele>574.0</ele><time>2026-04-06T14:17:41.823Z</time></trkpt><trkpt lat="45.3638217" lon="7.6107067"><ele>574.0</ele><time>2026-04-06T14:17:43.823Z</time></trkpt><trkpt lat="45.3638033" lon="7.6108367"><ele>574.0</ele><time>2026-04-06T14:17:45.821Z</time></trkpt><trkpt lat="45.3638267" lon="7.6109567"><ele>574.0</ele><time>2026-04-06T14:17:47.82Z</time></trkpt><trkpt lat="45.3638983" lon="7.6110483"><ele>574.0</ele><time>2026-04-06T14:17:49.821Z</time></trkpt><trkpt lat="45.3639833" lon="7.6111533"><ele>574.0</ele><time>2026-04-06T14:17:51.822Z</time></trkpt><trkpt lat="45.36406" lon="7.6112717"><ele>578.5</ele><time>2026-04-06T14:17:53.82Z</time></trkpt><trkpt lat="45.364135" lon="7.6114"><ele>583.0</ele><time>2026-04-06T14:17:55.825Z</time></trkpt><trkpt lat="45.3642017" lon="7.6115367"><ele>587.5</ele><time>2026-04-06T14:17:57.821Z</time></trkpt><trkpt lat="45.3642583" lon="7.6116867"><ele>592.0</ele><time>2026-04-06T14:17:59.823Z</time></trkpt><trkpt lat="45.364295" lon="7.6118417"><ele>590.0</ele><time>2026-04-06T14:18:01.823Z</time></trkpt><trkpt lat="45.364305" lon="7.6120033"><ele>588.0</ele><time>2026-04-06T14:18:03.818Z</time></trkpt><trkpt lat="45.3643067" lon="7.6121667"><ele>586.0</ele><time>2026-04-06T14:18:05.823Z</time></trkpt><trkpt lat="45.3643217" lon="7.61232"><ele>584.0</ele><time>2026-04-06T14:18:07.825Z</time></trkpt><trkpt lat="45.364335" lon="7.6124783"><ele>584.0</ele><time>2026-04-06T14:18:09.825Z</time></trkpt><trkpt lat="45.3643367" lon="7.6126467"><ele>584.0</ele><time>2026-04-06T14:18:11.821Z</time></trkpt><trkpt lat="45.3643417" lon="7.6128083"><ele>584.0</ele><time>2026-04-06T14:18:13.823Z</time></trkpt><trkpt lat="45.3643433" lon="7.6129683"><ele>584.0</ele><time>2026-04-06T14:18:15.823Z</time></trkpt><trkpt lat="45.3643483" lon="7.613125"><ele>584.5</ele><time>2026-04-06T14:18:17.821Z</time></trkpt><trkpt lat="45.3643583" lon="7.6132817"><ele>585.0</ele><time>2026-04-06T14:18:19.82Z</time></trkpt><trkpt lat="45.3643683" lon="7.6134483"><ele>585.5</ele><time>2026-04-06T14:18:21.819Z</time></trkpt><trkpt lat="45.3643767" lon="7.6136133"><ele>586.0</ele><time>2026-04-06T14:18:23.82Z</time></trkpt><trkpt lat="45.3643717" lon="7.6137883"><ele>586.8</ele><time>2026-04-06T14:18:25.822Z</time></trkpt><trkpt lat="45.3643217" lon="7.61395"><ele>587.6</ele><time>2026-04-06T14:18:27.82Z</time></trkpt><trkpt lat="45.3642417" lon="7.6140733"><ele>588.4</ele><time>2026-04-06T14:18:29.821Z</time></trkpt><trkpt lat="45.3641783" lon="7.6141767"><ele>589.2</ele><time>2026-04-06T14:18:31.818Z</time></trkpt><trkpt lat="45.36415" lon="7.6142883"><ele>590.0</ele><time>2026-04-06T14:18:33.82Z</time></trkpt><trkpt lat="45.3641717" lon="7.6144183"><ele>589.8</ele><time>2026-04-06T14:18:35.823Z</time></trkpt><trkpt lat="45.3642317" lon="7.6145567"><ele>589.6</ele><time>2026-04-06T14:18:37.823Z</time></trkpt><trkpt lat="45.3643117" lon="7.6146967"><ele>589.4</ele><time>2026-04-06T14:18:39.823Z</time></trkpt><trkpt lat="45.3643833" lon="7.6148433"><ele>589.2</ele><time>2026-04-06T14:18:41.826Z</time></trkpt><trkpt lat="45.3644233" lon="7.614915"><ele>589.0</ele><time>2026-04-06T14:18:42.822Z</time></trkpt><trkpt lat="45.364495" lon="7.6150517"><ele>589.0</ele><time>2026-04-06T14:18:44.825Z</time></trkpt><trkpt lat="45.36458" lon="7.615145"><ele>589.0</ele><time>2026-04-06T14:18:46.82Z</time></trkpt><trkpt lat="45.36466" lon="7.6151767"><ele>589.0</ele><time>2026-04-06T14:18:48.819Z</time></trkpt><trkpt lat="45.3647383" lon="7.6151533"><ele>589.0</ele><time>2026-04-06T14:18:50.823Z</time></trkpt><trkpt lat="45.3648217" lon="7.61512"><ele>589.0</ele><time>2026-04-06T14:18:52.825Z</time></trkpt><trkpt lat="45.364905" lon="7.6150683"><ele>589.0</ele><time>2026-04-06T14:18:54.819Z</time></trkpt><trkpt lat="45.364975" lon="7.615025"><ele>590.0</ele><time>2026-04-06T14:18:56.819Z</time></trkpt><trkpt lat="45.3650533" lon="7.6150167"><ele>591.0</ele><time>2026-04-06T14:18:59.823Z</time></trkpt><trkpt lat="45.36513" lon="7.61499"><ele>592.0</ele><time>2026-04-06T14:19:17.824Z</time></trkpt><trkpt lat="45.3651917" lon="7.6150217"><ele>593.0</ele><time>2026-04-06T14:19:20.82Z</time></trkpt><trkpt lat="45.3652583" lon="7.61501"><ele>594.0</ele><time>2026-04-06T14:19:24.82Z</time></trkpt><trkpt lat="45.3653433" lon="7.615025"><ele>595.0</ele><time>2026-04-06T14:19:27.823Z</time></trkpt><trkpt lat="45.36541" lon="7.6150367"><ele>596.0</ele><time>2026-04-06T14:19:29.819Z</time></trkpt><trkpt lat="45.3654867" lon="7.6150617"><ele>596.7142857142857</ele><time>2026-04-06T14:19:31.822Z</time></trkpt><trkpt lat="45.3655567" lon="7.615095"><ele>597.4285714285713</ele><time>2026-04-06T14:19:33.824Z</time></trkpt><trkpt lat="45.3656217" lon="7.6151283"><ele>598.1428571428571</ele><time>2026-04-06T14:19:35.82Z</time></trkpt><trkpt lat="45.3656833" lon="7.6151617"><ele>598.8571428571429</ele><time>2026-04-06T14:19:37.82Z</time></trkpt><trkpt lat="45.3657433" lon="7.61521"><ele>599.5714285714287</ele><time>2026-04-06T14:19:39.821Z</time></trkpt><trkpt lat="45.3658067" lon="7.6152517"><ele>600.2857142857142</ele><time>2026-04-06T14:19:41.819Z</time></trkpt><trkpt lat="45.3658683" lon="7.61531"><ele>601.0</ele><time>2026-04-06T14:19:43.821Z</time></trkpt><trkpt lat="45.3659217" lon="7.615365"><ele>600.0</ele><time>2026-04-06T14:19:45.82Z</time></trkpt><trkpt lat="45.365985" lon="7.6154217"><ele>599.0</ele><time>2026-04-06T14:19:47.824Z</time></trkpt><trkpt lat="45.366055" lon="7.6154717"><ele>598.0</ele><time>2026-04-06T14:19:49.818Z</time></trkpt><trkpt lat="45.366135" lon="7.6155267"><ele>597.0</ele><time>2026-04-06T14:19:51.819Z</time></trkpt><trkpt lat="45.366225" lon="7.6155617"><ele>596.0</ele><time>2026-04-06T14:19:53.822Z</time></trkpt><trkpt lat="45.3663167" lon="7.6155783"><ele>595.0</ele><time>2026-04-06T14:19:55.823Z</time></trkpt><trkpt lat="45.3664167" lon="7.6155883"><ele>595.0</ele><time>2026-04-06T14:19:57.818Z</time></trkpt><trkpt lat="45.366515" lon="7.615585"><ele>595.0</ele><time>2026-04-06T14:19:59.823Z</time></trkpt><trkpt lat="45.3666317" lon="7.6155867"><ele>595.0</ele><time>2026-04-06T14:20:01.821Z</time></trkpt><trkpt lat="45.3667467" lon="7.615595"><ele>595.0</ele><time>2026-04-06T14:20:03.819Z</time></trkpt><trkpt lat="45.3668633" lon="7.6156117"><ele>595.0</ele><time>2026-04-06T14:20:05.822Z</time></trkpt><trkpt lat="45.3669717" lon="7.615635"><ele>595.0</ele><time>2026-04-06T14:20:07.828Z</time></trkpt><trkpt lat="45.367075" lon="7.615665"><ele>595.0</ele><time>2026-04-06T14:20:09.821Z</time></trkpt><trkpt lat="45.3671667" lon="7.6157283"><ele>595.0</ele><time>2026-04-06T14:20:11.825Z</time></trkpt><trkpt lat="45.3672433" lon="7.6158333"><ele>595.0</ele><time>2026-04-06T14:20:13.82Z</time></trkpt><trkpt lat="45.3673083" lon="7.61595"><ele>595.0</ele><time>2026-04-06T14:20:15.825Z</time></trkpt><trkpt lat="45.36735" lon="7.6160683"><ele>594.8333333333334</ele><time>2026-04-06T14:20:17.82Z</time></trkpt><trkpt lat="45.3673833" lon="7.6161733"><ele>594.6666666666667</ele><time>2026-04-06T14:20:19.819Z</time></trkpt><trkpt lat="45.3674083" lon="7.61629"><ele>594.5</ele><time>2026-04-06T14:20:21.824Z</time></trkpt><trkpt lat="45.3674367" lon="7.6164"><ele>594.3333333333334</ele><time>2026-04-06T14:20:23.824Z</time></trkpt><trkpt lat="45.36747" lon="7.6165117"><ele>594.1666666666666</ele><time>2026-04-06T14:20:25.823Z</time></trkpt><trkpt lat="45.3675183" lon="7.6166183"><ele>594.0</ele><time>2026-04-06T14:20:27.819Z</time></trkpt><trkpt lat="45.36756" lon="7.6167217"><ele>594.0</ele><time>2026-04-06T14:20:29.822Z</time></trkpt><trkpt lat="45.3675983" lon="7.61682"><ele>594.0</ele><time>2026-04-06T14:20:31.821Z</time></trkpt><trkpt lat="45.3676267" lon="7.6169217"><ele>594.0</ele><time>2026-04-06T14:20:33.823Z</time></trkpt><trkpt lat="45.3675883" lon="7.6170267"><ele>594.0</ele><time>2026-04-06T14:20:36.819Z</time></trkpt><trkpt lat="45.367525" lon="7.6171"><ele>594.0</ele><time>2026-04-06T14:20:39.823Z</time></trkpt><trkpt lat="45.3674517" lon="7.6171833"><ele>594.0</ele><time>2026-04-06T14:20:42.822Z</time></trkpt><trkpt lat="45.3674083" lon="7.6172483"><ele>594.0</ele><time>2026-04-06T14:20:44.823Z</time></trkpt><trkpt lat="45.3673533" lon="7.617345"><ele>594.0</ele><time>2026-04-06T14:20:47.822Z</time></trkpt><trkpt lat="45.3672883" lon="7.6174233"><ele>594.0</ele><time>2026-04-06T14:20:50.823Z</time></trkpt><trkpt lat="45.3672683" lon="7.617535"><ele>594.0</ele><time>2026-04-06T14:21:02.819Z</time></trkpt><trkpt lat="45.367195" lon="7.6176083"><ele>594.0</ele><time>2026-04-06T14:21:11.819Z</time></trkpt><trkpt lat="45.367145" lon="7.617665"><ele>594.0</ele><time>2026-04-06T14:21:13.826Z</time></trkpt><trkpt lat="45.3670833" lon="7.6177467"><ele>592.0</ele><time>2026-04-06T14:21:15.822Z</time></trkpt><trkpt lat="45.367" lon="7.61782"><ele>590.0</ele><time>2026-04-06T14:21:17.825Z</time></trkpt><trkpt lat="45.3669183" lon="7.61791"><ele>588.0</ele><time>2026-04-06T14:21:19.822Z</time></trkpt><trkpt lat="45.3668383" lon="7.6179883"><ele>586.0</ele><time>2026-04-06T14:21:21.819Z</time></trkpt><trkpt lat="45.3667817" lon="7.6180583"><ele>584.0</ele><time>2026-04-06T14:21:23.821Z</time></trkpt><trkpt lat="45.36673" lon="7.618135"><ele>582.0</ele><time>2026-04-06T14:21:25.825Z</time></trkpt><trkpt lat="45.3666483" lon="7.6182017"><ele>582.0</ele><time>2026-04-06T14:21:27.824Z</time></trkpt><trkpt lat="45.3665617" lon="7.6182917"><ele>582.0</ele><time>2026-04-06T14:21:29.825Z</time></trkpt><trkpt lat="45.3665133" lon="7.6183517"><ele>582.0</ele><time>2026-04-06T14:21:30.819Z</time></trkpt><trkpt lat="45.3664567" lon="7.6184117"><ele>582.0</ele><time>2026-04-06T14:21:31.825Z</time></trkpt><trkpt lat="45.3664" lon="7.6184783"><ele>582.0</ele><time>2026-04-06T14:21:32.824Z</time></trkpt><trkpt lat="45.3663383" lon="7.6185483"><ele>582.0</ele><time>2026-04-06T14:21:33.82Z</time></trkpt><trkpt lat="45.3662733" lon="7.6186183"><ele>580.6</ele><time>2026-04-06T14:21:34.824Z</time></trkpt><trkpt lat="45.3662067" lon="7.6186917"><ele>579.2</ele><time>2026-04-06T14:21:35.823Z</time></trkpt><trkpt lat="45.3661317" lon="7.6187683"><ele>577.8</ele><time>2026-04-06T14:21:36.819Z</time></trkpt><trkpt lat="45.3660533" lon="7.618845"><ele>576.4</ele><time>2026-04-06T14:21:37.822Z</time></trkpt><trkpt lat="45.3659817" lon="7.6189267"><ele>575.0</ele><time>2026-04-06T14:21:38.818Z</time></trkpt><trkpt lat="45.36591" lon="7.619005"><ele>575.0</ele><time>2026-04-06T14:21:39.821Z</time></trkpt><trkpt lat="45.3658417" lon="7.619075"><ele>575.0</ele><time>2026-04-06T14:21:40.827Z</time></trkpt><trkpt lat="45.3657733" lon="7.6191383"><ele>575.0</ele><time>2026-04-06T14:21:41.818Z</time></trkpt><trkpt lat="45.3657067" lon="7.619195"><ele>575.0</ele><time>2026-04-06T14:21:42.818Z</time></trkpt><trkpt lat="45.3656483" lon="7.6192483"><ele>575.0</ele><time>2026-04-06T14:21:43.824Z</time></trkpt><trkpt lat="45.3655933" lon="7.6192967"><ele>575.0</ele><time>2026-04-06T14:21:44.818Z</time></trkpt><trkpt lat="45.36554" lon="7.619345"><ele>575.0</ele><time>2026-04-06T14:21:45.819Z</time></trkpt><trkpt lat="45.3654417" lon="7.6194267"><ele>575.5</ele><time>2026-04-06T14:21:47.82Z</time></trkpt><trkpt lat="45.365355" lon="7.6194867"><ele>576.0</ele><time>2026-04-06T14:21:49.822Z</time></trkpt><trkpt lat="45.3652883" lon="7.61954"><ele>576.5</ele><time>2026-04-06T14:21:51.818Z</time></trkpt><trkpt lat="45.3652233" lon="7.6195983"><ele>577.0</ele><time>2026-04-06T14:21:53.82Z</time></trkpt><trkpt lat="45.3651683" lon="7.6196567"><ele>577.5</ele><time>2026-04-06T14:21:55.825Z</time></trkpt><trkpt lat="45.3651" lon="7.6197117"><ele>578.0</ele><time>2026-04-06T14:21:57.817Z</time></trkpt><trkpt lat="45.3650333" lon="7.61977"><ele>578.0</ele><time>2026-04-06T14:21:59.824Z</time></trkpt><trkpt lat="45.3649667" lon="7.61983"><ele>578.0</ele><time>2026-04-06T14:22:01.826Z</time></trkpt><trkpt lat="45.3648983" lon="7.6198867"><ele>578.0</ele><time>2026-04-06T14:22:03.822Z</time></trkpt><trkpt lat="45.364825" lon="7.6199417"><ele>578.0</ele><time>2026-04-06T14:22:05.824Z</time></trkpt><trkpt lat="45.3647567" lon="7.6199933"><ele>578.0</ele><time>2026-04-06T14:22:07.824Z</time></trkpt><trkpt lat="45.36469" lon="7.6200433"><ele>578.0</ele><time>2026-04-06T14:22:09.824Z</time></trkpt><trkpt lat="45.3646167" lon="7.6200933"><ele>578.8333333333333</ele><time>2026-04-06T14:22:11.82Z</time></trkpt><trkpt lat="45.364545" lon="7.6201383"><ele>579.6666666666666</ele><time>2026-04-06T14:22:13.818Z</time></trkpt><trkpt lat="45.364475" lon="7.6201733"><ele>580.5</ele><time>2026-04-06T14:22:15.828Z</time></trkpt><trkpt lat="45.3643883" lon="7.6201967"><ele>581.3333333333334</ele><time>2026-04-06T14:22:18.82Z</time></trkpt><trkpt lat="45.364315" lon="7.620245"><ele>582.1666666666667</ele><time>2026-04-06T14:22:24.823Z</time></trkpt><trkpt lat="45.3642367" lon="7.6202933"><ele>583.0</ele><time>2026-04-06T14:22:27.819Z</time></trkpt><trkpt lat="45.36417" lon="7.620335"><ele>583.0</ele><time>2026-04-06T14:22:29.826Z</time></trkpt><trkpt lat="45.3640867" lon="7.62037"><ele>583.0</ele><time>2026-04-06T14:22:31.822Z</time></trkpt><trkpt lat="45.3640117" lon="7.6203667"><ele>583.0</ele><time>2026-04-06T14:22:33.822Z</time></trkpt><trkpt lat="45.3639467" lon="7.62037"><ele>583.0</ele><time>2026-04-06T14:22:36.826Z</time></trkpt><trkpt lat="45.3638683" lon="7.6204367"><ele>583.0</ele><time>2026-04-06T14:22:39.824Z</time></trkpt><trkpt lat="45.36379" lon="7.6204583"><ele>583.0</ele><time>2026-04-06T14:22:41.821Z</time></trkpt><trkpt lat="45.36371" lon="7.6204733"><ele>581.6</ele><time>2026-04-06T14:22:43.824Z</time></trkpt><trkpt lat="45.363625" lon="7.62052"><ele>580.1999999999999</ele><time>2026-04-06T14:22:45.821Z</time></trkpt><trkpt lat="45.3635317" lon="7.6205983"><ele>578.8</ele><time>2026-04-06T14:22:47.821Z</time></trkpt><trkpt lat="45.3634817" lon="7.6206533"><ele>577.4</ele><time>2026-04-06T14:22:48.818Z</time></trkpt><trkpt lat="45.3633917" lon="7.620755"><ele>576.0</ele><time>2026-04-06T14:22:50.824Z</time></trkpt><trkpt lat="45.363305" lon="7.6208583"><ele>576.0</ele><time>2026-04-06T14:22:52.819Z</time></trkpt><trkpt lat="45.3632533" lon="7.6209167"><ele>576.0</ele><time>2026-04-06T14:22:53.826Z</time></trkpt><trkpt lat="45.3631933" lon="7.62098"><ele>576.0</ele><time>2026-04-06T14:22:54.819Z</time></trkpt><trkpt lat="45.3631217" lon="7.6210483"><ele>576.0</ele><time>2026-04-06T14:22:55.821Z</time></trkpt><trkpt lat="45.3630433" lon="7.6211083"><ele>576.0</ele><time>2026-04-06T14:22:56.82Z</time></trkpt><trkpt lat="45.3629683" lon="7.6211583"><ele>576.0</ele><time>2026-04-06T14:22:57.82Z</time></trkpt><trkpt lat="45.3629017" lon="7.62121"><ele>573.5</ele><time>2026-04-06T14:22:58.823Z</time></trkpt><trkpt lat="45.362845" lon="7.6212867"><ele>571.0</ele><time>2026-04-06T14:22:59.82Z</time></trkpt><trkpt lat="45.3628" lon="7.6213733"><ele>568.5</ele><time>2026-04-06T14:23:00.822Z</time></trkpt><trkpt lat="45.3627517" lon="7.6214633"><ele>566.0</ele><time>2026-04-06T14:23:01.816Z</time></trkpt><trkpt lat="45.3626867" lon="7.62157"><ele>563.5</ele><time>2026-04-06T14:23:02.822Z</time></trkpt><trkpt lat="45.3626033" lon="7.621665"><ele>561.0</ele><time>2026-04-06T14:23:03.818Z</time></trkpt><trkpt lat="45.3625083" lon="7.6217317"><ele>561.0</ele><time>2026-04-06T14:23:04.823Z</time></trkpt><trkpt lat="45.3624317" lon="7.6217983"><ele>561.0</ele><time>2026-04-06T14:23:05.821Z</time></trkpt><trkpt lat="45.3623767" lon="7.6218583"><ele>561.0</ele><time>2026-04-06T14:23:06.822Z</time></trkpt><trkpt lat="45.36233" lon="7.6219317"><ele>561.0</ele><time>2026-04-06T14:23:07.819Z</time></trkpt><trkpt lat="45.3622717" lon="7.62203"><ele>561.0</ele><time>2026-04-06T14:23:08.817Z</time></trkpt><trkpt lat="45.3622217" lon="7.6221183"><ele>561.0</ele><time>2026-04-06T14:23:09.818Z</time></trkpt><trkpt lat="45.3621767" lon="7.6222083"><ele>558.0</ele><time>2026-04-06T14:23:10.819Z</time></trkpt><trkpt lat="45.3621333" lon="7.622295"><ele>555.0</ele><time>2026-04-06T14:23:11.817Z</time></trkpt><trkpt lat="45.36209" lon="7.6223867"><ele>552.0</ele><time>2026-04-06T14:23:12.82Z</time></trkpt><trkpt lat="45.3620567" lon="7.6224867"><ele>549.0</ele><time>2026-04-06T14:23:13.819Z</time></trkpt><trkpt lat="45.3620333" lon="7.6225883"><ele>546.0</ele><time>2026-04-06T14:23:14.822Z</time></trkpt><trkpt lat="45.3620017" lon="7.622715"><ele>543.0</ele><time>2026-04-06T14:23:15.822Z</time></trkpt><trkpt lat="45.3619733" lon="7.6228317"><ele>542.3333333333334</ele><time>2026-04-06T14:23:16.821Z</time></trkpt><trkpt lat="45.36193" lon="7.6229383"><ele>541.6666666666666</ele><time>2026-04-06T14:23:17.82Z</time></trkpt><trkpt lat="45.3618817" lon="7.6230417"><ele>541.0</ele><time>2026-04-06T14:23:18.82Z</time></trkpt><trkpt lat="45.3618483" lon="7.6231333"><ele>540.3333333333333</ele><time>2026-04-06T14:23:19.821Z</time></trkpt><trkpt lat="45.3618367" lon="7.6233017"><ele>539.6666666666666</ele><time>2026-04-06T14:23:21.825Z</time></trkpt><trkpt lat="45.36184" lon="7.6233933"><ele>539.0</ele><time>2026-04-06T14:23:22.823Z</time></trkpt><trkpt lat="45.3618567" lon="7.6234967"><ele>539.0</ele><time>2026-04-06T14:23:23.818Z</time></trkpt><trkpt lat="45.36186" lon="7.6235883"><ele>539.0</ele><time>2026-04-06T14:23:24.818Z</time></trkpt><trkpt lat="45.3618917" lon="7.62376"><ele>539.0</ele><time>2026-04-06T14:23:26.819Z</time></trkpt><trkpt lat="45.361915" lon="7.6238467"><ele>539.0</ele><time>2026-04-06T14:23:27.826Z</time></trkpt><trkpt lat="45.3619433" lon="7.6239933"><ele>539.0</ele><time>2026-04-06T14:23:29.823Z</time></trkpt><trkpt lat="45.3619367" lon="7.62412"><ele>537.6</ele><time>2026-04-06T14:23:31.82Z</time></trkpt><trkpt lat="45.36192" lon="7.62425"><ele>536.2</ele><time>2026-04-06T14:23:33.818Z</time></trkpt><trkpt lat="45.3618833" lon="7.6243933"><ele>534.8000000000001</ele><time>2026-04-06T14:23:35.821Z</time></trkpt><trkpt lat="45.36183" lon="7.6245417"><ele>533.4</ele><time>2026-04-06T14:23:37.82Z</time></trkpt><trkpt lat="45.3618" lon="7.6246233"><ele>532.0</ele><time>2026-04-06T14:23:38.82Z</time></trkpt><trkpt lat="45.3617733" lon="7.624715"><ele>531.1666666666667</ele><time>2026-04-06T14:23:39.823Z</time></trkpt><trkpt lat="45.3617567" lon="7.6248017"><ele>530.3333333333334</ele><time>2026-04-06T14:23:40.826Z</time></trkpt><trkpt lat="45.3617383" lon="7.62495"><ele>529.5</ele><time>2026-04-06T14:23:42.823Z</time></trkpt><trkpt lat="45.36178" lon="7.6251167"><ele>528.6666666666666</ele><time>2026-04-06T14:23:44.818Z</time></trkpt><trkpt lat="45.36181" lon="7.6252017"><ele>527.8333333333333</ele><time>2026-04-06T14:23:45.826Z</time></trkpt><trkpt lat="45.3618433" lon="7.6252917"><ele>527.0</ele><time>2026-04-06T14:23:46.822Z</time></trkpt><trkpt lat="45.3618767" lon="7.6253817"><ele>525.1666666666666</ele><time>2026-04-06T14:23:47.825Z</time></trkpt><trkpt lat="45.361915" lon="7.6254733"><ele>523.3333333333333</ele><time>2026-04-06T14:23:48.822Z</time></trkpt><trkpt lat="45.3619517" lon="7.62556"><ele>521.5</ele><time>2026-04-06T14:23:49.823Z</time></trkpt><trkpt lat="45.3620167" lon="7.6256933"><ele>519.6666666666666</ele><time>2026-04-06T14:23:51.826Z</time></trkpt><trkpt lat="45.3620617" lon="7.62584"><ele>517.8333333333334</ele><time>2026-04-06T14:23:53.82Z</time></trkpt><trkpt lat="45.3620517" lon="7.6259317"><ele>516.0</ele><time>2026-04-06T14:23:54.82Z</time></trkpt><trkpt lat="45.361945" lon="7.6259933"><ele>516.0</ele><time>2026-04-06T14:23:56.819Z</time></trkpt><trkpt lat="45.361855" lon="7.6260667"><ele>516.0</ele><time>2026-04-06T14:23:58.822Z</time></trkpt><trkpt lat="45.361795" lon="7.6262233"><ele>516.0</ele><time>2026-04-06T14:24:00.818Z</time></trkpt><trkpt lat="45.36178" lon="7.6263983"><ele>516.0</ele><time>2026-04-06T14:24:02.82Z</time></trkpt><trkpt lat="45.361815" lon="7.6265583"><ele>515.0</ele><time>2026-04-06T14:24:04.821Z</time></trkpt><trkpt lat="45.3619033" lon="7.6266783"><ele>514.0</ele><time>2026-04-06T14:24:06.82Z</time></trkpt><trkpt lat="45.3619867" lon="7.6268"><ele>513.0</ele><time>2026-04-06T14:24:08.823Z</time></trkpt><trkpt lat="45.3620133" lon="7.626935"><ele>512.0</ele><time>2026-04-06T14:24:10.818Z</time></trkpt><trkpt lat="45.3620067" lon="7.6270617"><ele>511.0</ele><time>2026-04-06T14:24:12.819Z</time></trkpt><trkpt lat="45.3620083" lon="7.6271683"><ele>509.33333333333337</ele><time>2026-04-06T14:24:14.822Z</time></trkpt><trkpt lat="45.362025" lon="7.627275"><ele>507.6666666666667</ele><time>2026-04-06T14:24:16.817Z</time></trkpt><trkpt lat="45.362055" lon="7.62737"><ele>506.0</ele><time>2026-04-06T14:24:18.818Z</time></trkpt><trkpt lat="45.3621117" lon="7.6274633"><ele>504.33333333333337</ele><time>2026-04-06T14:24:20.82Z</time></trkpt><trkpt lat="45.362175" lon="7.6275583"><ele>502.6666666666667</ele><time>2026-04-06T14:24:22.82Z</time></trkpt><trkpt lat="45.362235" lon="7.6276433"><ele>501.0</ele><time>2026-04-06T14:24:24.821Z</time></trkpt><trkpt lat="45.3622883" lon="7.6277317"><ele>507.20000000000005</ele><time>2026-04-06T14:24:26.823Z</time></trkpt><trkpt lat="45.3623283" lon="7.62784"><ele>513.4000000000001</ele><time>2026-04-06T14:24:28.82Z</time></trkpt><trkpt lat="45.3623517" lon="7.62796"><ele>519.6</ele><time>2026-04-06T14:24:30.821Z</time></trkpt><trkpt lat="45.362355" lon="7.628105"><ele>525.8000000000001</ele><time>2026-04-06T14:24:32.825Z</time></trkpt><trkpt lat="45.3623333" lon="7.6282483"><ele>532.0</ele><time>2026-04-06T14:24:34.822Z</time></trkpt><trkpt lat="45.3622817" lon="7.62838"><ele>532.0</ele><time>2026-04-06T14:24:36.818Z</time></trkpt><trkpt lat="45.3622383" lon="7.6285033"><ele>532.0</ele><time>2026-04-06T14:24:38.82Z</time></trkpt><trkpt lat="45.3622183" lon="7.6286333"><ele>532.0</ele><time>2026-04-06T14:24:40.828Z</time></trkpt><trkpt lat="45.3622033" lon="7.6287633"><ele>532.0</ele><time>2026-04-06T14:24:42.822Z</time></trkpt><trkpt lat="45.36217" lon="7.62888"><ele>532.0</ele><time>2026-04-06T14:24:44.822Z</time></trkpt><trkpt lat="45.3621317" lon="7.6289883"><ele>525.8000000000001</ele><time>2026-04-06T14:24:46.826Z</time></trkpt><trkpt lat="45.3620883" lon="7.6290883"><ele>519.6</ele><time>2026-04-06T14:24:48.82Z</time></trkpt><trkpt lat="45.3620383" lon="7.6291983"><ele>513.4000000000001</ele><time>2026-04-06T14:24:50.82Z</time></trkpt><trkpt lat="45.3619817" lon="7.6293133"><ele>507.20000000000005</ele><time>2026-04-06T14:24:52.82Z</time></trkpt><trkpt lat="45.3619217" lon="7.6294417"><ele>501.0</ele><time>2026-04-06T14:24:54.821Z</time></trkpt><trkpt lat="45.3618683" lon="7.6295783"><ele>501.0</ele><time>2026-04-06T14:24:56.822Z</time></trkpt><trkpt lat="45.361825" lon="7.6297367"><ele>501.0</ele><time>2026-04-06T14:24:58.822Z</time></trkpt><trkpt lat="45.3618117" lon="7.6298317"><ele>501.0</ele><time>2026-04-06T14:24:59.822Z</time></trkpt><trkpt lat="45.3618083" lon="7.6299317"><ele>501.0</ele><time>2026-04-06T14:25:00.818Z</time></trkpt><trkpt lat="45.361815" lon="7.6300417"><ele>501.0</ele><time>2026-04-06T14:25:01.821Z</time></trkpt><trkpt lat="45.3618267" lon="7.630155"><ele>501.0</ele><time>2026-04-06T14:25:02.822Z</time></trkpt><trkpt lat="45.3618433" lon="7.6302667"><ele>498.8333333333333</ele><time>2026-04-06T14:25:03.82Z</time></trkpt><trkpt lat="45.361865" lon="7.6303733"><ele>496.66666666666663</ele><time>2026-04-06T14:25:04.821Z</time></trkpt><trkpt lat="45.3618967" lon="7.6304767"><ele>494.5</ele><time>2026-04-06T14:25:05.822Z</time></trkpt><trkpt lat="45.3619283" lon="7.6305833"><ele>492.3333333333333</ele><time>2026-04-06T14:25:06.823Z</time></trkpt><trkpt lat="45.36196" lon="7.6306883"><ele>490.16666666666663</ele><time>2026-04-06T14:25:07.822Z</time></trkpt><trkpt lat="45.3619967" lon="7.6307933"><ele>488.0</ele><time>2026-04-06T14:25:08.825Z</time></trkpt><trkpt lat="45.362035" lon="7.6308917"><ele>488.0</ele><time>2026-04-06T14:25:09.82Z</time></trkpt><trkpt lat="45.3620833" lon="7.6309867"><ele>487.99999999999994</ele><time>2026-04-06T14:25:10.819Z</time></trkpt><trkpt lat="45.3621417" lon="7.6310783"><ele>487.99999999999994</ele><time>2026-04-06T14:25:11.822Z</time></trkpt><trkpt lat="45.3622133" lon="7.6311633"><ele>488.0</ele><time>2026-04-06T14:25:12.821Z</time></trkpt><trkpt lat="45.36229" lon="7.6312517"><ele>488.0</ele><time>2026-04-06T14:25:13.821Z</time></trkpt><trkpt lat="45.362365" lon="7.6313383"><ele>490.3333333333333</ele><time>2026-04-06T14:25:14.823Z</time></trkpt><trkpt lat="45.362435" lon="7.6314317"><ele>492.66666666666663</ele><time>2026-04-06T14:25:15.82Z</time></trkpt><trkpt lat="45.36249" lon="7.631535"><ele>495.0</ele><time>2026-04-06T14:25:16.82Z</time></trkpt><trkpt lat="45.362535" lon="7.6316317"><ele>497.33333333333337</ele><time>2026-04-06T14:25:17.822Z</time></trkpt><trkpt lat="45.3625783" lon="7.63172"><ele>499.6666666666667</ele><time>2026-04-06T14:25:18.82Z</time></trkpt><trkpt lat="45.362625" lon="7.6318017"><ele>502.0</ele><time>2026-04-06T14:25:19.823Z</time></trkpt><trkpt lat="45.3626733" lon="7.631875"><ele>502.00000000000006</ele><time>2026-04-06T14:25:20.824Z</time></trkpt><trkpt lat="45.3627117" lon="7.6319467"><ele>502.0</ele><time>2026-04-06T14:25:21.822Z</time></trkpt><trkpt lat="45.3627683" lon="7.6320967"><ele>502.0</ele><time>2026-04-06T14:25:23.824Z</time></trkpt><trkpt lat="45.36277" lon="7.63219"><ele>502.0</ele><time>2026-04-06T14:25:24.82Z</time></trkpt><trkpt lat="45.3627283" lon="7.6323033"><ele>502.00000000000006</ele><time>2026-04-06T14:25:25.821Z</time></trkpt><trkpt lat="45.3626733" lon="7.632405"><ele>502.0</ele><time>2026-04-06T14:25:26.824Z</time></trkpt><trkpt lat="45.3626267" lon="7.6324967"><ele>499.40000000000003</ele><time>2026-04-06T14:25:27.824Z</time></trkpt><trkpt lat="45.36259" lon="7.6325783"><ele>496.80000000000007</ele><time>2026-04-06T14:25:28.821Z</time></trkpt><trkpt lat="45.362545" lon="7.6327217"><ele>494.2</ele><time>2026-04-06T14:25:30.822Z</time></trkpt><trkpt lat="45.3625533" lon="7.632855"><ele>491.6</ele><time>2026-04-06T14:25:32.822Z</time></trkpt><trkpt lat="45.3625933" lon="7.6329833"><ele>489.0</ele><time>2026-04-06T14:25:34.819Z</time></trkpt><trkpt lat="45.3626467" lon="7.6331083"><ele>487.4</ele><time>2026-04-06T14:25:36.821Z</time></trkpt><trkpt lat="45.3627183" lon="7.6332133"><ele>485.79999999999995</ele><time>2026-04-06T14:25:38.822Z</time></trkpt><trkpt lat="45.3627917" lon="7.633285"><ele>484.20000000000005</ele><time>2026-04-06T14:25:40.823Z</time></trkpt><trkpt lat="45.36287" lon="7.633345"><ele>482.6</ele><time>2026-04-06T14:25:42.82Z</time></trkpt><trkpt lat="45.3629483" lon="7.6334017"><ele>481.0</ele><time>2026-04-06T14:25:44.819Z</time></trkpt><trkpt lat="45.3630317" lon="7.6334467"><ele>483.6</ele><time>2026-04-06T14:25:46.82Z</time></trkpt><trkpt lat="45.3631117" lon="7.6335133"><ele>486.20000000000005</ele><time>2026-04-06T14:25:48.822Z</time></trkpt><trkpt lat="45.3631817" lon="7.6336133"><ele>488.79999999999995</ele><time>2026-04-06T14:25:50.821Z</time></trkpt><trkpt lat="45.3632317" lon="7.6337417"><ele>491.4</ele><time>2026-04-06T14:25:52.822Z</time></trkpt><trkpt lat="45.3632633" lon="7.6338633"><ele>494.0</ele><time>2026-04-06T14:25:54.82Z</time></trkpt><trkpt lat="45.3632767" lon="7.6339717"><ele>494.0</ele><time>2026-04-06T14:25:56.822Z</time></trkpt><trkpt lat="45.3633117" lon="7.634105"><ele>494.0</ele><time>2026-04-06T14:25:58.824Z</time></trkpt><trkpt lat="45.3633683" lon="7.6342617"><ele>494.0</ele><time>2026-04-06T14:26:00.82Z</time></trkpt><trkpt lat="45.3633833" lon="7.6344283"><ele>494.0</ele><time>2026-04-06T14:26:02.821Z</time></trkpt><trkpt lat="45.3633133" lon="7.6345433"><ele>494.0</ele><time>2026-04-06T14:26:04.82Z</time></trkpt><trkpt lat="45.3632" lon="7.6346133"><ele>493.6</ele><time>2026-04-06T14:26:06.823Z</time></trkpt><trkpt lat="45.3631033" lon="7.63468"><ele>493.2</ele><time>2026-04-06T14:26:08.821Z</time></trkpt><trkpt lat="45.363025" lon="7.63476"><ele>492.80000000000007</ele><time>2026-04-06T14:26:10.82Z</time></trkpt><trkpt lat="45.362945" lon="7.6348317"><ele>492.40000000000003</ele><time>2026-04-06T14:26:12.821Z</time></trkpt><trkpt lat="45.362865" lon="7.6349133"><ele>492.0</ele><time>2026-04-06T14:26:14.821Z</time></trkpt><trkpt lat="45.3628083" lon="7.63502"><ele>491.3333333333333</ele><time>2026-04-06T14:26:16.824Z</time></trkpt><trkpt lat="45.3628133" lon="7.6351217"><ele>490.66666666666663</ele><time>2026-04-06T14:26:18.82Z</time></trkpt><trkpt lat="45.3628717" lon="7.635195"><ele>490.0</ele><time>2026-04-06T14:26:20.822Z</time></trkpt><trkpt lat="45.3629333" lon="7.6352783"><ele>489.3333333333333</ele><time>2026-04-06T14:26:22.82Z</time></trkpt><trkpt lat="45.3629967" lon="7.6353733"><ele>488.66666666666663</ele><time>2026-04-06T14:26:24.818Z</time></trkpt><trkpt lat="45.3630683" lon="7.635475"><ele>488.0</ele><time>2026-04-06T14:26:26.821Z</time></trkpt><trkpt lat="45.3631417" lon="7.6355733"><ele>488.0</ele><time>2026-04-06T14:26:28.826Z</time></trkpt><trkpt lat="45.3632133" lon="7.6356783"><ele>487.99999999999994</ele><time>2026-04-06T14:26:30.818Z</time></trkpt><trkpt lat="45.363295" lon="7.635785"><ele>487.99999999999994</ele><time>2026-04-06T14:26:32.821Z</time></trkpt><trkpt lat="45.3633817" lon="7.6359033"><ele>488.0</ele><time>2026-04-06T14:26:34.818Z</time></trkpt><trkpt lat="45.3634317" lon="7.6359683"><ele>488.0</ele><time>2026-04-06T14:26:35.823Z</time></trkpt><trkpt lat="45.3634867" lon="7.63604"><ele>487.99999999999994</ele><time>2026-04-06T14:26:36.82Z</time></trkpt><trkpt lat="45.363545" lon="7.6361117"><ele>488.0</ele><time>2026-04-06T14:26:37.822Z</time></trkpt><trkpt lat="45.36361" lon="7.6361783"><ele>488.0</ele><time>2026-04-06T14:26:38.825Z</time></trkpt><trkpt lat="45.3636733" lon="7.63624"><ele>488.0</ele><time>2026-04-06T14:26:39.822Z</time></trkpt><trkpt lat="45.3637367" lon="7.636305"><ele>487.99999999999994</ele><time>2026-04-06T14:26:40.823Z</time></trkpt><trkpt lat="45.3637983" lon="7.6363633"><ele>488.0</ele><time>2026-04-06T14:26:41.821Z</time></trkpt><trkpt lat="45.36386" lon="7.6363983"><ele>487.2</ele><time>2026-04-06T14:26:42.822Z</time></trkpt><trkpt lat="45.363975" lon="7.63644"><ele>486.4</ele><time>2026-04-06T14:26:44.824Z</time></trkpt><trkpt lat="45.36407" lon="7.636485"><ele>485.59999999999997</ele><time>2026-04-06T14:26:46.821Z</time></trkpt><trkpt lat="45.3641317" lon="7.6365833"><ele>484.79999999999995</ele><time>2026-04-06T14:26:48.824Z</time></trkpt><trkpt lat="45.3641367" lon="7.6367317"><ele>484.0</ele><time>2026-04-06T14:26:50.825Z</time></trkpt><trkpt lat="45.36413" lon="7.6368933"><ele>479.2</ele><time>2026-04-06T14:26:52.822Z</time></trkpt><trkpt lat="45.3641633" lon="7.6370617"><ele>474.4</ele><time>2026-04-06T14:26:54.821Z</time></trkpt><trkpt lat="45.3641983" lon="7.6371467"><ele>469.6</ele><time>2026-04-06T14:26:55.82Z</time></trkpt><trkpt lat="45.3642417" lon="7.6372133"><ele>464.8</ele><time>2026-04-06T14:26:56.822Z</time></trkpt><trkpt lat="45.3642883" lon="7.63728"><ele>460.0</ele><time>2026-04-06T14:26:57.822Z</time></trkpt><trkpt lat="45.3644067" lon="7.63735"><ele>460.00000000000006</ele><time>2026-04-06T14:26:59.821Z</time></trkpt><trkpt lat="45.3644733" lon="7.6373767"><ele>460.0</ele><time>2026-04-06T14:27:00.826Z</time></trkpt><trkpt lat="45.3645333" lon="7.6374267"><ele>460.0</ele><time>2026-04-06T14:27:01.817Z</time></trkpt><trkpt lat="45.364595" lon="7.6374867"><ele>460.0</ele><time>2026-04-06T14:27:02.822Z</time></trkpt><trkpt lat="45.3646517" lon="7.6375467"><ele>460.00000000000006</ele><time>2026-04-06T14:27:03.823Z</time></trkpt><trkpt lat="45.3647083" lon="7.6376"><ele>460.0</ele><time>2026-04-06T14:27:04.825Z</time></trkpt><trkpt lat="45.3648133" lon="7.637685"><ele>458.1666666666667</ele><time>2026-04-06T14:27:06.82Z</time></trkpt><trkpt lat="45.3648583" lon="7.63783"><ele>456.33333333333337</ele><time>2026-04-06T14:27:08.828Z</time></trkpt><trkpt lat="45.3648267" lon="7.6379833"><ele>454.5</ele><time>2026-04-06T14:27:10.821Z</time></trkpt><trkpt lat="45.3647717" lon="7.6380433"><ele>452.66666666666663</ele><time>2026-04-06T14:27:11.818Z</time></trkpt><trkpt lat="45.3647317" lon="7.6381217"><ele>450.8333333333333</ele><time>2026-04-06T14:27:12.826Z</time></trkpt><trkpt lat="45.364695" lon="7.6382033"><ele>449.0</ele><time>2026-04-06T14:27:13.822Z</time></trkpt><trkpt lat="45.3646517" lon="7.638285"><ele>448.99999999999994</ele><time>2026-04-06T14:27:14.827Z</time></trkpt><trkpt lat="45.3646083" lon="7.63837"><ele>449.0</ele><time>2026-04-06T14:27:15.823Z</time></trkpt><trkpt lat="45.3645583" lon="7.6384433"><ele>449.0</ele><time>2026-04-06T14:27:16.818Z</time></trkpt><trkpt lat="45.3644933" lon="7.638495"><ele>449.0</ele><time>2026-04-06T14:27:17.817Z</time></trkpt><trkpt lat="45.3644217" lon="7.63854"><ele>448.99999999999994</ele><time>2026-04-06T14:27:18.821Z</time></trkpt><trkpt lat="45.364345" lon="7.6385917"><ele>449.0</ele><time>2026-04-06T14:27:19.824Z</time></trkpt><trkpt lat="45.364265" lon="7.6386567"><ele>449.79999999999995</ele><time>2026-04-06T14:27:20.821Z</time></trkpt><trkpt lat="45.36418" lon="7.63872"><ele>450.59999999999997</ele><time>2026-04-06T14:27:21.82Z</time></trkpt><trkpt lat="45.36409" lon="7.6387767"><ele>451.4</ele><time>2026-04-06T14:27:22.825Z</time></trkpt><trkpt lat="45.36399" lon="7.63882"><ele>452.2</ele><time>2026-04-06T14:27:23.825Z</time></trkpt><trkpt lat="45.3638983" lon="7.6388567"><ele>453.0</ele><time>2026-04-06T14:27:24.821Z</time></trkpt><trkpt lat="45.3638167" lon="7.63889"><ele>451.5</ele><time>2026-04-06T14:27:25.828Z</time></trkpt><trkpt lat="45.3637433" lon="7.638925"><ele>450.0</ele><time>2026-04-06T14:27:26.823Z</time></trkpt><trkpt lat="45.3636733" lon="7.6389733"><ele>448.5</ele><time>2026-04-06T14:27:27.82Z</time></trkpt><trkpt lat="45.3636" lon="7.6390167"><ele>447.0</ele><time>2026-04-06T14:27:28.819Z</time></trkpt><trkpt lat="45.363525" lon="7.6390517"><ele>445.5</ele><time>2026-04-06T14:27:29.826Z</time></trkpt><trkpt lat="45.36345" lon="7.639095"><ele>444.0</ele><time>2026-04-06T14:27:30.827Z</time></trkpt><trkpt lat="45.3633767" lon="7.6391617"><ele>444.0</ele><time>2026-04-06T14:27:31.827Z</time></trkpt><trkpt lat="45.36331" lon="7.6392433"><ele>444.0</ele><time>2026-04-06T14:27:32.823Z</time></trkpt><trkpt lat="45.3632483" lon="7.6393383"><ele>444.0</ele><time>2026-04-06T14:27:33.82Z</time></trkpt><trkpt lat="45.363185" lon="7.639445"><ele>444.0</ele><time>2026-04-06T14:27:34.822Z</time></trkpt><trkpt lat="45.3631167" lon="7.6395583"><ele>444.0</ele><time>2026-04-06T14:27:35.82Z</time></trkpt><trkpt lat="45.3630467" lon="7.63967"><ele>440.79999999999995</ele><time>2026-04-06T14:27:36.82Z</time></trkpt><trkpt lat="45.3629817" lon="7.6397883"><ele>437.59999999999997</ele><time>2026-04-06T14:27:37.826Z</time></trkpt><trkpt lat="45.3629167" lon="7.6399067"><ele>434.4</ele><time>2026-04-06T14:27:38.822Z</time></trkpt><trkpt lat="45.36285" lon="7.64001"><ele>431.2</ele><time>2026-04-06T14:27:39.823Z</time></trkpt><trkpt lat="45.3627817" lon="7.6401017"><ele>428.0</ele><time>2026-04-06T14:27:40.823Z</time></trkpt><trkpt lat="45.3627133" lon="7.64019"><ele>427.99999999999994</ele><time>2026-04-06T14:27:41.819Z</time></trkpt><trkpt lat="45.3626483" lon="7.64028"><ele>428.0</ele><time>2026-04-06T14:27:42.825Z</time></trkpt><trkpt lat="45.3625883" lon="7.6403817"><ele>428.0</ele><time>2026-04-06T14:27:43.825Z</time></trkpt><trkpt lat="45.362535" lon="7.6404833"><ele>428.0</ele><time>2026-04-06T14:27:44.818Z</time></trkpt><trkpt lat="45.3624917" lon="7.6405867"><ele>427.99999999999994</ele><time>2026-04-06T14:27:45.819Z</time></trkpt><trkpt lat="45.3624567" lon="7.6406917"><ele>428.0</ele><time>2026-04-06T14:27:46.82Z</time></trkpt><trkpt lat="45.3624283" lon="7.640795"><ele>427.3333333333333</ele><time>2026-04-06T14:27:47.827Z</time></trkpt><trkpt lat="45.3624133" lon="7.6409"><ele>426.66666666666663</ele><time>2026-04-06T14:27:48.82Z</time></trkpt><trkpt lat="45.36241" lon="7.6410067"><ele>426.0</ele><time>2026-04-06T14:27:49.825Z</time></trkpt><trkpt lat="45.3624183" lon="7.6411033"><ele>425.33333333333337</ele><time>2026-04-06T14:27:50.823Z</time></trkpt><trkpt lat="45.36242" lon="7.6412667"><ele>424.6666666666667</ele><time>2026-04-06T14:27:52.824Z</time></trkpt><trkpt lat="45.362365" lon="7.6413417"><ele>424.0</ele><time>2026-04-06T14:27:54.822Z</time></trkpt><trkpt lat="45.362295" lon="7.6412433"><ele>424.0</ele><time>2026-04-06T14:27:56.821Z</time></trkpt><trkpt lat="45.36224" lon="7.6411"><ele>424.0</ele><time>2026-04-06T14:27:58.824Z</time></trkpt><trkpt lat="45.3622017" lon="7.6409383"><ele>424.0</ele><time>2026-04-06T14:28:00.822Z</time></trkpt><trkpt lat="45.362205" lon="7.6408383"><ele>424.0</ele><time>2026-04-06T14:28:01.821Z</time></trkpt><trkpt lat="45.36223" lon="7.6407317"><ele>424.0</ele><time>2026-04-06T14:28:02.824Z</time></trkpt><trkpt lat="45.36225" lon="7.6406267"><ele>424.00000000000006</ele><time>2026-04-06T14:28:03.822Z</time></trkpt><trkpt lat="45.3622583" lon="7.64053"><ele>424.0</ele><time>2026-04-06T14:28:04.821Z</time></trkpt><trkpt lat="45.362255" lon="7.6404367"><ele>424.0</ele><time>2026-04-06T14:28:05.822Z</time></trkpt><trkpt lat="45.362225" lon="7.6403467"><ele>424.0</ele><time>2026-04-06T14:28:07.822Z</time></trkpt><trkpt lat="45.36215" lon="7.640365"><ele>424.00000000000006</ele><time>2026-04-06T14:28:09.821Z</time></trkpt><trkpt lat="45.3621067" lon="7.6404817"><ele>424.0</ele><time>2026-04-06T14:28:10.822Z</time></trkpt><trkpt lat="45.3620583" lon="7.6405983"><ele>420.79999999999995</ele><time>2026-04-06T14:28:11.823Z</time></trkpt><trkpt lat="45.3620083" lon="7.6407"><ele>417.59999999999997</ele><time>2026-04-06T14:28:12.822Z</time></trkpt><trkpt lat="45.361955" lon="7.6408083"><ele>414.4</ele><time>2026-04-06T14:28:13.821Z</time></trkpt><trkpt lat="45.3619067" lon="7.640925"><ele>411.2</ele><time>2026-04-06T14:28:14.824Z</time></trkpt><trkpt lat="45.3618683" lon="7.6410483"><ele>408.0</ele><time>2026-04-06T14:28:15.82Z</time></trkpt><trkpt lat="45.361845" lon="7.641175"><ele>407.0</ele><time>2026-04-06T14:28:16.817Z</time></trkpt><trkpt lat="45.3618367" lon="7.6413083"><ele>406.0</ele><time>2026-04-06T14:28:17.821Z</time></trkpt><trkpt lat="45.3618483" lon="7.6414383"><ele>405.0</ele><time>2026-04-06T14:28:18.822Z</time></trkpt><trkpt lat="45.36187" lon="7.641575"><ele>404.0</ele><time>2026-04-06T14:28:19.817Z</time></trkpt><trkpt lat="45.3619" lon="7.6417067"><ele>403.0</ele><time>2026-04-06T14:28:20.824Z</time></trkpt><trkpt lat="45.3619383" lon="7.6418367"><ele>403.0</ele><time>2026-04-06T14:28:21.818Z</time></trkpt><trkpt lat="45.3619833" lon="7.6419617"><ele>403.0</ele><time>2026-04-06T14:28:22.818Z</time></trkpt><trkpt lat="45.362035" lon="7.6420767"><ele>403.0</ele><time>2026-04-06T14:28:23.826Z</time></trkpt><trkpt lat="45.3620867" lon="7.6421883"><ele>403.0</ele><time>2026-04-06T14:28:24.825Z</time></trkpt><trkpt lat="45.3621267" lon="7.642305"><ele>403.0</ele><time>2026-04-06T14:28:25.821Z</time></trkpt><trkpt lat="45.362155" lon="7.6424383"><ele>403.0</ele><time>2026-04-06T14:28:26.824Z</time></trkpt><trkpt lat="45.36217" lon="7.642575"><ele>403.0</ele><time>2026-04-06T14:28:27.82Z</time></trkpt><trkpt lat="45.3621883" lon="7.6427117"><ele>403.0</ele><time>2026-04-06T14:28:28.823Z</time></trkpt><trkpt lat="45.3622017" lon="7.6428567"><ele>403.0</ele><time>2026-04-06T14:28:29.823Z</time></trkpt><trkpt lat="45.3622133" lon="7.643"><ele>403.0</ele><time>2026-04-06T14:28:30.821Z</time></trkpt><trkpt lat="45.36222" lon="7.6431417"><ele>403.4</ele><time>2026-04-06T14:28:31.825Z</time></trkpt><trkpt lat="45.3622283" lon="7.6432883"><ele>403.79999999999995</ele><time>2026-04-06T14:28:32.819Z</time></trkpt><trkpt lat="45.36224" lon="7.643435"><ele>404.2</ele><time>2026-04-06T14:28:33.822Z</time></trkpt><trkpt lat="45.3622517" lon="7.64358"><ele>404.6</ele><time>2026-04-06T14:28:34.821Z</time></trkpt><trkpt lat="45.3622733" lon="7.643745"><ele>405.0</ele><time>2026-04-06T14:28:35.821Z</time></trkpt><trkpt lat="45.362305" lon="7.6439033"><ele>402.4</ele><time>2026-04-06T14:28:36.82Z</time></trkpt><trkpt lat="45.362345" lon="7.6440467"><ele>399.8</ele><time>2026-04-06T14:28:37.823Z</time></trkpt><trkpt lat="45.362395" lon="7.6441683"><ele>397.20000000000005</ele><time>2026-04-06T14:28:38.82Z</time></trkpt><trkpt lat="45.3624383" lon="7.64427"><ele>394.6</ele><time>2026-04-06T14:28:39.824Z</time></trkpt><trkpt lat="45.3624867" lon="7.6443567"><ele>392.0</ele><time>2026-04-06T14:28:40.823Z</time></trkpt><trkpt lat="45.3625667" lon="7.6444817"><ele>391.3333333333333</ele><time>2026-04-06T14:28:42.822Z</time></trkpt><trkpt lat="45.3625683" lon="7.64462"><ele>390.66666666666663</ele><time>2026-04-06T14:28:44.822Z</time></trkpt><trkpt lat="45.3624817" lon="7.644745"><ele>390.0</ele><time>2026-04-06T14:28:46.821Z</time></trkpt><trkpt lat="45.36243" lon="7.6448017"><ele>389.33333333333337</ele><time>2026-04-06T14:28:47.82Z</time></trkpt><trkpt lat="45.362375" lon="7.6448683"><ele>388.6666666666667</ele><time>2026-04-06T14:28:48.826Z</time></trkpt><trkpt lat="45.3623283" lon="7.64495"><ele>388.0</ele><time>2026-04-06T14:28:49.828Z</time></trkpt><trkpt lat="45.3622883" lon="7.64503"><ele>388.0</ele><time>2026-04-06T14:28:50.82Z</time></trkpt><trkpt lat="45.36225" lon="7.6451167"><ele>388.0</ele><time>2026-04-06T14:28:51.822Z</time></trkpt><trkpt lat="45.3622167" lon="7.645205"><ele>388.0</ele><time>2026-04-06T14:28:52.82Z</time></trkpt><trkpt lat="45.3621833" lon="7.6452867"><ele>388.0</ele><time>2026-04-06T14:28:53.829Z</time></trkpt><trkpt lat="45.3621533" lon="7.6453717"><ele>388.0</ele><time>2026-04-06T14:28:54.821Z</time></trkpt><trkpt lat="45.3621267" lon="7.645455"><ele>388.0</ele><time>2026-04-06T14:28:55.82Z</time></trkpt><trkpt lat="45.3621017" lon="7.64554"><ele>388.0</ele><time>2026-04-06T14:28:56.821Z</time></trkpt><trkpt lat="45.3620833" lon="7.645635"><ele>387.4285714285714</ele><time>2026-04-06T14:28:57.823Z</time></trkpt><trkpt lat="45.3620683" lon="7.6457317"><ele>386.8571428571429</ele><time>2026-04-06T14:28:58.82Z</time></trkpt><trkpt lat="45.3620533" lon="7.645835"><ele>386.2857142857143</ele><time>2026-04-06T14:28:59.823Z</time></trkpt><trkpt lat="45.3620333" lon="7.6459367"><ele>385.71428571428567</ele><time>2026-04-06T14:29:00.821Z</time></trkpt><trkpt lat="45.3620217" lon="7.6460367"><ele>385.1428571428571</ele><time>2026-04-06T14:29:01.822Z</time></trkpt><trkpt lat="45.36201" lon="7.6461283"><ele>384.57142857142856</ele><time>2026-04-06T14:29:02.821Z</time></trkpt><trkpt lat="45.361995" lon="7.6462183"><ele>384.0</ele><time>2026-04-06T14:29:03.822Z</time></trkpt><trkpt lat="45.361975" lon="7.6463033"><ele>382.8333333333333</ele><time>2026-04-06T14:29:04.822Z</time></trkpt><trkpt lat="45.3619217" lon="7.6464633"><ele>381.6666666666667</ele><time>2026-04-06T14:29:06.826Z</time></trkpt><trkpt lat="45.361895" lon="7.6465467"><ele>380.5</ele><time>2026-04-06T14:29:07.82Z</time></trkpt><trkpt lat="45.3618683" lon="7.646635"><ele>379.33333333333337</ele><time>2026-04-06T14:29:08.822Z</time></trkpt><trkpt lat="45.3618483" lon="7.6467233"><ele>378.1666666666667</ele><time>2026-04-06T14:29:09.82Z</time></trkpt><trkpt lat="45.361835" lon="7.6468133"><ele>377.0</ele><time>2026-04-06T14:29:10.82Z</time></trkpt><trkpt lat="45.361825" lon="7.6469067"><ele>376.57142857142856</ele><time>2026-04-06T14:29:11.821Z</time></trkpt><trkpt lat="45.3618233" lon="7.6470017"><ele>376.1428571428571</ele><time>2026-04-06T14:29:12.821Z</time></trkpt><trkpt lat="45.3618283" lon="7.647095"><ele>375.71428571428567</ele><time>2026-04-06T14:29:13.823Z</time></trkpt><trkpt lat="45.3618383" lon="7.647185"><ele>375.2857142857143</ele><time>2026-04-06T14:29:14.825Z</time></trkpt><trkpt lat="45.36185" lon="7.6472783"><ele>374.8571428571429</ele><time>2026-04-06T14:29:15.82Z</time></trkpt><trkpt lat="45.3618567" lon="7.6473717"><ele>374.4285714285714</ele><time>2026-04-06T14:29:16.82Z</time></trkpt><trkpt lat="45.3618633" lon="7.6474617"><ele>374.0</ele><time>2026-04-06T14:29:17.82Z</time></trkpt><trkpt lat="45.361885" lon="7.6476083"><ele>374.0</ele><time>2026-04-06T14:29:19.824Z</time></trkpt><trkpt lat="45.3618983" lon="7.6477183"><ele>374.0</ele><time>2026-04-06T14:29:21.822Z</time></trkpt><trkpt lat="45.36185" lon="7.647805"><ele>374.0</ele><time>2026-04-06T14:29:23.824Z</time></trkpt><trkpt lat="45.361755" lon="7.6477883"><ele>374.0</ele><time>2026-04-06T14:29:25.828Z</time></trkpt><trkpt lat="45.3616517" lon="7.6477367"><ele>374.0</ele><time>2026-04-06T14:29:27.823Z</time></trkpt><trkpt lat="45.361535" lon="7.647685"><ele>374.0</ele><time>2026-04-06T14:29:29.822Z</time></trkpt><trkpt lat="45.36147" lon="7.6476617"><ele>374.0</ele><time>2026-04-06T14:29:30.825Z</time></trkpt><trkpt lat="45.361405" lon="7.647635"><ele>374.0</ele><time>2026-04-06T14:29:31.825Z</time></trkpt><trkpt lat="45.36134" lon="7.6476067"><ele>374.0</ele><time>2026-04-06T14:29:32.82Z</time></trkpt><trkpt lat="45.3612733" lon="7.647575"><ele>374.0</ele><time>2026-04-06T14:29:33.821Z</time></trkpt><trkpt lat="45.3612033" lon="7.6475417"><ele>374.0</ele><time>2026-04-06T14:29:34.823Z</time></trkpt><trkpt lat="45.361135" lon="7.6475083"><ele>374.0</ele><time>2026-04-06T14:29:35.822Z</time></trkpt><trkpt lat="45.3610683" lon="7.6474733"><ele>373.4285714285714</ele><time>2026-04-06T14:29:36.821Z</time></trkpt><trkpt lat="45.361" lon="7.647435"><ele>372.8571428571429</ele><time>2026-04-06T14:29:37.829Z</time></trkpt><trkpt lat="45.3609317" lon="7.6474"><ele>372.2857142857143</ele><time>2026-04-06T14:29:38.822Z</time></trkpt><trkpt lat="45.3608633" lon="7.647365"><ele>371.71428571428567</ele><time>2026-04-06T14:29:39.82Z</time></trkpt><trkpt lat="45.360795" lon="7.64733"><ele>371.1428571428571</ele><time>2026-04-06T14:29:40.823Z</time></trkpt><trkpt lat="45.360725" lon="7.647295"><ele>370.57142857142856</ele><time>2026-04-06T14:29:41.823Z</time></trkpt><trkpt lat="45.3606567" lon="7.6472617"><ele>370.0</ele><time>2026-04-06T14:29:42.822Z</time></trkpt><trkpt lat="45.36059" lon="7.647225"><ele>369.85714285714283</ele><time>2026-04-06T14:29:43.822Z</time></trkpt><trkpt lat="45.3605233" lon="7.647195"><ele>369.7142857142857</ele><time>2026-04-06T14:29:44.823Z</time></trkpt><trkpt lat="45.3604583" lon="7.6471667"><ele>369.57142857142856</ele><time>2026-04-06T14:29:45.823Z</time></trkpt><trkpt lat="45.3603967" lon="7.6471333"><ele>369.42857142857144</ele><time>2026-04-06T14:29:46.826Z</time></trkpt><trkpt lat="45.3603367" lon="7.6470967"><ele>369.2857142857143</ele><time>2026-04-06T14:29:47.822Z</time></trkpt><trkpt lat="45.3602767" lon="7.647055"><ele>369.1428571428571</ele><time>2026-04-06T14:29:48.823Z</time></trkpt><trkpt lat="45.3602183" lon="7.6470133"><ele>369.0</ele><time>2026-04-06T14:29:49.824Z</time></trkpt><trkpt lat="45.36016" lon="7.6469683"><ele>369.0</ele><time>2026-04-06T14:29:50.825Z</time></trkpt><trkpt lat="45.36005" lon="7.6468817"><ele>369.0</ele><time>2026-04-06T14:29:52.822Z</time></trkpt><trkpt lat="45.3599917" lon="7.6468383"><ele>369.0</ele><time>2026-04-06T14:29:53.821Z</time></trkpt><trkpt lat="45.359935" lon="7.6467967"><ele>369.0</ele><time>2026-04-06T14:29:54.819Z</time></trkpt><trkpt lat="45.3598783" lon="7.6467567"><ele>369.0</ele><time>2026-04-06T14:29:55.832Z</time></trkpt><trkpt lat="45.359765" lon="7.6466867"><ele>369.0</ele><time>2026-04-06T14:29:57.822Z</time></trkpt><trkpt lat="45.359655" lon="7.6466133"><ele>368.0</ele><time>2026-04-06T14:29:59.819Z</time></trkpt><trkpt lat="45.359545" lon="7.6465467"><ele>367.0</ele><time>2026-04-06T14:30:01.822Z</time></trkpt><trkpt lat="45.3594383" lon="7.6464833"><ele>366.0</ele><time>2026-04-06T14:30:03.824Z</time></trkpt><trkpt lat="45.3593317" lon="7.6464017"><ele>365.0</ele><time>2026-04-06T14:30:05.821Z</time></trkpt><trkpt lat="45.3592267" lon="7.6463183"><ele>365.0</ele><time>2026-04-06T14:30:07.825Z</time></trkpt><trkpt lat="45.359125" lon="7.64622"><ele>365.0</ele><time>2026-04-06T14:30:09.822Z</time></trkpt><trkpt lat="45.3590233" lon="7.6461217"><ele>365.0</ele><time>2026-04-06T14:30:11.825Z</time></trkpt><trkpt lat="45.3589233" lon="7.6460233"><ele>365.0</ele><time>2026-04-06T14:30:13.824Z</time></trkpt><trkpt lat="45.3588233" lon="7.64593"><ele>365.0</ele><time>2026-04-06T14:30:15.826Z</time></trkpt><trkpt lat="45.358715" lon="7.6458383"><ele>365.0</ele><time>2026-04-06T14:30:17.823Z</time></trkpt><trkpt lat="45.35866" lon="7.6457933"><ele>365.0</ele><time>2026-04-06T14:30:18.823Z</time></trkpt><trkpt lat="45.3585517" lon="7.64571"><ele>365.0</ele><time>2026-04-06T14:30:20.822Z</time></trkpt><trkpt lat="45.35844" lon="7.6456317"><ele>365.0</ele><time>2026-04-06T14:30:22.822Z</time></trkpt><trkpt lat="45.3583333" lon="7.6455433"><ele>365.0</ele><time>2026-04-06T14:30:24.822Z</time></trkpt><trkpt lat="45.3582433" lon="7.6454367"><ele>365.0</ele><time>2026-04-06T14:30:26.824Z</time></trkpt><trkpt lat="45.358165" lon="7.645315"><ele>365.0</ele><time>2026-04-06T14:30:28.824Z</time></trkpt><trkpt lat="45.35809" lon="7.64519"><ele>365.0</ele><time>2026-04-06T14:30:30.822Z</time></trkpt><trkpt lat="45.3580183" lon="7.6450667"><ele>365.2</ele><time>2026-04-06T14:30:32.822Z</time></trkpt><trkpt lat="45.3579433" lon="7.6449383"><ele>365.4</ele><time>2026-04-06T14:30:34.823Z</time></trkpt><trkpt lat="45.3578683" lon="7.6448133"><ele>365.6</ele><time>2026-04-06T14:30:36.823Z</time></trkpt><trkpt lat="45.357785" lon="7.6447083"><ele>365.8</ele><time>2026-04-06T14:30:38.824Z</time></trkpt><trkpt lat="45.3577017" lon="7.6446267"><ele>366.0</ele><time>2026-04-06T14:30:40.821Z</time></trkpt><trkpt lat="45.3576033" lon="7.644565"><ele>366.0</ele><time>2026-04-06T14:30:42.823Z</time></trkpt><trkpt lat="45.3575117" lon="7.6445033"><ele>366.0</ele><time>2026-04-06T14:30:44.824Z</time></trkpt><trkpt lat="45.357415" lon="7.6444383"><ele>366.0</ele><time>2026-04-06T14:30:46.82Z</time></trkpt><trkpt lat="45.3573233" lon="7.6443533"><ele>366.0</ele><time>2026-04-06T14:30:48.822Z</time></trkpt><trkpt lat="45.357235" lon="7.6442433"><ele>366.0</ele><time>2026-04-06T14:30:50.824Z</time></trkpt><trkpt lat="45.3571583" lon="7.64412"><ele>366.20000000000005</ele><time>2026-04-06T14:30:52.822Z</time></trkpt><trkpt lat="45.3570817" lon="7.64398"><ele>366.40000000000003</ele><time>2026-04-06T14:30:54.827Z</time></trkpt><trkpt lat="45.3570433" lon="7.6439083"><ele>366.6</ele><time>2026-04-06T14:30:55.822Z</time></trkpt><trkpt lat="45.3569733" lon="7.6437683"><ele>366.8</ele><time>2026-04-06T14:30:57.823Z</time></trkpt><trkpt lat="45.35691" lon="7.6436217"><ele>367.0</ele><time>2026-04-06T14:30:59.823Z</time></trkpt><trkpt lat="45.3568833" lon="7.64354"><ele>367.0</ele><time>2026-04-06T14:31:00.822Z</time></trkpt><trkpt lat="45.3568517" lon="7.6434583"><ele>367.0</ele><time>2026-04-06T14:31:01.821Z</time></trkpt><trkpt lat="45.356795" lon="7.6433067"><ele>367.0</ele><time>2026-04-06T14:31:03.822Z</time></trkpt><trkpt lat="45.35673" lon="7.6431683"><ele>367.0</ele><time>2026-04-06T14:31:05.825Z</time></trkpt><trkpt lat="45.356645" lon="7.6430467"><ele>367.0</ele><time>2026-04-06T14:31:07.823Z</time></trkpt><trkpt lat="45.35654" lon="7.6429533"><ele>367.0</ele><time>2026-04-06T14:31:09.825Z</time></trkpt><trkpt lat="45.3564317" lon="7.642865"><ele>367.0</ele><time>2026-04-06T14:31:11.824Z</time></trkpt><trkpt lat="45.356375" lon="7.6428167"><ele>367.0</ele><time>2026-04-06T14:31:12.825Z</time></trkpt><trkpt lat="45.35632" lon="7.6427717"><ele>367.0</ele><time>2026-04-06T14:31:13.823Z</time></trkpt><trkpt lat="45.3562167" lon="7.64268"><ele>367.0</ele><time>2026-04-06T14:31:15.822Z</time></trkpt><trkpt lat="45.3561617" lon="7.6426317"><ele>367.0</ele><time>2026-04-06T14:31:16.821Z</time></trkpt><trkpt lat="45.3561067" lon="7.642585"><ele>367.0</ele><time>2026-04-06T14:31:17.823Z</time></trkpt><trkpt lat="45.3560517" lon="7.64254"><ele>367.0</ele><time>2026-04-06T14:31:18.818Z</time></trkpt><trkpt lat="45.3559433" lon="7.6424583"><ele>367.0</ele><time>2026-04-06T14:31:20.825Z</time></trkpt><trkpt lat="45.355885" lon="7.6424183"><ele>367.0</ele><time>2026-04-06T14:31:21.821Z</time></trkpt><trkpt lat="45.3557717" lon="7.6423583"><ele>367.0</ele><time>2026-04-06T14:31:23.824Z</time></trkpt><trkpt lat="45.355665" lon="7.642305"><ele>367.0</ele><time>2026-04-06T14:31:25.827Z</time></trkpt><trkpt lat="45.3555617" lon="7.6422317"><ele>367.0</ele><time>2026-04-06T14:31:27.822Z</time></trkpt><trkpt lat="45.3554683" lon="7.6421467"><ele>367.0</ele><time>2026-04-06T14:31:29.824Z</time></trkpt><trkpt lat="45.3553733" lon="7.6420583"><ele>367.0</ele><time>2026-04-06T14:31:31.824Z</time></trkpt><trkpt lat="45.355275" lon="7.6419717"><ele>367.20000000000005</ele><time>2026-04-06T14:31:33.824Z</time></trkpt><trkpt lat="45.3551783" lon="7.6418767"><ele>367.4</ele><time>2026-04-06T14:31:35.823Z</time></trkpt><trkpt lat="45.3551033" lon="7.641765"><ele>367.6</ele><time>2026-04-06T14:31:37.825Z</time></trkpt><trkpt lat="45.3549867" lon="7.641725"><ele>367.79999999999995</ele><time>2026-04-06T14:31:39.823Z</time></trkpt><trkpt lat="45.3549233" lon="7.64173"><ele>368.0</ele><time>2026-04-06T14:31:40.821Z</time></trkpt><trkpt lat="45.3548567" lon="7.641755"><ele>368.0</ele><time>2026-04-06T14:31:41.831Z</time></trkpt><trkpt lat="45.3547967" lon="7.6417883"><ele>368.0</ele><time>2026-04-06T14:31:42.822Z</time></trkpt><trkpt lat="45.35473" lon="7.6418217"><ele>368.0</ele><time>2026-04-06T14:31:43.82Z</time></trkpt><trkpt lat="45.354665" lon="7.6418617"><ele>368.0</ele><time>2026-04-06T14:31:44.821Z</time></trkpt><trkpt lat="45.3546033" lon="7.6418983"><ele>368.0</ele><time>2026-04-06T14:31:45.821Z</time></trkpt><trkpt lat="45.35454" lon="7.6419433"><ele>368.0</ele><time>2026-04-06T14:31:46.824Z</time></trkpt><trkpt lat="45.3544767" lon="7.6419833"><ele>368.0</ele><time>2026-04-06T14:31:47.818Z</time></trkpt><trkpt lat="45.3544" lon="7.64202"><ele>367.1666666666667</ele><time>2026-04-06T14:31:48.821Z</time></trkpt><trkpt lat="45.35433" lon="7.6420583"><ele>366.33333333333337</ele><time>2026-04-06T14:31:49.823Z</time></trkpt><trkpt lat="45.3542533" lon="7.6420917"><ele>365.5</ele><time>2026-04-06T14:31:50.823Z</time></trkpt><trkpt lat="45.3541783" lon="7.6421167"><ele>364.6666666666667</ele><time>2026-04-06T14:31:51.829Z</time></trkpt><trkpt lat="45.3541017" lon="7.6421333"><ele>363.8333333333333</ele><time>2026-04-06T14:31:52.821Z</time></trkpt><trkpt lat="45.3540267" lon="7.6421467"><ele>363.0</ele><time>2026-04-06T14:31:53.823Z</time></trkpt><trkpt lat="45.3539483" lon="7.6421367"><ele>363.1666666666667</ele><time>2026-04-06T14:31:54.822Z</time></trkpt><trkpt lat="45.35387" lon="7.6421267"><ele>363.3333333333333</ele><time>2026-04-06T14:31:55.818Z</time></trkpt><trkpt lat="45.3537983" lon="7.6421"><ele>363.5</ele><time>2026-04-06T14:31:56.822Z</time></trkpt><trkpt lat="45.3537283" lon="7.642075"><ele>363.66666666666663</ele><time>2026-04-06T14:31:57.824Z</time></trkpt><trkpt lat="45.3536633" lon="7.6420483"><ele>363.8333333333333</ele><time>2026-04-06T14:31:58.823Z</time></trkpt><trkpt lat="45.3536017" lon="7.6420183"><ele>364.0</ele><time>2026-04-06T14:31:59.825Z</time></trkpt><trkpt lat="45.3534867" lon="7.6419583"><ele>364.0</ele><time>2026-04-06T14:32:01.828Z</time></trkpt><trkpt lat="45.35337" lon="7.6418983"><ele>364.0</ele><time>2026-04-06T14:32:03.819Z</time></trkpt><trkpt lat="45.3533083" lon="7.6418767"><ele>364.0</ele><time>2026-04-06T14:32:04.821Z</time></trkpt><trkpt lat="45.353185" lon="7.6418417"><ele>364.0</ele><time>2026-04-06T14:32:06.822Z</time></trkpt><trkpt lat="45.35312" lon="7.6418233"><ele>364.0</ele><time>2026-04-06T14:32:07.824Z</time></trkpt><trkpt lat="45.3530567" lon="7.641805"><ele>364.0</ele><time>2026-04-06T14:32:08.823Z</time></trkpt><trkpt lat="45.3529933" lon="7.6417883"><ele>363.42857142857144</ele><time>2026-04-06T14:32:09.823Z</time></trkpt><trkpt lat="45.35293" lon="7.6417683"><ele>362.8571428571429</ele><time>2026-04-06T14:32:10.824Z</time></trkpt><trkpt lat="45.3528667" lon="7.6417533"><ele>362.2857142857143</ele><time>2026-04-06T14:32:11.827Z</time></trkpt><trkpt lat="45.3528" lon="7.6417367"><ele>361.7142857142857</ele><time>2026-04-06T14:32:12.827Z</time></trkpt><trkpt lat="45.3527333" lon="7.6417217"><ele>361.14285714285717</ele><time>2026-04-06T14:32:13.825Z</time></trkpt><trkpt lat="45.3526667" lon="7.6417117"><ele>360.57142857142856</ele><time>2026-04-06T14:32:14.823Z</time></trkpt><trkpt lat="45.3526" lon="7.6416983"><ele>360.0</ele><time>2026-04-06T14:32:15.826Z</time></trkpt><trkpt lat="45.3525333" lon="7.641685"><ele>360.0</ele><time>2026-04-06T14:32:16.823Z</time></trkpt><trkpt lat="45.35247" lon="7.6416667"><ele>360.0</ele><time>2026-04-06T14:32:17.824Z</time></trkpt><trkpt lat="45.3524083" lon="7.6416483"><ele>360.0</ele><time>2026-04-06T14:32:18.824Z</time></trkpt><trkpt lat="45.3523433" lon="7.6416283"><ele>360.0</ele><time>2026-04-06T14:32:19.823Z</time></trkpt><trkpt lat="45.3522817" lon="7.6416067"><ele>360.0</ele><time>2026-04-06T14:32:20.823Z</time></trkpt><trkpt lat="45.3522183" lon="7.6415867"><ele>360.0</ele><time>2026-04-06T14:32:21.825Z</time></trkpt><trkpt lat="45.352155" lon="7.64156"><ele>360.0</ele><time>2026-04-06T14:32:22.82Z</time></trkpt><trkpt lat="45.3520933" lon="7.6415333"><ele>359.2857142857143</ele><time>2026-04-06T14:32:23.823Z</time></trkpt><trkpt lat="45.352035" lon="7.6414983"><ele>358.5714285714286</ele><time>2026-04-06T14:32:24.825Z</time></trkpt><trkpt lat="45.351975" lon="7.6414583"><ele>357.8571428571429</ele><time>2026-04-06T14:32:25.827Z</time></trkpt><trkpt lat="45.351915" lon="7.6414183"><ele>357.1428571428571</ele><time>2026-04-06T14:32:26.823Z</time></trkpt><trkpt lat="45.3518533" lon="7.641375"><ele>356.42857142857144</ele><time>2026-04-06T14:32:27.825Z</time></trkpt><trkpt lat="45.35179" lon="7.6413333"><ele>355.7142857142857</ele><time>2026-04-06T14:32:28.825Z</time></trkpt><trkpt lat="45.3517267" lon="7.6412917"><ele>355.0</ele><time>2026-04-06T14:32:29.823Z</time></trkpt><trkpt lat="45.3516617" lon="7.6412467"><ele>355.0</ele><time>2026-04-06T14:32:30.828Z</time></trkpt><trkpt lat="45.351595" lon="7.6411983"><ele>355.0</ele><time>2026-04-06T14:32:31.824Z</time></trkpt><trkpt lat="45.3515267" lon="7.6411417"><ele>355.0</ele><time>2026-04-06T14:32:32.823Z</time></trkpt><trkpt lat="45.35146" lon="7.641085"><ele>355.0</ele><time>2026-04-06T14:32:33.823Z</time></trkpt><trkpt lat="45.3513917" lon="7.64103"><ele>355.0</ele><time>2026-04-06T14:32:34.821Z</time></trkpt><trkpt lat="45.3513233" lon="7.6409767"><ele>355.0</ele><time>2026-04-06T14:32:35.823Z</time></trkpt><trkpt lat="45.3512467" lon="7.64093"><ele>355.16666666666663</ele><time>2026-04-06T14:32:36.824Z</time></trkpt><trkpt lat="45.35117" lon="7.6408983"><ele>355.3333333333333</ele><time>2026-04-06T14:32:37.827Z</time></trkpt><trkpt lat="45.3510933" lon="7.64088"><ele>355.5</ele><time>2026-04-06T14:32:38.823Z</time></trkpt><trkpt lat="45.3510117" lon="7.640875"><ele>355.6666666666667</ele><time>2026-04-06T14:32:39.821Z</time></trkpt><trkpt lat="45.3509417" lon="7.6409133"><ele>355.83333333333337</ele><time>2026-04-06T14:32:40.819Z</time></trkpt><trkpt lat="45.3508733" lon="7.640965"><ele>356.0</ele><time>2026-04-06T14:32:41.825Z</time></trkpt><trkpt lat="45.3508083" lon="7.6410233"><ele>355.99999999999994</ele><time>2026-04-06T14:32:42.824Z</time></trkpt><trkpt lat="45.35075" lon="7.6410867"><ele>356.0</ele><time>2026-04-06T14:32:43.826Z</time></trkpt><trkpt lat="45.3506883" lon="7.6411433"><ele>356.0</ele><time>2026-04-06T14:32:44.818Z</time></trkpt><trkpt lat="45.3506267" lon="7.6411867"><ele>356.0</ele><time>2026-04-06T14:32:45.825Z</time></trkpt><trkpt lat="45.3505617" lon="7.6412317"><ele>356.0</ele><time>2026-04-06T14:32:46.824Z</time></trkpt><trkpt lat="45.3504983" lon="7.641275"><ele>355.99999999999994</ele><time>2026-04-06T14:32:47.82Z</time></trkpt><trkpt lat="45.350435" lon="7.641315"><ele>356.0</ele><time>2026-04-06T14:32:48.824Z</time></trkpt><trkpt lat="45.350375" lon="7.6413583"><ele>355.4285714285714</ele><time>2026-04-06T14:32:49.821Z</time></trkpt><trkpt lat="45.350315" lon="7.6414"><ele>354.85714285714283</ele><time>2026-04-06T14:32:50.821Z</time></trkpt><trkpt lat="45.350255" lon="7.6414467"><ele>354.2857142857143</ele><time>2026-04-06T14:32:51.823Z</time></trkpt><trkpt lat="45.3501967" lon="7.6414967"><ele>353.71428571428567</ele><time>2026-04-06T14:32:52.828Z</time></trkpt><trkpt lat="45.3501383" lon="7.6415483"><ele>353.1428571428571</ele><time>2026-04-06T14:32:53.824Z</time></trkpt><trkpt lat="45.3500783" lon="7.6415933"><ele>352.57142857142856</ele><time>2026-04-06T14:32:54.825Z</time></trkpt><trkpt lat="45.3500183" lon="7.641635"><ele>352.0</ele><time>2026-04-06T14:32:55.817Z</time></trkpt><trkpt lat="45.34996" lon="7.6416733"><ele>352.0</ele><time>2026-04-06T14:32:56.817Z</time></trkpt><trkpt lat="45.34984" lon="7.6417233"><ele>352.0</ele><time>2026-04-06T14:32:58.819Z</time></trkpt><trkpt lat="45.3497783" lon="7.641755"><ele>352.0</ele><time>2026-04-06T14:32:59.825Z</time></trkpt><trkpt lat="45.3497183" lon="7.641785"><ele>352.0</ele><time>2026-04-06T14:33:00.823Z</time></trkpt><trkpt lat="45.3495983" lon="7.6418383"><ele>352.0</ele><time>2026-04-06T14:33:02.822Z</time></trkpt><trkpt lat="45.3494783" lon="7.64188"><ele>351.75</ele><time>2026-04-06T14:33:04.821Z</time></trkpt><trkpt lat="45.3493567" lon="7.641925"><ele>351.5</ele><time>2026-04-06T14:33:06.822Z</time></trkpt><trkpt lat="45.3492367" lon="7.641975"><ele>351.25</ele><time>2026-04-06T14:33:08.822Z</time></trkpt><trkpt lat="45.3491167" lon="7.6420217"><ele>351.0</ele><time>2026-04-06T14:33:10.826Z</time></trkpt><trkpt lat="45.348995" lon="7.6420767"><ele>350.3333333333333</ele><time>2026-04-06T14:33:12.821Z</time></trkpt><trkpt lat="45.348875" lon="7.6421317"><ele>349.6666666666667</ele><time>2026-04-06T14:33:14.821Z</time></trkpt><trkpt lat="45.3488133" lon="7.64216"><ele>349.0</ele><time>2026-04-06T14:33:15.823Z</time></trkpt><trkpt lat="45.3487517" lon="7.6421883"><ele>348.33333333333337</ele><time>2026-04-06T14:33:16.82Z</time></trkpt><trkpt lat="45.3486267" lon="7.6422183"><ele>347.6666666666667</ele><time>2026-04-06T14:33:18.819Z</time></trkpt><trkpt lat="45.34856" lon="7.642225"><ele>347.0</ele><time>2026-04-06T14:33:19.818Z</time></trkpt><trkpt lat="45.3484967" lon="7.6422317"><ele>347.0</ele><time>2026-04-06T14:33:20.82Z</time></trkpt><trkpt lat="45.348375" lon="7.6422417"><ele>347.0</ele><time>2026-04-06T14:33:22.824Z</time></trkpt><trkpt lat="45.3482533" lon="7.6422267"><ele>347.0</ele><time>2026-04-06T14:33:24.817Z</time></trkpt><trkpt lat="45.3481317" lon="7.6422067"><ele>347.0</ele><time>2026-04-06T14:33:26.82Z</time></trkpt><trkpt lat="45.348015" lon="7.6421783"><ele>346.8</ele><time>2026-04-06T14:33:28.82Z</time></trkpt><trkpt lat="45.3479017" lon="7.642125"><ele>346.6</ele><time>2026-04-06T14:33:30.821Z</time></trkpt><trkpt lat="45.3478383" lon="7.642095"><ele>346.40000000000003</ele><time>2026-04-06T14:33:31.825Z</time></trkpt><trkpt lat="45.3477217" lon="7.6420283"><ele>346.20000000000005</ele><time>2026-04-06T14:33:33.823Z</time></trkpt><trkpt lat="45.3476633" lon="7.6419917"><ele>346.0</ele><time>2026-04-06T14:33:34.822Z</time></trkpt><trkpt lat="45.347545" lon="7.641925"><ele>346.0</ele><time>2026-04-06T14:33:36.82Z</time></trkpt><trkpt lat="45.3474283" lon="7.6418517"><ele>346.0</ele><time>2026-04-06T14:33:38.825Z</time></trkpt><trkpt lat="45.3473167" lon="7.6417817"><ele>346.0</ele><time>2026-04-06T14:33:40.82Z</time></trkpt><trkpt lat="45.347205" lon="7.64171"><ele>346.0</ele><time>2026-04-06T14:33:42.823Z</time></trkpt><trkpt lat="45.347095" lon="7.6416417"><ele>345.25</ele><time>2026-04-06T14:33:44.819Z</time></trkpt><trkpt lat="45.34698" lon="7.6415783"><ele>344.5</ele><time>2026-04-06T14:33:46.824Z</time></trkpt><trkpt lat="45.34687" lon="7.64151"><ele>343.75</ele><time>2026-04-06T14:33:48.822Z</time></trkpt><trkpt lat="45.3467617" lon="7.6414383"><ele>343.0</ele><time>2026-04-06T14:33:50.819Z</time></trkpt><trkpt lat="45.3466433" lon="7.64138"><ele>343.0</ele><time>2026-04-06T14:33:52.82Z</time></trkpt><trkpt lat="45.3465233" lon="7.6413267"><ele>343.0</ele><time>2026-04-06T14:33:54.817Z</time></trkpt><trkpt lat="45.3464617" lon="7.6413"><ele>343.0</ele><time>2026-04-06T14:33:55.826Z</time></trkpt><trkpt lat="45.3463433" lon="7.6412533"><ele>343.0</ele><time>2026-04-06T14:33:57.825Z</time></trkpt><trkpt lat="45.3462233" lon="7.6412217"><ele>343.0</ele><time>2026-04-06T14:33:59.82Z</time></trkpt><trkpt lat="45.3461583" lon="7.6412167"><ele>343.16666666666663</ele><time>2026-04-06T14:34:00.824Z</time></trkpt><trkpt lat="45.3460333" lon="7.6412367"><ele>343.3333333333333</ele><time>2026-04-06T14:34:02.826Z</time></trkpt><trkpt lat="45.34591" lon="7.641275"><ele>343.5</ele><time>2026-04-06T14:34:04.827Z</time></trkpt><trkpt lat="45.3458483" lon="7.6413"><ele>343.6666666666667</ele><time>2026-04-06T14:34:05.825Z</time></trkpt><trkpt lat="45.345785" lon="7.6413317"><ele>343.83333333333337</ele><time>2026-04-06T14:34:06.824Z</time></trkpt><trkpt lat="45.345725" lon="7.6413683"><ele>344.0</ele><time>2026-04-06T14:34:07.826Z</time></trkpt><trkpt lat="45.3456633" lon="7.6414067"><ele>344.0</ele><time>2026-04-06T14:34:08.821Z</time></trkpt><trkpt lat="45.3456017" lon="7.64144"><ele>344.0</ele><time>2026-04-06T14:34:09.826Z</time></trkpt><trkpt lat="45.3455417" lon="7.6414717"><ele>344.0</ele><time>2026-04-06T14:34:10.82Z</time></trkpt><trkpt lat="45.3454233" lon="7.6415367"><ele>344.0</ele><time>2026-04-06T14:34:12.823Z</time></trkpt><trkpt lat="45.34536" lon="7.6415667"><ele>344.0</ele><time>2026-04-06T14:34:13.823Z</time></trkpt><trkpt lat="45.3452967" lon="7.6415883"><ele>344.0</ele><time>2026-04-06T14:34:14.825Z</time></trkpt><trkpt lat="45.345175" lon="7.6416017"><ele>343.75</ele><time>2026-04-06T14:34:16.824Z</time></trkpt><trkpt lat="45.3450583" lon="7.641575"><ele>343.5</ele><time>2026-04-06T14:34:18.819Z</time></trkpt><trkpt lat="45.3449433" lon="7.6415217"><ele>343.25</ele><time>2026-04-06T14:34:20.824Z</time></trkpt><trkpt lat="45.3448317" lon="7.6414617"><ele>343.0</ele><time>2026-04-06T14:34:22.819Z</time></trkpt><trkpt lat="45.3447217" lon="7.6414017"><ele>342.2</ele><time>2026-04-06T14:34:24.822Z</time></trkpt><trkpt lat="45.344615" lon="7.6413567"><ele>341.4</ele><time>2026-04-06T14:34:26.821Z</time></trkpt><trkpt lat="45.344515" lon="7.64131"><ele>340.59999999999997</ele><time>2026-04-06T14:34:28.821Z</time></trkpt><trkpt lat="45.3444183" lon="7.6412567"><ele>339.79999999999995</ele><time>2026-04-06T14:34:30.819Z</time></trkpt><trkpt lat="45.34432" lon="7.6412017"><ele>339.0</ele><time>2026-04-06T14:34:32.823Z</time></trkpt><trkpt lat="45.3442217" lon="7.6411483"><ele>339.2</ele><time>2026-04-06T14:34:34.825Z</time></trkpt><trkpt lat="45.3441183" lon="7.6410867"><ele>339.4</ele><time>2026-04-06T14:34:36.821Z</time></trkpt><trkpt lat="45.3440133" lon="7.6410267"><ele>339.6</ele><time>2026-04-06T14:34:38.82Z</time></trkpt><trkpt lat="45.3439183" lon="7.640955"><ele>339.8</ele><time>2026-04-06T14:34:40.821Z</time></trkpt><trkpt lat="45.343825" lon="7.6408817"><ele>340.0</ele><time>2026-04-06T14:34:42.819Z</time></trkpt><trkpt lat="45.3437333" lon="7.6408017"><ele>340.0</ele><time>2026-04-06T14:34:44.818Z</time></trkpt><trkpt lat="45.34365" lon="7.6406933"><ele>340.0</ele><time>2026-04-06T14:34:46.824Z</time></trkpt><trkpt lat="45.3435617" lon="7.6405867"><ele>340.0</ele><time>2026-04-06T14:34:48.825Z</time></trkpt><trkpt lat="45.3434717" lon="7.6404817"><ele>340.0</ele><time>2026-04-06T14:34:50.826Z</time></trkpt><trkpt lat="45.343385" lon="7.6403733"><ele>340.25</ele><time>2026-04-06T14:34:52.823Z</time></trkpt><trkpt lat="45.3433033" lon="7.6402667"><ele>340.5</ele><time>2026-04-06T14:34:54.821Z</time></trkpt><trkpt lat="45.343215" lon="7.6401633"><ele>340.75</ele><time>2026-04-06T14:34:56.825Z</time></trkpt><trkpt lat="45.3431217" lon="7.6400583"><ele>341.0</ele><time>2026-04-06T14:34:58.825Z</time></trkpt><trkpt lat="45.3430317" lon="7.63995"><ele>340.5</ele><time>2026-04-06T14:35:00.825Z</time></trkpt><trkpt lat="45.3429417" lon="7.6398383"><ele>340.0</ele><time>2026-04-06T14:35:02.824Z</time></trkpt><trkpt lat="45.34286" lon="7.63972"><ele>339.5</ele><time>2026-04-06T14:35:04.822Z</time></trkpt><trkpt lat="45.342775" lon="7.6396133"><ele>339.0</ele><time>2026-04-06T14:35:06.822Z</time></trkpt><trkpt lat="45.3426883" lon="7.639505"><ele>339.0</ele><time>2026-04-06T14:35:08.822Z</time></trkpt><trkpt lat="45.3426033" lon="7.6393967"><ele>339.0</ele><time>2026-04-06T14:35:10.822Z</time></trkpt><trkpt lat="45.34251" lon="7.6392883"><ele>339.0</ele><time>2026-04-06T14:35:12.825Z</time></trkpt><trkpt lat="45.3424267" lon="7.6391733"><ele>339.0</ele><time>2026-04-06T14:35:14.819Z</time></trkpt><trkpt lat="45.3423367" lon="7.6390583"><ele>339.0</ele><time>2026-04-06T14:35:16.827Z</time></trkpt><trkpt lat="45.342245" lon="7.6389433"><ele>339.0</ele><time>2026-04-06T14:35:18.824Z</time></trkpt><trkpt lat="45.342155" lon="7.6388267"><ele>339.0</ele><time>2026-04-06T14:35:20.826Z</time></trkpt><trkpt lat="45.3420667" lon="7.6387133"><ele>339.0</ele><time>2026-04-06T14:35:22.825Z</time></trkpt><trkpt lat="45.3419783" lon="7.6386"><ele>339.0</ele><time>2026-04-06T14:35:24.826Z</time></trkpt><trkpt lat="45.3418917" lon="7.6384833"><ele>339.0</ele><time>2026-04-06T14:35:26.824Z</time></trkpt><trkpt lat="45.3418067" lon="7.6383733"><ele>339.0</ele><time>2026-04-06T14:35:28.822Z</time></trkpt><trkpt lat="45.341715" lon="7.6382617"><ele>339.0</ele><time>2026-04-06T14:35:30.821Z</time></trkpt><trkpt lat="45.34163" lon="7.638155"><ele>339.0</ele><time>2026-04-06T14:35:32.826Z</time></trkpt><trkpt lat="45.3415417" lon="7.63804"><ele>339.0</ele><time>2026-04-06T14:35:34.822Z</time></trkpt><trkpt lat="45.341455" lon="7.6379267"><ele>339.0</ele><time>2026-04-06T14:35:36.825Z</time></trkpt><trkpt lat="45.3413633" lon="7.637815"><ele>339.0</ele><time>2026-04-06T14:35:38.825Z</time></trkpt><trkpt lat="45.341275" lon="7.6377"><ele>338.25</ele><time>2026-04-06T14:35:40.824Z</time></trkpt><trkpt lat="45.34119" lon="7.6375817"><ele>337.5</ele><time>2026-04-06T14:35:42.821Z</time></trkpt><trkpt lat="45.3411067" lon="7.6374667"><ele>336.75</ele><time>2026-04-06T14:35:44.822Z</time></trkpt><trkpt lat="45.341015" lon="7.637345"><ele>336.0</ele><time>2026-04-06T14:35:46.822Z</time></trkpt><trkpt lat="45.34093" lon="7.63722"><ele>336.0</ele><time>2026-04-06T14:35:48.825Z</time></trkpt><trkpt lat="45.340885" lon="7.637155"><ele>336.0</ele><time>2026-04-06T14:35:49.825Z</time></trkpt><trkpt lat="45.3408017" lon="7.6370333"><ele>336.0</ele><time>2026-04-06T14:35:51.824Z</time></trkpt><trkpt lat="45.3407183" lon="7.6369083"><ele>336.0</ele><time>2026-04-06T14:35:53.824Z</time></trkpt><trkpt lat="45.34064" lon="7.636785"><ele>336.0</ele><time>2026-04-06T14:35:55.824Z</time></trkpt><trkpt lat="45.340565" lon="7.63666"><ele>336.4</ele><time>2026-04-06T14:35:57.825Z</time></trkpt><trkpt lat="45.3404983" lon="7.636535"><ele>336.8</ele><time>2026-04-06T14:35:59.823Z</time></trkpt><trkpt lat="45.34043" lon="7.636415"><ele>337.2</ele><time>2026-04-06T14:36:01.82Z</time></trkpt><trkpt lat="45.3403633" lon="7.6363033"><ele>337.59999999999997</ele><time>2026-04-06T14:36:03.826Z</time></trkpt><trkpt lat="45.3403017" lon="7.6361883"><ele>338.0</ele><time>2026-04-06T14:36:05.824Z</time></trkpt><trkpt lat="45.3402367" lon="7.6360667"><ele>339.0</ele><time>2026-04-06T14:36:07.822Z</time></trkpt><trkpt lat="45.34017" lon="7.6359383"><ele>340.0</ele><time>2026-04-06T14:36:09.823Z</time></trkpt><trkpt lat="45.3401033" lon="7.6358067"><ele>341.0</ele><time>2026-04-06T14:36:11.825Z</time></trkpt><trkpt lat="45.3400433" lon="7.6356633"><ele>342.0</ele><time>2026-04-06T14:36:13.823Z</time></trkpt><trkpt lat="45.3400117" lon="7.635585"><ele>343.0</ele><time>2026-04-06T14:36:14.825Z</time></trkpt><trkpt lat="45.3399617" lon="7.635425"><ele>344.0</ele><time>2026-04-06T14:36:16.829Z</time></trkpt><trkpt lat="45.339935" lon="7.635255"><ele>345.0</ele><time>2026-04-06T14:36:18.822Z</time></trkpt><trkpt lat="45.33992" lon="7.6350883"><ele>346.0</ele><time>2026-04-06T14:36:20.825Z</time></trkpt><trkpt lat="45.3399217" lon="7.63492"><ele>347.0</ele><time>2026-04-06T14:36:22.826Z</time></trkpt><trkpt lat="45.339935" lon="7.634765"><ele>347.0</ele><time>2026-04-06T14:36:24.824Z</time></trkpt><trkpt lat="45.3399617" lon="7.634625"><ele>347.0</ele><time>2026-04-06T14:36:26.82Z</time></trkpt><trkpt lat="45.3399933" lon="7.6344917"><ele>347.0</ele><time>2026-04-06T14:36:28.822Z</time></trkpt><trkpt lat="45.3400233" lon="7.63437"><ele>347.0</ele><time>2026-04-06T14:36:30.826Z</time></trkpt><trkpt lat="45.340055" lon="7.634245"><ele>347.0</ele><time>2026-04-06T14:36:32.826Z</time></trkpt><trkpt lat="45.3400917" lon="7.6341283"><ele>346.40000000000003</ele><time>2026-04-06T14:36:34.821Z</time></trkpt><trkpt lat="45.34013" lon="7.6340233"><ele>345.8</ele><time>2026-04-06T14:36:36.823Z</time></trkpt><trkpt lat="45.3401833" lon="7.6339183"><ele>345.2</ele><time>2026-04-06T14:36:38.822Z</time></trkpt><trkpt lat="45.3402467" lon="7.6338033"><ele>344.6</ele><time>2026-04-06T14:36:40.825Z</time></trkpt><trkpt lat="45.3403067" lon="7.6336633"><ele>344.0</ele><time>2026-04-06T14:36:42.824Z</time></trkpt><trkpt lat="45.3403283" lon="7.6335767"><ele>343.6</ele><time>2026-04-06T14:36:43.826Z</time></trkpt><trkpt lat="45.3403483" lon="7.63341"><ele>343.2</ele><time>2026-04-06T14:36:45.824Z</time></trkpt><trkpt lat="45.3403533" lon="7.63324"><ele>342.8</ele><time>2026-04-06T14:36:47.817Z</time></trkpt><trkpt lat="45.3403367" lon="7.633135"><ele>342.40000000000003</ele><time>2026-04-06T14:36:48.822Z</time></trkpt><trkpt lat="45.3403283" lon="7.632975"><ele>342.0</ele><time>2026-04-06T14:36:50.826Z</time></trkpt><trkpt lat="45.3403083" lon="7.632825"><ele>341.40000000000003</ele><time>2026-04-06T14:36:52.825Z</time></trkpt><trkpt lat="45.3402883" lon="7.6326817"><ele>340.8</ele><time>2026-04-06T14:36:54.828Z</time></trkpt><trkpt lat="45.3402667" lon="7.63254"><ele>340.2</ele><time>2026-04-06T14:36:56.822Z</time></trkpt><trkpt lat="45.340245" lon="7.6324017"><ele>339.6</ele><time>2026-04-06T14:36:58.829Z</time></trkpt><trkpt lat="45.3402133" lon="7.632265"><ele>339.0</ele><time>2026-04-06T14:37:00.827Z</time></trkpt><trkpt lat="45.3401833" lon="7.6321317"><ele>339.0</ele><time>2026-04-06T14:37:02.826Z</time></trkpt><trkpt lat="45.3401417" lon="7.632005"><ele>339.0</ele><time>2026-04-06T14:37:04.829Z</time></trkpt><trkpt lat="45.3400933" lon="7.6318917"><ele>339.0</ele><time>2026-04-06T14:37:06.826Z</time></trkpt><trkpt lat="45.3400317" lon="7.6318083"><ele>339.0</ele><time>2026-04-06T14:37:08.825Z</time></trkpt><trkpt lat="45.3399667" lon="7.6317233"><ele>339.0</ele><time>2026-04-06T14:37:10.819Z</time></trkpt><trkpt lat="45.339905" lon="7.63166"><ele>339.0</ele><time>2026-04-06T14:37:12.823Z</time></trkpt><trkpt lat="45.33985" lon="7.6316117"><ele>340.3333333333333</ele><time>2026-04-06T14:37:14.823Z</time></trkpt><trkpt lat="45.339785" lon="7.6315667"><ele>341.6666666666667</ele><time>2026-04-06T14:37:16.826Z</time></trkpt><trkpt lat="45.339715" lon="7.6315217"><ele>343.0</ele><time>2026-04-06T14:37:18.824Z</time></trkpt><trkpt lat="45.339645" lon="7.6314667"><ele>344.33333333333337</ele><time>2026-04-06T14:37:20.825Z</time></trkpt><trkpt lat="45.33958" lon="7.6314117"><ele>345.6666666666667</ele><time>2026-04-06T14:37:22.826Z</time></trkpt><trkpt lat="45.3395133" lon="7.6313383"><ele>347.0</ele><time>2026-04-06T14:37:24.828Z</time></trkpt><trkpt lat="45.3394467" lon="7.6312667"><ele>347.1666666666667</ele><time>2026-04-06T14:37:26.823Z</time></trkpt><trkpt lat="45.33938" lon="7.6312"><ele>347.33333333333337</ele><time>2026-04-06T14:37:28.823Z</time></trkpt><trkpt lat="45.33932" lon="7.6311233"><ele>347.5</ele><time>2026-04-06T14:37:30.82Z</time></trkpt><trkpt lat="45.3392617" lon="7.6310467"><ele>347.6666666666667</ele><time>2026-04-06T14:37:32.82Z</time></trkpt><trkpt lat="45.3392083" lon="7.6309583"><ele>347.8333333333333</ele><time>2026-04-06T14:37:34.82Z</time></trkpt><trkpt lat="45.339165" lon="7.630855"><ele>348.0</ele><time>2026-04-06T14:37:36.827Z</time></trkpt><trkpt lat="45.3391333" lon="7.6307183"><ele>348.59999999999997</ele><time>2026-04-06T14:37:38.826Z</time></trkpt><trkpt lat="45.3391233" lon="7.630575"><ele>349.2</ele><time>2026-04-06T14:37:40.822Z</time></trkpt><trkpt lat="45.3391417" lon="7.6304167"><ele>349.8</ele><time>2026-04-06T14:37:42.824Z</time></trkpt><trkpt lat="45.33919" lon="7.6302983"><ele>350.4</ele><time>2026-04-06T14:37:44.822Z</time></trkpt><trkpt lat="45.3392583" lon="7.6301917"><ele>351.0</ele><time>2026-04-06T14:37:46.823Z</time></trkpt><trkpt lat="45.33932" lon="7.6300967"><ele>351.0</ele><time>2026-04-06T14:37:48.825Z</time></trkpt><trkpt lat="45.339345" lon="7.6300117"><ele>351.0</ele><time>2026-04-06T14:37:50.822Z</time></trkpt><trkpt lat="45.3393517" lon="7.6299083"><ele>351.0</ele><time>2026-04-06T14:37:52.824Z</time></trkpt><trkpt lat="45.3393417" lon="7.6297817"><ele>351.0</ele><time>2026-04-06T14:37:54.826Z</time></trkpt><trkpt lat="45.339325" lon="7.62965"><ele>351.0</ele><time>2026-04-06T14:37:56.82Z</time></trkpt><trkpt lat="45.3393117" lon="7.6295117"><ele>351.0</ele><time>2026-04-06T14:37:58.826Z</time></trkpt><trkpt lat="45.3392867" lon="7.629365"><ele>350.4</ele><time>2026-04-06T14:38:00.822Z</time></trkpt><trkpt lat="45.3392517" lon="7.62922"><ele>349.8</ele><time>2026-04-06T14:38:02.824Z</time></trkpt><trkpt lat="45.3392117" lon="7.6290883"><ele>349.2</ele><time>2026-04-06T14:38:04.825Z</time></trkpt><trkpt lat="45.33917" lon="7.6289483"><ele>348.59999999999997</ele><time>2026-04-06T14:38:06.824Z</time></trkpt><trkpt lat="45.3391283" lon="7.6288133"><ele>348.0</ele><time>2026-04-06T14:38:08.824Z</time></trkpt><trkpt lat="45.339085" lon="7.6286917"><ele>348.5</ele><time>2026-04-06T14:38:10.828Z</time></trkpt><trkpt lat="45.3390367" lon="7.6285867"><ele>349.0</ele><time>2026-04-06T14:38:12.825Z</time></trkpt><trkpt lat="45.3389933" lon="7.6284733"><ele>349.5</ele><time>2026-04-06T14:38:14.819Z</time></trkpt><trkpt lat="45.33895" lon="7.62835"><ele>350.0</ele><time>2026-04-06T14:38:16.822Z</time></trkpt><trkpt lat="45.3389267" lon="7.6282383"><ele>350.5</ele><time>2026-04-06T14:38:18.82Z</time></trkpt><trkpt lat="45.3389133" lon="7.6281183"><ele>351.0</ele><time>2026-04-06T14:38:20.826Z</time></trkpt><trkpt lat="45.3389033" lon="7.6280083"><ele>351.1666666666667</ele><time>2026-04-06T14:38:22.823Z</time></trkpt><trkpt lat="45.3388783" lon="7.6279217"><ele>351.3333333333333</ele><time>2026-04-06T14:38:24.826Z</time></trkpt><trkpt lat="45.3388467" lon="7.6278417"><ele>351.5</ele><time>2026-04-06T14:38:26.821Z</time></trkpt><trkpt lat="45.33878" lon="7.6277383"><ele>351.66666666666663</ele><time>2026-04-06T14:38:29.824Z</time></trkpt><trkpt lat="45.33873" lon="7.6276533"><ele>351.8333333333333</ele><time>2026-04-06T14:38:31.824Z</time></trkpt><trkpt lat="45.338685" lon="7.6275783"><ele>352.0</ele><time>2026-04-06T14:38:33.824Z</time></trkpt><trkpt lat="45.338635" lon="7.62749"><ele>352.16666666666663</ele><time>2026-04-06T14:38:35.824Z</time></trkpt><trkpt lat="45.3385833" lon="7.627405"><ele>352.3333333333333</ele><time>2026-04-06T14:38:37.823Z</time></trkpt><trkpt lat="45.3385367" lon="7.6273233"><ele>352.5</ele><time>2026-04-06T14:38:39.822Z</time></trkpt><trkpt lat="45.33849" lon="7.627245"><ele>352.6666666666667</ele><time>2026-04-06T14:38:41.821Z</time></trkpt><trkpt lat="45.3384433" lon="7.6271617"><ele>352.83333333333337</ele><time>2026-04-06T14:38:43.822Z</time></trkpt><trkpt lat="45.3383933" lon="7.6270767"><ele>353.0</ele><time>2026-04-06T14:38:45.824Z</time></trkpt><trkpt lat="45.3383417" lon="7.6269967"><ele>353.0</ele><time>2026-04-06T14:38:47.822Z</time></trkpt><trkpt lat="45.3382933" lon="7.6269167"><ele>353.0</ele><time>2026-04-06T14:38:49.826Z</time></trkpt><trkpt lat="45.3382433" lon="7.6268333"><ele>353.0</ele><time>2026-04-06T14:38:51.827Z</time></trkpt><trkpt lat="45.3381967" lon="7.626745"><ele>353.0</ele><time>2026-04-06T14:38:53.824Z</time></trkpt><trkpt lat="45.3381433" lon="7.6266583"><ele>353.0</ele><time>2026-04-06T14:38:55.821Z</time></trkpt><trkpt lat="45.3380933" lon="7.6265733"><ele>353.0</ele><time>2026-04-06T14:38:57.82Z</time></trkpt><trkpt lat="45.33804" lon="7.6264833"><ele>353.83333333333337</ele><time>2026-04-06T14:38:59.821Z</time></trkpt><trkpt lat="45.33799" lon="7.6263983"><ele>354.6666666666667</ele><time>2026-04-06T14:39:01.823Z</time></trkpt><trkpt lat="45.33794" lon="7.62631"><ele>355.5</ele><time>2026-04-06T14:39:03.827Z</time></trkpt><trkpt lat="45.3378933" lon="7.6262283"><ele>356.3333333333333</ele><time>2026-04-06T14:39:05.822Z</time></trkpt><trkpt lat="45.3378467" lon="7.626145"><ele>357.16666666666663</ele><time>2026-04-06T14:39:07.824Z</time></trkpt><trkpt lat="45.3378" lon="7.62606"><ele>358.0</ele><time>2026-04-06T14:39:09.824Z</time></trkpt><trkpt lat="45.33775" lon="7.6259733"><ele>358.0</ele><time>2026-04-06T14:39:11.824Z</time></trkpt><trkpt lat="45.3377" lon="7.62589"><ele>358.0</ele><time>2026-04-06T14:39:13.822Z</time></trkpt><trkpt lat="45.3376533" lon="7.6258033"><ele>358.0</ele><time>2026-04-06T14:39:15.823Z</time></trkpt><trkpt lat="45.3376117" lon="7.6257183"><ele>358.0</ele><time>2026-04-06T14:39:17.822Z</time></trkpt><trkpt lat="45.3375617" lon="7.6256267"><ele>358.0</ele><time>2026-04-06T14:39:19.822Z</time></trkpt><trkpt lat="45.337515" lon="7.6255367"><ele>358.0</ele><time>2026-04-06T14:39:21.823Z</time></trkpt><trkpt lat="45.3374733" lon="7.6254583"><ele>358.00000000000006</ele><time>2026-04-06T14:39:23.826Z</time></trkpt><trkpt lat="45.3374283" lon="7.6253783"><ele>358.0</ele><time>2026-04-06T14:39:25.833Z</time></trkpt><trkpt lat="45.3373833" lon="7.6252933"><ele>358.0</ele><time>2026-04-06T14:39:27.819Z</time></trkpt><trkpt lat="45.3373433" lon="7.62522"><ele>358.0</ele><time>2026-04-06T14:39:29.82Z</time></trkpt><trkpt lat="45.3372933" lon="7.6251383"><ele>358.0</ele><time>2026-04-06T14:39:31.821Z</time></trkpt><trkpt lat="45.3372483" lon="7.625065"><ele>358.00000000000006</ele><time>2026-04-06T14:39:33.82Z</time></trkpt><trkpt lat="45.3371967" lon="7.6250067"><ele>358.0</ele><time>2026-04-06T14:39:35.82Z</time></trkpt><trkpt lat="45.3371333" lon="7.6249383"><ele>360.5</ele><time>2026-04-06T14:39:37.825Z</time></trkpt><trkpt lat="45.3370717" lon="7.6248783"><ele>363.0</ele><time>2026-04-06T14:39:39.821Z</time></trkpt><trkpt lat="45.3370117" lon="7.624815"><ele>365.5</ele><time>2026-04-06T14:39:41.821Z</time></trkpt><trkpt lat="45.33694" lon="7.624745"><ele>368.0</ele><time>2026-04-06T14:39:43.824Z</time></trkpt><trkpt lat="45.3368683" lon="7.62467"><ele>370.5</ele><time>2026-04-06T14:39:45.828Z</time></trkpt><trkpt lat="45.3367933" lon="7.6245967"><ele>373.0</ele><time>2026-04-06T14:39:47.823Z</time></trkpt><trkpt lat="45.3367133" lon="7.6245117"><ele>372.2857142857143</ele><time>2026-04-06T14:39:49.823Z</time></trkpt><trkpt lat="45.33664" lon="7.62443"><ele>371.57142857142856</ele><time>2026-04-06T14:39:51.82Z</time></trkpt><trkpt lat="45.3365817" lon="7.6243733"><ele>370.8571428571429</ele><time>2026-04-06T14:39:53.822Z</time></trkpt><trkpt lat="45.3365267" lon="7.62432"><ele>370.1428571428571</ele><time>2026-04-06T14:39:55.822Z</time></trkpt><trkpt lat="45.336475" lon="7.6242667"><ele>369.4285714285714</ele><time>2026-04-06T14:39:57.82Z</time></trkpt><trkpt lat="45.3364183" lon="7.624215"><ele>368.7142857142857</ele><time>2026-04-06T14:39:59.824Z</time></trkpt><trkpt lat="45.33636" lon="7.6241533"><ele>368.0</ele><time>2026-04-06T14:40:01.824Z</time></trkpt><trkpt lat="45.336305" lon="7.624095"><ele>369.6666666666667</ele><time>2026-04-06T14:40:03.822Z</time></trkpt><trkpt lat="45.33623" lon="7.6240117"><ele>371.33333333333337</ele><time>2026-04-06T14:40:06.821Z</time></trkpt><trkpt lat="45.336175" lon="7.623955"><ele>373.0</ele><time>2026-04-06T14:40:08.817Z</time></trkpt><trkpt lat="45.33612" lon="7.6238883"><ele>374.6666666666667</ele><time>2026-04-06T14:40:10.822Z</time></trkpt><trkpt lat="45.33606" lon="7.6238217"><ele>376.3333333333333</ele><time>2026-04-06T14:40:13.825Z</time></trkpt><trkpt lat="45.335985" lon="7.6237417"><ele>378.0</ele><time>2026-04-06T14:40:16.824Z</time></trkpt><trkpt lat="45.3359367" lon="7.6236783"><ele>378.6666666666667</ele><time>2026-04-06T14:40:18.823Z</time></trkpt><trkpt lat="45.3358667" lon="7.6236"><ele>379.3333333333333</ele><time>2026-04-06T14:40:21.829Z</time></trkpt><trkpt lat="45.3357967" lon="7.623515"><ele>380.0</ele><time>2026-04-06T14:40:24.82Z</time></trkpt><trkpt lat="45.3357233" lon="7.6234417"><ele>380.66666666666663</ele><time>2026-04-06T14:40:27.819Z</time></trkpt><trkpt lat="45.3356533" lon="7.62339"><ele>381.3333333333333</ele><time>2026-04-06T14:40:30.82Z</time></trkpt><trkpt lat="45.335575" lon="7.6233367"><ele>382.0</ele><time>2026-04-06T14:40:33.818Z</time></trkpt><trkpt lat="45.3355183" lon="7.6232617"><ele>382.0</ele><time>2026-04-06T14:40:36.821Z</time></trkpt><trkpt lat="45.3355017" lon="7.623175"><ele>382.0</ele><time>2026-04-06T14:40:39.824Z</time></trkpt><trkpt lat="45.3355217" lon="7.6230617"><ele>382.0</ele><time>2026-04-06T14:40:42.818Z</time></trkpt><trkpt lat="45.3355467" lon="7.6229667"><ele>382.0</ele><time>2026-04-06T14:40:45.824Z</time></trkpt><trkpt lat="45.3355567" lon="7.6228533"><ele>382.0</ele><time>2026-04-06T14:40:48.826Z</time></trkpt><trkpt lat="45.3355767" lon="7.62274"><ele>382.0</ele><time>2026-04-06T14:40:51.82Z</time></trkpt><trkpt lat="45.33559" lon="7.6226333"><ele>382.0</ele><time>2026-04-06T14:40:54.822Z</time></trkpt><trkpt lat="45.3355083" lon="7.6226283"><ele>382.0</ele><time>2026-04-06T14:40:59.821Z</time></trkpt><trkpt lat="45.3354783" lon="7.6227133"><ele>382.0</ele><time>2026-04-06T14:41:01.822Z</time></trkpt><trkpt lat="45.3354517" lon="7.6228183"><ele>382.0</ele><time>2026-04-06T14:41:03.823Z</time></trkpt><trkpt lat="45.3354217" lon="7.6229317"><ele>382.0</ele><time>2026-04-06T14:41:05.822Z</time></trkpt><trkpt lat="45.3353783" lon="7.6230483"><ele>382.0</ele><time>2026-04-06T14:41:07.823Z</time></trkpt><trkpt lat="45.33532" lon="7.6231517"><ele>382.0</ele><time>2026-04-06T14:41:09.821Z</time></trkpt><trkpt lat="45.3352717" lon="7.623255"><ele>382.0</ele><time>2026-04-06T14:41:11.823Z</time></trkpt><trkpt lat="45.33522" lon="7.6233517"><ele>382.0</ele><time>2026-04-06T14:41:13.823Z</time></trkpt><trkpt lat="45.33517" lon="7.6234433"><ele>382.0</ele><time>2026-04-06T14:41:15.826Z</time></trkpt><trkpt lat="45.3350917" lon="7.623555"><ele>382.0</ele><time>2026-04-06T14:41:17.824Z</time></trkpt><trkpt lat="45.335065" lon="7.6236867"><ele>381.5</ele><time>2026-04-06T14:41:19.826Z</time></trkpt><trkpt lat="45.3350217" lon="7.623825"><ele>381.0</ele><time>2026-04-06T14:41:21.825Z</time></trkpt><trkpt lat="45.3349683" lon="7.6239683"><ele>380.5</ele><time>2026-04-06T14:41:23.825Z</time></trkpt><trkpt lat="45.33494" lon="7.6240517"><ele>380.0</ele><time>2026-04-06T14:41:24.821Z</time></trkpt><trkpt lat="45.334915" lon="7.6241383"><ele>379.5</ele><time>2026-04-06T14:41:25.824Z</time></trkpt><trkpt lat="45.33487" lon="7.6242217"><ele>379.0</ele><time>2026-04-06T14:41:26.825Z</time></trkpt><trkpt lat="45.334845" lon="7.6243067"><ele>379.0</ele><time>2026-04-06T14:41:27.82Z</time></trkpt><trkpt lat="45.3348" lon="7.62447"><ele>379.0</ele><time>2026-04-06T14:41:29.821Z</time></trkpt><trkpt lat="45.3347533" lon="7.6246333"><ele>379.0</ele><time>2026-04-06T14:41:31.819Z</time></trkpt><trkpt lat="45.3347167" lon="7.62471"><ele>379.0</ele><time>2026-04-06T14:41:32.824Z</time></trkpt><trkpt lat="45.3346767" lon="7.6247817"><ele>379.0</ele><time>2026-04-06T14:41:33.821Z</time></trkpt><trkpt lat="45.3346383" lon="7.624855"><ele>379.0</ele><time>2026-04-06T14:41:34.823Z</time></trkpt><trkpt lat="45.33458" lon="7.6250017"><ele>378.5714285714286</ele><time>2026-04-06T14:41:36.825Z</time></trkpt><trkpt lat="45.3345483" lon="7.6250833"><ele>378.14285714285717</ele><time>2026-04-06T14:41:37.828Z</time></trkpt><trkpt lat="45.3345517" lon="7.62518"><ele>377.7142857142857</ele><time>2026-04-06T14:41:38.822Z</time></trkpt><trkpt lat="45.33449" lon="7.6253267"><ele>377.28571428571433</ele><time>2026-04-06T14:41:40.821Z</time></trkpt><trkpt lat="45.33445" lon="7.625405"><ele>376.85714285714283</ele><time>2026-04-06T14:41:41.823Z</time></trkpt><trkpt lat="45.3343983" lon="7.6254583"><ele>376.42857142857144</ele><time>2026-04-06T14:41:42.825Z</time></trkpt><trkpt lat="45.3343667" lon="7.6255367"><ele>376.0</ele><time>2026-04-06T14:41:43.819Z</time></trkpt><trkpt lat="45.3343333" lon="7.6256133"><ele>375.6</ele><time>2026-04-06T14:41:44.824Z</time></trkpt><trkpt lat="45.3342717" lon="7.625755"><ele>375.20000000000005</ele><time>2026-04-06T14:41:46.824Z</time></trkpt><trkpt lat="45.3342167" lon="7.6259017"><ele>374.79999999999995</ele><time>2026-04-06T14:41:48.821Z</time></trkpt><trkpt lat="45.3341583" lon="7.6260017"><ele>374.4</ele><time>2026-04-06T14:41:50.822Z</time></trkpt><trkpt lat="45.334075" lon="7.6260133"><ele>374.0</ele><time>2026-04-06T14:41:52.82Z</time></trkpt><trkpt lat="45.334" lon="7.625965"><ele>374.0</ele><time>2026-04-06T14:41:54.822Z</time></trkpt><trkpt lat="45.3339283" lon="7.6259283"><ele>374.0</ele><time>2026-04-06T14:41:56.819Z</time></trkpt><trkpt lat="45.3338567" lon="7.625895"><ele>374.0</ele><time>2026-04-06T14:41:58.822Z</time></trkpt><trkpt lat="45.33378" lon="7.6258517"><ele>374.0</ele><time>2026-04-06T14:42:00.819Z</time></trkpt><trkpt lat="45.3337083" lon="7.625805"><ele>374.0</ele><time>2026-04-06T14:42:02.823Z</time></trkpt><trkpt lat="45.3336433" lon="7.6257567"><ele>374.0</ele><time>2026-04-06T14:42:04.822Z</time></trkpt><trkpt lat="45.333585" lon="7.6257083"><ele>373.6666666666667</ele><time>2026-04-06T14:42:06.823Z</time></trkpt><trkpt lat="45.3335217" lon="7.6256267"><ele>373.33333333333337</ele><time>2026-04-06T14:42:09.825Z</time></trkpt><trkpt lat="45.333465" lon="7.625675"><ele>373.0</ele><time>2026-04-06T14:42:22.822Z</time></trkpt><trkpt lat="45.3334433" lon="7.6257667"><ele>372.6666666666667</ele><time>2026-04-06T14:42:25.82Z</time></trkpt><trkpt lat="45.3334267" lon="7.6258633"><ele>372.3333333333333</ele><time>2026-04-06T14:42:27.821Z</time></trkpt><trkpt lat="45.3334183" lon="7.6259883"><ele>372.0</ele><time>2026-04-06T14:42:29.824Z</time></trkpt><trkpt lat="45.3334117" lon="7.626135"><ele>371.8</ele><time>2026-04-06T14:42:31.826Z</time></trkpt><trkpt lat="45.3334067" lon="7.6262917"><ele>371.6</ele><time>2026-04-06T14:42:33.824Z</time></trkpt><trkpt lat="45.3333817" lon="7.6264383"><ele>371.40000000000003</ele><time>2026-04-06T14:42:35.824Z</time></trkpt><trkpt lat="45.333375" lon="7.62661"><ele>371.20000000000005</ele><time>2026-04-06T14:42:37.827Z</time></trkpt><trkpt lat="45.333375" lon="7.6267"><ele>371.0</ele><time>2026-04-06T14:42:38.823Z</time></trkpt><trkpt lat="45.33337" lon="7.6268733"><ele>370.4</ele><time>2026-04-06T14:42:40.826Z</time></trkpt><trkpt lat="45.33336" lon="7.6270483"><ele>369.8</ele><time>2026-04-06T14:42:42.826Z</time></trkpt><trkpt lat="45.333355" lon="7.62722"><ele>369.2</ele><time>2026-04-06T14:42:44.822Z</time></trkpt><trkpt lat="45.3333583" lon="7.62731"><ele>368.59999999999997</ele><time>2026-04-06T14:42:45.826Z</time></trkpt><trkpt lat="45.3333633" lon="7.62748"><ele>368.0</ele><time>2026-04-06T14:42:47.826Z</time></trkpt><trkpt lat="45.333385" lon="7.6276517"><ele>368.0</ele><time>2026-04-06T14:42:49.822Z</time></trkpt><trkpt lat="45.3334" lon="7.62774"><ele>368.0</ele><time>2026-04-06T14:42:50.831Z</time></trkpt><trkpt lat="45.3334233" lon="7.6278267"><ele>368.0</ele><time>2026-04-06T14:42:51.821Z</time></trkpt><trkpt lat="45.3334417" lon="7.627995"><ele>368.0</ele><time>2026-04-06T14:42:53.83Z</time></trkpt><trkpt lat="45.33346" lon="7.6281583"><ele>368.0</ele><time>2026-04-06T14:42:55.822Z</time></trkpt><trkpt lat="45.3334817" lon="7.6283267"><ele>367.79999999999995</ele><time>2026-04-06T14:42:57.821Z</time></trkpt><trkpt lat="45.33347" lon="7.62842"><ele>367.6</ele><time>2026-04-06T14:42:58.82Z</time></trkpt><trkpt lat="45.3334833" lon="7.628585"><ele>367.4</ele><time>2026-04-06T14:43:00.824Z</time></trkpt><trkpt lat="45.3334733" lon="7.62875"><ele>367.20000000000005</ele><time>2026-04-06T14:43:02.819Z</time></trkpt><trkpt lat="45.3334533" lon="7.6289167"><ele>367.0</ele><time>2026-04-06T14:43:04.82Z</time></trkpt><trkpt lat="45.33344" lon="7.62909"><ele>366.8333333333333</ele><time>2026-04-06T14:43:06.819Z</time></trkpt><trkpt lat="45.333425" lon="7.6292717"><ele>366.66666666666663</ele><time>2026-04-06T14:43:08.819Z</time></trkpt><trkpt lat="45.3334117" lon="7.6293683"><ele>366.5</ele><time>2026-04-06T14:43:09.825Z</time></trkpt><trkpt lat="45.3333983" lon="7.6294667"><ele>366.3333333333333</ele><time>2026-04-06T14:43:10.819Z</time></trkpt><trkpt lat="45.33338" lon="7.62956"><ele>366.1666666666667</ele><time>2026-04-06T14:43:11.824Z</time></trkpt><trkpt lat="45.3333567" lon="7.6296517"><ele>366.0</ele><time>2026-04-06T14:43:12.822Z</time></trkpt><trkpt lat="45.33334" lon="7.62975"><ele>366.0</ele><time>2026-04-06T14:43:13.821Z</time></trkpt><trkpt lat="45.3333217" lon="7.6298517"><ele>366.0</ele><time>2026-04-06T14:43:14.822Z</time></trkpt><trkpt lat="45.3333067" lon="7.6299517"><ele>366.0</ele><time>2026-04-06T14:43:15.824Z</time></trkpt><trkpt lat="45.3332867" lon="7.6300483"><ele>366.0</ele><time>2026-04-06T14:43:16.826Z</time></trkpt><trkpt lat="45.33327" lon="7.6301467"><ele>366.0</ele><time>2026-04-06T14:43:17.824Z</time></trkpt><trkpt lat="45.33325" lon="7.6302433"><ele>366.0</ele><time>2026-04-06T14:43:18.822Z</time></trkpt><trkpt lat="45.3332267" lon="7.63034"><ele>366.0</ele><time>2026-04-06T14:43:19.822Z</time></trkpt><trkpt lat="45.3332033" lon="7.630435"><ele>366.0</ele><time>2026-04-06T14:43:20.819Z</time></trkpt><trkpt lat="45.3331783" lon="7.630535"><ele>366.0</ele><time>2026-04-06T14:43:21.824Z</time></trkpt><trkpt lat="45.33315" lon="7.6306317"><ele>366.0</ele><time>2026-04-06T14:43:22.818Z</time></trkpt><trkpt lat="45.33312" lon="7.6307267"><ele>366.0</ele><time>2026-04-06T14:43:23.825Z</time></trkpt><trkpt lat="45.3330867" lon="7.6308183"><ele>366.0</ele><time>2026-04-06T14:43:24.822Z</time></trkpt><trkpt lat="45.3330517" lon="7.6309117"><ele>366.0</ele><time>2026-04-06T14:43:25.822Z</time></trkpt><trkpt lat="45.33302" lon="7.631"><ele>366.0</ele><time>2026-04-06T14:43:26.823Z</time></trkpt><trkpt lat="45.332985" lon="7.63109"><ele>365.1666666666667</ele><time>2026-04-06T14:43:27.819Z</time></trkpt><trkpt lat="45.3329533" lon="7.6311817"><ele>364.3333333333333</ele><time>2026-04-06T14:43:28.821Z</time></trkpt><trkpt lat="45.3329183" lon="7.63127"><ele>363.5</ele><time>2026-04-06T14:43:29.821Z</time></trkpt><trkpt lat="45.3328817" lon="7.63136"><ele>362.66666666666663</ele><time>2026-04-06T14:43:30.82Z</time></trkpt><trkpt lat="45.33285" lon="7.6314533"><ele>361.8333333333333</ele><time>2026-04-06T14:43:31.822Z</time></trkpt><trkpt lat="45.332815" lon="7.6315417"><ele>361.0</ele><time>2026-04-06T14:43:32.819Z</time></trkpt><trkpt lat="45.332765" lon="7.6316883"><ele>361.0</ele><time>2026-04-06T14:43:34.819Z</time></trkpt><trkpt lat="45.3327233" lon="7.6318433"><ele>361.0</ele><time>2026-04-06T14:43:36.821Z</time></trkpt><trkpt lat="45.3326567" lon="7.63197"><ele>361.0</ele><time>2026-04-06T14:43:38.82Z</time></trkpt><trkpt lat="45.3325517" lon="7.6320283"><ele>361.0</ele><time>2026-04-06T14:43:40.82Z</time></trkpt><trkpt lat="45.3324417" lon="7.6320583"><ele>360.5</ele><time>2026-04-06T14:43:42.819Z</time></trkpt><trkpt lat="45.33232" lon="7.6320383"><ele>360.0</ele><time>2026-04-06T14:43:44.82Z</time></trkpt><trkpt lat="45.33221" lon="7.63201"><ele>359.5</ele><time>2026-04-06T14:43:46.825Z</time></trkpt><trkpt lat="45.33215" lon="7.63198"><ele>359.0</ele><time>2026-04-06T14:43:47.819Z</time></trkpt><trkpt lat="45.3320883" lon="7.6319383"><ele>358.5</ele><time>2026-04-06T14:43:48.822Z</time></trkpt><trkpt lat="45.3320283" lon="7.6318933"><ele>358.0</ele><time>2026-04-06T14:43:49.826Z</time></trkpt><trkpt lat="45.3319717" lon="7.6318517"><ele>357.59999999999997</ele><time>2026-04-06T14:43:50.82Z</time></trkpt><trkpt lat="45.3319133" lon="7.6318033"><ele>357.2</ele><time>2026-04-06T14:43:51.818Z</time></trkpt><trkpt lat="45.3318583" lon="7.6317583"><ele>356.8</ele><time>2026-04-06T14:43:52.819Z</time></trkpt><trkpt lat="45.3317533" lon="7.6316717"><ele>356.4</ele><time>2026-04-06T14:43:54.821Z</time></trkpt><trkpt lat="45.3316417" lon="7.6315917"><ele>356.0</ele><time>2026-04-06T14:43:56.821Z</time></trkpt><trkpt lat="45.331525" lon="7.6315517"><ele>356.0</ele><time>2026-04-06T14:43:58.821Z</time></trkpt><trkpt lat="45.3314183" lon="7.6315"><ele>356.0</ele><time>2026-04-06T14:44:00.824Z</time></trkpt><trkpt lat="45.331315" lon="7.6314567"><ele>356.0</ele><time>2026-04-06T14:44:02.821Z</time></trkpt><trkpt lat="45.3312167" lon="7.631435"><ele>356.0</ele><time>2026-04-06T14:44:04.82Z</time></trkpt><trkpt lat="45.33111" lon="7.6314317"><ele>356.0</ele><time>2026-04-06T14:44:06.816Z</time></trkpt><trkpt lat="45.331005" lon="7.6314433"><ele>355.5</ele><time>2026-04-06T14:44:08.829Z</time></trkpt><trkpt lat="45.3308917" lon="7.6314683"><ele>355.0</ele><time>2026-04-06T14:44:10.834Z</time></trkpt><trkpt lat="45.330775" lon="7.6315"><ele>354.5</ele><time>2026-04-06T14:44:12.824Z</time></trkpt><trkpt lat="45.3306567" lon="7.6315417"><ele>354.0</ele><time>2026-04-06T14:44:14.82Z</time></trkpt><trkpt lat="45.33054" lon="7.6315667"><ele>354.0</ele><time>2026-04-06T14:44:16.819Z</time></trkpt><trkpt lat="45.330425" lon="7.6316217"><ele>354.0</ele><time>2026-04-06T14:44:18.82Z</time></trkpt><trkpt lat="45.3303167" lon="7.631695"><ele>354.0</ele><time>2026-04-06T14:44:20.825Z</time></trkpt><trkpt lat="45.3302133" lon="7.6317667"><ele>354.0</ele><time>2026-04-06T14:44:22.821Z</time></trkpt><trkpt lat="45.3301017" lon="7.631835"><ele>354.0</ele><time>2026-04-06T14:44:24.82Z</time></trkpt><trkpt lat="45.3299917" lon="7.6319183"><ele>354.0</ele><time>2026-04-06T14:44:26.821Z</time></trkpt><trkpt lat="45.3299333" lon="7.63196"><ele>354.0</ele><time>2026-04-06T14:44:27.822Z</time></trkpt><trkpt lat="45.3298767" lon="7.6320033"><ele>354.0</ele><time>2026-04-06T14:44:28.822Z</time></trkpt><trkpt lat="45.32982" lon="7.6320517"><ele>354.0</ele><time>2026-04-06T14:44:29.823Z</time></trkpt><trkpt lat="45.3297617" lon="7.6320967"><ele>354.0</ele><time>2026-04-06T14:44:30.823Z</time></trkpt><trkpt lat="45.32965" lon="7.632185"><ele>353.7142857142857</ele><time>2026-04-06T14:44:32.824Z</time></trkpt><trkpt lat="45.3295917" lon="7.6322317"><ele>353.4285714285714</ele><time>2026-04-06T14:44:33.82Z</time></trkpt><trkpt lat="45.3295333" lon="7.6322667"><ele>353.1428571428571</ele><time>2026-04-06T14:44:34.82Z</time></trkpt><trkpt lat="45.329475" lon="7.6323033"><ele>352.8571428571429</ele><time>2026-04-06T14:44:35.821Z</time></trkpt><trkpt lat="45.3294167" lon="7.63234"><ele>352.57142857142856</ele><time>2026-04-06T14:44:36.823Z</time></trkpt><trkpt lat="45.32936" lon="7.632385"><ele>352.2857142857143</ele><time>2026-04-06T14:44:37.821Z</time></trkpt><trkpt lat="45.3293033" lon="7.63243"><ele>352.0</ele><time>2026-04-06T14:44:38.826Z</time></trkpt><trkpt lat="45.3292467" lon="7.632475"><ele>352.0</ele><time>2026-04-06T14:44:39.823Z</time></trkpt><trkpt lat="45.32914" lon="7.6325633"><ele>352.0</ele><time>2026-04-06T14:44:41.822Z</time></trkpt><trkpt lat="45.329085" lon="7.63261"><ele>352.0</ele><time>2026-04-06T14:44:42.822Z</time></trkpt><trkpt lat="45.3289883" lon="7.63272"><ele>352.0</ele><time>2026-04-06T14:44:44.832Z</time></trkpt><trkpt lat="45.32894" lon="7.63278"><ele>352.0</ele><time>2026-04-06T14:44:45.819Z</time></trkpt><trkpt lat="45.3288933" lon="7.6328433"><ele>352.0</ele><time>2026-04-06T14:44:46.82Z</time></trkpt><trkpt lat="45.3288483" lon="7.63291"><ele>351.14285714285717</ele><time>2026-04-06T14:44:47.822Z</time></trkpt><trkpt lat="45.328805" lon="7.632975"><ele>350.2857142857143</ele><time>2026-04-06T14:44:48.821Z</time></trkpt><trkpt lat="45.3287583" lon="7.6330367"><ele>349.42857142857144</ele><time>2026-04-06T14:44:49.821Z</time></trkpt><trkpt lat="45.3287117" lon="7.6331017"><ele>348.57142857142856</ele><time>2026-04-06T14:44:50.82Z</time></trkpt><trkpt lat="45.3286683" lon="7.63317"><ele>347.7142857142857</ele><time>2026-04-06T14:44:51.824Z</time></trkpt><trkpt lat="45.3286267" lon="7.63324"><ele>346.85714285714283</ele><time>2026-04-06T14:44:52.824Z</time></trkpt><trkpt lat="45.3285867" lon="7.6333117"><ele>346.0</ele><time>2026-04-06T14:44:53.818Z</time></trkpt><trkpt lat="45.3285483" lon="7.633385"><ele>346.0</ele><time>2026-04-06T14:44:54.82Z</time></trkpt><trkpt lat="45.3285117" lon="7.63346"><ele>346.0</ele><time>2026-04-06T14:44:55.821Z</time></trkpt><trkpt lat="45.3284733" lon="7.6335367"><ele>346.0</ele><time>2026-04-06T14:44:56.822Z</time></trkpt><trkpt lat="45.3284383" lon="7.6336117"><ele>346.0</ele><time>2026-04-06T14:44:57.82Z</time></trkpt><trkpt lat="45.3284017" lon="7.6336883"><ele>346.0</ele><time>2026-04-06T14:44:58.821Z</time></trkpt><trkpt lat="45.328365" lon="7.633765"><ele>346.0</ele><time>2026-04-06T14:44:59.824Z</time></trkpt><trkpt lat="45.3283267" lon="7.6338383"><ele>346.0</ele><time>2026-04-06T14:45:00.82Z</time></trkpt><trkpt lat="45.3282567" lon="7.6339833"><ele>346.1428571428571</ele><time>2026-04-06T14:45:02.821Z</time></trkpt><trkpt lat="45.3282183" lon="7.6340567"><ele>346.28571428571433</ele><time>2026-04-06T14:45:03.819Z</time></trkpt><trkpt lat="45.3281833" lon="7.6341317"><ele>346.42857142857144</ele><time>2026-04-06T14:45:04.822Z</time></trkpt><trkpt lat="45.3281483" lon="7.6342067"><ele>346.57142857142856</ele><time>2026-04-06T14:45:05.821Z</time></trkpt><trkpt lat="45.32811" lon="7.63428"><ele>346.71428571428567</ele><time>2026-04-06T14:45:06.824Z</time></trkpt><trkpt lat="45.32807" lon="7.6343567"><ele>346.8571428571429</ele><time>2026-04-06T14:45:07.818Z</time></trkpt><trkpt lat="45.3280267" lon="7.6344283"><ele>347.0</ele><time>2026-04-06T14:45:08.82Z</time></trkpt><trkpt lat="45.3279833" lon="7.6344983"><ele>346.1666666666667</ele><time>2026-04-06T14:45:09.819Z</time></trkpt><trkpt lat="45.3279417" lon="7.6345683"><ele>345.33333333333337</ele><time>2026-04-06T14:45:10.82Z</time></trkpt><trkpt lat="45.3278533" lon="7.6346983"><ele>344.5</ele><time>2026-04-06T14:45:12.82Z</time></trkpt><trkpt lat="45.3278083" lon="7.6347667"><ele>343.6666666666667</ele><time>2026-04-06T14:45:13.825Z</time></trkpt><trkpt lat="45.3277583" lon="7.6348267"><ele>342.8333333333333</ele><time>2026-04-06T14:45:14.824Z</time></trkpt><trkpt lat="45.327705" lon="7.6348833"><ele>342.0</ele><time>2026-04-06T14:45:15.817Z</time></trkpt><trkpt lat="45.3276517" lon="7.634935"><ele>342.0</ele><time>2026-04-06T14:45:16.817Z</time></trkpt><trkpt lat="45.3275983" lon="7.6349883"><ele>342.0</ele><time>2026-04-06T14:45:17.82Z</time></trkpt><trkpt lat="45.3274917" lon="7.6350717"><ele>342.0</ele><time>2026-04-06T14:45:19.82Z</time></trkpt><trkpt lat="45.32738" lon="7.6351317"><ele>342.0</ele><time>2026-04-06T14:45:21.818Z</time></trkpt><trkpt lat="45.3272633" lon="7.6351783"><ele>342.0</ele><time>2026-04-06T14:45:23.823Z</time></trkpt><trkpt lat="45.3271483" lon="7.6352467"><ele>341.8</ele><time>2026-04-06T14:45:25.821Z</time></trkpt><trkpt lat="45.32709" lon="7.6352867"><ele>341.6</ele><time>2026-04-06T14:45:26.819Z</time></trkpt><trkpt lat="45.3269817" lon="7.6353717"><ele>341.40000000000003</ele><time>2026-04-06T14:45:28.827Z</time></trkpt><trkpt lat="45.3268767" lon="7.635465"><ele>341.20000000000005</ele><time>2026-04-06T14:45:30.82Z</time></trkpt><trkpt lat="45.326775" lon="7.6355667"><ele>341.0</ele><time>2026-04-06T14:45:32.82Z</time></trkpt><trkpt lat="45.326725" lon="7.6356217"><ele>340.6666666666667</ele><time>2026-04-06T14:45:33.825Z</time></trkpt><trkpt lat="45.326635" lon="7.6357283"><ele>340.33333333333337</ele><time>2026-04-06T14:45:35.826Z</time></trkpt><trkpt lat="45.3265867" lon="7.6357883"><ele>340.0</ele><time>2026-04-06T14:45:36.824Z</time></trkpt><trkpt lat="45.3265383" lon="7.63585"><ele>339.6666666666667</ele><time>2026-04-06T14:45:37.822Z</time></trkpt><trkpt lat="45.3264867" lon="7.6359117"><ele>339.3333333333333</ele><time>2026-04-06T14:45:38.823Z</time></trkpt><trkpt lat="45.3264333" lon="7.6359767"><ele>339.0</ele><time>2026-04-06T14:45:39.818Z</time></trkpt><trkpt lat="45.326375" lon="7.6360433"><ele>338.85714285714283</ele><time>2026-04-06T14:45:40.829Z</time></trkpt><trkpt lat="45.3263167" lon="7.636105"><ele>338.7142857142857</ele><time>2026-04-06T14:45:41.822Z</time></trkpt><trkpt lat="45.3262567" lon="7.6361633"><ele>338.57142857142856</ele><time>2026-04-06T14:45:42.821Z</time></trkpt><trkpt lat="45.3262" lon="7.6362233"><ele>338.42857142857144</ele><time>2026-04-06T14:45:43.821Z</time></trkpt><trkpt lat="45.3261483" lon="7.636285"><ele>338.2857142857143</ele><time>2026-04-06T14:45:44.819Z</time></trkpt><trkpt lat="45.3260933" lon="7.6363433"><ele>338.14285714285717</ele><time>2026-04-06T14:45:45.825Z</time></trkpt><trkpt lat="45.3260383" lon="7.6364017"><ele>338.0</ele><time>2026-04-06T14:45:46.82Z</time></trkpt><trkpt lat="45.3259833" lon="7.6364567"><ele>337.83333333333337</ele><time>2026-04-06T14:45:47.82Z</time></trkpt><trkpt lat="45.32593" lon="7.6365133"><ele>337.6666666666667</ele><time>2026-04-06T14:45:48.82Z</time></trkpt><trkpt lat="45.3258767" lon="7.6365683"><ele>337.5</ele><time>2026-04-06T14:45:49.82Z</time></trkpt><trkpt lat="45.3258267" lon="7.6366233"><ele>337.3333333333333</ele><time>2026-04-06T14:45:50.818Z</time></trkpt><trkpt lat="45.3257267" lon="7.6367333"><ele>337.16666666666663</ele><time>2026-04-06T14:45:52.821Z</time></trkpt><trkpt lat="45.325675" lon="7.6367867"><ele>337.0</ele><time>2026-04-06T14:45:53.821Z</time></trkpt><trkpt lat="45.3256233" lon="7.6368433"><ele>337.00000000000006</ele><time>2026-04-06T14:45:54.822Z</time></trkpt><trkpt lat="45.3255733" lon="7.6368983"><ele>337.0</ele><time>2026-04-06T14:45:55.825Z</time></trkpt><trkpt lat="45.32552" lon="7.6369517"><ele>337.0</ele><time>2026-04-06T14:45:56.819Z</time></trkpt><trkpt lat="45.3254667" lon="7.637"><ele>337.0</ele><time>2026-04-06T14:45:57.828Z</time></trkpt><trkpt lat="45.3254167" lon="7.637055"><ele>337.0</ele><time>2026-04-06T14:45:58.824Z</time></trkpt><trkpt lat="45.3253617" lon="7.637105"><ele>337.00000000000006</ele><time>2026-04-06T14:45:59.823Z</time></trkpt><trkpt lat="45.32531" lon="7.6371583"><ele>337.0</ele><time>2026-04-06T14:46:00.824Z</time></trkpt><trkpt lat="45.325255" lon="7.63721"><ele>336.5</ele><time>2026-04-06T14:46:01.83Z</time></trkpt><trkpt lat="45.3251983" lon="7.6372667"><ele>336.0</ele><time>2026-04-06T14:46:02.821Z</time></trkpt><trkpt lat="45.3251467" lon="7.6373233"><ele>335.5</ele><time>2026-04-06T14:46:03.82Z</time></trkpt><trkpt lat="45.3250933" lon="7.6373767"><ele>335.0</ele><time>2026-04-06T14:46:04.82Z</time></trkpt><trkpt lat="45.3250417" lon="7.6374283"><ele>334.5</ele><time>2026-04-06T14:46:05.819Z</time></trkpt><trkpt lat="45.3249317" lon="7.6375183"><ele>334.0</ele><time>2026-04-06T14:46:07.82Z</time></trkpt><trkpt lat="45.32487" lon="7.6375533"><ele>334.0</ele><time>2026-04-06T14:46:08.827Z</time></trkpt><trkpt lat="45.3248083" lon="7.63758"><ele>334.0</ele><time>2026-04-06T14:46:09.821Z</time></trkpt><trkpt lat="45.324745" lon="7.6376117"><ele>334.0</ele><time>2026-04-06T14:46:10.825Z</time></trkpt><trkpt lat="45.3246267" lon="7.63768"><ele>334.0</ele><time>2026-04-06T14:46:12.821Z</time></trkpt><trkpt lat="45.3245717" lon="7.637725"><ele>334.0</ele><time>2026-04-06T14:46:13.821Z</time></trkpt><trkpt lat="45.324515" lon="7.637765"><ele>334.0</ele><time>2026-04-06T14:46:14.821Z</time></trkpt><trkpt lat="45.3243983" lon="7.6378267"><ele>333.25</ele><time>2026-04-06T14:46:16.822Z</time></trkpt><trkpt lat="45.324275" lon="7.6378483"><ele>332.5</ele><time>2026-04-06T14:46:18.82Z</time></trkpt><trkpt lat="45.324155" lon="7.6378383"><ele>331.75</ele><time>2026-04-06T14:46:20.82Z</time></trkpt><trkpt lat="45.324035" lon="7.6378233"><ele>331.0</ele><time>2026-04-06T14:46:22.825Z</time></trkpt><trkpt lat="45.3239133" lon="7.637845"><ele>330.4</ele><time>2026-04-06T14:46:24.82Z</time></trkpt><trkpt lat="45.3238533" lon="7.6378733"><ele>329.8</ele><time>2026-04-06T14:46:25.821Z</time></trkpt><trkpt lat="45.323745" lon="7.63795"><ele>329.2</ele><time>2026-04-06T14:46:27.82Z</time></trkpt><trkpt lat="45.3236417" lon="7.6380483"><ele>328.59999999999997</ele><time>2026-04-06T14:46:29.821Z</time></trkpt><trkpt lat="45.3235567" lon="7.6381733"><ele>328.0</ele><time>2026-04-06T14:46:31.824Z</time></trkpt><trkpt lat="45.3234867" lon="7.63832"><ele>328.0</ele><time>2026-04-06T14:46:33.821Z</time></trkpt><trkpt lat="45.3234283" lon="7.6384667"><ele>328.0</ele><time>2026-04-06T14:46:35.821Z</time></trkpt><trkpt lat="45.3233717" lon="7.6386183"><ele>328.0</ele><time>2026-04-06T14:46:37.823Z</time></trkpt><trkpt lat="45.3233133" lon="7.6387767"><ele>328.0</ele><time>2026-04-06T14:46:39.818Z</time></trkpt><trkpt lat="45.3232817" lon="7.638855"><ele>328.0</ele><time>2026-04-06T14:46:40.821Z</time></trkpt><trkpt lat="45.3232483" lon="7.6389333"><ele>327.85714285714283</ele><time>2026-04-06T14:46:41.823Z</time></trkpt><trkpt lat="45.3232133" lon="7.639015"><ele>327.7142857142857</ele><time>2026-04-06T14:46:42.823Z</time></trkpt><trkpt lat="45.3231767" lon="7.639095"><ele>327.57142857142856</ele><time>2026-04-06T14:46:43.829Z</time></trkpt><trkpt lat="45.3231417" lon="7.6391733"><ele>327.42857142857144</ele><time>2026-04-06T14:46:44.82Z</time></trkpt><trkpt lat="45.323105" lon="7.6392483"><ele>327.2857142857143</ele><time>2026-04-06T14:46:45.82Z</time></trkpt><trkpt lat="45.3230667" lon="7.639325"><ele>327.1428571428571</ele><time>2026-04-06T14:46:46.822Z</time></trkpt><trkpt lat="45.3230267" lon="7.6394017"><ele>327.0</ele><time>2026-04-06T14:46:47.819Z</time></trkpt><trkpt lat="45.3229883" lon="7.6394733"><ele>326.75</ele><time>2026-04-06T14:46:48.82Z</time></trkpt><trkpt lat="45.3229133" lon="7.639605"><ele>326.5</ele><time>2026-04-06T14:46:50.823Z</time></trkpt><trkpt lat="45.3228433" lon="7.6397417"><ele>326.25</ele><time>2026-04-06T14:46:52.822Z</time></trkpt><trkpt lat="45.3227817" lon="7.6398783"><ele>326.0</ele><time>2026-04-06T14:46:54.821Z</time></trkpt><trkpt lat="45.322715" lon="7.640015"><ele>326.0</ele><time>2026-04-06T14:46:56.831Z</time></trkpt><trkpt lat="45.3226417" lon="7.640145"><ele>326.0</ele><time>2026-04-06T14:46:58.82Z</time></trkpt><trkpt lat="45.32256" lon="7.6402767"><ele>326.0</ele><time>2026-04-06T14:47:00.822Z</time></trkpt><trkpt lat="45.322515" lon="7.6403417"><ele>326.0</ele><time>2026-04-06T14:47:01.822Z</time></trkpt><trkpt lat="45.322425" lon="7.6404583"><ele>326.0</ele><time>2026-04-06T14:47:03.824Z</time></trkpt><trkpt lat="45.3223333" lon="7.64057"><ele>326.14285714285717</ele><time>2026-04-06T14:47:05.822Z</time></trkpt><trkpt lat="45.322285" lon="7.64063"><ele>326.2857142857143</ele><time>2026-04-06T14:47:06.821Z</time></trkpt><trkpt lat="45.3222367" lon="7.64069"><ele>326.42857142857144</ele><time>2026-04-06T14:47:07.822Z</time></trkpt><trkpt lat="45.3221883" lon="7.64075"><ele>326.57142857142856</ele><time>2026-04-06T14:47:08.822Z</time></trkpt><trkpt lat="45.3221383" lon="7.640805"><ele>326.7142857142857</ele><time>2026-04-06T14:47:09.821Z</time></trkpt><trkpt lat="45.3220867" lon="7.640865"><ele>326.85714285714283</ele><time>2026-04-06T14:47:10.819Z</time></trkpt><trkpt lat="45.3220383" lon="7.64093"><ele>327.0</ele><time>2026-04-06T14:47:11.821Z</time></trkpt><trkpt lat="45.32199" lon="7.640995"><ele>326.7142857142857</ele><time>2026-04-06T14:47:12.824Z</time></trkpt><trkpt lat="45.321935" lon="7.6410583"><ele>326.42857142857144</ele><time>2026-04-06T14:47:13.821Z</time></trkpt><trkpt lat="45.3218833" lon="7.64112"><ele>326.1428571428571</ele><time>2026-04-06T14:47:14.821Z</time></trkpt><trkpt lat="45.32183" lon="7.6411817"><ele>325.8571428571429</ele><time>2026-04-06T14:47:15.82Z</time></trkpt><trkpt lat="45.3217783" lon="7.6412433"><ele>325.5714285714286</ele><time>2026-04-06T14:47:16.821Z</time></trkpt><trkpt lat="45.321725" lon="7.641305"><ele>325.2857142857143</ele><time>2026-04-06T14:47:17.821Z</time></trkpt><trkpt lat="45.321675" lon="7.64137"><ele>325.0</ele><time>2026-04-06T14:47:18.823Z</time></trkpt><trkpt lat="45.321625" lon="7.6414367"><ele>324.57142857142856</ele><time>2026-04-06T14:47:19.821Z</time></trkpt><trkpt lat="45.3215717" lon="7.6414983"><ele>324.14285714285717</ele><time>2026-04-06T14:47:20.821Z</time></trkpt><trkpt lat="45.32152" lon="7.6415617"><ele>323.7142857142857</ele><time>2026-04-06T14:47:21.822Z</time></trkpt><trkpt lat="45.3214717" lon="7.6416233"><ele>323.2857142857143</ele><time>2026-04-06T14:47:22.827Z</time></trkpt><trkpt lat="45.3214283" lon="7.6416917"><ele>322.8571428571429</ele><time>2026-04-06T14:47:23.823Z</time></trkpt><trkpt lat="45.3213817" lon="7.64176"><ele>322.42857142857144</ele><time>2026-04-06T14:47:24.822Z</time></trkpt><trkpt lat="45.3213333" lon="7.6418217"><ele>322.0</ele><time>2026-04-06T14:47:25.824Z</time></trkpt><trkpt lat="45.3212833" lon="7.64188"><ele>321.85714285714283</ele><time>2026-04-06T14:47:26.82Z</time></trkpt><trkpt lat="45.3212333" lon="7.6419383"><ele>321.7142857142857</ele><time>2026-04-06T14:47:27.825Z</time></trkpt><trkpt lat="45.321185" lon="7.6420033"><ele>321.57142857142856</ele><time>2026-04-06T14:47:28.824Z</time></trkpt><trkpt lat="45.3211383" lon="7.6420667"><ele>321.42857142857144</ele><time>2026-04-06T14:47:29.822Z</time></trkpt><trkpt lat="45.3210883" lon="7.642125"><ele>321.2857142857143</ele><time>2026-04-06T14:47:30.821Z</time></trkpt><trkpt lat="45.32104" lon="7.642185"><ele>321.1428571428571</ele><time>2026-04-06T14:47:31.822Z</time></trkpt><trkpt lat="45.32099" lon="7.6422433"><ele>321.0</ele><time>2026-04-06T14:47:32.826Z</time></trkpt><trkpt lat="45.32094" lon="7.6423"><ele>321.0</ele><time>2026-04-06T14:47:33.82Z</time></trkpt><trkpt lat="45.32084" lon="7.6424017"><ele>321.0</ele><time>2026-04-06T14:47:35.822Z</time></trkpt><trkpt lat="45.3207417" lon="7.6425067"><ele>321.0</ele><time>2026-04-06T14:47:37.823Z</time></trkpt><trkpt lat="45.3206467" lon="7.642615"><ele>321.0</ele><time>2026-04-06T14:47:39.82Z</time></trkpt><trkpt lat="45.320545" lon="7.6427217"><ele>320.8333333333333</ele><time>2026-04-06T14:47:41.822Z</time></trkpt><trkpt lat="45.3204933" lon="7.6427733"><ele>320.6666666666667</ele><time>2026-04-06T14:47:42.829Z</time></trkpt><trkpt lat="45.320395" lon="7.6428767"><ele>320.5</ele><time>2026-04-06T14:47:44.826Z</time></trkpt><trkpt lat="45.3202933" lon="7.6429783"><ele>320.33333333333337</ele><time>2026-04-06T14:47:46.821Z</time></trkpt><trkpt lat="45.320235" lon="7.64302"><ele>320.1666666666667</ele><time>2026-04-06T14:47:47.822Z</time></trkpt><trkpt lat="45.3201733" lon="7.64305"><ele>320.0</ele><time>2026-04-06T14:47:48.822Z</time></trkpt><trkpt lat="45.3201083" lon="7.64306"><ele>320.0</ele><time>2026-04-06T14:47:49.823Z</time></trkpt><trkpt lat="45.320045" lon="7.6430483"><ele>320.0</ele><time>2026-04-06T14:47:50.821Z</time></trkpt><trkpt lat="45.3199833" lon="7.6430217"><ele>320.0</ele><time>2026-04-06T14:47:51.824Z</time></trkpt><trkpt lat="45.31992" lon="7.6429917"><ele>320.0</ele><time>2026-04-06T14:47:52.825Z</time></trkpt><trkpt lat="45.3198583" lon="7.6429617"><ele>320.0</ele><time>2026-04-06T14:47:53.82Z</time></trkpt><trkpt lat="45.3197967" lon="7.6429267"><ele>320.0</ele><time>2026-04-06T14:47:54.821Z</time></trkpt><trkpt lat="45.3197317" lon="7.6428917"><ele>320.0</ele><time>2026-04-06T14:47:55.823Z</time></trkpt><trkpt lat="45.3196683" lon="7.64286"><ele>320.6666666666667</ele><time>2026-04-06T14:47:56.827Z</time></trkpt><trkpt lat="45.3196" lon="7.6428317"><ele>321.33333333333337</ele><time>2026-04-06T14:47:57.822Z</time></trkpt><trkpt lat="45.3195333" lon="7.642805"><ele>322.0</ele><time>2026-04-06T14:47:58.821Z</time></trkpt><trkpt lat="45.3194667" lon="7.6427833"><ele>322.6666666666667</ele><time>2026-04-06T14:47:59.821Z</time></trkpt><trkpt lat="45.3194017" lon="7.64277"><ele>323.3333333333333</ele><time>2026-04-06T14:48:00.825Z</time></trkpt><trkpt lat="45.31928" lon="7.64275"><ele>324.0</ele><time>2026-04-06T14:48:02.828Z</time></trkpt><trkpt lat="45.3191617" lon="7.6427317"><ele>324.0</ele><time>2026-04-06T14:48:04.819Z</time></trkpt><trkpt lat="45.3190383" lon="7.6427067"><ele>324.0</ele><time>2026-04-06T14:48:06.822Z</time></trkpt><trkpt lat="45.3189183" lon="7.6426733"><ele>324.0</ele><time>2026-04-06T14:48:08.817Z</time></trkpt><trkpt lat="45.3187983" lon="7.642665"><ele>324.0</ele><time>2026-04-06T14:48:10.82Z</time></trkpt><trkpt lat="45.318675" lon="7.6426633"><ele>322.5</ele><time>2026-04-06T14:48:12.822Z</time></trkpt><trkpt lat="45.31856" lon="7.6426483"><ele>321.0</ele><time>2026-04-06T14:48:14.826Z</time></trkpt><trkpt lat="45.3184533" lon="7.6425983"><ele>319.5</ele><time>2026-04-06T14:48:16.823Z</time></trkpt><trkpt lat="45.318355" lon="7.642515"><ele>318.0</ele><time>2026-04-06T14:48:18.825Z</time></trkpt><trkpt lat="45.3182633" lon="7.6423983"><ele>318.0</ele><time>2026-04-06T14:48:20.825Z</time></trkpt><trkpt lat="45.3182217" lon="7.64233"><ele>318.0</ele><time>2026-04-06T14:48:21.825Z</time></trkpt><trkpt lat="45.31818" lon="7.6422583"><ele>318.0</ele><time>2026-04-06T14:48:22.825Z</time></trkpt><trkpt lat="45.3181417" lon="7.642185"><ele>318.0</ele><time>2026-04-06T14:48:23.823Z</time></trkpt><trkpt lat="45.3180683" lon="7.64204"><ele>318.0</ele><time>2026-04-06T14:48:25.822Z</time></trkpt><trkpt lat="45.3180033" lon="7.6418883"><ele>318.0</ele><time>2026-04-06T14:48:27.821Z</time></trkpt><trkpt lat="45.3179683" lon="7.6418117"><ele>317.8</ele><time>2026-04-06T14:48:28.823Z</time></trkpt><trkpt lat="45.317935" lon="7.6417333"><ele>317.6</ele><time>2026-04-06T14:48:29.821Z</time></trkpt><trkpt lat="45.31788" lon="7.6415767"><ele>317.4</ele><time>2026-04-06T14:48:31.828Z</time></trkpt><trkpt lat="45.3178317" lon="7.64142"><ele>317.2</ele><time>2026-04-06T14:48:33.827Z</time></trkpt><trkpt lat="45.3177817" lon="7.6412683"><ele>317.0</ele><time>2026-04-06T14:48:35.821Z</time></trkpt><trkpt lat="45.3177333" lon="7.641115"><ele>317.0</ele><time>2026-04-06T14:48:37.83Z</time></trkpt><trkpt lat="45.31768" lon="7.6409633"><ele>317.0</ele><time>2026-04-06T14:48:39.82Z</time></trkpt><trkpt lat="45.317625" lon="7.6408083"><ele>317.0</ele><time>2026-04-06T14:48:41.822Z</time></trkpt><trkpt lat="45.3175717" lon="7.64066"><ele>317.0</ele><time>2026-04-06T14:48:43.825Z</time></trkpt><trkpt lat="45.31751" lon="7.6405083"><ele>317.0</ele><time>2026-04-06T14:48:45.821Z</time></trkpt><trkpt lat="45.3174733" lon="7.6404333"><ele>317.0</ele><time>2026-04-06T14:48:46.823Z</time></trkpt><trkpt lat="45.3173833" lon="7.6403017"><ele>317.0</ele><time>2026-04-06T14:48:48.827Z</time></trkpt><trkpt lat="45.317335" lon="7.64024"><ele>317.0</ele><time>2026-04-06T14:48:49.822Z</time></trkpt><trkpt lat="45.3172767" lon="7.64019"><ele>317.0</ele><time>2026-04-06T14:48:50.82Z</time></trkpt><trkpt lat="45.3171733" lon="7.6401133"><ele>317.0</ele><time>2026-04-06T14:48:52.822Z</time></trkpt><trkpt lat="45.3170533" lon="7.640055"><ele>316.7142857142857</ele><time>2026-04-06T14:48:54.822Z</time></trkpt><trkpt lat="45.31699" lon="7.6400267"><ele>316.42857142857144</ele><time>2026-04-06T14:48:55.821Z</time></trkpt><trkpt lat="45.316925" lon="7.6399983"><ele>316.1428571428571</ele><time>2026-04-06T14:48:56.819Z</time></trkpt><trkpt lat="45.316865" lon="7.6399667"><ele>315.8571428571429</ele><time>2026-04-06T14:48:57.824Z</time></trkpt><trkpt lat="45.3168033" lon="7.639925"><ele>315.57142857142856</ele><time>2026-04-06T14:48:58.825Z</time></trkpt><trkpt lat="45.316745" lon="7.6398833"><ele>315.2857142857143</ele><time>2026-04-06T14:48:59.822Z</time></trkpt><trkpt lat="45.3166867" lon="7.6398417"><ele>315.0</ele><time>2026-04-06T14:49:00.822Z</time></trkpt><trkpt lat="45.316575" lon="7.6397667"><ele>315.0</ele><time>2026-04-06T14:49:02.821Z</time></trkpt><trkpt lat="45.3164567" lon="7.6397017"><ele>315.0</ele><time>2026-04-06T14:49:04.822Z</time></trkpt><trkpt lat="45.3163967" lon="7.6396667"><ele>315.0</ele><time>2026-04-06T14:49:05.822Z</time></trkpt><trkpt lat="45.3163383" lon="7.63963"><ele>315.0</ele><time>2026-04-06T14:49:06.821Z</time></trkpt><trkpt lat="45.31628" lon="7.6395917"><ele>315.0</ele><time>2026-04-06T14:49:07.821Z</time></trkpt><trkpt lat="45.3162217" lon="7.6395517"><ele>315.0</ele><time>2026-04-06T14:49:08.823Z</time></trkpt><trkpt lat="45.3161617" lon="7.639515"><ele>315.0</ele><time>2026-04-06T14:49:09.824Z</time></trkpt><trkpt lat="45.3161033" lon="7.6394783"><ele>315.0</ele><time>2026-04-06T14:49:10.825Z</time></trkpt><trkpt lat="45.3159867" lon="7.6394217"><ele>315.0</ele><time>2026-04-06T14:49:12.822Z</time></trkpt><trkpt lat="45.3158683" lon="7.639405"><ele>315.0</ele><time>2026-04-06T14:49:14.824Z</time></trkpt><trkpt lat="45.315755" lon="7.6394733"><ele>315.0</ele><time>2026-04-06T14:49:16.818Z</time></trkpt><trkpt lat="45.3156617" lon="7.6395833"><ele>314.0</ele><time>2026-04-06T14:49:18.821Z</time></trkpt><trkpt lat="45.3155733" lon="7.6396917"><ele>313.0</ele><time>2026-04-06T14:49:20.822Z</time></trkpt><trkpt lat="45.3154867" lon="7.6397983"><ele>312.0</ele><time>2026-04-06T14:49:22.824Z</time></trkpt><trkpt lat="45.3154017" lon="7.6399017"><ele>311.0</ele><time>2026-04-06T14:49:24.823Z</time></trkpt><trkpt lat="45.3153167" lon="7.640005"><ele>311.0</ele><time>2026-04-06T14:49:26.823Z</time></trkpt><trkpt lat="45.3152267" lon="7.64011"><ele>311.0</ele><time>2026-04-06T14:49:28.82Z</time></trkpt><trkpt lat="45.3151317" lon="7.64022"><ele>311.0</ele><time>2026-04-06T14:49:30.823Z</time></trkpt><trkpt lat="45.315035" lon="7.64033"><ele>311.0</ele><time>2026-04-06T14:49:32.825Z</time></trkpt><trkpt lat="45.3149383" lon="7.6404417"><ele>311.0</ele><time>2026-04-06T14:49:34.822Z</time></trkpt><trkpt lat="45.3148367" lon="7.64055"><ele>311.0</ele><time>2026-04-06T14:49:36.822Z</time></trkpt><trkpt lat="45.314785" lon="7.6406033"><ele>311.0</ele><time>2026-04-06T14:49:37.827Z</time></trkpt><trkpt lat="45.314685" lon="7.6407133"><ele>311.0</ele><time>2026-04-06T14:49:39.825Z</time></trkpt><trkpt lat="45.3146333" lon="7.6407717"><ele>311.0</ele><time>2026-04-06T14:49:40.824Z</time></trkpt><trkpt lat="45.3145383" lon="7.6408717"><ele>311.0</ele><time>2026-04-06T14:49:42.823Z</time></trkpt><trkpt lat="45.314435" lon="7.6409617"><ele>311.0</ele><time>2026-04-06T14:49:44.824Z</time></trkpt><trkpt lat="45.31433" lon="7.64105"><ele>311.0</ele><time>2026-04-06T14:49:46.82Z</time></trkpt><trkpt lat="45.314225" lon="7.6411283"><ele>311.0</ele><time>2026-04-06T14:49:48.823Z</time></trkpt><trkpt lat="45.3141183" lon="7.6412067"><ele>310.40000000000003</ele><time>2026-04-06T14:49:50.822Z</time></trkpt><trkpt lat="45.314" lon="7.641245"><ele>309.8</ele><time>2026-04-06T14:49:52.822Z</time></trkpt><trkpt lat="45.3139367" lon="7.6412433"><ele>309.20000000000005</ele><time>2026-04-06T14:49:53.822Z</time></trkpt><trkpt lat="45.31382" lon="7.6412233"><ele>308.6</ele><time>2026-04-06T14:49:55.824Z</time></trkpt><trkpt lat="45.3137017" lon="7.641205"><ele>308.0</ele><time>2026-04-06T14:49:57.823Z</time></trkpt><trkpt lat="45.3135817" lon="7.6411967"><ele>307.75</ele><time>2026-04-06T14:49:59.822Z</time></trkpt><trkpt lat="45.3134633" lon="7.64118"><ele>307.5</ele><time>2026-04-06T14:50:01.822Z</time></trkpt><trkpt lat="45.3133433" lon="7.6411617"><ele>307.25</ele><time>2026-04-06T14:50:03.818Z</time></trkpt><trkpt lat="45.3132233" lon="7.64116"><ele>307.0</ele><time>2026-04-06T14:50:05.822Z</time></trkpt><trkpt lat="45.3131033" lon="7.6411567"><ele>306.25</ele><time>2026-04-06T14:50:07.822Z</time></trkpt><trkpt lat="45.3129817" lon="7.6411517"><ele>305.5</ele><time>2026-04-06T14:50:09.825Z</time></trkpt><trkpt lat="45.3128583" lon="7.6411417"><ele>304.75</ele><time>2026-04-06T14:50:11.82Z</time></trkpt><trkpt lat="45.312735" lon="7.64115"><ele>304.0</ele><time>2026-04-06T14:50:13.821Z</time></trkpt><trkpt lat="45.3126167" lon="7.6411767"><ele>304.0</ele><time>2026-04-06T14:50:15.823Z</time></trkpt><trkpt lat="45.3125" lon="7.64123"><ele>304.0</ele><time>2026-04-06T14:50:17.822Z</time></trkpt><trkpt lat="45.312385" lon="7.641285"><ele>304.0</ele><time>2026-04-06T14:50:19.823Z</time></trkpt><trkpt lat="45.3122767" lon="7.6413467"><ele>304.0</ele><time>2026-04-06T14:50:21.822Z</time></trkpt><trkpt lat="45.3121583" lon="7.6414017"><ele>304.8</ele><time>2026-04-06T14:50:23.818Z</time></trkpt><trkpt lat="45.312095" lon="7.6414217"><ele>305.59999999999997</ele><time>2026-04-06T14:50:24.818Z</time></trkpt><trkpt lat="45.3119717" lon="7.641425"><ele>306.4</ele><time>2026-04-06T14:50:26.822Z</time></trkpt><trkpt lat="45.311855" lon="7.6414017"><ele>307.2</ele><time>2026-04-06T14:50:28.822Z</time></trkpt><trkpt lat="45.3117367" lon="7.6413717"><ele>308.0</ele><time>2026-04-06T14:50:30.825Z</time></trkpt><trkpt lat="45.3116183" lon="7.64134"><ele>308.0</ele><time>2026-04-06T14:50:32.824Z</time></trkpt><trkpt lat="45.3114967" lon="7.641315"><ele>308.0</ele><time>2026-04-06T14:50:34.823Z</time></trkpt><trkpt lat="45.3114333" lon="7.641305"><ele>308.0</ele><time>2026-04-06T14:50:35.821Z</time></trkpt><trkpt lat="45.3113217" lon="7.6412783"><ele>308.0</ele><time>2026-04-06T14:50:37.824Z</time></trkpt><trkpt lat="45.311215" lon="7.6412583"><ele>308.0</ele><time>2026-04-06T14:50:39.827Z</time></trkpt><trkpt lat="45.3111067" lon="7.6412417"><ele>308.5</ele><time>2026-04-06T14:50:41.822Z</time></trkpt><trkpt lat="45.310995" lon="7.64122"><ele>309.0</ele><time>2026-04-06T14:50:43.82Z</time></trkpt><trkpt lat="45.310885" lon="7.6412"><ele>309.5</ele><time>2026-04-06T14:50:45.82Z</time></trkpt><trkpt lat="45.31077" lon="7.6411933"><ele>310.0</ele><time>2026-04-06T14:50:47.82Z</time></trkpt><trkpt lat="45.310645" lon="7.6412"><ele>310.0</ele><time>2026-04-06T14:50:49.822Z</time></trkpt><trkpt lat="45.3105767" lon="7.64121"><ele>310.0</ele><time>2026-04-06T14:50:50.821Z</time></trkpt><trkpt lat="45.31051" lon="7.6412117"><ele>310.0</ele><time>2026-04-06T14:50:51.822Z</time></trkpt><trkpt lat="45.31039" lon="7.6412133"><ele>310.0</ele><time>2026-04-06T14:50:53.82Z</time></trkpt><trkpt lat="45.31027" lon="7.6412283"><ele>310.0</ele><time>2026-04-06T14:50:55.818Z</time></trkpt><trkpt lat="45.3101583" lon="7.641245"><ele>309.8</ele><time>2026-04-06T14:50:57.824Z</time></trkpt><trkpt lat="45.310055" lon="7.6412467"><ele>309.6</ele><time>2026-04-06T14:50:59.826Z</time></trkpt><trkpt lat="45.3099517" lon="7.6412467"><ele>309.4</ele><time>2026-04-06T14:51:01.818Z</time></trkpt><trkpt lat="45.3098483" lon="7.6412417"><ele>309.2</ele><time>2026-04-06T14:51:03.824Z</time></trkpt><trkpt lat="45.309745" lon="7.6412433"><ele>309.0</ele><time>2026-04-06T14:51:05.821Z</time></trkpt><trkpt lat="45.30965" lon="7.64124"><ele>308.4</ele><time>2026-04-06T14:51:07.826Z</time></trkpt><trkpt lat="45.30955" lon="7.6412333"><ele>307.79999999999995</ele><time>2026-04-06T14:51:09.821Z</time></trkpt><trkpt lat="45.3094483" lon="7.641235"><ele>307.20000000000005</ele><time>2026-04-06T14:51:11.821Z</time></trkpt><trkpt lat="45.30936" lon="7.641295"><ele>306.6</ele><time>2026-04-06T14:51:13.825Z</time></trkpt><trkpt lat="45.3093033" lon="7.6414167"><ele>306.0</ele><time>2026-04-06T14:51:15.828Z</time></trkpt><trkpt lat="45.3092467" lon="7.64154"><ele>306.0</ele><time>2026-04-06T14:51:17.826Z</time></trkpt><trkpt lat="45.3091883" lon="7.6416617"><ele>306.0</ele><time>2026-04-06T14:51:19.823Z</time></trkpt><trkpt lat="45.3091267" lon="7.64178"><ele>306.0</ele><time>2026-04-06T14:51:21.825Z</time></trkpt><trkpt lat="45.3090633" lon="7.6419067"><ele>306.0</ele><time>2026-04-06T14:51:23.822Z</time></trkpt><trkpt lat="45.30899" lon="7.6420383"><ele>306.0</ele><time>2026-04-06T14:51:25.823Z</time></trkpt><trkpt lat="45.3089267" lon="7.6421767"><ele>305.5</ele><time>2026-04-06T14:51:27.818Z</time></trkpt><trkpt lat="45.308865" lon="7.642305"><ele>305.0</ele><time>2026-04-06T14:51:29.821Z</time></trkpt><trkpt lat="45.3088017" lon="7.6424317"><ele>304.5</ele><time>2026-04-06T14:51:31.817Z</time></trkpt><trkpt lat="45.3087183" lon="7.6425633"><ele>304.0</ele><time>2026-04-06T14:51:33.818Z</time></trkpt><trkpt lat="45.30864" lon="7.6426917"><ele>303.8</ele><time>2026-04-06T14:51:35.819Z</time></trkpt><trkpt lat="45.308555" lon="7.6428117"><ele>303.59999999999997</ele><time>2026-04-06T14:51:37.824Z</time></trkpt><trkpt lat="45.3084767" lon="7.6429133"><ele>303.4</ele><time>2026-04-06T14:51:39.825Z</time></trkpt><trkpt lat="45.3083933" lon="7.6429833"><ele>303.2</ele><time>2026-04-06T14:51:41.824Z</time></trkpt><trkpt lat="45.308295" lon="7.6430483"><ele>303.0</ele><time>2026-04-06T14:51:43.82Z</time></trkpt><trkpt lat="45.3081883" lon="7.643105"><ele>303.0</ele><time>2026-04-06T14:51:45.822Z</time></trkpt><trkpt lat="45.3080733" lon="7.6431567"><ele>303.0</ele><time>2026-04-06T14:51:47.821Z</time></trkpt><trkpt lat="45.30796" lon="7.6432167"><ele>303.0</ele><time>2026-04-06T14:51:49.822Z</time></trkpt><trkpt lat="45.3078583" lon="7.643295"><ele>303.0</ele><time>2026-04-06T14:51:51.824Z</time></trkpt><trkpt lat="45.3077633" lon="7.643385"><ele>303.0</ele><time>2026-04-06T14:51:53.817Z</time></trkpt><trkpt lat="45.307675" lon="7.643485"><ele>303.0</ele><time>2026-04-06T14:51:55.823Z</time></trkpt><trkpt lat="45.30759" lon="7.6435933"><ele>303.0</ele><time>2026-04-06T14:51:57.824Z</time></trkpt><trkpt lat="45.307505" lon="7.6437083"><ele>303.0</ele><time>2026-04-06T14:51:59.823Z</time></trkpt><trkpt lat="45.307425" lon="7.64382"><ele>302.6</ele><time>2026-04-06T14:52:01.821Z</time></trkpt><trkpt lat="45.3073467" lon="7.6439333"><ele>302.20000000000005</ele><time>2026-04-06T14:52:03.818Z</time></trkpt><trkpt lat="45.3072833" lon="7.6440917"><ele>301.8</ele><time>2026-04-06T14:52:05.823Z</time></trkpt><trkpt lat="45.307265" lon="7.6441833"><ele>301.40000000000003</ele><time>2026-04-06T14:52:06.818Z</time></trkpt><trkpt lat="45.30725" lon="7.6442817"><ele>301.0</ele><time>2026-04-06T14:52:07.818Z</time></trkpt><trkpt lat="45.30723" lon="7.6444417"><ele>300.8</ele><time>2026-04-06T14:52:09.819Z</time></trkpt><trkpt lat="45.3072017" lon="7.6445917"><ele>300.6</ele><time>2026-04-06T14:52:11.823Z</time></trkpt><trkpt lat="45.3071683" lon="7.6447233"><ele>300.4</ele><time>2026-04-06T14:52:13.818Z</time></trkpt><trkpt lat="45.307135" lon="7.644855"><ele>300.2</ele><time>2026-04-06T14:52:15.818Z</time></trkpt><trkpt lat="45.3070983" lon="7.6449933"><ele>300.0</ele><time>2026-04-06T14:52:17.831Z</time></trkpt><trkpt lat="45.3070567" lon="7.6451433"><ele>300.0</ele><time>2026-04-06T14:52:19.823Z</time></trkpt><trkpt lat="45.3070183" lon="7.6452983"><ele>300.0</ele><time>2026-04-06T14:52:21.824Z</time></trkpt><trkpt lat="45.3069667" lon="7.6454467"><ele>300.0</ele><time>2026-04-06T14:52:23.825Z</time></trkpt><trkpt lat="45.3068883" lon="7.6455567"><ele>300.0</ele><time>2026-04-06T14:52:25.818Z</time></trkpt><trkpt lat="45.3068033" lon="7.64567"><ele>300.0</ele><time>2026-04-06T14:52:27.822Z</time></trkpt><trkpt lat="45.3067367" lon="7.6458133"><ele>300.0</ele><time>2026-04-06T14:52:29.822Z</time></trkpt><trkpt lat="45.3066883" lon="7.6459567"><ele>300.0</ele><time>2026-04-06T14:52:31.818Z</time></trkpt><trkpt lat="45.306635" lon="7.6461033"><ele>300.0</ele><time>2026-04-06T14:52:33.82Z</time></trkpt><trkpt lat="45.306585" lon="7.646245"><ele>299.5</ele><time>2026-04-06T14:52:35.819Z</time></trkpt><trkpt lat="45.3065383" lon="7.6463867"><ele>299.0</ele><time>2026-04-06T14:52:37.821Z</time></trkpt><trkpt lat="45.306505" lon="7.6465383"><ele>298.5</ele><time>2026-04-06T14:52:39.822Z</time></trkpt><trkpt lat="45.3064683" lon="7.6466967"><ele>298.0</ele><time>2026-04-06T14:52:41.824Z</time></trkpt><trkpt lat="45.30642" lon="7.6468433"><ele>298.25</ele><time>2026-04-06T14:52:43.821Z</time></trkpt><trkpt lat="45.3063683" lon="7.6469967"><ele>298.5</ele><time>2026-04-06T14:52:45.825Z</time></trkpt><trkpt lat="45.3063267" lon="7.6471483"><ele>298.75</ele><time>2026-04-06T14:52:47.822Z</time></trkpt><trkpt lat="45.3062883" lon="7.647315"><ele>299.0</ele><time>2026-04-06T14:52:49.825Z</time></trkpt><trkpt lat="45.3062433" lon="7.6474683"><ele>299.0</ele><time>2026-04-06T14:52:51.825Z</time></trkpt><trkpt lat="45.30619" lon="7.6476183"><ele>299.0</ele><time>2026-04-06T14:52:53.823Z</time></trkpt><trkpt lat="45.30614" lon="7.6477733"><ele>299.0</ele><time>2026-04-06T14:52:55.825Z</time></trkpt><trkpt lat="45.3061033" lon="7.6479183"><ele>299.0</ele><time>2026-04-06T14:52:57.825Z</time></trkpt><trkpt lat="45.306065" lon="7.6480617"><ele>299.25</ele><time>2026-04-06T14:52:59.824Z</time></trkpt><trkpt lat="45.30602" lon="7.6482067"><ele>299.5</ele><time>2026-04-06T14:53:01.822Z</time></trkpt><trkpt lat="45.305965" lon="7.6483517"><ele>299.75</ele><time>2026-04-06T14:53:03.824Z</time></trkpt><trkpt lat="45.305915" lon="7.64851"><ele>300.0</ele><time>2026-04-06T14:53:05.823Z</time></trkpt><trkpt lat="45.3058683" lon="7.6486617"><ele>299.25</ele><time>2026-04-06T14:53:07.82Z</time></trkpt><trkpt lat="45.3058183" lon="7.64881"><ele>298.5</ele><time>2026-04-06T14:53:09.824Z</time></trkpt><trkpt lat="45.3057733" lon="7.6489617"><ele>297.75</ele><time>2026-04-06T14:53:11.821Z</time></trkpt><trkpt lat="45.3057267" lon="7.6491033"><ele>297.0</ele><time>2026-04-06T14:53:13.82Z</time></trkpt><trkpt lat="45.3056783" lon="7.64925"><ele>297.0</ele><time>2026-04-06T14:53:15.82Z</time></trkpt><trkpt lat="45.30563" lon="7.6494017"><ele>297.0</ele><time>2026-04-06T14:53:17.827Z</time></trkpt><trkpt lat="45.3055817" lon="7.649555"><ele>297.0</ele><time>2026-04-06T14:53:19.824Z</time></trkpt><trkpt lat="45.3055367" lon="7.6497017"><ele>297.0</ele><time>2026-04-06T14:53:21.82Z</time></trkpt><trkpt lat="45.3054983" lon="7.64985"><ele>296.5</ele><time>2026-04-06T14:53:23.822Z</time></trkpt><trkpt lat="45.3054517" lon="7.649995"><ele>296.0</ele><time>2026-04-06T14:53:25.825Z</time></trkpt><trkpt lat="45.3054033" lon="7.650145"><ele>295.5</ele><time>2026-04-06T14:53:27.821Z</time></trkpt><trkpt lat="45.3053633" lon="7.6502967"><ele>295.0</ele><time>2026-04-06T14:53:29.825Z</time></trkpt><trkpt lat="45.3053183" lon="7.6504467"><ele>295.0</ele><time>2026-04-06T14:53:31.827Z</time></trkpt><trkpt lat="45.3052667" lon="7.65059"><ele>295.0</ele><time>2026-04-06T14:53:33.822Z</time></trkpt><trkpt lat="45.3052117" lon="7.6507383"><ele>295.0</ele><time>2026-04-06T14:53:35.824Z</time></trkpt><trkpt lat="45.3051617" lon="7.6508817"><ele>295.0</ele><time>2026-04-06T14:53:37.822Z</time></trkpt><trkpt lat="45.305115" lon="7.65103"><ele>294.8</ele><time>2026-04-06T14:53:39.824Z</time></trkpt><trkpt lat="45.3050683" lon="7.65117"><ele>294.6</ele><time>2026-04-06T14:53:41.822Z</time></trkpt><trkpt lat="45.3050183" lon="7.6513033"><ele>294.4</ele><time>2026-04-06T14:53:43.824Z</time></trkpt><trkpt lat="45.30498" lon="7.6514367"><ele>294.2</ele><time>2026-04-06T14:53:45.827Z</time></trkpt><trkpt lat="45.304945" lon="7.6515783"><ele>294.0</ele><time>2026-04-06T14:53:47.819Z</time></trkpt><trkpt lat="45.3049" lon="7.65172"><ele>294.0</ele><time>2026-04-06T14:53:49.82Z</time></trkpt><trkpt lat="45.304865" lon="7.651795"><ele>294.0</ele><time>2026-04-06T14:53:50.823Z</time></trkpt><trkpt lat="45.3048167" lon="7.6519333"><ele>294.0</ele><time>2026-04-06T14:53:52.822Z</time></trkpt><trkpt lat="45.3047883" lon="7.652015"><ele>294.0</ele><time>2026-04-06T14:53:53.826Z</time></trkpt><trkpt lat="45.30476" lon="7.6520967"><ele>294.0</ele><time>2026-04-06T14:53:54.821Z</time></trkpt><trkpt lat="45.3047183" lon="7.6522533"><ele>294.0</ele><time>2026-04-06T14:53:56.825Z</time></trkpt><trkpt lat="45.3046583" lon="7.6524"><ele>293.59999999999997</ele><time>2026-04-06T14:53:58.824Z</time></trkpt><trkpt lat="45.3046017" lon="7.6525617"><ele>293.2</ele><time>2026-04-06T14:54:00.82Z</time></trkpt><trkpt lat="45.3045467" lon="7.6527233"><ele>292.79999999999995</ele><time>2026-04-06T14:54:02.822Z</time></trkpt><trkpt lat="45.30452" lon="7.6528067"><ele>292.4</ele><time>2026-04-06T14:54:03.827Z</time></trkpt><trkpt lat="45.3044717" lon="7.6529717"><ele>292.0</ele><time>2026-04-06T14:54:05.824Z</time></trkpt><trkpt lat="45.30442" lon="7.6531333"><ele>292.0</ele><time>2026-04-06T14:54:07.824Z</time></trkpt><trkpt lat="45.3043833" lon="7.6532733"><ele>292.0</ele><time>2026-04-06T14:54:09.821Z</time></trkpt><trkpt lat="45.3043467" lon="7.6534233"><ele>292.0</ele><time>2026-04-06T14:54:11.82Z</time></trkpt><trkpt lat="45.3043017" lon="7.65358"><ele>292.0</ele><time>2026-04-06T14:54:13.825Z</time></trkpt><trkpt lat="45.3042817" lon="7.653665"><ele>292.0</ele><time>2026-04-06T14:54:14.82Z</time></trkpt><trkpt lat="45.3042583" lon="7.65375"><ele>292.0</ele><time>2026-04-06T14:54:15.822Z</time></trkpt><trkpt lat="45.3042183" lon="7.6539"><ele>292.0</ele><time>2026-04-06T14:54:17.819Z</time></trkpt><trkpt lat="45.3041733" lon="7.6540483"><ele>292.0</ele><time>2026-04-06T14:54:19.824Z</time></trkpt><trkpt lat="45.3041317" lon="7.654195"><ele>292.0</ele><time>2026-04-06T14:54:21.822Z</time></trkpt><trkpt lat="45.304095" lon="7.6543533"><ele>292.0</ele><time>2026-04-06T14:54:23.82Z</time></trkpt><trkpt lat="45.3040567" lon="7.6545117"><ele>292.0</ele><time>2026-04-06T14:54:25.823Z</time></trkpt><trkpt lat="45.3040283" lon="7.6545933"><ele>292.0</ele><time>2026-04-06T14:54:26.824Z</time></trkpt><trkpt lat="45.304005" lon="7.65468"><ele>292.0</ele><time>2026-04-06T14:54:27.819Z</time></trkpt><trkpt lat="45.30398" lon="7.6547633"><ele>292.0</ele><time>2026-04-06T14:54:28.825Z</time></trkpt><trkpt lat="45.30395" lon="7.6548433"><ele>292.0</ele><time>2026-04-06T14:54:29.824Z</time></trkpt><trkpt lat="45.30392" lon="7.654925"><ele>292.0</ele><time>2026-04-06T14:54:30.825Z</time></trkpt><trkpt lat="45.30389" lon="7.6550133"><ele>292.0</ele><time>2026-04-06T14:54:31.825Z</time></trkpt><trkpt lat="45.3038617" lon="7.6551067"><ele>292.0</ele><time>2026-04-06T14:54:32.825Z</time></trkpt><trkpt lat="45.303815" lon="7.655265"><ele>292.0</ele><time>2026-04-06T14:54:34.82Z</time></trkpt><trkpt lat="45.3037683" lon="7.6554117"><ele>292.0</ele><time>2026-04-06T14:54:36.82Z</time></trkpt><trkpt lat="45.3036917" lon="7.6554683"><ele>292.0</ele><time>2026-04-06T14:54:38.819Z</time></trkpt><trkpt lat="45.3035983" lon="7.6554567"><ele>292.0</ele><time>2026-04-06T14:54:40.819Z</time></trkpt><trkpt lat="45.3034867" lon="7.6554233"><ele>292.0</ele><time>2026-04-06T14:54:42.822Z</time></trkpt><trkpt lat="45.3034233" lon="7.655405"><ele>292.0</ele><time>2026-04-06T14:54:43.824Z</time></trkpt><trkpt lat="45.3033067" lon="7.65536"><ele>292.0</ele><time>2026-04-06T14:54:45.818Z</time></trkpt><trkpt lat="45.3032017" lon="7.6553117"><ele>292.0</ele><time>2026-04-06T14:54:47.825Z</time></trkpt><trkpt lat="45.3031033" lon="7.6552633"><ele>291.0</ele><time>2026-04-06T14:54:49.826Z</time></trkpt><trkpt lat="45.3030067" lon="7.65521"><ele>290.0</ele><time>2026-04-06T14:54:51.822Z</time></trkpt><trkpt lat="45.3029017" lon="7.6551517"><ele>289.0</ele><time>2026-04-06T14:54:53.829Z</time></trkpt><trkpt lat="45.3027933" lon="7.65508"><ele>288.0</ele><time>2026-04-06T14:54:55.82Z</time></trkpt><trkpt lat="45.3026867" lon="7.654995"><ele>288.0</ele><time>2026-04-06T14:54:57.818Z</time></trkpt><trkpt lat="45.3025917" lon="7.65492"><ele>288.0</ele><time>2026-04-06T14:54:59.821Z</time></trkpt><trkpt lat="45.3025083" lon="7.6548333"><ele>288.0</ele><time>2026-04-06T14:55:01.819Z</time></trkpt><trkpt lat="45.30242" lon="7.6547533"><ele>288.0</ele><time>2026-04-06T14:55:03.825Z</time></trkpt><trkpt lat="45.3023333" lon="7.6546567"><ele>288.0</ele><time>2026-04-06T14:55:05.82Z</time></trkpt><trkpt lat="45.3022467" lon="7.6545583"><ele>288.0</ele><time>2026-04-06T14:55:07.823Z</time></trkpt><trkpt lat="45.3021583" lon="7.6544467"><ele>288.0</ele><time>2026-04-06T14:55:09.819Z</time></trkpt><trkpt lat="45.3020817" lon="7.6543383"><ele>288.0</ele><time>2026-04-06T14:55:11.819Z</time></trkpt><trkpt lat="45.30201" lon="7.6542383"><ele>288.0</ele><time>2026-04-06T14:55:13.825Z</time></trkpt><trkpt lat="45.30194" lon="7.6541367"><ele>288.0</ele><time>2026-04-06T14:55:15.821Z</time></trkpt><trkpt lat="45.3018567" lon="7.654035"><ele>288.0</ele><time>2026-04-06T14:55:17.821Z</time></trkpt><trkpt lat="45.3017617" lon="7.6539133"><ele>288.0</ele><time>2026-04-06T14:55:19.822Z</time></trkpt><trkpt lat="45.3017083" lon="7.6538583"><ele>288.0</ele><time>2026-04-06T14:55:20.822Z</time></trkpt><trkpt lat="45.3016567" lon="7.653805"><ele>288.0</ele><time>2026-04-06T14:55:21.822Z</time></trkpt><trkpt lat="45.301555" lon="7.6537117"><ele>288.0</ele><time>2026-04-06T14:55:23.818Z</time></trkpt><trkpt lat="45.3014717" lon="7.6536233"><ele>288.3333333333333</ele><time>2026-04-06T14:55:25.824Z</time></trkpt><trkpt lat="45.3013867" lon="7.6535267"><ele>288.6666666666667</ele><time>2026-04-06T14:55:27.828Z</time></trkpt><trkpt lat="45.3013317" lon="7.6534783"><ele>289.0</ele><time>2026-04-06T14:55:28.824Z</time></trkpt><trkpt lat="45.3012683" lon="7.6534383"><ele>289.33333333333337</ele><time>2026-04-06T14:55:29.822Z</time></trkpt><trkpt lat="45.3012067" lon="7.6534117"><ele>289.6666666666667</ele><time>2026-04-06T14:55:30.827Z</time></trkpt><trkpt lat="45.3010817" lon="7.6533867"><ele>290.0</ele><time>2026-04-06T14:55:32.824Z</time></trkpt><trkpt lat="45.3009667" lon="7.6533733"><ele>290.0</ele><time>2026-04-06T14:55:34.822Z</time></trkpt><trkpt lat="45.3009017" lon="7.65337"><ele>290.0</ele><time>2026-04-06T14:55:35.822Z</time></trkpt><trkpt lat="45.3008383" lon="7.6533783"><ele>290.0</ele><time>2026-04-06T14:55:36.823Z</time></trkpt><trkpt lat="45.3007217" lon="7.6534233"><ele>290.0</ele><time>2026-04-06T14:55:38.819Z</time></trkpt><trkpt lat="45.300605" lon="7.6534883"><ele>290.0</ele><time>2026-04-06T14:55:40.82Z</time></trkpt><trkpt lat="45.300505" lon="7.653575"><ele>289.6</ele><time>2026-04-06T14:55:42.82Z</time></trkpt><trkpt lat="45.30041" lon="7.6536583"><ele>289.2</ele><time>2026-04-06T14:55:44.826Z</time></trkpt><trkpt lat="45.30031" lon="7.65372"><ele>288.8</ele><time>2026-04-06T14:55:46.823Z</time></trkpt><trkpt lat="45.3002033" lon="7.6537417"><ele>288.4</ele><time>2026-04-06T14:55:48.82Z</time></trkpt><trkpt lat="45.300095" lon="7.6537317"><ele>288.0</ele><time>2026-04-06T14:55:50.824Z</time></trkpt><trkpt lat="45.2999767" lon="7.6537167"><ele>288.0</ele><time>2026-04-06T14:55:52.822Z</time></trkpt><trkpt lat="45.2998617" lon="7.653705"><ele>288.0</ele><time>2026-04-06T14:55:54.823Z</time></trkpt><trkpt lat="45.29974" lon="7.653705"><ele>288.0</ele><time>2026-04-06T14:55:56.82Z</time></trkpt><trkpt lat="45.2996267" lon="7.6537117"><ele>288.0</ele><time>2026-04-06T14:55:58.819Z</time></trkpt><trkpt lat="45.29951" lon="7.6537183"><ele>287.75</ele><time>2026-04-06T14:56:00.82Z</time></trkpt><trkpt lat="45.2993967" lon="7.6537267"><ele>287.5</ele><time>2026-04-06T14:56:02.824Z</time></trkpt><trkpt lat="45.2992833" lon="7.6537067"><ele>287.25</ele><time>2026-04-06T14:56:04.827Z</time></trkpt><trkpt lat="45.2991783" lon="7.653655"><ele>287.0</ele><time>2026-04-06T14:56:06.824Z</time></trkpt><trkpt lat="45.2990683" lon="7.653585"><ele>286.5</ele><time>2026-04-06T14:56:08.821Z</time></trkpt><trkpt lat="45.2989683" lon="7.6534833"><ele>286.0</ele><time>2026-04-06T14:56:10.825Z</time></trkpt><trkpt lat="45.2988683" lon="7.6533867"><ele>285.5</ele><time>2026-04-06T14:56:12.819Z</time></trkpt><trkpt lat="45.2987767" lon="7.6532783"><ele>285.0</ele><time>2026-04-06T14:56:14.826Z</time></trkpt><trkpt lat="45.2986767" lon="7.65317"><ele>285.0</ele><time>2026-04-06T14:56:16.818Z</time></trkpt><trkpt lat="45.298625" lon="7.6531183"><ele>285.0</ele><time>2026-04-06T14:56:17.822Z</time></trkpt><trkpt lat="45.2985167" lon="7.6530317"><ele>285.0</ele><time>2026-04-06T14:56:19.821Z</time></trkpt><trkpt lat="45.2984083" lon="7.6529717"><ele>285.0</ele><time>2026-04-06T14:56:21.825Z</time></trkpt><trkpt lat="45.2983067" lon="7.652925"><ele>285.0</ele><time>2026-04-06T14:56:23.819Z</time></trkpt><trkpt lat="45.2981983" lon="7.652895"><ele>285.0</ele><time>2026-04-06T14:56:25.819Z</time></trkpt><trkpt lat="45.298095" lon="7.652865"><ele>285.0</ele><time>2026-04-06T14:56:27.823Z</time></trkpt><trkpt lat="45.2979967" lon="7.652825"><ele>285.0</ele><time>2026-04-06T14:56:29.823Z</time></trkpt><trkpt lat="45.2978883" lon="7.652785"><ele>285.0</ele><time>2026-04-06T14:56:31.822Z</time></trkpt><trkpt lat="45.2977817" lon="7.652735"><ele>285.0</ele><time>2026-04-06T14:56:33.829Z</time></trkpt><trkpt lat="45.2976733" lon="7.652685"><ele>286.5</ele><time>2026-04-06T14:56:35.822Z</time></trkpt><trkpt lat="45.29756" lon="7.6526417"><ele>288.0</ele><time>2026-04-06T14:56:37.824Z</time></trkpt><trkpt lat="45.2974517" lon="7.652595"><ele>289.5</ele><time>2026-04-06T14:56:39.826Z</time></trkpt><trkpt lat="45.2973417" lon="7.6525583"><ele>291.0</ele><time>2026-04-06T14:56:41.827Z</time></trkpt><trkpt lat="45.29723" lon="7.65252"><ele>291.0</ele><time>2026-04-06T14:56:43.83Z</time></trkpt><trkpt lat="45.2971283" lon="7.6524667"><ele>291.0</ele><time>2026-04-06T14:56:45.821Z</time></trkpt><trkpt lat="45.2970183" lon="7.6524183"><ele>291.0</ele><time>2026-04-06T14:56:47.82Z</time></trkpt><trkpt lat="45.2969133" lon="7.6523667"><ele>291.0</ele><time>2026-04-06T14:56:49.827Z</time></trkpt><trkpt lat="45.2968017" lon="7.6523117"><ele>291.0</ele><time>2026-04-06T14:56:51.824Z</time></trkpt><trkpt lat="45.2967417" lon="7.6522833"><ele>291.0</ele><time>2026-04-06T14:56:52.823Z</time></trkpt><trkpt lat="45.2966217" lon="7.652235"><ele>291.0</ele><time>2026-04-06T14:56:54.825Z</time></trkpt><trkpt lat="45.2965183" lon="7.6521967"><ele>291.0</ele><time>2026-04-06T14:56:56.824Z</time></trkpt><trkpt lat="45.2964217" lon="7.6521717"><ele>291.0</ele><time>2026-04-06T14:56:58.823Z</time></trkpt><trkpt lat="45.29632" lon="7.652145"><ele>291.0</ele><time>2026-04-06T14:57:00.819Z</time></trkpt><trkpt lat="45.2962033" lon="7.6521083"><ele>291.0</ele><time>2026-04-06T14:57:02.818Z</time></trkpt><trkpt lat="45.2960817" lon="7.6520617"><ele>291.0</ele><time>2026-04-06T14:57:04.823Z</time></trkpt><trkpt lat="45.29602" lon="7.6520417"><ele>291.0</ele><time>2026-04-06T14:57:05.825Z</time></trkpt><trkpt lat="45.2959033" lon="7.6520083"><ele>291.0</ele><time>2026-04-06T14:57:07.829Z</time></trkpt><trkpt lat="45.29579" lon="7.6519867"><ele>291.0</ele><time>2026-04-06T14:57:09.821Z</time></trkpt><trkpt lat="45.29568" lon="7.65197"><ele>291.0</ele><time>2026-04-06T14:57:11.822Z</time></trkpt><trkpt lat="45.2955667" lon="7.6519533"><ele>291.0</ele><time>2026-04-06T14:57:13.828Z</time></trkpt><trkpt lat="45.2954567" lon="7.65197"><ele>291.0</ele><time>2026-04-06T14:57:15.83Z</time></trkpt><trkpt lat="45.295345" lon="7.6520017"><ele>291.0</ele><time>2026-04-06T14:57:17.822Z</time></trkpt><trkpt lat="45.2952417" lon="7.6520383"><ele>290.25</ele><time>2026-04-06T14:57:19.821Z</time></trkpt><trkpt lat="45.295135" lon="7.6520867"><ele>289.5</ele><time>2026-04-06T14:57:21.823Z</time></trkpt><trkpt lat="45.2950217" lon="7.6521517"><ele>288.75</ele><time>2026-04-06T14:57:23.82Z</time></trkpt><trkpt lat="45.2949117" lon="7.652215"><ele>288.0</ele><time>2026-04-06T14:57:25.822Z</time></trkpt><trkpt lat="45.29481" lon="7.6522733"><ele>288.0</ele><time>2026-04-06T14:57:27.818Z</time></trkpt><trkpt lat="45.2947033" lon="7.6523417"><ele>288.0</ele><time>2026-04-06T14:57:29.819Z</time></trkpt><trkpt lat="45.2946" lon="7.6524083"><ele>288.0</ele><time>2026-04-06T14:57:31.822Z</time></trkpt><trkpt lat="45.294495" lon="7.6524733"><ele>288.0</ele><time>2026-04-06T14:57:33.819Z</time></trkpt><trkpt lat="45.2943883" lon="7.652545"><ele>288.0</ele><time>2026-04-06T14:57:35.821Z</time></trkpt><trkpt lat="45.2942817" lon="7.6526133"><ele>288.0</ele><time>2026-04-06T14:57:37.822Z</time></trkpt><trkpt lat="45.2941733" lon="7.6526833"><ele>288.0</ele><time>2026-04-06T14:57:39.822Z</time></trkpt><trkpt lat="45.2940633" lon="7.65275"><ele>288.0</ele><time>2026-04-06T14:57:41.822Z</time></trkpt><trkpt lat="45.2939533" lon="7.652815"><ele>287.75</ele><time>2026-04-06T14:57:43.821Z</time></trkpt><trkpt lat="45.2938467" lon="7.652885"><ele>287.5</ele><time>2026-04-06T14:57:45.822Z</time></trkpt><trkpt lat="45.2937367" lon="7.6529467"><ele>287.25</ele><time>2026-04-06T14:57:47.826Z</time></trkpt><trkpt lat="45.293625" lon="7.6530217"><ele>287.0</ele><time>2026-04-06T14:57:49.821Z</time></trkpt><trkpt lat="45.29352" lon="7.6530917"><ele>287.0</ele><time>2026-04-06T14:57:51.818Z</time></trkpt><trkpt lat="45.29341" lon="7.65316"><ele>287.0</ele><time>2026-04-06T14:57:53.818Z</time></trkpt><trkpt lat="45.2933" lon="7.6532233"><ele>287.0</ele><time>2026-04-06T14:57:55.821Z</time></trkpt><trkpt lat="45.2931883" lon="7.6532867"><ele>287.0</ele><time>2026-04-06T14:57:57.818Z</time></trkpt><trkpt lat="45.2930767" lon="7.6533517"><ele>287.0</ele><time>2026-04-06T14:57:59.823Z</time></trkpt><trkpt lat="45.2929617" lon="7.65342"><ele>287.0</ele><time>2026-04-06T14:58:01.821Z</time></trkpt><trkpt lat="45.292855" lon="7.653475"><ele>287.0</ele><time>2026-04-06T14:58:03.821Z</time></trkpt><trkpt lat="45.292795" lon="7.6535083"><ele>287.0</ele><time>2026-04-06T14:58:04.82Z</time></trkpt><trkpt lat="45.29268" lon="7.6535717"><ele>287.0</ele><time>2026-04-06T14:58:06.822Z</time></trkpt><trkpt lat="45.2925667" lon="7.653625"><ele>287.0</ele><time>2026-04-06T14:58:08.818Z</time></trkpt><trkpt lat="45.292505" lon="7.6536583"><ele>287.0</ele><time>2026-04-06T14:58:09.819Z</time></trkpt><trkpt lat="45.2923867" lon="7.6537217"><ele>287.0</ele><time>2026-04-06T14:58:11.825Z</time></trkpt><trkpt lat="45.2922717" lon="7.6537717"><ele>287.0</ele><time>2026-04-06T14:58:13.819Z</time></trkpt><trkpt lat="45.2921567" lon="7.6538133"><ele>287.0</ele><time>2026-04-06T14:58:15.818Z</time></trkpt><trkpt lat="45.29204" lon="7.653855"><ele>287.75</ele><time>2026-04-06T14:58:17.826Z</time></trkpt><trkpt lat="45.29192" lon="7.6539033"><ele>288.5</ele><time>2026-04-06T14:58:19.823Z</time></trkpt><trkpt lat="45.291805" lon="7.6539483"><ele>289.25</ele><time>2026-04-06T14:58:21.833Z</time></trkpt><trkpt lat="45.2916917" lon="7.6539917"><ele>290.0</ele><time>2026-04-06T14:58:23.819Z</time></trkpt><trkpt lat="45.2915767" lon="7.6540283"><ele>290.0</ele><time>2026-04-06T14:58:25.821Z</time></trkpt><trkpt lat="45.2914617" lon="7.6540733"><ele>290.0</ele><time>2026-04-06T14:58:27.819Z</time></trkpt><trkpt lat="45.291345" lon="7.6541133"><ele>290.0</ele><time>2026-04-06T14:58:29.818Z</time></trkpt><trkpt lat="45.2912333" lon="7.6541433"><ele>290.0</ele><time>2026-04-06T14:58:31.827Z</time></trkpt><trkpt lat="45.291125" lon="7.6541533"><ele>289.33333333333337</ele><time>2026-04-06T14:58:33.823Z</time></trkpt><trkpt lat="45.2910133" lon="7.654165"><ele>288.6666666666667</ele><time>2026-04-06T14:58:35.828Z</time></trkpt><trkpt lat="45.2909183" lon="7.654165"><ele>288.0</ele><time>2026-04-06T14:58:37.819Z</time></trkpt><trkpt lat="45.2908267" lon="7.65417"><ele>287.3333333333333</ele><time>2026-04-06T14:58:39.822Z</time></trkpt><trkpt lat="45.2907483" lon="7.65416"><ele>286.66666666666663</ele><time>2026-04-06T14:58:41.818Z</time></trkpt><trkpt lat="45.290685" lon="7.6541883"><ele>286.0</ele><time>2026-04-06T14:58:43.828Z</time></trkpt><trkpt lat="45.2906417" lon="7.654285"><ele>286.0</ele><time>2026-04-06T14:58:45.82Z</time></trkpt><trkpt lat="45.29063" lon="7.6544"><ele>286.0</ele><time>2026-04-06T14:58:47.819Z</time></trkpt><trkpt lat="45.29063" lon="7.6545267"><ele>286.0</ele><time>2026-04-06T14:58:49.824Z</time></trkpt><trkpt lat="45.2906283" lon="7.6546717"><ele>286.0</ele><time>2026-04-06T14:58:51.823Z</time></trkpt><trkpt lat="45.2906267" lon="7.6548283"><ele>286.0</ele><time>2026-04-06T14:58:53.824Z</time></trkpt><trkpt lat="45.2906283" lon="7.6549883"><ele>286.2</ele><time>2026-04-06T14:58:55.825Z</time></trkpt><trkpt lat="45.29062" lon="7.6551467"><ele>286.40000000000003</ele><time>2026-04-06T14:58:57.819Z</time></trkpt><trkpt lat="45.2906033" lon="7.6553067"><ele>286.6</ele><time>2026-04-06T14:58:59.822Z</time></trkpt><trkpt lat="45.2905733" lon="7.655455"><ele>286.8</ele><time>2026-04-06T14:59:01.824Z</time></trkpt><trkpt lat="45.29051" lon="7.6555867"><ele>287.0</ele><time>2026-04-06T14:59:03.821Z</time></trkpt><trkpt lat="45.2904267" lon="7.6556633"><ele>285.75</ele><time>2026-04-06T14:59:05.823Z</time></trkpt><trkpt lat="45.29032" lon="7.655715"><ele>284.5</ele><time>2026-04-06T14:59:07.823Z</time></trkpt><trkpt lat="45.290195" lon="7.65574"><ele>283.25</ele><time>2026-04-06T14:59:09.82Z</time></trkpt><trkpt lat="45.290075" lon="7.655735"><ele>282.0</ele><time>2026-04-06T14:59:11.822Z</time></trkpt><trkpt lat="45.2899533" lon="7.6557217"><ele>282.0</ele><time>2026-04-06T14:59:13.82Z</time></trkpt><trkpt lat="45.289835" lon="7.655705"><ele>282.0</ele><time>2026-04-06T14:59:15.819Z</time></trkpt><trkpt lat="45.2897183" lon="7.655695"><ele>282.0</ele><time>2026-04-06T14:59:17.825Z</time></trkpt><trkpt lat="45.2896067" lon="7.6556867"><ele>282.0</ele><time>2026-04-06T14:59:19.82Z</time></trkpt><trkpt lat="45.2894983" lon="7.6556717"><ele>282.0</ele><time>2026-04-06T14:59:21.819Z</time></trkpt><trkpt lat="45.2893783" lon="7.6556533"><ele>282.0</ele><time>2026-04-06T14:59:23.824Z</time></trkpt><trkpt lat="45.28926" lon="7.6556333"><ele>282.0</ele><time>2026-04-06T14:59:25.824Z</time></trkpt><trkpt lat="45.28914" lon="7.65562"><ele>282.0</ele><time>2026-04-06T14:59:27.826Z</time></trkpt><trkpt lat="45.2890233" lon="7.655595"><ele>282.0</ele><time>2026-04-06T14:59:29.818Z</time></trkpt><trkpt lat="45.2888983" lon="7.6555717"><ele>282.0</ele><time>2026-04-06T14:59:31.828Z</time></trkpt><trkpt lat="45.2887767" lon="7.6555533"><ele>282.0</ele><time>2026-04-06T14:59:33.825Z</time></trkpt><trkpt lat="45.288655" lon="7.6555433"><ele>282.0</ele><time>2026-04-06T14:59:35.821Z</time></trkpt><trkpt lat="45.2885367" lon="7.65552"><ele>282.0</ele><time>2026-04-06T14:59:37.826Z</time></trkpt><trkpt lat="45.2884167" lon="7.6554967"><ele>282.0</ele><time>2026-04-06T14:59:39.824Z</time></trkpt><trkpt lat="45.2882917" lon="7.6554733"><ele>282.0</ele><time>2026-04-06T14:59:41.824Z</time></trkpt><trkpt lat="45.2881767" lon="7.6554533"><ele>282.0</ele><time>2026-04-06T14:59:43.826Z</time></trkpt><trkpt lat="45.28806" lon="7.6554383"><ele>281.25</ele><time>2026-04-06T14:59:45.824Z</time></trkpt><trkpt lat="45.2879433" lon="7.6554267"><ele>280.5</ele><time>2026-04-06T14:59:47.821Z</time></trkpt><trkpt lat="45.287825" lon="7.6554067"><ele>279.75</ele><time>2026-04-06T14:59:49.821Z</time></trkpt><trkpt lat="45.2877083" lon="7.6553867"><ele>279.0</ele><time>2026-04-06T14:59:51.823Z</time></trkpt><trkpt lat="45.2875883" lon="7.655365"><ele>279.0</ele><time>2026-04-06T14:59:53.82Z</time></trkpt><trkpt lat="45.2874767" lon="7.65535"><ele>279.0</ele><time>2026-04-06T14:59:55.83Z</time></trkpt><trkpt lat="45.2873633" lon="7.6553283"><ele>279.0</ele><time>2026-04-06T14:59:57.825Z</time></trkpt><trkpt lat="45.2872467" lon="7.655305"><ele>279.0</ele><time>2026-04-06T14:59:59.823Z</time></trkpt><trkpt lat="45.2871833" lon="7.6552967"><ele>279.0</ele><time>2026-04-06T15:00:00.824Z</time></trkpt><trkpt lat="45.2871167" lon="7.6552933"><ele>279.1428571428571</ele><time>2026-04-06T15:00:01.825Z</time></trkpt><trkpt lat="45.2870483" lon="7.6553017"><ele>279.2857142857143</ele><time>2026-04-06T15:00:02.822Z</time></trkpt><trkpt lat="45.28698" lon="7.6553267"><ele>279.42857142857144</ele><time>2026-04-06T15:00:03.821Z</time></trkpt><trkpt lat="45.2869183" lon="7.6553617"><ele>279.57142857142856</ele><time>2026-04-06T15:00:04.821Z</time></trkpt><trkpt lat="45.2868583" lon="7.65541"><ele>279.7142857142857</ele><time>2026-04-06T15:00:05.82Z</time></trkpt><trkpt lat="45.286805" lon="7.65547"><ele>279.85714285714283</ele><time>2026-04-06T15:00:06.825Z</time></trkpt><trkpt lat="45.2867583" lon="7.65554"><ele>280.0</ele><time>2026-04-06T15:00:07.824Z</time></trkpt><trkpt lat="45.2867217" lon="7.655615"><ele>280.0</ele><time>2026-04-06T15:00:08.827Z</time></trkpt><trkpt lat="45.2866933" lon="7.6556983"><ele>280.0</ele><time>2026-04-06T15:00:09.822Z</time></trkpt><trkpt lat="45.2866767" lon="7.655785"><ele>280.0</ele><time>2026-04-06T15:00:10.823Z</time></trkpt><trkpt lat="45.286665" lon="7.6558783"><ele>280.0</ele><time>2026-04-06T15:00:11.824Z</time></trkpt><trkpt lat="45.2866617" lon="7.65605"><ele>280.0</ele><time>2026-04-06T15:00:13.822Z</time></trkpt><trkpt lat="45.2866517" lon="7.6562167"><ele>280.0</ele><time>2026-04-06T15:00:15.822Z</time></trkpt><trkpt lat="45.2866433" lon="7.6563867"><ele>280.0</ele><time>2026-04-06T15:00:17.821Z</time></trkpt><trkpt lat="45.2866317" lon="7.6565483"><ele>280.0</ele><time>2026-04-06T15:00:19.822Z</time></trkpt><trkpt lat="45.2866167" lon="7.6567067"><ele>280.0</ele><time>2026-04-06T15:00:21.823Z</time></trkpt><trkpt lat="45.286605" lon="7.65686"><ele>280.0</ele><time>2026-04-06T15:00:23.825Z</time></trkpt><trkpt lat="45.2865933" lon="7.6570133"><ele>280.0</ele><time>2026-04-06T15:00:25.823Z</time></trkpt><trkpt lat="45.2865783" lon="7.65717"><ele>280.0</ele><time>2026-04-06T15:00:27.821Z</time></trkpt><trkpt lat="45.2865683" lon="7.65733"><ele>280.0</ele><time>2026-04-06T15:00:29.826Z</time></trkpt><trkpt lat="45.2865517" lon="7.6574883"><ele>280.0</ele><time>2026-04-06T15:00:31.824Z</time></trkpt><trkpt lat="45.28653" lon="7.65765"><ele>280.0</ele><time>2026-04-06T15:00:33.82Z</time></trkpt><trkpt lat="45.2864967" lon="7.6578083"><ele>279.8</ele><time>2026-04-06T15:00:35.823Z</time></trkpt><trkpt lat="45.2864567" lon="7.6579633"><ele>279.6</ele><time>2026-04-06T15:00:37.82Z</time></trkpt><trkpt lat="45.2864017" lon="7.6581133"><ele>279.4</ele><time>2026-04-06T15:00:39.823Z</time></trkpt><trkpt lat="45.2863683" lon="7.65819"><ele>279.2</ele><time>2026-04-06T15:00:40.825Z</time></trkpt><trkpt lat="45.2863033" lon="7.6583367"><ele>279.0</ele><time>2026-04-06T15:00:42.819Z</time></trkpt><trkpt lat="45.2862383" lon="7.6584817"><ele>278.0</ele><time>2026-04-06T15:00:44.821Z</time></trkpt><trkpt lat="45.2861667" lon="7.6586183"><ele>277.0</ele><time>2026-04-06T15:00:46.819Z</time></trkpt><trkpt lat="45.2860883" lon="7.6587467"><ele>276.0</ele><time>2026-04-06T15:00:48.821Z</time></trkpt><trkpt lat="45.2859967" lon="7.6588483"><ele>275.0</ele><time>2026-04-06T15:00:50.823Z</time></trkpt><trkpt lat="45.285895" lon="7.6589317"><ele>275.0</ele><time>2026-04-06T15:00:52.823Z</time></trkpt><trkpt lat="45.2857883" lon="7.6590083"><ele>275.0</ele><time>2026-04-06T15:00:54.826Z</time></trkpt><trkpt lat="45.2856733" lon="7.65908"><ele>275.0</ele><time>2026-04-06T15:00:56.822Z</time></trkpt><trkpt lat="45.2855583" lon="7.6591483"><ele>275.0</ele><time>2026-04-06T15:00:58.825Z</time></trkpt><trkpt lat="45.2854967" lon="7.6591767"><ele>275.0</ele><time>2026-04-06T15:00:59.826Z</time></trkpt><trkpt lat="45.28538" lon="7.659245"><ele>275.5</ele><time>2026-04-06T15:01:01.825Z</time></trkpt><trkpt lat="45.2852683" lon="7.6593133"><ele>276.0</ele><time>2026-04-06T15:01:03.82Z</time></trkpt><trkpt lat="45.2851567" lon="7.6593833"><ele>276.5</ele><time>2026-04-06T15:01:05.826Z</time></trkpt><trkpt lat="45.285045" lon="7.65945"><ele>277.0</ele><time>2026-04-06T15:01:07.825Z</time></trkpt><trkpt lat="45.284935" lon="7.6595183"><ele>276.0</ele><time>2026-04-06T15:01:09.823Z</time></trkpt><trkpt lat="45.2848267" lon="7.6595883"><ele>275.0</ele><time>2026-04-06T15:01:11.823Z</time></trkpt><trkpt lat="45.2847183" lon="7.6596583"><ele>274.0</ele><time>2026-04-06T15:01:13.82Z</time></trkpt><trkpt lat="45.2846117" lon="7.6597317"><ele>273.0</ele><time>2026-04-06T15:01:15.821Z</time></trkpt><trkpt lat="45.2845017" lon="7.6598"><ele>273.0</ele><time>2026-04-06T15:01:17.822Z</time></trkpt><trkpt lat="45.2843933" lon="7.6598683"><ele>273.0</ele><time>2026-04-06T15:01:19.825Z</time></trkpt><trkpt lat="45.2842833" lon="7.659935"><ele>273.0</ele><time>2026-04-06T15:01:21.822Z</time></trkpt><trkpt lat="45.2841717" lon="7.66"><ele>273.0</ele><time>2026-04-06T15:01:23.825Z</time></trkpt><trkpt lat="45.28406" lon="7.6600567"><ele>273.0</ele><time>2026-04-06T15:01:25.826Z</time></trkpt><trkpt lat="45.2839467" lon="7.660115"><ele>273.0</ele><time>2026-04-06T15:01:27.821Z</time></trkpt><trkpt lat="45.2838333" lon="7.66017"><ele>273.0</ele><time>2026-04-06T15:01:29.827Z</time></trkpt><trkpt lat="45.283715" lon="7.66023"><ele>273.0</ele><time>2026-04-06T15:01:31.827Z</time></trkpt><trkpt lat="45.2836017" lon="7.6602867"><ele>273.75</ele><time>2026-04-06T15:01:33.822Z</time></trkpt><trkpt lat="45.28349" lon="7.6603317"><ele>274.5</ele><time>2026-04-06T15:01:35.825Z</time></trkpt><trkpt lat="45.28338" lon="7.6603767"><ele>275.25</ele><time>2026-04-06T15:01:37.825Z</time></trkpt><trkpt lat="45.2832667" lon="7.6604217"><ele>276.0</ele><time>2026-04-06T15:01:39.817Z</time></trkpt><trkpt lat="45.2831617" lon="7.6605183"><ele>278.40000000000003</ele><time>2026-04-06T15:01:41.824Z</time></trkpt><trkpt lat="45.283065" lon="7.660625"><ele>280.8</ele><time>2026-04-06T15:01:43.823Z</time></trkpt><trkpt lat="45.2830167" lon="7.660685"><ele>283.20000000000005</ele><time>2026-04-06T15:01:44.82Z</time></trkpt><trkpt lat="45.282935" lon="7.6608183"><ele>285.6</ele><time>2026-04-06T15:01:46.82Z</time></trkpt><trkpt lat="45.2828717" lon="7.6609483"><ele>288.0</ele><time>2026-04-06T15:01:48.82Z</time></trkpt><trkpt lat="45.28282" lon="7.6610683"><ele>285.6666666666667</ele><time>2026-04-06T15:01:50.821Z</time></trkpt><trkpt lat="45.2828367" lon="7.661235"><ele>283.3333333333333</ele><time>2026-04-06T15:01:52.82Z</time></trkpt><trkpt lat="45.2829167" lon="7.6613533"><ele>281.0</ele><time>2026-04-06T15:01:54.825Z</time></trkpt><trkpt lat="45.2829633" lon="7.6614217"><ele>278.66666666666663</ele><time>2026-04-06T15:01:55.825Z</time></trkpt><trkpt lat="45.2830133" lon="7.6614883"><ele>276.3333333333333</ele><time>2026-04-06T15:01:56.82Z</time></trkpt><trkpt lat="45.2830617" lon="7.6615617"><ele>274.0</ele><time>2026-04-06T15:01:57.82Z</time></trkpt><trkpt lat="45.283145" lon="7.661695"><ele>270.0</ele><time>2026-04-06T15:01:59.824Z</time></trkpt><trkpt lat="45.2832067" lon="7.6618167"><ele>270.0</ele><time>2026-04-06T15:02:01.825Z</time></trkpt><trkpt lat="45.2832217" lon="7.6619417"><ele>270.0</ele><time>2026-04-06T15:02:03.822Z</time></trkpt><trkpt lat="45.283215" lon="7.6620683"><ele>269.0</ele><time>2026-04-06T15:02:05.82Z</time></trkpt><trkpt lat="45.2832033" lon="7.662175"><ele>269.0</ele><time>2026-04-06T15:02:08.824Z</time></trkpt></trkseg></trk></gpx>